# Wetter Temperatur Luftdruck Luftfeuchtigkeit Sichtweite Windgeschwindigkeit Windrichtung Zeit
1 Clear -6 1024 57 10000 0.98 1 20:25 02.04.2020
2 Clear -6 1024 57 10000 0.98 1 19:57 02.04.2020
3 Clear -7 1024 62 10000 1 0 19:39 02.04.2020
4 Clear -7 1024 62 10000 1 0 19:20 02.04.2020
5 Clear -7 1024 62 10000 1 0 18:55 02.04.2020
6 Clear -6 1024 57 10000 1 0 18:36 02.04.2020
7 Clear -4 1024 49 10000 1 0 18:18 02.04.2020
8 Clear -4 1024 49 10000 1 0 18:18 02.04.2020
9 Clear -4 1024 49 10000 1 0 17:42 02.04.2020
10 Clear -4 1024 49 10000 1 0 17:24 02.04.2020
11 Clear -3 1024 45 10000 3 160 16:58 02.04.2020
12 Clear -3 1024 45 10000 3 170 16:39 02.04.2020
13 Clear -3 1024 45 10000 3 170 16:21 02.04.2020
14 Clear -2 1023 46 10000 1 0 15:56 02.04.2020
15 Clear -2 1023 42 10000 1 0 15:38 02.04.2020
16 Clear -2 1023 42 10000 1 0 15:18 02.04.2020
17 Clear 2 1023 24 10000 1 0 14:56 02.04.2020
18 Clear 2 1023 24 10000 1 0 14:37 02.04.2020
19 Clear 5 1023 18 10000 1.94 324 14:18 02.04.2020
20 Clear 8 1022 13 10000 3 260 13:40 02.04.2020
21 Clear 8 1022 13 10000 3 260 13:21 02.04.2020
22 Clear 10 1022 13 10000 5 280 12:59 02.04.2020
23 Clear 11 1022 12 10000 5 270 12:41 02.04.2020
24 Clear 11 1022 12 10000 5 270 12:19 02.04.2020
25 Clear 12 1022 11 10000 6 280 11:57 02.04.2020
26 Clear 12 1023 11 10000 7 280 11:38 02.04.2020
27 Clear 12 1023 11 10000 7 280 11:19 02.04.2020
28 Clear 12 1023 11 10000 7 280 10:55 02.04.2020
29 Clear 12 1023 12 10000 6 280 10:37 02.04.2020
30 Clear 12 1023 12 10000 6 280 10:19 02.04.2020
31 Clear 13 1023 11 10000 7 270 09:58 02.04.2020
32 Clear 12 1024 11 10000 5 280 09:39 02.04.2020
33 Clear 12 1024 11 10000 5 280 09:19 02.04.2020
34 Clear 12 1024 13 10000 4 250 08:47 02.04.2020
35 Clear 11 1024 14 10000 3 260 08:27 02.04.2020
36 Clear 11 1025 14 10000 2 0 07:45 02.04.2020
37 Clear 11 1025 14 10000 2 0 07:21 02.04.2020
38 Clear 10 1025 16 10000 3 300 06:59 02.04.2020
39 Clear 9 1025 16 10000 2 0 06:22 02.04.2020
40 Clear 8 1026 19 10000 1 0 05:45 02.04.2020
41 Clear 4 1026 27 10000 1 0 04:46 02.04.2020
42 Clear -8 1026 78 10000 0.27 70 01:54 02.04.2020
43 Clear -9 1025 72 10000 1 0 00:54 02.04.2020
44 Clear -11 1025 78 10000 1 0 00:31 02.04.2020
45 Clear -9 1024 72 10000 1 0 23:59 01.04.2020
46 Clear -11 1024 78 10000 0.33 118 23:37 01.04.2020
47 Clear -11 1024 78 10000 0.33 118 23:18 01.04.2020
48 Clear -8 1024 72 10000 1 0 22:41 01.04.2020
49 Clear -8 1024 72 10000 1 0 22:22 01.04.2020
50 Clear -8 1024 67 10000 1 0 21:58 01.04.2020
51 Clear -8 1024 67 10000 1 0 21:58 01.04.2020
52 Clear -8 1024 67 10000 1 0 21:39 01.04.2020
53 Clear -8 1024 67 10000 1 0 21:19 01.04.2020
54 Clear -8 1024 67 10000 1 0 21:19 01.04.2020
55 Clear -6 1023 62 10000 1 0 20:55 01.04.2020
56 Clear -6 1023 62 10000 1 0 20:37 01.04.2020
57 Clear -6 1023 62 10000 1 0 20:18 01.04.2020
58 Clear -7 1023 67 10000 1 0 19:43 01.04.2020
59 Clear -7 1023 67 10000 1 0 19:22 01.04.2020
60 Clear -7 1023 67 10000 1 0 18:59 01.04.2020
61 Clear -5 1023 57 10000 1 0 18:41 01.04.2020
62 Clear -5 1023 57 10000 1 0 18:21 01.04.2020
63 Clear -5 1023 57 10000 1 0 17:56 01.04.2020
64 Clear -5 1023 57 10000 1 0 17:56 01.04.2020
65 Clear -5 1022 57 10000 1 0 17:37 01.04.2020
66 Clear -5 1022 57 10000 1 0 17:18 01.04.2020
67 Clear -3 1022 49 10000 3 160 16:54 01.04.2020
68 Clear -5 1022 57 10000 3 170 16:36 01.04.2020
69 Clear -5 1022 57 10000 3 170 16:18 01.04.2020
70 Clear -4 1022 49 10000 3 170 15:42 01.04.2020
71 Clear -4 1022 49 10000 2 160 15:22 01.04.2020
72 Clear -2 1021 39 10000 1.74 289 14:58 01.04.2020
73 Clear 0 1021 40 10000 2 0 14:39 01.04.2020
74 -273 0 0 0 0 0 14:20 01.04.2020
75 Clear 0 1021 40 10000 2 0 13:58 01.04.2020
76 Clear 6 1020 18 10000 2 350 13:38 01.04.2020
77 Clear 6 1020 18 10000 2 350 13:19 01.04.2020
78 Clear 8 1020 15 10000 5 310 12:56 01.04.2020
79 Clear 9 1020 14 10000 5 320 12:37 01.04.2020
80 Clear 9 1020 14 10000 5 320 12:18 01.04.2020
81 Clear 9 1020 14 10000 6 300 11:54 01.04.2020
82 Clear 9 1020 14 10000 5 300 11:36 01.04.2020
83 Clear 9 1020 14 10000 5 300 11:18 01.04.2020
84 Clear 9 1020 14 10000 6 330 10:38 01.04.2020
85 Clear 9 1020 14 10000 6 330 10:20 01.04.2020
86 Clear 9 1021 15 10000 6 280 09:57 01.04.2020
87 Clear 8 1021 16 10000 4 280 09:39 01.04.2020
88 Clear 8 1021 16 10000 4 280 09:19 01.04.2020
89 Clear 7 1022 16 10000 3 240 08:43 01.04.2020
90 Clear 7 1022 16 10000 3 240 08:18 01.04.2020
91 Clear 7 1022 16 10000 3 240 07:48 01.04.2020
92 Clear 6 1023 15 10000 3 230 07:22 01.04.2020
93 Clear 5 1023 18 10000 3 220 06:58 01.04.2020
94 Clear 4 1023 18 10000 2 0 06:27 01.04.2020
95 Clear 2 1024 19 10000 2 0 05:59 01.04.2020
96 Clear -1 1025 30 10000 1 0 04:36 01.04.2020
97 Clear -5 1025 45 10000 2.03 266 03:33 01.04.2020
98 Clear -7 1025 52 10000 1 0 02:57 01.04.2020
99 Clear -8 1025 57 10000 0.29 305 02:21 01.04.2020
100 Clear -10 1024 66 10000 0.24 312 01:40 01.04.2020
101 Clear -10 1024 66 10000 0.24 312 01:40 01.04.2020
102 Clear -10 1024 66 10000 0.24 312 01:22 01.04.2020
103 Clear -11 1024 61 10000 0.24 312 00:46 01.04.2020
104 Clear -11 1024 61 10000 0.24 312 00:21 01.04.2020
105 Clear -11 1024 61 10000 0.24 312 00:21 01.04.2020
106 Clear -12 1024 60 10000 1 0 23:48 31.03.2020
107 Clear -12 1024 60 10000 1 0 23:28 31.03.2020
108 Clear -10 1024 61 10000 0.51 240 22:59 31.03.2020
109 Clear -10 1024 61 10000 0.51 240 22:37 31.03.2020
110 Clear -10 1024 61 10000 0.51 240 22:19 31.03.2020
111 Clear -10 1024 61 10000 0.51 240 21:57 31.03.2020
112 Clear -10 1025 56 10000 1 0 21:39 31.03.2020
113 Clear -10 1025 56 10000 1 0 21:20 31.03.2020
114 Clear -10 1025 56 10000 1 0 21:20 31.03.2020
115 Clear -9 1025 52 10000 0.96 244 20:56 31.03.2020
116 Clear -9 1025 52 10000 0.96 244 20:37 31.03.2020
117 Clear -9 1025 52 10000 0.96 244 20:18 31.03.2020
118 Clear -8 1025 48 10000 1 0 19:42 31.03.2020
119 Clear -8 1025 48 10000 1 0 19:24 31.03.2020
120 Clear -8 1025 48 10000 1 0 18:59 31.03.2020
121 Clear -8 1025 52 10000 1 0 18:41 31.03.2020
122 Clear -8 1025 52 10000 1 0 18:19 31.03.2020
123 Clear -6 1025 44 10000 1 0 17:55 31.03.2020
124 Clear -6 1025 44 10000 1 0 17:37 31.03.2020
125 Clear -6 1025 44 10000 1 0 17:37 31.03.2020
126 Clear -6 1025 44 10000 1 0 17:19 31.03.2020
127 Clear -8 1026 48 10000 2 190 16:41 31.03.2020
128 Clear -8 1026 48 10000 2 190 16:20 31.03.2020
129 Clear -7 1026 44 10000 3 210 15:58 31.03.2020
130 Clear -7 1026 44 10000 3 210 15:40 31.03.2020
131 Clear -6 1026 41 10000 3 220 15:22 31.03.2020
132 Clear -4 1026 32 10000 3 230 14:58 31.03.2020
133 Clear -4 1026 32 10000 3 230 14:58 31.03.2020
134 Clear -4 1026 32 10000 3 230 14:40 31.03.2020
135 Clear -3 1025 30 10000 3 240 14:21 31.03.2020
136 Clear -1 1025 28 10000 3 260 13:43 31.03.2020
137 Clear -1 1025 28 10000 3 260 13:20 31.03.2020
138 Clear 1 1025 20 10000 4 280 12:59 31.03.2020
139 Clear 2 1025 17 10000 6 280 12:40 31.03.2020
140 Clear 2 1025 17 10000 6 280 12:19 31.03.2020
141 Clear 2 1025 17 10000 6 280 12:19 31.03.2020
142 Clear 2 1025 19 10000 6 280 11:41 31.03.2020
143 Clear 2 1025 19 10000 6 280 11:20 31.03.2020
144 Clear 2 1025 19 10000 6 280 10:59 31.03.2020
145 Clear 2 1026 22 10000 5 290 10:41 31.03.2020
146 Clear 2 1026 22 10000 5 290 10:22 31.03.2020
147 Clear 2 1026 17 10000 5 290 09:59 31.03.2020
148 Clear 2 1026 17 10000 5 290 09:41 31.03.2020
149 Clear 2 1027 19 10000 6 290 09:22 31.03.2020
150 Clouds 1 1027 19 10000 4 250 08:57 31.03.2020
151 Clouds 1 1027 20 10000 6 290 08:38 31.03.2020
152 Clouds 1 1027 20 10000 6 290 08:19 31.03.2020
153 Clouds 1 1027 20 10000 6 290 08:19 31.03.2020
154 Clouds 1 1028 22 10000 6 260 07:56 31.03.2020
155 Clouds 1 1028 22 10000 6 260 07:37 31.03.2020
156 Clouds 1 1028 22 10000 6 260 07:18 31.03.2020
157 Clouds 0 1028 40 10000 3 260 06:45 31.03.2020
158 Clouds -1 1029 33 10000 3 250 06:18 31.03.2020
159 Clouds -2 1029 39 10000 2 0 05:39 31.03.2020
160 Clear -6 1029 53 10000 3.57 285 03:34 31.03.2020
161 Clear -13 1028 78 10000 0.62 338 01:59 31.03.2020
162 Clear -14 1028 77 10000 2 170 01:40 31.03.2020
163 Clear -14 1028 77 10000 2 170 00:47 31.03.2020
164 Clear -14 1028 71 10000 2 160 00:25 31.03.2020
165 Clear -14 1027 77 10000 2 160 23:42 30.03.2020
166 Clear -14 1027 77 10000 3 170 23:20 30.03.2020
167 Clear -14 1026 71 10000 3 160 22:58 30.03.2020
168 Clear -14 1026 77 10000 1 0 22:39 30.03.2020
169 Clear -14 1026 77 10000 1 0 22:21 30.03.2020
170 Clear -13 1026 71 10000 1 0 21:58 30.03.2020
171 Clear -13 1026 71 10000 1 0 21:39 30.03.2020
172 Clear -13 1026 71 10000 1 0 21:21 30.03.2020
173 Clouds -12 1026 72 10000 1 0 20:59 30.03.2020
174 Clouds -12 1026 72 10000 1 0 20:39 30.03.2020
175 Clouds -12 1026 72 10000 1 0 20:20 30.03.2020
176 Clouds -12 1025 72 10000 2 0 19:57 30.03.2020
177 Clouds -12 1025 72 10000 2 0 19:39 30.03.2020
178 Clouds -12 1025 72 10000 2 0 19:20 30.03.2020
179 Clouds -8 1025 52 10000 1 0 18:44 30.03.2020
180 Clouds -8 1025 52 10000 1 0 18:26 30.03.2020
181 Clouds -8 1025 52 10000 1 0 17:58 30.03.2020
182 Clouds -8 1025 52 10000 1 0 17:58 30.03.2020
183 Clouds -8 1024 52 10000 3 310 17:40 30.03.2020
184 Clouds -8 1024 52 10000 3 310 17:22 30.03.2020
185 Clouds -5 1024 41 10000 4 340 16:59 30.03.2020
186 Clouds -4 1023 35 10000 4 350 16:40 30.03.2020
187 Clouds -4 1023 35 10000 4 350 16:21 30.03.2020
188 Clouds -3 1023 35 10000 6 350 15:56 30.03.2020
189 Clouds -3 1023 35 10000 6 350 15:56 30.03.2020
190 Clouds -3 1022 32 10000 6 350 15:38 30.03.2020
191 Clouds -3 1022 32 10000 6 350 15:20 30.03.2020
192 Clouds -3 1022 32 10000 6 350 14:56 30.03.2020
193 Clouds -2 1021 30 10000 8 350 14:37 30.03.2020
194 Clouds -2 1021 30 10000 8 350 14:18 30.03.2020
195 Clouds -2 1021 30 10000 8 350 14:18 30.03.2020
196 Clouds -2 1020 30 10000 8 350 13:56 30.03.2020
197 Clouds -2 1020 30 10000 8 350 13:37 30.03.2020
198 Clouds -2 1020 30 10000 8 350 13:19 30.03.2020
199 Clouds -1 1020 28 10000 8 350 12:44 30.03.2020
200 Clouds 0 1019 57 10000 8 340 12:21 30.03.2020
201 Clouds 1 1018 20 10000 8 350 11:58 30.03.2020
202 Clouds 1 1017 20 10000 7 340 11:40 30.03.2020
203 Clouds 1 1017 20 10000 7 340 11:21 30.03.2020
204 Clouds 2 1017 21 10000 9 350 10:55 30.03.2020
205 Clouds 1 1017 24 10000 8 350 10:36 30.03.2020
206 Clouds 1 1017 24 10000 8 350 10:18 30.03.2020
207 Clouds 2 1016 22 10000 9 340 09:40 30.03.2020
208 Clouds 2 1016 22 10000 9 340 09:19 30.03.2020
209 Clouds 2 1016 24 10000 9 340 08:54 30.03.2020
210 Clouds 2 1016 24 10000 9 340 08:36 30.03.2020
211 Clouds 2 1016 24 10000 9 340 08:18 30.03.2020
212 Clouds 3 1015 25 10000 7 350 07:41 30.03.2020
213 Clouds 3 1015 25 10000 7 350 07:20 30.03.2020
214 Clouds 2 1015 31 10000 6 350 06:42 30.03.2020
215 Clouds 2 1015 31 10000 6 350 06:23 30.03.2020
216 Clouds 0 1015 58 10000 6 350 05:39 30.03.2020
217 Clouds 0 1015 58 10000 3 30 04:29 30.03.2020
218 Clouds -1 1014 54 10000 3 30 03:54 30.03.2020
219 Clouds -3 1013 63 10000 5 340 02:44 30.03.2020
220 Clouds -3 1012 68 10000 2 0 01:55 30.03.2020
221 Clouds -3 1012 68 10000 4 350 00:57 30.03.2020
222 Clouds -3 1011 63 10000 2 0 00:27 30.03.2020
223 Clouds -2 1010 54 10000 2 0 23:55 29.03.2020
224 Clouds -2 1009 54 10000 4 360 23:36 29.03.2020
225 Clouds -2 1009 54 10000 4 360 23:18 29.03.2020
226 Clouds -2 1009 54 10000 5 10 22:40 29.03.2020
227 Clouds -2 1009 54 10000 5 10 22:20 29.03.2020
228 Clouds -1 1009 46 10000 6 30 21:59 29.03.2020
229 Clouds -1 1009 46 10000 6 30 21:38 29.03.2020
230 Clouds -1 1009 46 10000 6 30 21:20 29.03.2020
231 Clouds -1 1009 46 10000 6 30 20:55 29.03.2020
232 Clouds -1 1009 46 10000 6 30 20:55 29.03.2020
233 Clouds -1 1008 42 10000 4 360 20:37 29.03.2020
234 Clouds -1 1008 42 10000 4 360 20:18 29.03.2020
235 Clouds -1 1008 42 10000 4 360 19:56 29.03.2020
236 Clouds -7 1008 62 10000 1 0 19:38 29.03.2020
237 Clouds -7 1008 62 10000 1 0 19:19 29.03.2020
238 Clouds -7 1008 62 10000 1 0 18:55 29.03.2020
239 Clouds -7 1008 62 10000 1 0 18:55 29.03.2020
240 Clouds -5 1007 57 0 2 0 18:37 29.03.2020
241 Clouds -5 1007 57 0 2 0 18:18 29.03.2020
242 Clouds -5 1007 57 0 2 0 17:55 29.03.2020
243 Clouds -3 1006 49 10000 1 0 17:36 29.03.2020
244 Clouds -3 1006 49 10000 1 0 17:18 29.03.2020
245 Clouds -3 1006 45 10000 2 0 16:55 29.03.2020
246 Clouds -6 1005 53 10000 2.06 18 16:36 29.03.2020
247 Clouds -6 1005 53 10000 2.06 18 16:18 29.03.2020
248 Clouds -1 1005 33 10000 2 0 15:41 29.03.2020
249 Clouds -1 1005 33 10000 2 0 15:22 29.03.2020
250 Clear -1 1005 33 10000 2 0 15:22 29.03.2020
251 Clear -3 1005 45 10000 3 180 14:57 29.03.2020
252 Clear -3 1005 45 10000 3 180 14:39 29.03.2020
253 Clear -1 1004 36 10000 2 0 14:19 29.03.2020
254 Clear -1 1004 36 10000 2 0 13:56 29.03.2020
255 Clear 0 1004 51 10000 1 0 13:38 29.03.2020
256 Clear 5 1004 14 10000 2 280 13:19 29.03.2020
257 Clear 7 1004 12 10000 5 290 12:55 29.03.2020
258 Clear 7 1004 12 10000 5 290 12:37 29.03.2020
259 Clear 8 1004 11 10000 4 290 12:18 29.03.2020
260 Clear 9 1004 10 10000 6 270 11:40 29.03.2020
261 Clear 9 1004 10 10000 6 270 11:21 29.03.2020
262 Clear 8 1004 10 10000 5 280 10:59 29.03.2020
263 Clear 8 1004 10 10000 5 280 10:37 29.03.2020
264 Clear 8 1004 10 10000 5 280 10:18 29.03.2020
265 Clear 8 1004 10 10000 5 280 10:18 29.03.2020
266 Clear 8 1005 10 10000 6 280 09:40 29.03.2020
267 Clear 8 1005 10 10000 6 280 09:19 29.03.2020
268 Clear 8 1005 10 10000 6 280 08:53 29.03.2020
269 Clear 8 1005 10 10000 6 270 08:28 29.03.2020
270 Clear 8 1005 10 10000 6 270 08:28 29.03.2020
271 Clear 8 1006 11 10000 6 300 07:58 29.03.2020
272 Clear 8 1006 11 10000 6 300 07:58 29.03.2020
273 Clear 7 1006 13 10000 3 250 07:40 29.03.2020
274 Clear 7 1006 13 10000 3 250 07:20 29.03.2020
275 Clear 2 1008 27 10000 1.45 213 04:59 29.03.2020
276 Clear -2 1008 42 10000 1.45 213 03:55 29.03.2020
277 Clear -5 1008 53 10000 2 0 03:26 29.03.2020
278 Clouds -5 1008 49 10000 0.77 80 01:51 29.03.2020
279 Clouds -7 1008 67 10000 0.77 80 01:23 29.03.2020
280 Clouds -11 1007 78 10000 0.75 85 00:55 29.03.2020
281 Clouds -11 1007 78 10000 0.75 85 00:31 29.03.2020
282 Clouds -13 1007 78 10000 0.75 85 23:43 28.03.2020
283 Clouds -13 1007 78 10000 0.75 85 23:23 28.03.2020
284 Clouds -11 1007 72 10000 0.48 62 22:58 28.03.2020
285 Clouds -10 1007 61 10000 0.48 62 22:38 28.03.2020
286 Clouds -10 1007 61 10000 0.48 62 22:20 28.03.2020
287 Clouds -10 1007 66 10000 1 0 21:43 28.03.2020
288 Clouds -10 1007 66 10000 1 0 21:24 28.03.2020
289 Clouds -9 1007 61 10000 1 0 20:59 28.03.2020
290 Clouds -9 1007 61 10000 1 0 20:41 28.03.2020
291 Clouds -9 1007 61 10000 1 0 20:23 28.03.2020
292 Clouds -7 1007 48 10000 0.6 279 19:57 28.03.2020
293 Clouds -7 1007 48 10000 0.6 279 19:38 28.03.2020
294 Clouds -7 1007 48 10000 0.6 279 19:38 28.03.2020
295 Clouds -7 1007 48 10000 0.6 279 19:20 28.03.2020
296 Clouds -7 1007 48 10000 0.6 279 18:56 28.03.2020
297 Clouds -5 1008 49 10000 1 0 18:38 28.03.2020
298 Clouds -5 1008 49 10000 1 0 18:38 28.03.2020
299 Clouds -5 1008 49 10000 1 0 18:19 28.03.2020
300 Clouds -5 1008 49 10000 0.6 279 17:38 28.03.2020
301 Clear -3 1008 35 10000 1.36 266 17:20 28.03.2020
302 Clear -3 1008 35 10000 1.36 266 16:42 28.03.2020
303 Clear -3 1008 35 10000 1.36 266 16:20 28.03.2020
304 Clear -3 1007 32 10000 3 180 15:57 28.03.2020
305 Clear -4 1007 41 10000 3 160 15:39 28.03.2020
306 Clear -4 1007 41 10000 3 160 15:19 28.03.2020
307 Clear -5 1007 45 10000 1 0 14:43 28.03.2020
308 Clear -5 1007 45 10000 1 0 14:23 28.03.2020
309 Clear -3 1007 35 10000 2 180 13:59 28.03.2020
310 Clear -3 1007 35 10000 3 200 13:38 28.03.2020
311 Clear -3 1007 35 10000 3 200 13:19 28.03.2020
312 Clear 3 1006 12 10000 4 250 12:39 28.03.2020
313 Clear 3 1006 12 10000 4 250 12:21 28.03.2020
314 Clear 6 1006 9 10000 6 270 11:42 28.03.2020
315 Clear 7 1006 10 10000 6 260 11:21 28.03.2020
316 Clear 7 1006 10 10000 6 260 10:56 28.03.2020
317 Clear 7 1007 9 10000 6 260 10:37 28.03.2020
318 Clear 7 1007 9 10000 6 260 10:18 28.03.2020
319 Clear 7 1007 12 10000 7 220 09:41 28.03.2020
320 Clear 7 1007 12 10000 7 220 09:22 28.03.2020
321 Clear 6 1008 13 10000 7 220 08:45 28.03.2020
322 Clear 6 1008 13 10000 5 220 08:27 28.03.2020
323 Clear 6 1008 13 10000 5 220 07:59 28.03.2020
324 Clear 6 1009 13 10000 3 210 07:41 28.03.2020
325 Clear 5 1010 14 10000 4 240 06:55 28.03.2020
326 Clear 5 1010 14 10000 5 230 06:32 28.03.2020
327 Clear 4 1011 16 10000 3 200 05:39 28.03.2020
328 Clear 2 1012 24 10000 2.64 179 05:19 28.03.2020
329 Clear 0 1013 41 10000 1 0 04:39 28.03.2020
330 Clear -5 1014 53 10000 1 0 02:55 28.03.2020
331 Clear -9 1015 66 10000 1.38 137 01:48 28.03.2020
332 Clear -9 1015 66 10000 1.38 137 01:24 28.03.2020
333 Clear -13 1015 71 10000 1 0 00:52 28.03.2020
334 Clear -13 1015 71 10000 1 0 00:33 28.03.2020
335 Clear -15 1015 71 10000 1.38 137 23:45 27.03.2020
336 Clear -15 1015 71 10000 1.38 137 23:26 27.03.2020
337 Clear -15 1015 71 10000 1.38 137 23:26 27.03.2020
338 Clear -13 1015 71 10000 1.24 127 22:58 27.03.2020
339 Clear -14 1016 71 10000 1 0 22:39 27.03.2020
340 Clear -14 1016 71 10000 1 0 22:21 27.03.2020
341 Clear -11 1017 66 10000 1.24 127 21:59 27.03.2020
342 Clear -11 1017 66 10000 1.24 127 21:40 27.03.2020
343 Clear -11 1017 66 10000 1.24 127 21:22 27.03.2020
344 Clear -14 1017 77 10000 1.24 127 20:57 27.03.2020
345 Clear -14 1017 77 10000 1.24 127 20:39 27.03.2020
346 Clear -14 1017 77 10000 0.73 161 20:19 27.03.2020
347 Clear -14 1017 77 10000 0.73 161 20:19 27.03.2020
348 Clear -12 1018 72 10000 1 0 19:55 27.03.2020
349 Clear -12 1018 72 10000 1 0 19:55 27.03.2020
350 Clear -12 1018 72 10000 1 0 19:36 27.03.2020
351 Clear -12 1018 72 10000 1 0 19:18 27.03.2020
352 Clear -12 1018 72 10000 1 0 18:42 27.03.2020
353 Clear -12 1018 72 10000 1 0 18:22 27.03.2020
354 Clear -12 1018 72 10000 1 0 17:54 27.03.2020
355 Clear -8 1019 57 10000 0.52 160 17:36 27.03.2020
356 Clear -8 1019 57 10000 0.47 263 17:18 27.03.2020
357 Clear -7 1019 52 10000 0.47 263 16:41 27.03.2020
358 Clear -7 1019 52 10000 0.47 263 16:23 27.03.2020
359 Clear -7 1020 57 10000 1 0 15:43 27.03.2020
360 Clear -7 1020 57 10000 1 0 15:25 27.03.2020
361 Clear -7 1020 57 10000 1 0 14:56 27.03.2020
362 Clear -6 1020 53 10000 2 180 14:36 27.03.2020
363 Clear -6 1020 53 10000 2 180 14:18 27.03.2020
364 Clear -6 1020 48 10000 2 0 13:42 27.03.2020
365 Clear -6 1020 48 10000 2 0 13:21 27.03.2020
366 Clear -4 1020 38 10000 2 0 12:58 27.03.2020
367 Clear -2 1020 30 10000 4 270 12:39 27.03.2020
368 Clear -1 1020 28 10000 4 270 12:19 27.03.2020
369 Clear 0 1021 56 10000 5 280 11:42 27.03.2020
370 Clear 0 1021 56 10000 7 280 11:24 27.03.2020
371 Clear 0 1021 43 10000 7 280 10:55 27.03.2020
372 Clear 1 1021 20 10000 6 280 10:37 27.03.2020
373 Clear 1 1021 20 10000 6 280 10:19 27.03.2020
374 Clear 0 1022 43 10000 6 270 09:57 27.03.2020
375 Clear 0 1022 43 10000 6 270 09:38 27.03.2020
376 Clear 0 1022 43 10000 6 270 09:19 27.03.2020
377 Clear 0 1023 43 10000 6 290 08:56 27.03.2020
378 Clear 0 1023 43 10000 6 280 08:38 27.03.2020
379 Clear 0 1023 44 10000 6 280 08:20 27.03.2020
380 Clear 0 1024 44 10000 6 270 07:52 27.03.2020
381 Clear 0 1024 44 10000 6 270 07:25 27.03.2020
382 Clear -1 1024 26 10000 6 280 06:53 27.03.2020
383 Clear -1 1025 23 10000 6 290 06:35 27.03.2020
384 Clear -3 1026 27 10000 5 270 04:59 27.03.2020
385 Clear -10 1027 61 10000 4.63 278 02:36 27.03.2020
386 Clear -11 1027 66 10000 1 0 01:23 27.03.2020
387 Clear -16 1027 71 10000 2 160 00:50 27.03.2020
388 Clear -16 1027 71 10000 2 160 00:24 27.03.2020
389 Clear -16 1027 71 10000 2 190 23:44 26.03.2020
390 Clear -16 1026 71 10000 3 170 23:22 26.03.2020
391 Clear -16 1026 71 10000 3 170 22:59 26.03.2020
392 Clear -16 1026 71 10000 3 170 22:38 26.03.2020
393 Clear -16 1026 71 10000 3 170 22:19 26.03.2020
394 Clear -15 1026 71 10000 2 180 21:56 26.03.2020
395 Clear -15 1026 71 10000 2 180 21:37 26.03.2020
396 Clear -15 1026 71 10000 2 180 21:18 26.03.2020
397 Clear -16 1026 77 10000 1 0 20:56 26.03.2020
398 Clear -16 1026 77 10000 1 0 20:37 26.03.2020
399 Clear -16 1026 77 10000 1 0 20:19 26.03.2020
400 Clear -14 1026 71 10000 1 0 19:54 26.03.2020
401 Clear -14 1026 71 10000 1 0 19:36 26.03.2020
402 Clear -14 1026 71 10000 1 0 19:18 26.03.2020
403 Clear -13 1025 71 10000 1 0 18:41 26.03.2020
404 Clear -13 1025 71 10000 1 0 18:23 26.03.2020
405 Clear -10 1025 61 10000 2 330 17:55 26.03.2020
406 Clear -10 1025 61 10000 2 330 17:37 26.03.2020
407 Clear -10 1025 61 10000 2 330 17:18 26.03.2020
408 Clear -9 1025 52 10000 1 0 16:40 26.03.2020
409 Clear -9 1025 52 10000 1 0 16:21 26.03.2020
410 Clear -9 1025 52 10000 1 0 15:57 26.03.2020
411 Clear -9 1024 52 10000 1 0 15:39 26.03.2020
412 Clear -9 1024 52 10000 1 0 15:20 26.03.2020
413 Clear -8 1024 48 10000 2 0 14:55 26.03.2020
414 Clear -7 1023 37 10000 4 340 14:36 26.03.2020
415 Clouds -7 1023 37 10000 4 340 14:18 26.03.2020
416 Clouds -7 1023 44 10000 5 320 13:40 26.03.2020
417 Clouds -7 1023 44 10000 5 320 13:21 26.03.2020
418 Clouds -6 1022 37 10000 6 330 12:54 26.03.2020
419 Clouds -5 1022 29 10000 8 300 12:36 26.03.2020
420 Clouds -4 1022 27 10000 8 300 12:18 26.03.2020
421 Clouds -4 1022 27 10000 7 290 11:43 26.03.2020
422 Clouds -3 1022 25 10000 7 290 11:19 26.03.2020
423 Clouds -3 1022 21 10000 9 280 10:42 26.03.2020
424 Clouds -3 1022 21 10000 9 280 10:42 26.03.2020
425 Clouds -3 1022 21 10000 9 280 10:20 26.03.2020
426 Clear -4 1022 23 10000 8 270 09:55 26.03.2020
427 Clear -4 1022 23 10000 8 270 09:55 26.03.2020
428 Clear -4 1022 23 10000 8 270 09:37 26.03.2020
429 Clear -4 1022 23 10000 8 270 09:19 26.03.2020
430 Clear -4 1023 25 10000 7 290 08:42 26.03.2020
431 Clouds -4 1023 25 10000 8 300 08:24 26.03.2020
432 Clouds -4 1023 25 10000 8 300 07:57 26.03.2020
433 Clouds -5 1023 27 10000 8 280 07:38 26.03.2020
434 Clouds -5 1023 27 10000 8 280 07:19 26.03.2020
435 Clouds -6 1024 29 10000 7 290 06:33 26.03.2020
436 Clouds -6 1025 26 10000 7 290 05:48 26.03.2020
437 Clouds -9 1026 43 10000 7 290 03:46 26.03.2020
438 Clouds -10 1026 61 10000 5 280 02:58 26.03.2020
439 Clear -12 1026 60 10000 1 0 01:51 26.03.2020
440 Clear -13 1025 60 10000 2.55 281 01:18 26.03.2020
441 Clear -15 1025 65 10000 2.55 281 00:32 26.03.2020
442 Clear -17 1024 64 10000 1 0 23:44 25.03.2020
443 Clear -17 1024 64 10000 1 0 23:24 25.03.2020
444 Clouds -17 1024 70 10000 2.42 287 22:54 25.03.2020
445 Clouds -16 1024 65 10000 2.42 287 22:36 25.03.2020
446 Clouds -16 1024 65 10000 2.42 287 22:18 25.03.2020
447 Clouds -15 1023 60 10000 1 0 21:42 25.03.2020
448 Clouds -15 1023 60 10000 1 0 21:24 25.03.2020
449 Clouds -16 1023 65 10000 3 310 20:58 25.03.2020
450 Clouds -16 1023 65 10000 3 310 20:38 25.03.2020
451 Clouds -16 1023 65 10000 3 310 20:19 25.03.2020
452 Clouds -15 1023 65 10000 2 330 19:55 25.03.2020
453 Clouds -15 1023 65 10000 2 330 19:36 25.03.2020
454 Clouds -15 1023 65 10000 2 330 19:18 25.03.2020
455 Clouds -14 1023 65 10000 2 300 18:42 25.03.2020
456 Clouds -14 1022 65 10000 2 0 18:24 25.03.2020
457 Clouds -14 1022 65 10000 2 0 17:58 25.03.2020
458 Clouds -14 1022 65 10000 2 0 17:58 25.03.2020
459 Clouds -15 1022 71 10000 4 320 17:40 25.03.2020
460 Clouds -14 1022 60 10000 3 340 17:21 25.03.2020
461 Clouds -14 1022 60 10000 3 340 16:56 25.03.2020
462 Clouds -14 1021 65 10000 2 330 16:38 25.03.2020
463 Clouds -14 1021 65 10000 2 330 16:20 25.03.2020
464 Clouds -14 1021 65 10000 2 310 15:42 25.03.2020
465 Clouds -14 1021 65 10000 2 310 15:20 25.03.2020
466 Clouds -13 1021 60 10000 3 340 14:56 25.03.2020
467 Clouds -12 1020 51 10000 2 330 14:37 25.03.2020
468 Clear -12 1020 51 10000 2 330 14:19 25.03.2020
469 Clear -12 1020 51 10000 3 320 13:44 25.03.2020
470 Clear -12 1020 51 10000 3 320 13:22 25.03.2020
471 Clear -11 1019 47 10000 4 330 12:39 25.03.2020
472 Clear -10 1018 40 10000 5 340 12:20 25.03.2020
473 Clear -10 1018 40 10000 5 340 11:57 25.03.2020
474 Clear -10 1018 40 10000 5 340 11:39 25.03.2020
475 Clear -9 1018 33 10000 6 340 11:20 25.03.2020
476 Clear -9 1018 33 10000 6 340 10:57 25.03.2020
477 Clouds -9 1017 43 10000 7 340 10:39 25.03.2020
478 Clouds -9 1017 43 10000 7 340 10:18 25.03.2020
479 Clouds -8 1017 40 10000 8 360 09:43 25.03.2020
480 Clouds -8 1017 37 10000 8 330 09:25 25.03.2020
481 Clouds -9 1017 43 10000 8 350 08:58 25.03.2020
482 Clouds -9 1017 47 10000 8 320 08:39 25.03.2020
483 Clouds -9 1017 47 10000 8 320 08:20 25.03.2020
484 Clouds -9 1017 43 10000 9 330 07:44 25.03.2020
485 Clouds -9 1017 43 10000 9 330 07:24 25.03.2020
486 Clouds -9 1017 43 10000 8 320 06:57 25.03.2020
487 Clouds -9 1016 43 10000 9 320 06:37 25.03.2020
488 Clouds -9 1016 40 10000 9 340 06:19 25.03.2020
489 Clouds -9 1017 43 10000 8 330 05:42 25.03.2020
490 Clouds -10 1016 47 10000 9 330 04:41 25.03.2020
491 Clouds -10 1016 51 10000 9 340 03:53 25.03.2020
492 Clouds -11 1015 56 10000 9 340 03:29 25.03.2020
493 Clouds -12 1013 72 10000 10 330 01:39 25.03.2020
494 Clouds -12 1012 72 10000 9 320 00:50 25.03.2020
495 Clouds -12 1012 72 10000 9 320 00:26 25.03.2020
496 Clouds -12 1012 78 10000 7 320 23:54 24.03.2020
497 Clouds -11 1011 72 10000 5 340 23:28 24.03.2020
498 Clouds -11 1011 72 10000 7 340 22:58 24.03.2020
499 Snow -10 1009 72 10000 10 320 22:38 24.03.2020
500 Snow -10 1009 72 10000 10 320 22:20 24.03.2020
501 Clouds -9 1008 72 10000 7 320 21:58 24.03.2020
502 Clouds -9 1008 72 10000 7 320 21:39 24.03.2020
503 Clouds -9 1008 72 10000 7 320 21:18 24.03.2020
504 Clouds -8 1007 72 10000 7 330 20:57 24.03.2020
505 Clouds -8 1007 72 10000 7 330 20:39 24.03.2020
506 Clouds -8 1007 72 10000 7 330 20:21 24.03.2020
507 Clouds -8 1007 72 10000 7 330 19:46 24.03.2020
508 Clouds -7 1007 67 10000 8 330 19:20 24.03.2020
509 Clouds -7 1007 67 10000 8 330 18:56 24.03.2020
510 Clouds -6 1007 79 10000 7 310 18:37 24.03.2020
511 Clouds -6 1007 79 10000 7 310 18:19 24.03.2020
512 Clouds -6 1007 79 10000 7 310 17:56 24.03.2020
513 Clouds -5 1006 79 10000 5 300 17:37 24.03.2020
514 Clouds -5 1006 79 10000 5 300 17:19 24.03.2020
515 Clouds -5 1006 79 10000 5 300 16:54 24.03.2020
516 Clouds -5 1006 79 10000 4 300 16:36 24.03.2020
517 Clouds -5 1006 79 10000 4 300 16:36 24.03.2020
518 Clouds -5 1006 79 10000 4 300 16:18 24.03.2020
519 Clouds -3 1005 73 10000 7 340 15:42 24.03.2020
520 Clouds -3 1005 73 10000 7 340 15:23 24.03.2020
521 Clouds 0 1004 69 10000 5 340 14:44 24.03.2020
522 Clouds 0 1004 64 10000 5 340 14:22 24.03.2020
523 Clouds 1 1003 59 10000 5 340 13:58 24.03.2020
524 Clouds 3 1002 51 10000 6 350 13:40 24.03.2020
525 Clouds 3 1002 51 10000 6 350 13:21 24.03.2020
526 Clouds 5 1000 48 8000 4 360 12:42 24.03.2020
527 Clouds 5 1000 48 8000 4 360 12:24 24.03.2020
528 Clouds 8 997 36 1500 13 290 11:41 24.03.2020
529 Clouds 8 997 36 1500 13 290 11:21 24.03.2020
530 Clouds 12 996 18 10000 6 200 10:59 24.03.2020
531 Clouds 12 996 18 10000 3 240 10:40 24.03.2020
532 Clouds 12 996 18 10000 3 240 10:18 24.03.2020
533 Clouds 13 997 17 10000 7 260 09:46 24.03.2020
534 Clouds 13 997 17 10000 7 260 09:27 24.03.2020
535 Clouds 13 998 20 10000 6 240 08:57 24.03.2020
536 Clouds 12 998 22 10000 6 230 08:38 24.03.2020
537 Clouds 12 998 22 10000 6 230 08:19 24.03.2020
538 Clouds 12 999 25 10000 6 240 07:44 24.03.2020
539 Clouds 12 999 25 10000 6 240 07:22 24.03.2020
540 Clouds 12 999 25 10000 6 240 07:22 24.03.2020
541 Clouds 11 999 29 10000 5 220 06:42 24.03.2020
542 Clouds 11 1000 25 10000 4 210 06:21 24.03.2020
543 Clouds 10 1001 23 10000 3 180 04:52 24.03.2020
544 Clouds 3 1002 51 10000 1 0 03:32 24.03.2020
545 Clouds 2 1002 55 10000 2.23 142 02:44 24.03.2020
546 Clouds -1 1003 68 10000 1 0 00:57 24.03.2020
547 Clouds -1 1003 68 10000 1 0 00:28 24.03.2020
548 Clouds -2 1004 74 10000 1.44 106 23:59 23.03.2020
549 Clouds -2 1004 74 10000 1 0 23:38 23.03.2020
550 Clouds -1 1004 68 10000 1 0 23:19 23.03.2020
551 Clouds -1 1004 68 10000 1 0 22:45 23.03.2020
552 Clouds -3 1005 79 10000 3 160 22:23 23.03.2020
553 Clouds -3 1005 79 10000 3 160 21:55 23.03.2020
554 Clouds -1 1005 68 10000 1 0 21:37 23.03.2020
555 Clouds -1 1005 68 10000 1 0 21:19 23.03.2020
556 Clouds -1 1006 74 10000 2 0 20:55 23.03.2020
557 Clouds -1 1006 74 10000 2 0 20:36 23.03.2020
558 Clouds -1 1006 74 10000 2 0 20:18 23.03.2020
559 Clouds -1 1006 74 10000 2 0 20:18 23.03.2020
560 Clouds -1 1007 74 10000 2 120 19:41 23.03.2020
561 Clouds -1 1007 74 10000 2 120 19:22 23.03.2020
562 Clouds -1 1007 74 10000 2 120 18:56 23.03.2020
563 Clouds -1 1007 74 10000 1.39 85 18:38 23.03.2020
564 Clouds -1 1007 74 10000 1.39 85 18:18 23.03.2020
565 Clouds -1 1008 68 10000 1 0 17:41 23.03.2020
566 Clear -1 1008 68 10000 1 0 17:20 23.03.2020
567 Clear -1 1008 68 10000 1 0 16:55 23.03.2020
568 Clear -2 1008 74 10000 1 0 16:36 23.03.2020
569 Clear -2 1008 74 10000 1 0 16:18 23.03.2020
570 Clear 0 1008 56 10000 1.41 76 15:40 23.03.2020
571 Clear 0 1008 56 10000 1.41 76 15:19 23.03.2020
572 Clear 2 1008 51 10000 1 0 14:38 23.03.2020
573 Clouds 2 1008 51 10000 1 0 14:19 23.03.2020
574 Clouds 2 1008 51 10000 2 0 13:57 23.03.2020
575 Clouds 4 1008 41 10000 2 130 13:38 23.03.2020
576 Clouds 4 1008 41 10000 2 130 13:38 23.03.2020
577 Clouds 4 1008 41 10000 2 130 13:38 23.03.2020
578 Clouds 4 1008 41 10000 2 130 13:20 23.03.2020
579 Clouds 4 1008 51 10000 3 170 12:43 23.03.2020
580 Clouds 4 1008 51 10000 3 170 12:43 23.03.2020
581 Clouds 4 1008 51 10000 3 170 12:23 23.03.2020
582 Clouds 8 1008 33 10000 3 200 11:56 23.03.2020
583 Clouds 12 1008 20 10000 3 220 11:37 23.03.2020
584 Clouds 14 1008 14 10000 4 220 11:19 23.03.2020
585 Clouds 14 1008 14 10000 4 220 10:56 23.03.2020
586 Clouds 15 1008 12 10000 4 230 10:36 23.03.2020
587 Clouds 15 1008 12 10000 4 230 10:18 23.03.2020
588 Clouds 15 1008 10 10000 3 250 09:42 23.03.2020
589 Clouds 15 1008 10 10000 3 250 09:20 23.03.2020
590 Clouds 15 1009 12 10000 2 0 08:40 23.03.2020
591 Clouds 15 1009 12 10000 2 0 08:20 23.03.2020
592 Clouds 15 1010 12 10000 3 270 07:58 23.03.2020
593 Clouds 15 1010 12 10000 2 0 07:37 23.03.2020
594 Clouds 14 1011 15 10000 1 0 07:18 23.03.2020
595 Clouds 13 1011 16 10000 1 0 06:48 23.03.2020
596 Clouds 10 1012 19 10000 1 0 05:45 23.03.2020
597 Clear 7 1013 30 10000 1 0 04:41 23.03.2020
598 Clear 4 1014 41 10000 1 0 03:23 23.03.2020
599 Clear -3 1014 73 10000 1.85 101 01:50 23.03.2020
600 Clear -9 1014 85 10000 1.82 98 00:50 23.03.2020
601 Clear -9 1014 85 10000 1.82 98 00:31 23.03.2020
602 Clear -8 1014 85 10000 1.82 98 23:45 22.03.2020
603 Clear -8 1014 85 10000 1.82 98 23:25 22.03.2020
604 Clear -8 1015 85 10000 1.83 99 22:44 22.03.2020
605 Clear -8 1015 85 10000 1.83 99 22:22 22.03.2020
606 Clear -8 1015 85 10000 1 0 21:55 22.03.2020
607 Clear -8 1015 85 10000 1 0 21:36 22.03.2020
608 Clear -8 1015 85 10000 1 0 21:18 22.03.2020
609 Clear -7 1015 79 10000 1.83 99 20:45 22.03.2020
610 Clear -7 1015 79 10000 1.78 100 20:25 22.03.2020
611 Clear -5 1016 73 10000 1.63 97 19:58 22.03.2020
612 Clear -5 1016 73 10000 1.63 97 19:39 22.03.2020
613 Clear -5 1016 73 10000 1.63 97 19:20 22.03.2020
614 Clear -5 1016 73 10000 1.63 97 18:58 22.03.2020
615 Clear -6 1016 85 10000 1.63 97 18:40 22.03.2020
616 Clear -6 1016 85 10000 1.63 97 18:21 22.03.2020
617 Clear -6 1016 85 10000 1 0 17:57 22.03.2020
618 Clear -4 1016 73 10000 1.63 97 17:38 22.03.2020
619 Clear -4 1016 73 10000 1.45 86 17:20 22.03.2020
620 Clear -2 1016 68 10000 1.45 86 16:57 22.03.2020
621 Clear -2 1016 68 10000 1 0 16:39 22.03.2020
622 Clear -2 1016 68 10000 1 0 16:20 22.03.2020
623 Clear -2 1016 68 10000 1 0 16:20 22.03.2020
624 Clear -3 1016 73 10000 1 0 15:40 22.03.2020
625 Clear -3 1016 73 10000 1 0 15:21 22.03.2020
626 Clear 0 1016 54 10000 2 180 14:46 22.03.2020
627 Clear 1 1015 50 10000 2 0 14:19 22.03.2020
628 Clear 0 1015 58 10000 4 170 13:44 22.03.2020
629 Clear 0 1015 58 10000 4 170 13:20 22.03.2020
630 Clear 1 1015 50 10000 4 170 12:59 22.03.2020
631 Clear 2 1015 47 10000 4 160 12:41 22.03.2020
632 Clear 6 1015 35 10000 2 170 12:19 22.03.2020
633 Clear 9 1015 24 10000 2 190 11:43 22.03.2020
634 Clear 9 1015 24 10000 2 190 11:43 22.03.2020
635 Clear 9 1015 24 10000 2 190 11:25 22.03.2020
636 Clear 10 1015 19 10000 3 210 10:58 22.03.2020
637 Clear 11 1015 18 10000 4 220 10:40 22.03.2020
638 Clear 11 1015 18 10000 4 220 10:22 22.03.2020
639 Clear 11 1015 18 10000 4 220 10:22 22.03.2020
640 Clear 11 1015 17 10000 4 210 09:46 22.03.2020
641 Clear 11 1015 17 10000 4 210 09:46 22.03.2020
642 Clear 11 1015 17 10000 4 210 09:27 22.03.2020
643 Clear 10 1015 18 10000 3 190 08:48 22.03.2020
644 Clear 10 1015 18 10000 3 190 08:48 22.03.2020
645 Clear 9 1016 21 10000 3 220 08:30 22.03.2020
646 Clear 9 1016 19 10000 4 220 07:55 22.03.2020
647 Clear 9 1016 19 10000 4 220 07:37 22.03.2020
648 Clear 8 1017 24 10000 2 0 06:48 22.03.2020
649 Clear 7 1017 24 10000 2 0 05:52 22.03.2020
650 Clear 2 1018 47 10000 1 0 04:39 22.03.2020
651 Clear -4 1018 73 10000 0.56 87 01:47 22.03.2020
652 Clear -9 1017 85 10000 0.55 81 00:50 22.03.2020
653 Clear -9 1017 85 10000 0.55 81 00:31 22.03.2020
654 Clear -10 1017 78 10000 0.55 81 23:46 21.03.2020
655 Clear -10 1017 78 10000 0.55 81 23:22 21.03.2020
656 Clear -10 1016 85 10000 1 0 22:58 21.03.2020
657 Clear -9 1016 78 10000 0.57 88 22:38 21.03.2020
658 Clear -9 1016 78 10000 0.57 88 22:19 21.03.2020
659 Clear -8 1016 85 10000 0.57 88 21:58 21.03.2020
660 Clear -8 1016 85 10000 0.57 88 21:38 21.03.2020
661 Clear -8 1016 85 10000 0.57 88 21:19 21.03.2020
662 Clear -7 1016 85 10000 0.57 88 20:42 21.03.2020
663 Clear -7 1016 85 10000 0.35 72 20:22 21.03.2020
664 Clear -5 1016 73 10000 0.4 109 19:55 21.03.2020
665 Clear -5 1016 73 10000 0.4 109 19:36 21.03.2020
666 Clear -5 1016 73 10000 0.4 109 19:18 21.03.2020
667 Clear -6 1016 79 10000 0.4 109 18:41 21.03.2020
668 Clear -6 1016 79 10000 0.4 109 18:21 21.03.2020
669 Clear -6 1015 79 10000 2 150 17:58 21.03.2020
670 Clear -6 1015 79 10000 2 150 17:40 21.03.2020
671 Clear -6 1015 79 10000 2 150 17:22 21.03.2020
672 Clear -6 1015 79 10000 2 150 17:22 21.03.2020
673 Clear -5 1015 79 10000 1 0 16:42 21.03.2020
674 Clear -5 1015 79 10000 1 0 16:23 21.03.2020
675 Clear -4 1015 73 10000 3 170 15:59 21.03.2020
676 Clear -4 1015 73 10000 3 170 15:40 21.03.2020
677 Clear -4 1015 73 10000 3 170 15:21 21.03.2020
678 Clear -4 1015 73 10000 2 180 14:56 21.03.2020
679 Clear -1 1015 54 10000 1 0 14:37 21.03.2020
680 Clear -1 1015 54 10000 1 0 14:19 21.03.2020
681 Clear -1 1015 54 10000 1 0 13:57 21.03.2020
682 Clear -1 1015 54 10000 1 0 13:57 21.03.2020
683 Clear -4 1014 73 10000 1 0 13:38 21.03.2020
684 Clear -4 1014 73 10000 1 0 13:38 21.03.2020
685 Clear 0 1014 80 10000 1 0 13:20 21.03.2020
686 Clear 0 1014 80 10000 2 320 12:41 21.03.2020
687 Clear 3 1013 32 10000 4 300 12:21 21.03.2020
688 Clear 3 1013 32 10000 4 300 11:59 21.03.2020
689 Clear 5 1013 27 10000 6 310 11:39 21.03.2020
690 Clear 5 1013 27 10000 7 310 11:20 21.03.2020
691 Clear 5 1013 27 10000 7 310 11:20 21.03.2020
692 Clear 5 1013 27 10000 7 310 10:58 21.03.2020
693 Clear 5 1013 27 10000 7 310 10:58 21.03.2020
694 Clear 5 1013 25 10000 8 300 10:40 21.03.2020
695 Clear 5 1013 25 10000 8 300 10:22 21.03.2020
696 Clouds 6 1013 24 10000 7 300 09:59 21.03.2020
697 Clouds 6 1013 24 10000 7 300 09:39 21.03.2020
698 Clouds 6 1013 24 10000 7 300 09:21 21.03.2020
699 Clouds 6 1013 26 10000 7 300 08:56 21.03.2020
700 Clouds 5 1013 25 10000 7 280 08:38 21.03.2020
701 Clouds 5 1013 25 10000 7 280 08:19 21.03.2020
702 Clouds 5 1013 25 10000 6 260 07:39 21.03.2020
703 Clouds 5 1013 25 10000 6 260 07:20 21.03.2020
704 Clouds 4 1014 27 10000 7 260 06:44 21.03.2020
705 Clouds 4 1014 27 10000 7 260 06:25 21.03.2020
706 Clear 3 1014 37 10000 5 250 05:40 21.03.2020
707 Clear -1 1015 58 10000 1 0 04:26 21.03.2020
708 Clear -7 1014 79 10000 1.78 256 02:37 21.03.2020
709 Clear -8 1014 85 10000 0.52 111 01:45 21.03.2020
710 Clouds -8 1014 85 10000 0.46 116 01:25 21.03.2020
711 Clouds -10 1013 85 10000 0.46 116 00:39 21.03.2020
712 Clouds -10 1013 85 10000 0.46 116 00:21 21.03.2020
713 Clouds -11 1012 92 10000 1 0 23:43 20.03.2020
714 Clouds -11 1012 92 10000 1 0 23:22 20.03.2020
715 Clouds -9 1012 85 10000 1 0 22:44 20.03.2020
716 Clouds -9 1012 85 10000 1 0 22:25 20.03.2020
717 Clouds -11 1012 85 10000 1 0 21:58 20.03.2020
718 Clouds -11 1012 85 10000 1 0 21:40 20.03.2020
719 Clouds -11 1012 85 10000 1 0 21:20 20.03.2020
720 Clouds -11 1012 85 10000 1 0 20:58 20.03.2020
721 Clouds -8 1012 85 10000 1 0 20:40 20.03.2020
722 Clouds -8 1012 85 10000 1 0 20:20 20.03.2020
723 Clouds -8 1012 85 10000 1 0 19:48 20.03.2020
724 Clouds -7 1012 79 10000 0.63 339 19:21 20.03.2020
725 Clouds -7 1012 79 10000 0.63 339 18:58 20.03.2020
726 Clouds -8 1011 85 10000 1 0 18:38 20.03.2020
727 Clouds -8 1011 85 10000 1 0 18:20 20.03.2020
728 Clouds -8 1011 85 10000 1 0 17:56 20.03.2020
729 Clouds -7 1011 85 10000 0.63 339 17:37 20.03.2020
730 Clouds -7 1011 85 10000 1.17 341 17:19 20.03.2020
731 Clouds -7 1011 85 10000 2 180 16:42 20.03.2020
732 Clouds -7 1011 85 10000 2 180 16:21 20.03.2020
733 Clouds -6 1010 85 10000 1 0 15:55 20.03.2020
734 Clouds -6 1010 85 10000 1 0 15:37 20.03.2020
735 Clouds -6 1010 85 10000 1 0 15:18 20.03.2020
736 Clouds -4 1010 73 10000 1 0 14:42 20.03.2020
737 Clouds -4 1010 73 10000 1 0 14:21 20.03.2020
738 Snow -4 1010 73 10000 1 0 13:49 20.03.2020
739 Clouds -3 1009 73 10000 1 0 13:25 20.03.2020
740 Clouds -2 1009 68 10000 2 340 12:58 20.03.2020
741 Clouds -2 1008 68 10000 3 340 12:38 20.03.2020
742 Clouds 0 1008 95 10000 5 320 12:20 20.03.2020
743 Clouds 1 1007 40 10000 6 290 11:39 20.03.2020
744 Clouds 1 1007 43 10000 6 270 11:21 20.03.2020
745 Clouds 1 1007 43 10000 6 270 10:56 20.03.2020
746 Clouds 1 1007 43 10000 3 250 10:38 20.03.2020
747 Clouds 1 1007 43 10000 3 250 10:18 20.03.2020
748 Clouds 1 1007 43 10000 3 250 10:18 20.03.2020
749 Clouds 1 1007 43 10000 3 250 10:18 20.03.2020
750 Clouds 1 1007 50 10000 2 0 09:45 20.03.2020
751 Clouds 1 1007 55 10000 2 0 09:21 20.03.2020
752 Clouds 1 1008 55 10000 2 0 08:57 20.03.2020
753 Clouds 0 1008 87 10000 4 220 08:38 20.03.2020
754 Clouds 0 1008 84 10000 4 220 08:18 20.03.2020
755 Clouds 1 1008 47 10000 1 0 07:41 20.03.2020
756 Clouds 1 1008 47 10000 1 0 07:23 20.03.2020
757 Clouds 2 1009 43 10000 3 0 06:42 20.03.2020
758 Clouds 0 1009 81 10000 1 0 06:18 20.03.2020
759 Clouds -1 1010 58 10000 2 0 04:39 20.03.2020
760 Clouds -4 1010 79 10000 0.99 203 02:51 20.03.2020
761 Clouds -5 1010 85 10000 0.9 80 01:50 20.03.2020
762 Clouds -9 1009 85 10000 0.89 74 00:45 20.03.2020
763 Clouds -10 1009 85 10000 0.89 74 00:23 20.03.2020
764 Clouds -10 1009 78 10000 0.89 74 23:42 19.03.2020
765 Clouds -10 1009 85 10000 1 0 23:23 19.03.2020
766 Clouds -7 1009 85 10000 1.24 20 22:41 19.03.2020
767 Clouds -7 1009 85 10000 1.24 20 22:23 19.03.2020
768 Clouds -7 1009 85 10000 1 0 21:58 19.03.2020
769 Clouds -7 1009 85 10000 1 0 21:38 19.03.2020
770 Clouds -7 1009 85 10000 1 0 21:20 19.03.2020
771 Clouds -5 1009 85 10000 2 270 20:44 19.03.2020
772 Clouds -5 1009 85 10000 2 270 20:25 19.03.2020
773 Clear -6 1008 85 10000 1 0 19:59 19.03.2020
774 Clear -6 1008 85 10000 1 0 19:39 19.03.2020
775 Clear -6 1008 85 10000 1 0 19:21 19.03.2020
776 Clear -6 1008 85 10000 1 0 18:58 19.03.2020
777 Clear -5 1008 85 10000 1 0 18:40 19.03.2020
778 Clear -5 1008 85 10000 1 0 18:22 19.03.2020
779 Clear -5 1008 85 10000 3 310 17:54 19.03.2020
780 Clear -5 1008 85 10000 3 310 17:36 19.03.2020
781 Clear -5 1008 85 10000 3 310 17:18 19.03.2020
782 Clear -3 1007 79 10000 4 340 16:41 19.03.2020
783 Clear -3 1007 79 10000 4 340 16:21 19.03.2020
784 Clear -3 1007 79 10000 4 320 15:42 19.03.2020
785 Clear -3 1007 79 10000 4 320 15:23 19.03.2020
786 Clear -2 1006 74 10000 2 320 14:43 19.03.2020
787 Clear -2 1006 74 10000 3 330 14:23 19.03.2020
788 Clouds -3 1006 68 10000 2 270 13:59 19.03.2020
789 Clouds 0 1005 91 10000 2 340 13:37 19.03.2020
790 Clouds -1 1005 54 10000 1 0 13:18 19.03.2020
791 Clouds 0 1005 93 10000 2 0 12:41 19.03.2020
792 Clouds 2 1004 34 10000 5 340 12:23 19.03.2020
793 Clouds 3 1004 34 10000 7 350 11:58 19.03.2020
794 Clouds 3 1004 34 10000 7 350 11:40 19.03.2020
795 Clouds 3 1004 47 10000 5 340 11:22 19.03.2020
796 Clouds 4 1004 48 10000 6 320 10:42 19.03.2020
797 Clouds 4 1004 48 10000 6 320 10:21 19.03.2020
798 Clouds 4 1004 55 10000 4 350 09:58 19.03.2020
799 Clouds 4 1004 55 10000 4 350 09:38 19.03.2020
800 Clouds 4 1004 55 10000 4 350 09:19 19.03.2020
801 Clouds 3 1004 55 10000 4 350 08:46 19.03.2020
802 Clouds 2 1004 59 10000 5 330 08:21 19.03.2020
803 Clouds 2 1004 59 10000 5 330 07:47 19.03.2020
804 Clouds 2 1004 55 10000 6 340 07:28 19.03.2020
805 Clouds 3 1005 32 10000 1 0 06:51 19.03.2020
806 Clouds 2 1005 34 10000 1 0 05:52 19.03.2020
807 Clouds 1 1005 34 10000 1 0 05:19 19.03.2020
808 Clouds 0 1006 58 10000 1 0 04:40 19.03.2020
809 Clouds -3 1006 53 10000 1 0 03:20 19.03.2020
810 Clouds -8 1007 67 10000 2.09 104 01:27 19.03.2020
811 Clouds -10 1007 78 10000 2.01 105 00:37 19.03.2020
812 Clouds -11 1007 78 10000 1 0 23:58 18.03.2020
813 Clouds -11 1007 85 10000 2.01 105 23:36 18.03.2020
814 Clear -10 1008 78 10000 1 90 23:18 18.03.2020
815 Clear -10 1008 78 10000 1 0 22:42 18.03.2020
816 Clear -10 1008 78 10000 1 0 22:22 18.03.2020
817 Clear -10 1009 78 10000 2.22 99 21:54 18.03.2020
818 Clear -10 1009 78 10000 2.22 99 21:36 18.03.2020
819 Clear -10 1009 78 10000 2.22 99 21:18 18.03.2020
820 Clear -10 1010 78 10000 1 0 20:41 18.03.2020
821 Clear -10 1010 78 10000 1 0 20:21 18.03.2020
822 Clear -9 1011 72 10000 2.19 104 19:58 18.03.2020
823 Clear -9 1011 72 10000 2.19 104 19:40 18.03.2020
824 Clear -9 1011 72 10000 2.19 104 19:21 18.03.2020
825 Clear -9 1011 72 10000 2.19 104 19:21 18.03.2020
826 Clear -9 1011 72 10000 2.19 104 19:21 18.03.2020
827 Clear -9 1011 72 10000 2.19 104 18:54 18.03.2020
828 Clear -9 1011 72 10000 2.19 104 18:36 18.03.2020
829 Clear -9 1011 78 10000 1 0 18:18 18.03.2020
830 Clear -8 1011 72 10000 2 250 17:41 18.03.2020
831 Clear -8 1012 78 10000 1 0 17:22 18.03.2020
832 Clear -8 1012 78 10000 1 0 16:59 18.03.2020
833 Clouds -6 1013 67 10000 1 0 16:40 18.03.2020
834 Clouds -6 1013 67 10000 1 0 16:20 18.03.2020
835 Clouds -7 1013 73 10000 1 0 15:46 18.03.2020
836 Clear -6 1013 67 10000 1 0 15:27 18.03.2020
837 Clear -6 1013 67 10000 1 0 14:58 18.03.2020
838 Clear -6 1014 67 10000 1 0 14:40 18.03.2020
839 Clouds -6 1014 67 10000 1 0 14:20 18.03.2020
840 Clouds -6 1014 73 10000 2 170 13:40 18.03.2020
841 Clouds -4 1014 53 10000 1 0 13:19 18.03.2020
842 Clouds -4 1014 53 10000 1 0 13:19 18.03.2020
843 Clouds -3 1014 42 10000 1.16 3 12:42 18.03.2020
844 Clouds -2 1014 39 10000 3 310 12:21 18.03.2020
845 Clouds -2 1014 39 10000 3 310 12:21 18.03.2020
846 Clouds -2 1014 39 10000 3 310 11:58 18.03.2020
847 Clouds -1 1014 33 10000 4 310 11:37 18.03.2020
848 Clouds 0 1014 77 10000 4 300 11:18 18.03.2020
849 Clouds 0 1014 77 10000 4 300 10:55 18.03.2020
850 Clouds 0 1015 77 10000 7 290 10:36 18.03.2020
851 Clouds 0 1015 77 10000 7 290 10:18 18.03.2020
852 Clouds 0 1015 77 10000 7 300 09:41 18.03.2020
853 Clouds 0 1015 77 10000 7 300 09:22 18.03.2020
854 Clouds 0 1015 77 10000 7 280 08:40 18.03.2020
855 Clouds 0 1015 76 10000 7 280 08:22 18.03.2020
856 Clouds 0 1015 79 10000 7 280 07:59 18.03.2020
857 Clouds -1 1015 42 10000 7 270 07:37 18.03.2020
858 Clouds -2 1016 42 10000 6 310 07:19 18.03.2020
859 Clouds -1 1017 42 10000 7 290 06:39 18.03.2020
860 Clouds -2 1017 46 10000 8 300 05:37 18.03.2020
861 Clouds -3 1017 53 10000 9 330 04:38 18.03.2020
862 Clouds -3 1017 49 10000 10 330 03:21 18.03.2020
863 Clouds -6 1017 67 10000 5 320 02:37 18.03.2020
864 Clouds -6 1017 67 10000 1 0 01:43 18.03.2020
865 Clouds -6 1017 62 10000 1 0 00:45 18.03.2020
866 Clouds -6 1016 62 10000 2 0 00:21 18.03.2020
867 Clouds -6 1016 57 10000 2 0 23:42 17.03.2020
868 Clouds -6 1015 57 10000 2 0 23:21 17.03.2020
869 Clouds -5 1014 57 10000 3 350 22:45 17.03.2020
870 Clouds -5 1014 57 10000 3 350 22:26 17.03.2020
871 Clouds -4 1013 68 10000 4 20 21:44 17.03.2020
872 Clouds -4 1013 68 10000 4 20 21:25 17.03.2020
873 Snow -4 1012 73 10000 9 360 20:58 17.03.2020
874 Snow -4 1012 73 10000 9 360 20:38 17.03.2020
875 Snow -4 1012 73 10000 9 360 20:19 17.03.2020
876 Clouds -2 1010 68 10000 7 350 19:42 17.03.2020
877 Clouds -2 1010 68 10000 7 350 19:19 17.03.2020
878 Clouds -2 1010 68 10000 7 350 18:57 17.03.2020
879 Snow -2 1009 74 10000 8 360 18:39 17.03.2020
880 Snow -2 1009 74 10000 8 360 18:21 17.03.2020
881 Snow -2 1009 74 10000 8 360 17:56 17.03.2020
882 Clouds -1 1007 80 10000 7 340 17:37 17.03.2020
883 Clouds -1 1007 80 10000 7 340 17:18 17.03.2020
884 Clouds 0 1007 94 10000 7 320 16:41 17.03.2020
885 Clouds 0 1007 94 10000 7 320 16:19 17.03.2020
886 Clouds 2 1005 59 10000 5 350 15:45 17.03.2020
887 Clouds 2 1005 59 10000 5 350 15:22 17.03.2020
888 Clouds 5 1004 38 10000 6 300 14:44 17.03.2020
889 Clouds 5 1004 35 10000 6 240 14:26 17.03.2020
890 Clouds 3 1004 47 10000 5 230 13:58 17.03.2020
891 Clouds 3 1004 47 10000 5 230 13:39 17.03.2020
892 Clouds 3 1004 47 10000 5 230 13:21 17.03.2020
893 Clouds 4 1004 41 10000 5 240 12:44 17.03.2020
894 Clouds 4 1004 41 10000 5 240 12:24 17.03.2020
895 Clouds 7 1005 30 10000 6 280 11:48 17.03.2020
896 Clouds 7 1005 30 10000 6 280 11:30 17.03.2020
897 Clouds 7 1005 30 10000 4 290 10:59 17.03.2020
898 Clouds 7 1005 30 10000 4 290 10:59 17.03.2020
899 Clouds 8 1005 28 10000 3 300 10:40 17.03.2020
900 Clouds 8 1005 28 10000 3 300 10:22 17.03.2020
901 Clouds 8 1005 28 10000 3 300 10:22 17.03.2020
902 Clouds 9 1006 24 10000 2 0 09:59 17.03.2020
903 Clouds 9 1006 24 10000 2 0 09:41 17.03.2020
904 Clouds 9 1006 24 10000 2 0 09:20 17.03.2020
905 Clouds 9 1006 24 10000 2 0 09:20 17.03.2020
906 Clouds 9 1006 24 10000 3 280 08:50 17.03.2020
907 Clouds 9 1006 24 10000 6 270 08:23 17.03.2020
908 Clouds 7 1007 33 10000 5 210 07:57 17.03.2020
909 Clouds 7 1007 33 10000 5 210 07:38 17.03.2020
910 Clouds 7 1008 30 10000 3 230 07:19 17.03.2020
911 Clouds 5 1009 38 10000 2 0 06:39 17.03.2020
912 Clouds 5 1009 41 10000 2 0 05:58 17.03.2020
913 Clouds -2 1011 68 8000 1.72 257 03:58 17.03.2020
914 Clouds -4 1011 73 8000 1.72 257 02:56 17.03.2020
915 Clouds -6 1012 85 10000 0.62 149 01:49 17.03.2020
916 Clouds -6 1012 85 10000 0.62 149 01:25 17.03.2020
917 Clear -8 1012 85 10000 0.65 156 00:47 17.03.2020
918 Clear -9 1012 85 10000 0.65 156 23:51 16.03.2020
919 Clear -9 1012 85 10000 0.65 156 23:32 16.03.2020
920 Clear -8 1012 85 10000 1 0 22:43 16.03.2020
921 Clear -8 1012 85 10000 1 0 22:25 16.03.2020
922 Clear -7 1013 85 10000 1 0 21:59 16.03.2020
923 Clear -7 1013 85 10000 1 0 21:40 16.03.2020
924 Clear -7 1013 85 10000 1 0 21:22 16.03.2020
925 Clear -7 1013 85 10000 1 0 20:56 16.03.2020
926 Clear -7 1014 85 10000 0.98 113 20:38 16.03.2020
927 Clear -7 1014 85 10000 0.85 160 20:19 16.03.2020
928 Clear -6 1014 85 10000 0.95 154 19:41 16.03.2020
929 Clear -6 1014 85 10000 0.95 154 19:21 16.03.2020
930 Clear -6 1014 85 10000 0.95 154 18:56 16.03.2020
931 Clear -5 1014 85 10000 1 0 18:37 16.03.2020
932 Clear -5 1014 85 10000 1 0 18:18 16.03.2020
933 Clear -4 1015 85 10000 0.95 154 17:42 16.03.2020
934 Clear -4 1015 85 10000 0.95 154 17:22 16.03.2020
935 Clear -4 1015 85 10000 0.14 173 16:45 16.03.2020
936 Clear -3 1015 79 10000 1 0 16:27 16.03.2020
937 Clear -3 1016 79 10000 0.14 173 15:56 16.03.2020
938 Clear -3 1016 79 10000 0.14 173 15:37 16.03.2020
939 Clear -3 1016 79 10000 0.14 173 15:18 16.03.2020
940 Clear -3 1017 79 10000 1 0 14:39 16.03.2020
941 Clouds -3 1017 79 10000 1 0 14:19 16.03.2020
942 Clouds -2 1017 74 10000 2 180 13:41 16.03.2020
943 Clouds -2 1017 74 10000 2 180 13:22 16.03.2020
944 Clouds -2 1017 74 10000 0.95 291 12:45 16.03.2020
945 Clouds -2 1017 74 10000 0.95 291 12:26 16.03.2020
946 Clouds 4 1017 38 10000 0.95 291 11:56 16.03.2020
947 Clouds 5 1017 35 10000 4 320 11:37 16.03.2020
948 Clouds 5 1017 32 10000 6 300 11:18 16.03.2020
949 Clouds 6 1017 33 10000 7 320 10:40 16.03.2020
950 Clouds 6 1017 33 10000 7 320 10:19 16.03.2020
951 Clouds 6 1017 33 10000 7 300 09:42 16.03.2020
952 Clouds 6 1017 33 10000 7 300 09:24 16.03.2020
953 Clouds 6 1017 30 10000 6 300 08:53 16.03.2020
954 Clouds 6 1017 30 10000 7 310 08:25 16.03.2020
955 Clouds 6 1017 30 10000 7 310 07:49 16.03.2020
956 Clouds 5 1017 32 10000 7 290 07:25 16.03.2020
957 Clouds 5 1018 32 10000 7 300 06:54 16.03.2020
958 Clouds 5 1018 32 10000 7 310 06:25 16.03.2020
959 Clouds 5 1018 32 10000 7 290 05:42 16.03.2020
960 Clouds 2 1018 43 10000 5 290 02:44 16.03.2020
961 Clouds -2 1017 54 10000 2 0 01:20 16.03.2020
962 Clouds -4 1017 62 10000 1 0 00:39 16.03.2020
963 Clouds -4 1017 62 10000 1 0 00:39 16.03.2020
964 Clouds -2 1016 54 10000 2 0 23:47 15.03.2020
965 Clouds -5 1016 67 10000 3 130 23:20 15.03.2020
966 Clouds -3 1015 58 10000 1.6 266 22:43 15.03.2020
967 Clouds -3 1015 58 10000 1.6 266 22:23 15.03.2020
968 Clouds -1 1015 54 10000 1.6 266 21:58 15.03.2020
969 Clouds -1 1015 54 10000 1.6 266 21:38 15.03.2020
970 Clouds -1 1015 54 10000 1.6 266 21:18 15.03.2020
971 Clouds -2 1015 58 10000 2 230 20:42 15.03.2020
972 Clouds -2 1015 58 10000 2 230 20:21 15.03.2020
973 Clouds -3 1015 68 10000 2 160 19:58 15.03.2020
974 Clouds -3 1015 68 10000 2 160 19:39 15.03.2020
975 Clouds -3 1015 68 10000 2 160 19:20 15.03.2020
976 Clouds -3 1015 68 10000 2 160 19:20 15.03.2020
977 Clouds -5 1015 73 10000 2 0 18:55 15.03.2020
978 Clouds -5 1015 73 10000 2 0 18:37 15.03.2020
979 Clouds -5 1015 73 10000 2 0 18:19 15.03.2020
980 Clouds -4 1015 68 10000 1 0 17:41 15.03.2020
981 Clouds -4 1015 68 10000 1 0 17:21 15.03.2020
982 Clear -4 1015 68 10000 1 0 16:58 15.03.2020
983 Clear -3 1015 63 10000 3 170 16:39 15.03.2020
984 Clear -3 1015 63 10000 3 170 16:21 15.03.2020
985 Clear -3 1015 68 10000 3 200 15:46 15.03.2020
986 Clear -3 1015 68 10000 3 200 15:28 15.03.2020
987 Clear 0 1014 86 10000 3 190 14:58 15.03.2020
988 Clear 0 1014 86 10000 3 190 14:38 15.03.2020
989 Clear 0 1014 89 10000 3 190 14:19 15.03.2020
990 Clear 0 1014 89 10000 4 330 13:54 15.03.2020
991 Clear 0 1014 89 10000 4 330 13:36 15.03.2020
992 Clear 0 1014 91 10000 4 330 13:18 15.03.2020
993 Clear 0 1014 89 10000 4 330 13:18 15.03.2020
994 Clear 1 1013 50 10000 7 290 12:39 15.03.2020
995 Clear 1 1013 50 10000 7 290 12:21 15.03.2020
996 Clear 1 1013 50 10000 7 290 12:21 15.03.2020
997 Clear 3 1013 40 10000 7 290 11:43 15.03.2020
998 Clear 3 1013 40 10000 7 290 11:24 15.03.2020
999 Clear 4 1013 35 10000 9 290 10:57 15.03.2020
1000 Clouds 5 1012 32 10000 8 290 10:39 15.03.2020
1001 Clouds 5 1012 32 10000 8 290 10:21 15.03.2020
1002 Clouds 5 1012 32 10000 9 290 09:42 15.03.2020
1003 Clouds 5 1012 32 10000 9 290 09:23 15.03.2020
1004 Clear 4 1013 38 10000 7 280 08:58 15.03.2020
1005 Clear 4 1013 38 10000 3 180 08:40 15.03.2020
1006 Clear 4 1013 38 10000 3 180 08:40 15.03.2020
1007 Clouds 4 1013 38 10000 3 180 08:18 15.03.2020
1008 Clouds 3 1013 47 10000 5 220 07:44 15.03.2020
1009 Clouds 2 1013 47 10000 4 220 06:59 15.03.2020
1010 Clouds 1 1014 47 10000 4 220 06:35 15.03.2020
1011 Clouds 2 1014 47 10000 1 0 05:46 15.03.2020
1012 Clouds -1 1014 63 10000 2 0 04:49 15.03.2020
1013 Clouds -3 1015 63 10000 1 0 04:29 15.03.2020
1014 Clouds -5 1015 73 10000 1 0 03:55 15.03.2020
1015 Clouds -7 1015 73 10000 1.31 210 02:48 15.03.2020
1016 Clouds -10 1016 78 10000 1 0 01:56 15.03.2020
1017 Clouds -15 1016 84 10000 2.11 103 00:51 15.03.2020
1018 Clouds -15 1016 84 10000 2.11 103 00:28 15.03.2020
1019 Clouds -13 1016 78 10000 1 0 23:58 14.03.2020
1020 Clouds -13 1016 84 10000 1 0 23:37 14.03.2020
1021 Clouds -15 1016 84 10000 2 170 23:19 14.03.2020
1022 Clouds -15 1016 84 10000 2 170 22:46 14.03.2020
1023 Clouds -14 1016 84 10000 1.91 103 22:27 14.03.2020
1024 Clouds -14 1016 84 10000 2 190 21:57 14.03.2020
1025 Clouds -14 1016 84 10000 2 190 21:37 14.03.2020
1026 Clouds -14 1016 84 10000 2 190 21:19 14.03.2020
1027 Clouds -14 1016 84 10000 2 190 21:19 14.03.2020
1028 Clouds -12 1017 78 10000 2 150 20:59 14.03.2020
1029 Clouds -12 1017 78 10000 2 150 20:41 14.03.2020
1030 Clear -12 1017 78 10000 2 150 20:20 14.03.2020
1031 Clear -10 1017 85 10000 1.14 102 19:59 14.03.2020
1032 Clear -10 1017 85 10000 1.14 102 19:40 14.03.2020
1033 Clear -10 1017 85 10000 1.14 102 19:20 14.03.2020
1034 Clear -8 1018 72 10000 1.14 102 18:39 14.03.2020
1035 Clear -8 1018 72 10000 1.14 102 18:19 14.03.2020
1036 Clear -7 1018 73 10000 1 0 17:40 14.03.2020
1037 Clear -7 1018 73 10000 1 0 17:21 14.03.2020
1038 Clear -4 1018 62 10000 1 0 16:42 14.03.2020
1039 Clear -4 1018 62 10000 1 0 16:24 14.03.2020
1040 Clear -4 1018 62 10000 1 0 15:59 14.03.2020
1041 Clear -4 1019 68 10000 2 0 15:27 14.03.2020
1042 Clear -4 1019 68 10000 2 0 14:59 14.03.2020
1043 Clear -5 1019 73 10000 2 0 14:37 14.03.2020
1044 Clear -5 1019 73 10000 2 0 14:19 14.03.2020
1045 Clear -5 1019 73 10000 2 0 13:54 14.03.2020
1046 Clear -4 1019 73 10000 3 160 13:36 14.03.2020
1047 Clear -3 1019 73 10000 1 0 13:18 14.03.2020
1048 Clear -2 1019 68 10000 3 160 12:42 14.03.2020
1049 Clear 2 1019 47 10000 2 260 12:23 14.03.2020
1050 Clear 2 1018 51 10000 4 260 11:43 14.03.2020
1051 Clear 2 1018 51 10000 4 260 11:43 14.03.2020
1052 Clear 3 1018 47 10000 4 250 11:25 14.03.2020
1053 Clear 3 1018 44 10000 3 270 10:47 14.03.2020
1054 Clear 3 1018 44 10000 3 270 10:47 14.03.2020
1055 Clear 3 1018 44 10000 3 270 10:28 14.03.2020
1056 Clear 3 1019 47 10000 4 310 09:59 14.03.2020
1057 Clear 3 1019 47 10000 4 300 09:40 14.03.2020
1058 -273 0 0 0 0 0 09:21 14.03.2020
1059 Clear 2 1019 47 10000 5 300 08:46 14.03.2020
1060 Clear 2 1020 40 10000 4 280 08:26 14.03.2020
1061 Clear 1 1020 47 10000 5 270 07:40 14.03.2020
1062 Clear 1 1020 47 10000 5 270 07:21 14.03.2020
1063 Clear 1 1020 47 10000 5 280 06:55 14.03.2020
1064 Clear 1 1021 43 10000 2 0 06:34 14.03.2020
1065 Clear -1 1022 54 10000 1 0 04:55 14.03.2020
1066 Clear -7 1022 73 10000 5 180 03:34 14.03.2020
1067 Clear -9 1022 66 10000 2.93 282 02:48 14.03.2020
1068 Clear -14 1022 77 10000 1.77 281 01:46 14.03.2020
1069 Clear -16 1021 77 10000 2 130 00:34 14.03.2020
1070 Clear -16 1021 77 10000 1 0 23:42 13.03.2020
1071 Clear -16 1021 77 10000 1 0 23:23 13.03.2020
1072 Clear -15 1021 84 10000 0.77 264 22:44 13.03.2020
1073 Clear -15 1021 84 10000 0.77 264 22:22 13.03.2020
1074 Clear -17 1020 77 10000 1 0 21:41 13.03.2020
1075 Clear -17 1020 77 10000 1 0 21:19 13.03.2020
1076 Clear -16 1021 71 10000 1 0 20:43 13.03.2020
1077 Clear -16 1021 71 10000 1 0 20:23 13.03.2020
1078 Clear -16 1021 71 10000 1 0 19:58 13.03.2020
1079 Clear -15 1021 65 10000 1 0 19:39 13.03.2020
1080 Clear -15 1021 65 10000 1 0 19:19 13.03.2020
1081 Clear -12 1021 66 10000 2 0 18:43 13.03.2020
1082 Clear -12 1021 66 10000 2 0 18:23 13.03.2020
1083 Clear -15 1022 77 10000 2 0 17:43 13.03.2020
1084 -273 0 0 0 0 0 17:21 13.03.2020
1085 Clear -15 1022 77 10000 2 0 16:57 13.03.2020
1086 Clear -14 1022 71 10000 2 170 16:38 13.03.2020
1087 Clear -14 1022 71 10000 2 170 16:20 13.03.2020
1088 Clear -13 1022 71 10000 3 150 15:45 13.03.2020
1089 Clear -13 1022 71 10000 3 150 15:22 13.03.2020
1090 Clear -13 1022 71 10000 4 170 14:58 13.03.2020
1091 Clear -13 1022 71 10000 4 170 14:40 13.03.2020
1092 Clear -13 1022 71 10000 4 170 14:21 13.03.2020
1093 Clear -11 1021 66 10000 1 0 13:42 13.03.2020
1094 Clear -11 1021 66 10000 1 0 13:24 13.03.2020
1095 Clear -9 1021 66 10000 0.99 306 12:59 13.03.2020
1096 Clear -6 1021 62 10000 1 0 12:38 13.03.2020
1097 Clear -6 1021 62 10000 1 0 12:38 13.03.2020
1098 Clear -5 1021 57 10000 1 0 12:20 13.03.2020
1099 Clear -4 1021 58 10000 4 290 11:56 13.03.2020
1100 Clear -4 1021 58 10000 4 290 11:36 13.03.2020
1101 Clear -3 1021 53 10000 5 300 11:18 13.03.2020
1102 Clear -3 1021 53 10000 1 0 10:46 13.03.2020
1103 Clear -3 1021 53 10000 1 0 10:26 13.03.2020
1104 Clear -3 1021 53 10000 1 0 09:49 13.03.2020
1105 Clear -4 1021 58 10000 2 200 09:30 13.03.2020
1106 Clear -4 1022 53 10000 3 190 08:59 13.03.2020
1107 Clear -4 1022 53 10000 3 190 08:41 13.03.2020
1108 Clear -4 1022 53 10000 3 190 08:22 13.03.2020
1109 Clouds -5 1022 49 10000 2 0 07:44 13.03.2020
1110 Clouds -5 1022 49 10000 2 0 07:25 13.03.2020
1111 Clear -7 1023 57 10000 4 210 06:46 13.03.2020
1112 Clear -7 1024 52 10000 3 220 06:23 13.03.2020
1113 Clear -8 1024 57 10000 4 220 05:46 13.03.2020
1114 Clear -8 1024 57 10000 3 230 04:57 13.03.2020
1115 Clear -10 1024 56 10000 1.84 257 04:26 13.03.2020
1116 Clear -13 1024 60 10000 1.84 257 02:43 13.03.2020
1117 Clear -23 1023 76 10000 1 0 01:37 13.03.2020
1118 Clear -23 1023 76 10000 1 0 01:18 13.03.2020
1119 Clear -22 1023 76 10000 1 0 00:41 13.03.2020
1120 Clear -23 1023 76 10000 2 160 00:19 13.03.2020
1121 Clear -21 1023 70 10000 0.59 317 23:39 12.03.2020
1122 Clear -24 1022 76 10000 1 0 23:19 12.03.2020
1123 Clear -24 1022 76 10000 1 0 22:46 12.03.2020
1124 Clear -21 1022 70 10000 1 0 22:28 12.03.2020
1125 Clear -20 1022 76 10000 1 0 21:57 12.03.2020
1126 Clear -20 1022 76 10000 1 0 21:39 12.03.2020
1127 Clear -20 1022 76 10000 1 0 21:20 12.03.2020
1128 Clear -20 1022 70 10000 1 0 20:42 12.03.2020
1129 Clouds -20 1022 70 10000 1 0 20:20 12.03.2020
1130 Clouds -20 1022 70 10000 1 0 19:56 12.03.2020
1131 Clouds -17 1023 70 10000 1 0 19:37 12.03.2020
1132 Clouds -17 1023 70 10000 1 0 19:18 12.03.2020
1133 Clouds -19 1034 92 0 0.14 314 18:41 12.03.2020
1134 Clouds -16 1023 71 10000 2 150 18:22 12.03.2020
1135 Clouds -16 1023 71 10000 2 150 17:56 12.03.2020
1136 Clouds -16 1023 71 10000 2 150 17:37 12.03.2020
1137 Clouds -16 1023 71 10000 2 150 17:18 12.03.2020
1138 Clouds -16 1023 71 10000 2 170 16:41 12.03.2020
1139 Clouds -16 1023 71 10000 2 170 16:22 12.03.2020
1140 Clouds -15 1024 71 10000 1 0 15:49 12.03.2020
1141 Clouds -15 1024 71 10000 1 0 15:28 12.03.2020
1142 Clouds -14 1024 71 10000 1 0 14:56 12.03.2020
1143 Clouds -14 1024 71 10000 1 0 14:56 12.03.2020
1144 Clouds -15 1024 71 10000 4 180 14:37 12.03.2020
1145 Clouds -15 1024 71 10000 4 180 14:18 12.03.2020
1146 Clouds -15 1024 71 10000 3 180 13:40 12.03.2020
1147 Clouds -15 1024 71 10000 3 180 13:21 12.03.2020
1148 Clouds -14 1024 65 10000 3 190 12:55 12.03.2020
1149 Clouds -14 1024 65 10000 3 190 12:55 12.03.2020
1150 Clouds -13 1024 65 10000 3 200 12:37 12.03.2020
1151 Clouds -13 1024 65 10000 3 200 12:37 12.03.2020
1152 Clouds -13 1024 65 10000 3 200 12:37 12.03.2020
1153 Clouds -11 1024 61 10000 3 220 12:18 12.03.2020
1154 Clouds -11 1024 61 10000 3 220 12:18 12.03.2020
1155 Clouds -11 1024 61 10000 3 220 11:55 12.03.2020
1156 Clouds -8 1024 57 10000 4 260 11:36 12.03.2020
1157 Clouds -8 1023 57 10000 4 270 11:18 12.03.2020
1158 Clouds -7 1024 57 10000 5 290 10:43 12.03.2020
1159 Clouds -7 1024 57 10000 5 290 10:23 12.03.2020
1160 Clouds -7 1024 52 10000 5 290 09:55 12.03.2020
1161 Clouds -7 1024 52 10000 5 290 09:37 12.03.2020
1162 Clouds -7 1024 52 10000 5 290 09:19 12.03.2020
1163 Clouds -8 1024 67 10000 4 210 08:38 12.03.2020
1164 Clouds -8 1024 67 10000 4 210 08:18 12.03.2020
1165 Clouds -9 1025 66 10000 2 0 07:47 12.03.2020
1166 Clouds -10 1025 66 10000 3 210 07:22 12.03.2020
1167 Clouds -10 1026 61 10000 2 240 06:26 12.03.2020
1168 Clouds -12 1026 66 10000 4 240 05:35 12.03.2020
1169 Clouds -16 1027 77 10000 1 0 03:44 12.03.2020
1170 Clear -23 1027 83 10000 1 0 01:58 12.03.2020
1171 Clear -23 1027 83 10000 1 0 01:23 12.03.2020
1172 Clear -24 1026 83 10000 1 0 00:42 12.03.2020
1173 Clear -25 1026 75 10000 1 0 23:58 11.03.2020
1174 Clear -27 1026 75 10000 3 160 23:29 11.03.2020
1175 Clear -25 1025 75 10000 3 160 22:59 11.03.2020
1176 Clear -26 1025 75 10000 2 200 22:40 11.03.2020
1177 Clear -26 1025 75 10000 2 200 22:21 11.03.2020
1178 Clear -22 1025 76 10000 1 0 21:58 11.03.2020
1179 Clear -22 1025 76 10000 1 0 21:39 11.03.2020
1180 Clear -22 1025 76 10000 1 0 21:21 11.03.2020
1181 Clear -24 1024 76 10000 2 170 20:56 11.03.2020
1182 Clear -24 1024 76 10000 2 170 20:37 11.03.2020
1183 Clear -24 1024 76 10000 2 170 20:19 11.03.2020
1184 Clear -21 1024 76 10000 2 0 19:42 11.03.2020
1185 Clear -21 1024 76 10000 2 0 19:24 11.03.2020
1186 Clear -21 1024 76 10000 2 0 18:57 11.03.2020
1187 Clear -21 1023 76 10000 3 170 18:37 11.03.2020
1188 Clear -21 1023 76 10000 3 170 18:18 11.03.2020
1189 Clear -21 1023 76 10000 3 170 17:55 11.03.2020
1190 Clear -16 1023 84 10000 1.73 350 17:37 11.03.2020
1191 Clear -16 1023 84 10000 2.03 336 17:18 11.03.2020
1192 Clear -16 1023 77 10000 2.03 336 16:43 11.03.2020
1193 Clear -16 1023 77 10000 2.03 336 16:19 11.03.2020
1194 Clear -13 1022 78 10000 3 340 15:43 11.03.2020
1195 Clear -13 1022 78 10000 3 340 15:23 11.03.2020
1196 Clear -13 1022 78 10000 3 340 15:23 11.03.2020
1197 Clear -12 1021 72 10000 2 0 14:46 11.03.2020
1198 Clear -11 1021 72 10000 4 350 14:25 11.03.2020
1199 Clouds -11 1020 66 10000 5 350 13:59 11.03.2020
1200 Clouds -11 1020 66 10000 5 350 13:40 11.03.2020
1201 Clouds -11 1020 66 10000 5 350 13:22 11.03.2020
1202 Clouds -11 1020 66 10000 4 340 12:56 11.03.2020
1203 Clouds -11 1019 66 10000 5 340 12:37 11.03.2020
1204 Clouds -10 1018 66 10000 6 340 12:18 11.03.2020
1205 Clouds -8 1017 61 10000 7 340 11:40 11.03.2020
1206 Clouds -8 1017 61 10000 7 340 11:20 11.03.2020
1207 Clouds -7 1016 57 10000 8 340 10:47 11.03.2020
1208 Clouds -7 1015 57 10000 10 340 10:20 11.03.2020
1209 Clouds -7 1015 57 10000 8 350 09:58 11.03.2020
1210 Clouds -7 1014 52 10000 10 350 09:38 11.03.2020
1211 Clouds -7 1014 52 10000 10 350 09:19 11.03.2020
1212 Clouds -6 1014 53 10000 9 350 08:42 11.03.2020
1213 Clouds -6 1013 53 10000 9 350 08:23 11.03.2020
1214 Clouds -6 1013 57 10000 10 350 07:47 11.03.2020
1215 Clouds -6 1013 57 10000 10 350 07:20 11.03.2020
1216 Clouds -7 1013 62 10000 10 340 06:49 11.03.2020
1217 Clouds -6 1012 57 10000 10 350 06:30 11.03.2020
1218 Clouds -7 1011 73 10000 10 340 05:32 11.03.2020
1219 Snow -9 1009 85 6000 3 130 02:43 11.03.2020
1220 Snow -12 1007 85 4000 1 0 01:51 11.03.2020
1221 Snow -12 1006 78 6000 1 0 00:53 11.03.2020
1222 Snow -12 1006 78 6000 1 0 00:31 11.03.2020
1223 Snow -12 1005 78 8000 2.95 315 23:47 10.03.2020
1224 Snow -12 1005 78 8000 2.95 315 23:22 10.03.2020
1225 Clouds -14 1004 77 10000 1 0 22:55 10.03.2020
1226 Clouds -14 1004 77 10000 1 0 22:36 10.03.2020
1227 Clouds -14 1004 77 10000 1 0 22:18 10.03.2020
1228 Clouds -15 1004 77 10000 0.67 280 21:55 10.03.2020
1229 Clouds -15 1004 77 10000 0.67 280 21:37 10.03.2020
1230 Clouds -15 1004 77 10000 0.67 280 21:18 10.03.2020
1231 Clouds -15 1004 77 10000 0.67 280 21:18 10.03.2020
1232 Clouds -16 1004 77 10000 1 0 20:41 10.03.2020
1233 Clouds -16 1004 77 10000 1 0 20:19 10.03.2020
1234 Clouds -18 1004 77 10000 1 0 19:58 10.03.2020
1235 Clouds -18 1004 77 10000 1 0 19:40 10.03.2020
1236 Clouds -18 1004 77 10000 1 0 19:21 10.03.2020
1237 Clouds -18 1004 77 10000 1 0 18:54 10.03.2020
1238 Clouds -18 1004 77 10000 1 0 18:36 10.03.2020
1239 Clouds -18 1004 77 10000 1 0 18:18 10.03.2020
1240 Clouds -16 1004 71 10000 2 0 17:40 10.03.2020
1241 Clouds -16 1004 71 10000 2 0 17:22 10.03.2020
1242 Clouds -14 1004 71 10000 1 0 16:40 10.03.2020
1243 Clouds -14 1004 71 10000 1 0 16:20 10.03.2020
1244 Clouds -15 1004 71 10000 3 170 15:58 10.03.2020
1245 Clouds -13 1004 60 10000 1 0 15:39 10.03.2020
1246 Clouds -13 1004 60 10000 1 0 15:19 10.03.2020
1247 Clouds -17 1004 70 10000 3 180 14:57 10.03.2020
1248 Clouds -16 1004 71 10000 2 170 14:39 10.03.2020
1249 Clouds -16 1004 71 10000 2 170 14:18 10.03.2020
1250 Clouds -17 1004 77 10000 2 170 13:42 10.03.2020
1251 Clouds -17 1004 77 10000 2 170 13:42 10.03.2020
1252 Clear -17 1004 77 10000 2 170 13:24 10.03.2020
1253 Clear -10 1004 61 10000 1 0 12:42 10.03.2020
1254 Clear -10 1004 61 10000 1 0 12:21 10.03.2020
1255 Clouds -7 1004 62 10000 1 0 11:59 10.03.2020
1256 Clouds -6 1004 57 10000 1.01 302 11:41 10.03.2020
1257 Clouds -6 1004 57 10000 1.01 302 11:23 10.03.2020
1258 Clouds -5 1004 53 10000 1.78 259 10:54 10.03.2020
1259 Clouds -5 1005 49 10000 1 0 10:36 10.03.2020
1260 Clouds -5 1005 49 10000 1 0 10:18 10.03.2020
1261 Clouds -6 1005 57 10000 2 260 09:43 10.03.2020
1262 Clouds -5 1005 49 10000 2 0 09:19 10.03.2020
1263 Clouds -4 1006 45 10000 1 0 08:53 10.03.2020
1264 Clouds -4 1006 45 10000 1.78 259 08:34 10.03.2020
1265 Clouds -7 1007 57 10000 1 0 07:53 10.03.2020
1266 Clouds -7 1007 57 10000 1 0 07:34 10.03.2020
1267 Clouds -7 1008 52 10000 1 0 06:57 10.03.2020
1268 Clouds -8 1009 52 10000 1 0 06:37 10.03.2020
1269 Clouds -12 1010 55 10000 1 0 05:42 10.03.2020
1270 Clouds -14 1010 60 10000 2 0 04:59 10.03.2020
1271 Clouds -16 1010 65 10000 2 160 04:25 10.03.2020
1272 Clouds -16 1010 65 10000 2 160 04:25 10.03.2020
1273 Clouds -21 1013 83 8000 1.65 150 02:58 10.03.2020
1274 Clear -27 1013 75 8000 1.92 105 01:32 10.03.2020
1275 Clear -26 1013 75 10000 1.92 105 00:50 10.03.2020
1276 Clear -26 1013 75 10000 1.92 105 00:28 10.03.2020
1277 Clear -27 1014 68 10000 1.92 105 23:42 09.03.2020
1278 Clear -28 1014 75 10000 1 0 23:22 09.03.2020
1279 Clear -28 1014 75 10000 1 0 22:57 09.03.2020
1280 Clear -25 1014 75 10000 1 0 22:37 09.03.2020
1281 Clear -25 1014 75 10000 1 0 22:18 09.03.2020
1282 Clear -27 1015 75 10000 1 0 21:43 09.03.2020
1283 Clear -27 1015 75 10000 1 0 21:22 09.03.2020
1284 Clear -25 1016 75 10000 1 0 20:58 09.03.2020
1285 Clear -25 1016 75 10000 1 0 20:40 09.03.2020
1286 Clear -25 1016 75 10000 1 0 20:20 09.03.2020
1287 Clear -25 1017 83 10000 1 0 19:45 09.03.2020
1288 Clear -25 1017 83 10000 1 0 19:26 09.03.2020
1289 Clear -23 1018 76 10000 1 0 18:59 09.03.2020
1290 Clear -23 1018 76 10000 1 0 18:40 09.03.2020
1291 Clear -23 1018 76 10000 1 0 18:20 09.03.2020
1292 Clear -23 1018 76 10000 1 0 17:58 09.03.2020
1293 Clear -23 1018 69 10000 1 0 17:38 09.03.2020
1294 Clear -23 1018 69 10000 1 0 17:20 09.03.2020
1295 Clear -23 1018 69 10000 1 0 16:59 09.03.2020
1296 Clear -21 1018 70 10000 3 170 16:41 09.03.2020
1297 Clear -21 1018 70 10000 3 170 16:22 09.03.2020
1298 Clear -21 1018 70 10000 3 170 15:58 09.03.2020
1299 Clear -21 1018 70 10000 2 150 15:39 09.03.2020
1300 Clear -21 1018 70 10000 2 150 15:21 09.03.2020
1301 Clear -21 1018 70 10000 2 150 15:21 09.03.2020
1302 Clear -19 1018 70 10000 3 160 14:57 09.03.2020
1303 Clear -19 1018 70 10000 3 150 14:38 09.03.2020
1304 Clear -19 1018 70 10000 3 150 14:19 09.03.2020
1305 Clear -19 1018 70 10000 3 150 13:57 09.03.2020
1306 Clear -17 1018 64 10000 2 0 13:38 09.03.2020
1307 Clear -17 1018 64 10000 2 0 13:18 09.03.2020
1308 Clear -14 1018 60 10000 1 0 12:43 09.03.2020
1309 Clear -13 1018 65 10000 2 0 12:22 09.03.2020
1310 Clear -13 1018 65 10000 2 0 11:58 09.03.2020
1311 Clear -9 1017 52 10000 4 280 11:38 09.03.2020
1312 Clear -9 1017 52 10000 4 280 11:19 09.03.2020
1313 Clear -9 1017 52 10000 6 290 10:55 09.03.2020
1314 Clouds -8 1017 52 10000 4 290 10:36 09.03.2020
1315 Clouds -8 1017 52 10000 4 290 10:18 09.03.2020
1316 Clouds -9 1016 52 10000 3 260 09:40 09.03.2020
1317 Clouds -9 1016 52 10000 3 260 09:21 09.03.2020
1318 Clouds -11 1017 61 10000 3 200 08:44 09.03.2020
1319 Clear -11 1016 61 10000 2 230 08:26 09.03.2020
1320 Clouds -11 1017 56 10000 3 200 07:43 09.03.2020
1321 Clouds -12 1017 55 10000 3 260 07:22 09.03.2020
1322 Clouds -12 1017 55 10000 2 220 06:46 09.03.2020
1323 Clouds -13 1017 65 10000 2 0 06:28 09.03.2020
1324 Clouds -14 1017 77 10000 1 0 05:58 09.03.2020
1325 Clouds -16 1017 77 10000 1 0 05:40 09.03.2020
1326 Clouds -17 1017 84 10000 2 180 04:46 09.03.2020
1327 Clouds -20 1016 83 10000 3 170 04:23 09.03.2020
1328 Clouds -20 1017 83 8000 1 0 03:29 09.03.2020
1329 Clouds -26 1017 75 8000 0.44 202 01:58 09.03.2020
1330 Clouds -26 1016 68 10000 1 0 00:40 09.03.2020
1331 Clouds -26 1016 68 10000 1 0 00:22 09.03.2020
1332 Clouds -28 1017 68 10000 0.5 208 23:53 08.03.2020
1333 Clouds -27 1016 75 10000 1 0 23:25 08.03.2020
1334 Clouds -26 1017 75 10000 0.47 159 22:58 08.03.2020
1335 Clouds -28 1017 75 10000 1 0 22:39 08.03.2020
1336 Clouds -28 1017 75 10000 1 0 22:21 08.03.2020
1337 Clouds -26 1018 68 10000 1 0 21:57 08.03.2020
1338 Clouds -26 1018 68 10000 1 0 21:38 08.03.2020
1339 Clouds -26 1018 68 10000 1 0 21:19 08.03.2020
1340 Clouds -28 1019 75 10000 2 180 20:40 08.03.2020
1341 Clouds -28 1019 75 10000 2 180 20:21 08.03.2020
1342 Clouds -28 1019 75 10000 2 180 20:21 08.03.2020
1343 Clouds -28 1019 75 10000 2 180 19:57 08.03.2020
1344 Clouds -27 1020 75 10000 1 0 19:37 08.03.2020
1345 Clouds -27 1020 75 10000 1 0 19:19 08.03.2020
1346 Clouds -20 1020 83 10000 0.64 137 18:42 08.03.2020
1347 Clouds -20 1020 83 10000 0.64 137 18:24 08.03.2020
1348 Clouds -20 1020 83 10000 0.64 137 18:24 08.03.2020
1349 Clouds -25 1021 75 10000 3 150 17:57 08.03.2020
1350 Clouds -25 1021 75 10000 3 150 17:38 08.03.2020
1351 Clouds -25 1021 75 10000 3 150 17:19 08.03.2020
1352 Clouds -22 1021 76 10000 2 0 16:46 08.03.2020
1353 Clouds -23 1021 76 10000 3 160 16:28 08.03.2020
1354 Clouds -24 1021 76 10000 3 160 15:58 08.03.2020
1355 Clouds -24 1021 76 10000 3 160 15:39 08.03.2020
1356 Clouds -24 1021 83 10000 3 170 15:20 08.03.2020
1357 Clouds -19 1021 77 10000 1 0 14:42 08.03.2020
1358 Clouds -23 1021 76 10000 2 0 14:21 08.03.2020
1359 Clouds -17 1021 84 10000 2 280 13:58 08.03.2020
1360 Clouds -17 1021 84 10000 2 280 13:39 08.03.2020
1361 Clouds -17 1021 84 10000 2 280 13:19 08.03.2020
1362 Clouds -15 1021 71 10000 4 300 12:41 08.03.2020
1363 Clouds -15 1021 71 10000 4 300 12:23 08.03.2020
1364 Clouds -14 1021 71 10000 5 310 11:56 08.03.2020
1365 Clouds -11 1020 72 10000 6 320 11:37 08.03.2020
1366 Clouds -11 1020 72 10000 6 320 11:37 08.03.2020
1367 Clouds -11 1020 72 10000 6 320 11:19 08.03.2020
1368 Clouds -11 1020 72 10000 6 320 10:41 08.03.2020
1369 Clouds -11 1019 72 10000 6 330 10:23 08.03.2020
1370 Clouds -10 1019 72 10000 6 330 09:43 08.03.2020
1371 Clouds -10 1019 72 10000 6 330 09:25 08.03.2020
1372 Clouds -10 1019 66 10000 8 320 08:54 08.03.2020
1373 Clouds -10 1019 66 10000 8 320 08:54 08.03.2020
1374 Clouds -10 1018 72 10000 8 320 08:36 08.03.2020
1375 Clouds -10 1018 72 10000 8 320 08:18 08.03.2020
1376 Clouds -10 1018 72 10000 7 320 07:41 08.03.2020
1377 Clouds -10 1018 72 10000 7 320 07:22 08.03.2020
1378 Clouds -10 1019 72 10000 5 310 06:42 08.03.2020
1379 Clouds -10 1019 72 10000 6 300 06:22 08.03.2020
1380 Clouds -10 1018 66 10000 4 360 05:28 08.03.2020
1381 Clouds -10 1018 66 10000 4 360 03:51 08.03.2020
1382 Snow -10 1016 85 2000 4 320 02:29 08.03.2020
1383 Snow -10 1015 92 2000 3 300 01:23 08.03.2020
1384 Snow -10 1015 92 2000 3 300 01:23 08.03.2020
1385 Snow -10 1015 92 2000 3 300 01:23 08.03.2020
1386 Snow -10 1015 92 2000 3 300 01:23 08.03.2020
1387 Snow -10 1015 92 2000 3 300 01:23 08.03.2020
1388 Snow -9 1014 85 3000 2 330 00:44 08.03.2020
1389 Snow -8 1013 85 3200 2 270 00:25 08.03.2020
1390 Snow -8 1013 85 3200 2 270 23:44 07.03.2020
1391 Snow -8 1012 85 3200 1 0 23:23 07.03.2020
1392 Snow -8 1011 92 5000 0.5 191 22:41 07.03.2020
1393 Snow -8 1011 92 5000 0.5 191 22:21 07.03.2020
1394 Snow -8 1011 92 5000 1 0 21:49 07.03.2020
1395 Snow -8 1011 92 6000 0.5 191 21:25 07.03.2020
1396 Snow -8 1011 85 6000 1 0 20:42 07.03.2020
1397 Snow -8 1011 85 6000 1 0 20:24 07.03.2020
1398 Snow -8 1010 92 6000 2 0 19:59 07.03.2020
1399 Snow -8 1010 92 6000 2 0 19:41 07.03.2020
1400 Snow -8 1010 92 6000 2 0 19:21 07.03.2020
1401 Snow -10 1009 85 10000 1.43 247 18:43 07.03.2020
1402 Snow -10 1009 85 10000 1.43 247 18:25 07.03.2020
1403 Snow -7 1009 92 8000 1.43 247 17:56 07.03.2020
1404 Snow -7 1009 92 8000 1.43 247 17:38 07.03.2020
1405 Snow -7 1009 92 8000 0.92 272 17:18 07.03.2020
1406 Snow -7 1009 92 5000 0.92 272 16:43 07.03.2020
1407 Snow -7 1009 85 5000 0.92 272 16:23 07.03.2020
1408 Snow -7 1008 85 8000 1 0 15:58 07.03.2020
1409 Clouds -7 1008 85 10000 1 0 15:40 07.03.2020
1410 Clouds -7 1008 85 10000 1 0 15:21 07.03.2020
1411 Clouds -7 1008 85 10000 1 0 15:21 07.03.2020
1412 Clouds -8 1007 85 10000 2 180 14:57 07.03.2020
1413 Clouds -8 1007 85 10000 1 0 14:38 07.03.2020
1414 Clouds -8 1007 85 10000 1 0 14:19 07.03.2020
1415 Clouds -6 1006 85 10000 2 40 13:40 07.03.2020
1416 Clouds -6 1006 85 10000 2 40 13:21 07.03.2020
1417 Clouds -6 1006 92 10000 3 10 12:44 07.03.2020
1418 Clouds -6 1006 92 10000 3 10 12:44 07.03.2020
1419 Snow -5 1006 85 3000 3 30 12:22 07.03.2020
1420 Snow -5 1006 92 3000 2 10 11:59 07.03.2020
1421 Snow -4 1005 85 3200 2 0 11:40 07.03.2020
1422 Snow -4 1005 85 3200 2 0 11:22 07.03.2020
1423 Snow -4 1005 79 3200 4 360 10:42 07.03.2020
1424 Snow -2 1005 68 10000 4 30 10:21 07.03.2020
1425 Clouds -2 1004 63 10000 3 10 09:58 07.03.2020
1426 Clouds -2 1004 58 10000 2 0 09:39 07.03.2020
1427 Clouds -2 1004 58 10000 2 0 09:19 07.03.2020
1428 Clouds -2 1004 54 10000 1 0 08:44 07.03.2020
1429 Clouds -2 1004 54 10000 1 0 08:22 07.03.2020
1430 Clouds -2 1005 54 10000 1 0 07:56 07.03.2020
1431 Clouds -3 1011 75 0 1.3 313 07:37 07.03.2020
1432 Clouds -3 1011 75 0 1.3 313 07:19 07.03.2020
1433 Clouds -3 1011 75 0 1.3 313 06:37 07.03.2020
1434 Clouds -7 1006 67 10000 1 0 05:57 07.03.2020
1435 Clouds -7 1006 67 10000 1 0 05:33 07.03.2020
1436 Clouds -13 1006 78 10000 1 0 02:58 07.03.2020
1437 Clouds -13 1006 78 10000 1 0 02:35 07.03.2020
1438 Clouds -13 1006 78 10000 1 0 01:46 07.03.2020
1439 Clouds -13 1005 84 10000 1 0 00:41 07.03.2020
1440 Clouds -13 1005 84 10000 1 0 00:22 07.03.2020
1441 Clouds -12 1005 78 10000 1 0 23:54 06.03.2020
1442 Clouds -14 1005 84 10000 1 0 23:26 06.03.2020
1443 Clouds -14 1005 77 10000 1 0 22:58 06.03.2020
1444 Clouds -14 1005 77 10000 1 0 22:40 06.03.2020
1445 Clouds -14 1005 77 10000 1 0 22:18 06.03.2020
1446 Clouds -15 1005 77 10000 1 0 21:43 06.03.2020
1447 Clouds -15 1005 77 10000 1 0 21:19 06.03.2020
1448 Clouds -15 1006 77 10000 1 0 20:39 06.03.2020
1449 Clouds -15 1006 77 10000 1 0 20:21 06.03.2020
1450 Clouds -15 1006 77 10000 1 0 19:52 06.03.2020
1451 Clouds -17 1005 77 10000 1 0 19:33 06.03.2020
1452 Clouds -17 1005 77 10000 1 0 18:59 06.03.2020
1453 Clouds -14 1005 77 10000 0.8 77 18:40 06.03.2020
1454 Clouds -14 1005 77 10000 0.8 77 18:19 06.03.2020
1455 Clouds -14 1005 77 10000 0.8 77 18:19 06.03.2020
1456 Clouds -14 1005 77 10000 0.8 77 18:19 06.03.2020
1457 Clouds -13 1006 71 10000 0.8 77 17:43 06.03.2020
1458 Clouds -13 1006 71 10000 0.8 77 17:43 06.03.2020
1459 Clouds -14 1007 77 10000 1 0 17:25 06.03.2020
1460 Clouds -14 1007 77 10000 1 0 16:59 06.03.2020
1461 Clouds -14 1007 77 10000 1 0 16:41 06.03.2020
1462 Clouds -14 1007 77 10000 1 0 16:20 06.03.2020
1463 Clouds -13 1007 71 10000 1 0 15:45 06.03.2020
1464 Clouds -13 1007 78 10000 2.07 98 15:25 06.03.2020
1465 Clouds -10 1007 72 10000 1 0 14:55 06.03.2020
1466 Clouds -8 1007 67 10000 1 0 14:37 06.03.2020
1467 Clouds -8 1007 67 10000 1 0 14:19 06.03.2020
1468 Clouds -6 1007 62 10000 2.21 100 13:43 06.03.2020
1469 Clouds -7 1007 73 10000 2.21 100 13:22 06.03.2020
1470 Clouds -6 1007 67 10000 1 0 12:57 06.03.2020
1471 Clouds -5 1007 67 10000 2.42 101 12:38 06.03.2020
1472 Clouds -5 1007 67 10000 2.42 101 12:19 06.03.2020
1473 Clouds -5 1007 67 10000 2.42 101 12:19 06.03.2020
1474 Clouds -4 1007 62 10000 1 0 11:57 06.03.2020
1475 Clouds -3 1007 58 10000 2 170 11:38 06.03.2020
1476 Clouds -3 1007 58 10000 2 170 11:19 06.03.2020
1477 Clear -2 1008 58 10000 3 150 10:39 06.03.2020
1478 Clear -2 1008 58 10000 3 150 10:20 06.03.2020
1479 Clear -2 1008 58 10000 3 160 09:55 06.03.2020
1480 Clear -2 1008 54 10000 3 160 09:36 06.03.2020
1481 Clear -2 1008 54 10000 3 160 09:18 06.03.2020
1482 Clear -2 1008 54 10000 3 170 08:43 06.03.2020
1483 Clear -3 1008 53 10000 3 180 08:25 06.03.2020
1484 Clear -3 1008 53 10000 3 180 08:25 06.03.2020
1485 Clear -3 1009 53 10000 4 180 07:57 06.03.2020
1486 Clear -4 1010 58 10000 3 170 07:37 06.03.2020
1487 Clear -5 1010 62 10000 4 180 06:56 06.03.2020
1488 Clear -4 1011 53 10000 1 0 06:38 06.03.2020
1489 Clear -8 1011 67 10000 1 0 05:42 06.03.2020
1490 Clear -8 1011 67 10000 1 0 05:22 06.03.2020
1491 Clear -9 1011 66 8000 1 0 04:57 06.03.2020
1492 Clear -22 1012 83 10000 2 170 01:59 06.03.2020
1493 Clear -21 1012 76 10000 0.41 137 01:39 06.03.2020
1494 Clear -21 1012 76 10000 0.36 128 01:19 06.03.2020
1495 Clear -21 1011 76 10000 1 0 00:32 06.03.2020
1496 Clear -21 1011 76 10000 1 0 23:50 05.03.2020
1497 Clear -23 1011 76 10000 1 0 23:30 05.03.2020
1498 Clear -20 1011 76 10000 1 0 22:58 05.03.2020
1499 Clear -19 1011 84 10000 1 0 22:39 05.03.2020
1500 Clear -19 1011 84 10000 1 0 22:21 05.03.2020
1501 Clear -21 1011 83 10000 0.63 38 21:57 05.03.2020
1502 Clear -21 1011 83 10000 2 170 21:38 05.03.2020
1503 Clear -21 1011 83 10000 2 170 21:20 05.03.2020
1504 Clear -21 1011 83 10000 1 0 20:57 05.03.2020
1505 Clear -21 1011 83 10000 1 0 20:38 05.03.2020
1506 Clear -21 1011 83 10000 1 0 20:19 05.03.2020
1507 Clear -20 1011 83 10000 2 0 19:56 05.03.2020
1508 Clear -20 1011 83 10000 2 0 19:37 05.03.2020
1509 Clear -20 1011 83 10000 2 0 19:18 05.03.2020
1510 Clear -18 1011 77 10000 2 0 18:39 05.03.2020
1511 Clear -18 1011 77 10000 2 0 18:20 05.03.2020
1512 Clear -17 1012 77 10000 3 150 17:59 05.03.2020
1513 Clear -17 1012 77 10000 3 150 17:40 05.03.2020
1514 Clear -17 1012 77 10000 3 150 17:22 05.03.2020
1515 Clouds -16 1012 77 10000 1 0 16:55 05.03.2020
1516 Clouds -16 1012 77 10000 1 0 16:36 05.03.2020
1517 Clouds -16 1012 77 10000 1 0 16:18 05.03.2020
1518 Clouds -15 1011 71 10000 1 0 15:44 05.03.2020
1519 Clouds -14 1011 77 10000 2 0 15:22 05.03.2020
1520 Clouds -11 1011 72 10000 1 0 14:57 05.03.2020
1521 Clouds -9 1011 72 10000 1 0 14:39 05.03.2020
1522 Clouds -9 1011 72 10000 1 0 14:20 05.03.2020
1523 Clouds -9 1011 66 10000 2 290 13:55 05.03.2020
1524 Clouds -9 1010 66 10000 3 340 13:36 05.03.2020
1525 Clouds -9 1010 66 10000 3 340 13:18 05.03.2020
1526 Clouds -6 1009 57 10000 5 350 12:40 05.03.2020
1527 Clouds -6 1009 57 10000 5 350 12:20 05.03.2020
1528 Clouds -5 1009 57 10000 7 350 11:57 05.03.2020
1529 Clouds -5 1008 57 10000 7 350 11:37 05.03.2020
1530 Clouds -5 1008 57 10000 7 350 11:19 05.03.2020
1531 Clouds -4 1008 53 10000 6 350 10:57 05.03.2020
1532 Clouds -4 1007 49 10000 7 340 10:38 05.03.2020
1533 Clouds -4 1007 49 10000 7 340 10:20 05.03.2020
1534 Clouds -4 1007 49 10000 7 330 09:45 05.03.2020
1535 Clouds -4 1007 53 10000 7 340 09:26 05.03.2020
1536 Clouds -3 1007 45 10000 6 330 08:47 05.03.2020
1537 Clouds -3 1007 53 10000 6 340 08:29 05.03.2020
1538 Clouds -3 1007 45 10000 7 340 07:49 05.03.2020
1539 Clouds -4 1007 62 10000 4 260 07:22 05.03.2020
1540 Clouds -5 1007 57 10000 2 0 06:49 05.03.2020
1541 Clouds -5 1007 53 10000 1 0 06:23 05.03.2020
1542 Clouds -7 1007 57 10000 1 0 05:57 05.03.2020
1543 Clouds -7 1007 57 10000 2 0 05:31 05.03.2020
1544 Clouds -10 1007 56 10000 2.48 291 04:23 05.03.2020
1545 Clouds -12 1007 55 10000 2.48 291 03:56 05.03.2020
1546 Clouds -17 1006 70 10000 2.48 291 02:21 05.03.2020
1547 Clouds -20 1006 70 10000 1 0 01:24 05.03.2020
1548 Clouds -19 1005 77 10000 1 0 00:29 05.03.2020
1549 Clouds -21 1005 76 10000 2 0 23:43 04.03.2020
1550 Clouds -21 1005 76 10000 1.01 299 23:24 04.03.2020
1551 Clouds -19 1005 70 10000 1.21 103 22:59 04.03.2020
1552 Clouds -19 1005 70 10000 1.21 103 22:40 04.03.2020
1553 Clouds -19 1005 70 10000 1.21 103 22:19 04.03.2020
1554 Clouds -19 1005 77 10000 1 0 21:59 04.03.2020
1555 Clouds -19 1005 77 10000 1 0 21:41 04.03.2020
1556 Clouds -19 1005 77 10000 1 0 21:20 04.03.2020
1557 Clouds -18 1006 70 10000 2 0 20:56 04.03.2020
1558 Clouds -18 1006 70 10000 2 0 20:37 04.03.2020
1559 Clouds -18 1006 70 10000 2 0 20:19 04.03.2020
1560 Clouds -16 1006 71 10000 2.25 100 19:42 04.03.2020
1561 Clouds -16 1006 71 10000 2.25 100 19:23 04.03.2020
1562 Clouds -16 1006 71 0 2.25 100 18:56 04.03.2020
1563 Clouds -16 1006 71 0 2.25 100 18:36 04.03.2020
1564 Clouds -16 1006 71 0 2.25 100 18:18 04.03.2020
1565 Clouds -18 1007 70 10000 2 190 17:55 04.03.2020
1566 Clouds -18 1007 70 10000 2 190 17:37 04.03.2020
1567 Clouds -18 1007 70 10000 2 190 17:18 04.03.2020
1568 Clouds -16 1008 71 10000 1 0 16:42 04.03.2020
1569 Clouds -16 1008 71 10000 1 0 16:24 04.03.2020
1570 Clouds -14 1009 65 10000 1 0 15:57 04.03.2020
1571 Clouds -11 1009 56 10000 1 0 15:39 04.03.2020
1572 Clouds -11 1009 56 10000 1 0 15:21 04.03.2020
1573 Clouds -12 1009 60 10000 2 0 14:54 04.03.2020
1574 Clouds -12 1009 66 10000 2 0 14:36 04.03.2020
1575 Clouds -12 1009 66 10000 2 0 14:18 04.03.2020
1576 Clouds -11 1010 61 10000 1 0 13:54 04.03.2020
1577 Clouds -10 1010 61 10000 2 0 13:36 04.03.2020
1578 Clouds -10 1010 61 10000 2 0 13:18 04.03.2020
1579 Clouds -9 1010 56 10000 5 50 12:41 04.03.2020
1580 Clouds -9 1010 56 10000 5 50 12:23 04.03.2020
1581 Clouds -9 1010 56 10000 5 50 11:55 04.03.2020
1582 Clouds -9 1010 56 10000 5 50 11:55 04.03.2020
1583 Clouds -7 1011 48 10000 3 50 11:37 04.03.2020
1584 Clouds -7 1011 48 10000 3 50 11:19 04.03.2020
1585 Clouds -7 1011 48 10000 2 0 10:44 04.03.2020
1586 Clouds -6 1012 48 10000 4 130 10:25 04.03.2020
1587 Clouds -6 1012 44 10000 4 140 09:56 04.03.2020
1588 Clouds -6 1013 44 10000 4 130 09:38 04.03.2020
1589 Clouds -6 1013 44 10000 4 130 09:19 04.03.2020
1590 Clouds -7 1014 48 10000 4 160 08:41 04.03.2020
1591 Clouds -7 1014 48 10000 4 160 08:23 04.03.2020
1592 Clouds -7 1014 48 10000 4 160 07:48 04.03.2020
1593 Clouds -7 1015 44 10000 3 170 07:29 04.03.2020
1594 Clouds -8 1016 48 10000 4 150 06:53 04.03.2020
1595 Clouds -9 1017 43 10000 4 170 06:26 04.03.2020
1596 Clouds -9 1017 43 10000 4 170 06:26 04.03.2020
1597 Clouds -8 1017 44 10000 1 0 05:58 04.03.2020
1598 Clouds -11 1018 66 10000 2.37 132 05:21 04.03.2020
1599 Clouds -11 1018 66 10000 2.37 132 05:21 04.03.2020
1600 Clear -18 1019 84 10000 2.24 120 03:52 04.03.2020
1601 Clear -21 1020 83 10000 1 0 03:33 04.03.2020
1602 Clear -21 1020 76 10000 2.24 120 02:58 04.03.2020
1603 Clear -25 1020 75 10000 1 0 02:27 04.03.2020
1604 Clear -26 1020 75 10000 1 0 01:56 04.03.2020
1605 Clear -27 1021 68 10000 1 0 01:31 04.03.2020
1606 Clear -27 1021 75 10000 2.32 104 00:41 04.03.2020
1607 Clear -27 1021 75 10000 2.32 104 00:21 04.03.2020
1608 Clear -26 1021 75 10000 2.32 104 23:42 03.03.2020
1609 Clear -27 1021 75 10000 1 0 23:23 03.03.2020
1610 Clear -28 1021 75 10000 2.25 107 22:55 03.03.2020
1611 Clear -28 1021 75 10000 1 0 22:37 03.03.2020
1612 Clear -28 1021 75 10000 1 0 22:18 03.03.2020
1613 Clear -27 1022 75 10000 2.25 107 21:42 03.03.2020
1614 Clear -27 1022 75 10000 2.25 107 21:22 03.03.2020
1615 Clear -27 1023 75 10000 1 0 20:58 03.03.2020
1616 Clear -27 1023 75 10000 1 0 20:39 03.03.2020
1617 Clear -27 1023 75 10000 1 0 20:18 03.03.2020
1618 Clear -26 1023 75 10000 1 0 19:56 03.03.2020
1619 Clear -26 1023 75 10000 1 0 19:37 03.03.2020
1620 Clear -26 1023 75 10000 1 0 19:37 03.03.2020
1621 Clear -26 1023 75 10000 1 0 19:18 03.03.2020
1622 Clear -27 1024 75 10000 1 0 18:56 03.03.2020
1623 Clear -27 1024 75 10000 1 0 18:38 03.03.2020
1624 Clear -27 1024 75 10000 1 0 18:19 03.03.2020
1625 Clear -26 1024 68 10000 1 0 17:41 03.03.2020
1626 Clear -26 1024 68 10000 1 0 17:22 03.03.2020
1627 Clear -25 1024 83 10000 1 0 16:59 03.03.2020
1628 Clear -26 1025 75 10000 2 0 16:39 03.03.2020
1629 Clear -26 1025 75 10000 2 0 16:21 03.03.2020
1630 Clear -25 1025 75 10000 1 0 15:58 03.03.2020
1631 Clear -25 1025 75 10000 2 160 15:40 03.03.2020
1632 Clear -25 1025 75 10000 2 160 15:20 03.03.2020
1633 Clear -25 1025 75 10000 1 0 14:43 03.03.2020
1634 Clear -24 1025 76 10000 1 0 14:21 03.03.2020
1635 Clear -23 1025 83 10000 1 0 13:59 03.03.2020
1636 Clear -22 1025 76 10000 1 0 13:41 03.03.2020
1637 Clear -22 1025 76 10000 1 0 13:22 03.03.2020
1638 Clear -20 1025 70 10000 1 0 12:49 03.03.2020
1639 Clear -17 1025 77 10000 1 0 12:27 03.03.2020
1640 Clear -17 1025 77 10000 1 0 11:59 03.03.2020
1641 Clear -15 1025 77 10000 4 250 11:38 03.03.2020
1642 Clear -15 1025 77 10000 4 250 11:19 03.03.2020
1643 Clear -14 1025 71 10000 3 250 10:56 03.03.2020
1644 Clear -13 1025 65 10000 3 240 10:38 03.03.2020
1645 Clear -13 1025 65 10000 3 240 10:19 03.03.2020
1646 Clear -13 1025 65 10000 4 240 09:45 03.03.2020
1647 Clear -13 1025 65 10000 4 240 09:23 03.03.2020
1648 Clear -13 1025 71 10000 3 240 08:58 03.03.2020
1649 Clear -14 1025 77 10000 3 250 08:39 03.03.2020
1650 Clear -14 1025 77 10000 3 250 08:21 03.03.2020
1651 Clear -14 1026 71 10000 3 250 07:44 03.03.2020
1652 Clear -14 1026 71 10000 2 0 07:23 03.03.2020
1653 Clear -15 1026 71 10000 2 0 06:51 03.03.2020
1654 Clear -14 1027 65 10000 1 0 06:25 03.03.2020
1655 Clear -15 1027 65 10000 1 0 05:48 03.03.2020
1656 Clear -17 1027 77 10000 3 250 05:28 03.03.2020
1657 Clear -18 1027 77 10000 1 0 04:37 03.03.2020
1658 Clear -27 1027 68 10000 2 180 01:40 03.03.2020
1659 Clear -27 1027 75 10000 1 0 00:49 03.03.2020
1660 Clear -27 1027 68 10000 1 0 00:27 03.03.2020
1661 Clear -27 1027 75 0 0.27 8 23:59 02.03.2020
1662 Clear -26 1026 68 10000 1 0 23:40 02.03.2020
1663 Clear -26 1026 68 10000 1 0 23:22 02.03.2020
1664 Clear -23 1026 76 10000 0.64 12 22:55 02.03.2020
1665 Clear -23 1026 76 10000 0.64 12 22:55 02.03.2020
1666 Clear -25 1026 75 10000 1 0 22:37 02.03.2020
1667 Clear -25 1026 75 10000 1 0 22:18 02.03.2020
1668 Clear -26 1026 75 10000 2 170 21:42 02.03.2020
1669 Clear -26 1026 75 10000 2 170 21:24 02.03.2020
1670 Clear -26 1026 75 10000 2 170 20:59 02.03.2020
1671 Clear -26 1026 75 10000 2 170 20:41 02.03.2020
1672 Clouds -26 1026 75 10000 2 170 20:21 02.03.2020
1673 Clouds -25 1026 75 10000 1 0 19:57 02.03.2020
1674 Clouds -25 1026 75 10000 1 0 19:39 02.03.2020
1675 Clouds -25 1026 75 10000 1 0 19:20 02.03.2020
1676 Clouds -22 1042 91 0 1.09 13 18:54 02.03.2020
1677 Clouds -22 1042 91 0 1.09 13 18:36 02.03.2020
1678 Clouds -22 1042 91 0 1.09 13 18:18 02.03.2020
1679 Clouds -22 1026 83 10000 1.09 13 17:54 02.03.2020
1680 Clouds -22 1026 83 10000 1.09 13 17:36 02.03.2020
1681 Clouds -22 1026 83 10000 1.78 360 17:18 02.03.2020
1682 Clouds -18 1026 77 10000 1 0 16:39 02.03.2020
1683 Clouds -18 1026 77 10000 1 0 16:20 02.03.2020
1684 Clouds -17 1026 77 10000 1 0 15:44 02.03.2020
1685 Clouds -15 1026 71 10000 2 0 15:20 02.03.2020
1686 Clouds -14 1026 71 10000 2 350 14:56 02.03.2020
1687 Clouds -14 1026 71 10000 2 350 14:37 02.03.2020
1688 Clouds -14 1026 71 10000 2 350 14:37 02.03.2020
1689 Clouds -14 1026 71 10000 2 350 14:18 02.03.2020
1690 Clouds -14 1026 71 10000 4 340 13:40 02.03.2020
1691 Clouds -14 1026 71 10000 4 340 13:19 02.03.2020
1692 Clouds -13 1025 65 10000 3 360 12:55 02.03.2020
1693 Clouds -13 1025 71 10000 5 340 12:37 02.03.2020
1694 Clouds -13 1025 71 10000 5 340 12:18 02.03.2020
1695 Clouds -11 1024 61 10000 8 340 11:38 02.03.2020
1696 Clouds -11 1024 61 10000 8 340 11:19 02.03.2020
1697 Clouds -11 1024 66 10000 8 330 10:55 02.03.2020
1698 Clouds -11 1023 61 10000 9 330 10:36 02.03.2020
1699 Clouds -11 1023 61 10000 9 330 10:18 02.03.2020
1700 Clouds -11 1023 66 10000 8 330 09:45 02.03.2020
1701 Clouds -10 1023 56 10000 8 340 09:26 02.03.2020
1702 Clouds -10 1023 61 10000 7 340 08:47 02.03.2020
1703 Clouds -11 1022 66 10000 8 320 08:22 02.03.2020
1704 Clouds -11 1022 66 10000 8 320 07:44 02.03.2020
1705 Clouds -11 1022 66 10000 8 320 07:20 02.03.2020
1706 Clouds -11 1022 66 10000 7 330 06:49 02.03.2020
1707 Clouds -11 1022 66 10000 8 340 05:58 02.03.2020
1708 Clouds -12 1022 66 10000 7 330 04:56 02.03.2020
1709 Clouds -12 1022 66 10000 6 360 03:25 02.03.2020
1710 Clouds -12 1022 66 10000 5 360 02:49 02.03.2020
1711 Clouds -13 1021 78 10000 3 350 01:55 02.03.2020
1712 Clouds -12 1020 72 10000 5 350 01:33 02.03.2020
1713 Snow -12 1020 78 8000 3 340 00:24 02.03.2020
1714 Snow -11 1019 78 8000 3 20 23:59 01.03.2020
1715 Snow -12 1019 85 8000 2 0 23:41 01.03.2020
1716 Snow -12 1019 85 8000 2 0 23:21 01.03.2020
1717 Snow -11 1019 85 6000 2 0 22:44 01.03.2020
1718 Snow -11 1019 85 6000 2 360 22:21 01.03.2020
1719 Snow -11 1019 85 6000 2 0 21:57 01.03.2020
1720 Snow -11 1019 85 6000 2 0 21:39 01.03.2020
1721 Snow -11 1019 85 6000 2 0 21:20 01.03.2020
1722 Clouds -11 1018 78 10000 2 0 20:44 01.03.2020
1723 Clouds -11 1018 78 10000 2 0 20:25 01.03.2020
1724 Clouds -11 1018 78 10000 2 0 19:59 01.03.2020
1725 Clouds -11 1018 78 10000 2 0 19:59 01.03.2020
1726 Clouds -11 1018 78 10000 2 0 19:40 01.03.2020
1727 Clouds -11 1018 78 10000 2 0 19:21 01.03.2020
1728 Clouds -9 1018 66 10000 5 20 18:41 01.03.2020
1729 Clouds -9 1018 66 10000 5 20 18:21 01.03.2020
1730 Clouds -9 1018 66 10000 5 20 18:21 01.03.2020
1731 Clouds -10 1017 78 10000 4 10 17:58 01.03.2020
1732 Clouds -10 1017 78 10000 3 350 17:40 01.03.2020
1733 Clouds -10 1017 78 10000 3 350 17:22 01.03.2020
1734 Clouds -16 1017 84 10000 1 0 16:59 01.03.2020
1735 Clouds -13 1017 84 10000 3.41 334 16:39 01.03.2020
1736 Clouds -13 1017 84 10000 3.41 334 16:39 01.03.2020
1737 Clouds -13 1017 84 10000 3.41 334 16:19 01.03.2020
1738 Clouds -14 1017 84 10000 1 0 15:58 01.03.2020
1739 Clouds -14 1017 77 10000 1 0 15:40 01.03.2020
1740 Clouds -14 1017 77 10000 1 0 15:21 01.03.2020
1741 Clouds -13 1017 84 10000 1 0 14:57 01.03.2020
1742 Clouds -12 1017 78 10000 1 0 14:39 01.03.2020
1743 Clouds -12 1017 78 10000 1 0 14:21 01.03.2020
1744 Clouds -12 1017 85 10000 1 0 13:57 01.03.2020
1745 Clouds -12 1017 85 10000 1 0 13:38 01.03.2020
1746 Clouds -12 1017 85 10000 1 0 13:19 01.03.2020
1747 Clouds -11 1016 78 10000 2 160 12:44 01.03.2020
1748 Clouds -11 1016 85 10000 1 0 12:23 01.03.2020
1749 Clouds -11 1016 85 10000 1 0 12:23 01.03.2020
1750 Clouds -10 1016 78 10000 2 260 11:58 01.03.2020
1751 Clouds -10 1015 85 10000 2 280 11:39 01.03.2020
1752 Clouds -10 1015 85 10000 2 280 11:19 01.03.2020
1753 Clouds -10 1015 85 10000 2 260 10:56 01.03.2020
1754 Clouds -10 1015 85 10000 2 260 10:36 01.03.2020
1755 Clouds -10 1015 85 10000 2 260 10:18 01.03.2020
1756 Clouds -9 1016 78 10000 2 220 09:42 01.03.2020
1757 Clouds -9 1016 78 10000 2 220 09:42 01.03.2020
1758 Clouds -9 1016 78 10000 2 220 09:23 01.03.2020
1759 Snow -9 1016 78 6000 1 0 08:46 01.03.2020
1760 Snow -10 1016 78 5000 2 210 08:28 01.03.2020
1761 Clouds -9 1017 66 10000 3 240 07:56 01.03.2020
1762 Clouds -9 1017 66 10000 3 250 07:38 01.03.2020
1763 Clouds -9 1017 66 10000 3 250 07:19 01.03.2020
1764 Clouds -10 1017 78 10000 2 0 06:41 01.03.2020
1765 Mist -9 1018 85 8000 1 0 05:35 01.03.2020
1766 Mist -14 1020 84 1600 1.1 180 02:59 01.03.2020
1767 Fog -15 1021 84 500 0.94 137 02:18 01.03.2020
1768 Fog -15 1021 77 500 0.94 137 01:45 01.03.2020
1769 Fog -15 1021 77 500 1 0 00:51 01.03.2020
1770 Fog -15 1021 84 500 1 0 00:25 01.03.2020
1771 Fog -15 1021 84 1000 2 150 23:58 29.02.2020
1772 Clouds -14 1021 84 10000 1 0 23:40 29.02.2020
1773 Clouds -14 1021 84 10000 1 0 23:22 29.02.2020
1774 Clouds -15 1022 84 10000 1 0 22:38 29.02.2020
1775 Clouds -15 1022 84 10000 1 0 22:20 29.02.2020
1776 Clouds -14 1022 84 10000 0.91 162 21:39 29.02.2020
1777 Clouds -14 1022 84 10000 0.91 162 21:20 29.02.2020
1778 Clouds -14 1023 84 10000 0.91 162 20:42 29.02.2020
1779 Clouds -14 1023 84 10000 0.91 162 20:21 29.02.2020
1780 Clouds -16 1023 84 10000 2 100 19:56 29.02.2020
1781 Clouds -16 1023 84 10000 2 100 19:37 29.02.2020
1782 Clouds -16 1023 84 10000 2 100 19:18 29.02.2020
1783 Clouds -17 1023 84 10000 2 130 18:42 29.02.2020
1784 Clouds -17 1023 84 10000 2 130 18:23 29.02.2020
1785 Clouds -17 1023 77 10000 3 160 17:56 29.02.2020
1786 Clouds -17 1023 77 10000 3 160 17:37 29.02.2020
1787 Clouds -17 1023 77 10000 3 160 17:19 29.02.2020
1788 Clouds -18 1023 84 10000 3 150 16:44 29.02.2020
1789 Clouds -18 1023 84 10000 3 150 16:20 29.02.2020
1790 Clouds -17 1023 84 10000 3 150 15:57 29.02.2020
1791 Clouds -16 1023 84 10000 2 0 15:37 29.02.2020
1792 Clouds -16 1023 84 10000 2 0 15:19 29.02.2020
1793 Clouds -15 1023 84 10000 1 0 14:40 29.02.2020
1794 Clouds -15 1023 84 10000 1 0 14:22 29.02.2020
1795 Clouds -16 1022 84 10000 2 180 13:46 29.02.2020
1796 Clouds -13 1022 78 10000 2 0 13:27 29.02.2020
1797 Clouds -9 1022 78 10000 1 0 12:57 29.02.2020
1798 Clouds -8 1021 78 10000 3 310 12:38 29.02.2020
1799 Clouds -8 1021 78 10000 3 310 12:20 29.02.2020
1800 Clouds -8 1021 78 10000 3 290 11:45 29.02.2020
1801 Clouds -7 1021 73 10000 4 300 11:26 29.02.2020
1802 Clouds -7 1020 67 10000 4 280 10:51 29.02.2020
1803 Clouds -6 1020 62 10000 3 300 10:31 29.02.2020
1804 Clouds -6 1020 67 10000 2 290 09:56 29.02.2020
1805 Clouds -6 1020 67 10000 2 290 09:38 29.02.2020
1806 Clouds -6 1020 67 10000 2 290 09:18 29.02.2020
1807 Clouds -6 1019 67 10000 4 270 08:40 29.02.2020
1808 Clouds -6 1019 67 10000 4 270 08:21 29.02.2020
1809 Clouds -7 1019 73 10000 4 260 07:52 29.02.2020
1810 Clouds -7 1019 67 10000 5 250 07:25 29.02.2020
1811 Clouds -8 1020 72 10000 4 230 06:55 29.02.2020
1812 Clouds -8 1020 72 10000 4 220 06:29 29.02.2020
1813 Clouds -9 1020 66 10000 3 210 05:52 29.02.2020
1814 Clouds -9 1020 61 10000 2 0 05:32 29.02.2020
1815 Clouds -11 1019 61 10000 1 0 03:59 29.02.2020
1816 Clouds -12 1019 66 10000 2.3 308 03:24 29.02.2020
1817 Clouds -13 1019 71 10000 2 0 02:57 29.02.2020
1818 Clouds -17 1017 77 10000 1 0 01:59 29.02.2020
1819 Clouds -17 1017 77 10000 2 170 00:52 29.02.2020
1820 Clouds -20 1016 83 10000 2 180 00:28 29.02.2020
1821 Clouds -16 1016 84 10000 1 0 23:41 28.02.2020
1822 Clouds -16 1016 84 10000 1 0 23:23 28.02.2020
1823 Clouds -16 1016 84 10000 1 0 23:23 28.02.2020
1824 Clouds -17 1015 77 10000 2.03 333 22:43 28.02.2020
1825 Clouds -15 1015 77 10000 1 0 22:23 28.02.2020
1826 Clouds -14 1014 71 10000 2.03 333 21:42 28.02.2020
1827 Clouds -14 1014 71 10000 2.03 333 21:22 28.02.2020
1828 Clouds -16 1014 77 10000 1 0 20:59 28.02.2020
1829 Clouds -16 1014 77 10000 1 0 20:39 28.02.2020
1830 Clouds -16 1014 77 10000 1 0 20:20 28.02.2020
1831 Clouds -15 1013 71 10000 1.65 338 19:57 28.02.2020
1832 Clouds -15 1013 71 10000 1.65 338 19:38 28.02.2020
1833 Clouds -15 1013 71 10000 1.65 338 19:20 28.02.2020
1834 Clouds -17 1013 77 10000 1 0 18:47 28.02.2020
1835 Clouds -17 1013 77 10000 1 0 18:27 28.02.2020
1836 Clouds -17 1013 70 10000 1.65 338 17:57 28.02.2020
1837 Clouds -17 1013 70 10000 1.65 338 17:38 28.02.2020
1838 Clouds -17 1013 70 10000 1.29 76 17:20 28.02.2020
1839 Clouds -20 1013 76 10000 1 0 16:41 28.02.2020
1840 Clouds -20 1013 76 10000 1 0 16:20 28.02.2020
1841 Clouds -18 1013 77 10000 1 0 15:57 28.02.2020
1842 Clouds -17 1012 70 10000 1.29 76 15:38 28.02.2020
1843 Clouds -17 1012 70 10000 1.29 76 15:19 28.02.2020
1844 Clouds -17 1012 70 10000 1.29 76 14:46 28.02.2020
1845 Clouds -16 1012 77 10000 1 0 14:20 28.02.2020
1846 Clouds -15 1011 71 10000 2 0 13:59 28.02.2020
1847 Clouds -16 1011 77 10000 1 0 13:40 28.02.2020
1848 Clouds -16 1011 77 10000 1 0 13:20 28.02.2020
1849 Clouds -12 1010 66 10000 1.54 71 12:46 28.02.2020
1850 Clouds -9 1010 56 10000 1 0 12:28 28.02.2020
1851 Clouds -9 1010 56 10000 1.54 71 11:59 28.02.2020
1852 Clouds -7 1010 48 10000 1 0 11:40 28.02.2020
1853 Clouds -7 1010 48 10000 1 0 11:21 28.02.2020
1854 Snow -6 1010 48 10000 1 0 10:43 28.02.2020
1855 Clouds -6 1009 48 10000 1.52 122 10:24 28.02.2020
1856 Clouds -6 1010 41 10000 1 0 09:59 28.02.2020
1857 Clouds -7 1010 44 10000 2 0 09:40 28.02.2020
1858 Clouds -7 1010 44 10000 2 0 09:18 28.02.2020
1859 Clouds -8 1009 48 10000 1 0 08:42 28.02.2020
1860 Clouds -8 1009 48 10000 1 0 08:20 28.02.2020
1861 Clouds -9 1009 52 10000 3 40 07:45 28.02.2020
1862 Clouds -10 1010 56 10000 2 0 07:25 28.02.2020
1863 Clouds -12 1010 66 10000 2.27 129 06:51 28.02.2020
1864 Clouds -13 1011 65 10000 2.27 129 06:30 28.02.2020
1865 Clouds -17 1012 84 10000 1 0 05:29 28.02.2020
1866 Clouds -19 1012 84 10000 1 0 04:31 28.02.2020
1867 Clouds -22 1012 76 10000 1 0 02:48 28.02.2020
1868 Clouds -23 1012 76 10000 2.24 118 02:28 28.02.2020
1869 Clear -26 1012 75 10000 2.2 96 01:46 28.02.2020
1870 Clear -27 1013 75 10000 1 0 00:31 28.02.2020
1871 Clear -25 1013 69 10000 1 0 23:45 27.02.2020
1872 Clear -24 1013 76 10000 2.17 95 23:22 27.02.2020
1873 Clear -25 1013 75 10000 1 0 22:56 27.02.2020
1874 Clear -26 1013 75 10000 1 0 22:38 27.02.2020
1875 Clear -26 1013 75 10000 1 0 22:20 27.02.2020
1876 Clear -27 1014 75 10000 1 0 21:41 27.02.2020
1877 Clear -27 1014 75 10000 1 0 21:23 27.02.2020
1878 Clear -25 1015 75 10000 1 0 20:59 27.02.2020
1879 Clear -25 1015 75 10000 1 0 20:41 27.02.2020
1880 Clear -25 1015 75 10000 1 0 20:21 27.02.2020
1881 Clear -25 1015 75 10000 1 0 19:57 27.02.2020
1882 Clear -26 1015 75 10000 1 0 19:38 27.02.2020
1883 Clear -26 1015 75 10000 1 0 19:20 27.02.2020
1884 Clear -24 1015 76 10000 1 0 18:54 27.02.2020
1885 Clear -24 1015 76 10000 1 0 18:36 27.02.2020
1886 Clear -24 1015 76 10000 1 0 18:18 27.02.2020
1887 Clear -24 1016 76 10000 1 0 17:40 27.02.2020
1888 Clear -24 1016 76 10000 1 0 17:20 27.02.2020
1889 Clear -23 1016 76 10000 2 170 16:59 27.02.2020
1890 Clear -23 1016 83 10000 2 0 16:40 27.02.2020
1891 Clear -23 1016 83 10000 2 0 16:20 27.02.2020
1892 Clear -23 1017 76 10000 2 170 15:58 27.02.2020
1893 Clear -21 1017 76 10000 1 0 15:37 27.02.2020
1894 Clear -21 1017 76 10000 1 0 15:19 27.02.2020
1895 Clear -21 1017 83 10000 1 0 14:56 27.02.2020
1896 Clear -21 1017 83 10000 1 0 14:37 27.02.2020
1897 Clouds -21 1017 83 10000 1 0 14:19 27.02.2020
1898 Clouds -20 1017 83 10000 3 160 13:42 27.02.2020
1899 Clouds -20 1017 83 10000 3 160 13:21 27.02.2020
1900 Clouds -18 1017 77 10000 3 170 12:55 27.02.2020
1901 Clouds -17 1017 77 10000 3 160 12:37 27.02.2020
1902 Clouds -17 1017 77 10000 3 160 12:18 27.02.2020
1903 Clouds -12 1016 66 10000 2 220 11:41 27.02.2020
1904 Clouds -12 1016 66 10000 2 220 11:21 27.02.2020
1905 Clouds -12 1016 66 10000 2 220 11:21 27.02.2020
1906 Clouds -11 1017 66 10000 3 210 10:44 27.02.2020
1907 Clouds -11 1017 66 10000 3 210 10:44 27.02.2020
1908 Clouds -10 1017 66 10000 3 220 10:23 27.02.2020
1909 Clouds -10 1017 66 10000 3 220 09:49 27.02.2020
1910 Clouds -10 1016 66 10000 3 220 09:29 27.02.2020
1911 Clouds -10 1017 66 10000 4 220 08:58 27.02.2020
1912 Clouds -10 1017 72 10000 4 240 08:40 27.02.2020
1913 Clouds -10 1017 72 10000 4 240 08:22 27.02.2020
1914 Clouds -10 1017 72 10000 3 220 07:44 27.02.2020
1915 Clouds -10 1017 66 10000 2 0 07:25 27.02.2020
1916 Clouds -10 1017 66 10000 2 0 06:46 27.02.2020
1917 Clouds -12 1018 85 10000 2 0 05:43 27.02.2020
1918 Fog -16 1019 84 100 1.79 299 03:40 27.02.2020
1919 Mist -19 1019 84 1500 1 0 02:21 27.02.2020
1920 Fog -19 1018 84 1000 1 0 00:45 27.02.2020
1921 Fog -18 1018 77 500 1 0 00:26 27.02.2020
1922 Fog -14 1018 92 1000 1.33 329 23:40 26.02.2020
1923 Fog -14 1018 92 1000 1.33 329 23:40 26.02.2020
1924 Fog -14 1018 92 1000 1.23 293 23:19 26.02.2020
1925 Mist -14 1018 84 2000 1 0 22:57 26.02.2020
1926 Clouds -14 1018 92 10000 1 0 22:39 26.02.2020
1927 Clouds -14 1018 92 10000 1 0 22:19 26.02.2020
1928 Clouds -14 1018 84 10000 1 0 21:55 26.02.2020
1929 Clouds -14 1018 84 10000 1 0 21:36 26.02.2020
1930 Clouds -14 1018 84 10000 1 0 21:18 26.02.2020
1931 Clouds -14 1018 92 10000 2 190 20:54 26.02.2020
1932 Clouds -14 1018 92 10000 2 190 20:54 26.02.2020
1933 Clouds -14 1018 92 10000 2 190 20:36 26.02.2020
1934 Clouds -14 1018 92 10000 2 190 20:18 26.02.2020
1935 Clouds -13 1019 84 10000 1 0 19:44 26.02.2020
1936 Clouds -13 1019 84 10000 1 0 19:20 26.02.2020
1937 Clouds -11 1019 92 10000 0.5 264 18:58 26.02.2020
1938 Clouds -11 1019 92 10000 0.5 264 18:39 26.02.2020
1939 Clouds -11 1019 92 10000 0.5 264 18:21 26.02.2020
1940 Snow -9 1019 85 8000 0.5 264 17:42 26.02.2020
1941 Snow -9 1019 85 8000 0.5 264 17:23 26.02.2020
1942 Snow -9 1019 85 6000 1 0 16:57 26.02.2020
1943 Snow -9 1020 85 6000 1 0 16:39 26.02.2020
1944 Snow -9 1020 85 6000 1 0 16:39 26.02.2020
1945 Snow -9 1020 85 6000 1 0 16:21 26.02.2020
1946 Snow -9 1020 85 6000 1 0 15:46 26.02.2020
1947 Snow -9 1020 78 8000 1 0 15:28 26.02.2020
1948 Clouds -9 1020 78 10000 1 0 14:57 26.02.2020
1949 Clouds -8 1019 72 10000 3 50 14:39 26.02.2020
1950 Clouds -8 1019 72 10000 3 50 14:21 26.02.2020
1951 Clouds -8 1020 72 10000 4 40 13:42 26.02.2020
1952 Clouds -8 1019 72 10000 2 0 13:42 26.02.2020
1953 Clouds -8 1019 72 10000 2 0 13:20 26.02.2020
1954 Clouds -7 1019 67 10000 3 120 12:39 26.02.2020
1955 Clouds -7 1019 67 10000 3 120 12:20 26.02.2020
1956 Clouds -7 1019 73 10000 5 140 11:57 26.02.2020
1957 Clouds -7 1019 73 10000 5 140 11:39 26.02.2020
1958 Clouds -7 1019 73 10000 5 140 11:21 26.02.2020
1959 Clouds -6 1019 62 10000 9 130 10:42 26.02.2020
1960 Clouds -6 1019 62 10000 9 130 10:23 26.02.2020
1961 Clouds -6 1019 62 10000 8 140 09:57 26.02.2020
1962 Clouds -6 1019 67 10000 8 150 09:39 26.02.2020
1963 Clouds -6 1019 67 10000 8 150 09:20 26.02.2020
1964 Clouds -6 1020 67 10000 8 140 08:39 26.02.2020
1965 Clouds -6 1020 67 10000 8 140 08:19 26.02.2020
1966 Clouds -6 1020 62 10000 11 140 07:51 26.02.2020
1967 Clouds -6 1020 67 10000 11 140 07:30 26.02.2020
1968 Clouds -7 1020 73 10000 11 140 06:58 26.02.2020
1969 Clouds -7 1020 73 10000 12 130 06:39 26.02.2020
1970 Clouds -7 1020 73 10000 12 130 06:18 26.02.2020
1971 Clouds -7 1020 73 10000 12 140 05:47 26.02.2020
1972 Clouds -7 1021 73 10000 10 130 04:52 26.02.2020
1973 Clouds -9 1022 72 10000 9 140 02:55 26.02.2020
1974 Clouds -9 1022 66 10000 5 100 01:51 26.02.2020
1975 Clouds -9 1022 66 10000 6 130 01:21 26.02.2020
1976 Clouds -9 1022 72 10000 8 140 00:28 26.02.2020
1977 Clouds -9 1022 72 10000 7 150 23:59 25.02.2020
1978 Clouds -9 1022 72 10000 7 150 23:41 25.02.2020
1979 Clouds -9 1022 72 10000 7 150 23:21 25.02.2020
1980 Clouds -9 1022 72 10000 7 150 23:21 25.02.2020
1981 Clouds -9 1022 72 10000 7 150 22:43 25.02.2020
1982 Clouds -9 1023 72 10000 7 140 22:20 25.02.2020
1983 Clouds -9 1023 72 10000 6 130 21:58 25.02.2020
1984 Clouds -9 1023 72 10000 6 130 21:37 25.02.2020
1985 Clouds -9 1023 72 10000 6 130 21:19 25.02.2020
1986 Clouds -9 1024 72 10000 7 140 20:56 25.02.2020
1987 Clouds -9 1024 72 10000 7 140 20:37 25.02.2020
1988 Clouds -9 1024 72 10000 7 140 20:19 25.02.2020
1989 Clouds -10 1024 72 10000 7 140 19:43 25.02.2020
1990 Clouds -10 1024 72 10000 7 140 19:22 25.02.2020
1991 Clouds -10 1024 72 10000 6 140 18:58 25.02.2020
1992 Clouds -10 1024 72 10000 7 150 18:39 25.02.2020
1993 Clouds -10 1024 72 10000 7 150 18:20 25.02.2020
1994 Clouds -11 1024 72 10000 6 140 17:55 25.02.2020
1995 Clouds -11 1024 72 10000 6 140 17:36 25.02.2020
1996 Clouds -11 1024 72 10000 6 140 17:18 25.02.2020
1997 Snow -11 1024 72 10000 6 140 16:42 25.02.2020
1998 -273 0 0 0 0 0 16:22 25.02.2020
1999 Snow -11 1024 72 10000 6 140 16:22 25.02.2020
2000 Snow -11 1024 72 10000 6 140 15:59 25.02.2020
2001 Snow -11 1024 72 10000 6 140 15:59 25.02.2020
2002 Snow -11 1024 78 10000 5 140 15:41 25.02.2020
2003 Snow -11 1024 78 10000 5 140 15:20 25.02.2020
2004 Clouds -11 1024 72 10000 5 150 14:58 25.02.2020
2005 Clouds -11 1024 72 10000 5 140 14:38 25.02.2020
2006 Clouds -11 1024 72 10000 5 140 14:18 25.02.2020
2007 Clouds -12 1024 72 10000 5 150 13:57 25.02.2020
2008 Clouds -11 1024 72 10000 4 140 13:38 25.02.2020
2009 Clouds -11 1024 72 10000 4 140 13:20 25.02.2020
2010 Clouds -12 1023 72 10000 4 140 12:42 25.02.2020
2011 Clouds -12 1023 72 10000 4 140 12:23 25.02.2020
2012 Clouds -11 1023 72 10000 5 150 11:59 25.02.2020
2013 Clouds -11 1023 72 10000 3 180 11:41 25.02.2020
2014 Clouds -11 1023 72 10000 3 180 11:20 25.02.2020
2015 Clouds -9 1022 66 10000 4 150 10:59 25.02.2020
2016 Clouds -8 1023 61 10000 5 150 10:40 25.02.2020
2017 Clouds -8 1023 61 10000 5 150 10:22 25.02.2020
2018 Clouds -8 1022 67 10000 6 150 09:42 25.02.2020
2019 Clouds -8 1022 67 10000 6 150 09:42 25.02.2020
2020 Clouds -8 1022 67 10000 6 150 09:22 25.02.2020
2021 Clouds -8 1022 67 10000 6 150 08:55 25.02.2020
2022 Clouds -8 1022 67 10000 6 150 08:37 25.02.2020
2023 Clouds -8 1022 67 10000 6 150 08:19 25.02.2020
2024 Clouds -8 1022 67 10000 5 150 07:40 25.02.2020
2025 Clouds -8 1022 67 10000 5 150 07:20 25.02.2020
2026 Clouds -8 1023 72 10000 5 140 06:41 25.02.2020
2027 Snow -10 1023 85 8000 2 0 05:37 25.02.2020
2028 Snow -12 1023 85 8000 1 0 03:35 25.02.2020
2029 Clouds -17 1022 77 10000 2 170 01:36 25.02.2020
2030 Snow -15 1022 84 10000 1 0 00:48 25.02.2020
2031 Snow -15 1022 84 10000 1 0 00:48 25.02.2020
2032 Snow -14 1022 84 10000 1 0 00:29 25.02.2020
2033 Clouds -16 1021 84 10000 2 160 23:43 24.02.2020
2034 Clouds -16 1021 84 10000 2 160 23:21 24.02.2020
2035 Clouds -15 1021 84 10000 2 160 22:43 24.02.2020
2036 Clouds -12 1021 85 10000 1 0 22:21 24.02.2020
2037 Snow -12 1021 85 10000 1.42 111 21:57 24.02.2020
2038 Snow -12 1021 85 10000 1.42 111 21:57 24.02.2020
2039 Snow -12 1021 85 10000 1.42 111 21:39 24.02.2020
2040 Snow -12 1021 85 10000 1.42 111 21:20 24.02.2020
2041 Snow -12 1021 85 10000 1.42 111 20:58 24.02.2020
2042 Snow -12 1021 85 10000 1.42 111 20:40 24.02.2020
2043 Snow -12 1021 85 10000 1.42 111 20:40 24.02.2020
2044 Snow -12 1021 85 10000 1.44 125 20:19 24.02.2020
2045 Snow -11 1021 85 10000 1 0 19:57 24.02.2020
2046 Snow -11 1021 85 10000 1 0 19:38 24.02.2020
2047 Snow -11 1021 85 10000 1 0 19:20 24.02.2020
2048 Snow -9 1021 85 10000 1 0 18:54 24.02.2020
2049 Snow -9 1021 85 10000 1 0 18:36 24.02.2020
2050 Snow -9 1021 85 10000 1 0 18:18 24.02.2020
2051 Snow -9 1021 78 10000 3 150 17:40 24.02.2020
2052 Snow -9 1021 78 10000 3 150 17:20 24.02.2020
2053 Snow -9 1021 85 10000 3 150 16:58 24.02.2020
2054 Snow -9 1021 85 10000 3 180 16:39 24.02.2020
2055 Snow -9 1021 85 10000 3 180 16:20 24.02.2020
2056 Snow -9 1021 85 10000 3 180 16:20 24.02.2020
2057 Snow -12 1032 93 0 1.69 157 15:58 24.02.2020
2058 Snow -9 1021 85 10000 3 180 15:39 24.02.2020
2059 Snow -9 1021 85 10000 3 180 15:21 24.02.2020
2060 Snow -8 1020 85 10000 2 170 14:56 24.02.2020
2061 Snow -8 1020 85 10000 2 180 14:38 24.02.2020
2062 Snow -8 1020 85 10000 2 180 14:18 24.02.2020
2063 Snow -8 1020 85 10000 1 0 13:55 24.02.2020
2064 Snow -7 1020 79 8000 1 0 13:36 24.02.2020
2065 Snow -7 1020 79 8000 1 0 13:18 24.02.2020
2066 Clouds -6 1019 67 10000 1.55 155 12:41 24.02.2020
2067 Clouds -6 1019 67 10000 1.55 155 12:41 24.02.2020
2068 Clouds -6 1019 67 10000 1.55 155 12:23 24.02.2020
2069 Clouds -6 1019 67 10000 1.55 155 12:23 24.02.2020
2070 Clouds -6 1018 62 10000 2 330 11:50 24.02.2020
2071 Clouds -6 1018 67 10000 3 330 11:32 24.02.2020
2072 Clouds -5 1018 62 10000 3 320 10:54 24.02.2020
2073 Clouds -5 1017 62 10000 3 310 10:36 24.02.2020
2074 Clouds -5 1017 62 10000 3 310 10:18 24.02.2020
2075 Clouds -5 1017 62 10000 2 250 09:40 24.02.2020
2076 Clouds -5 1017 62 10000 2 250 09:19 24.02.2020
2077 Clouds -5 1017 62 10000 2 250 09:19 24.02.2020
2078 Clouds -5 1017 57 10000 2 250 08:51 24.02.2020
2079 Clouds -5 1017 57 10000 3 230 08:29 24.02.2020
2080 Clouds -5 1017 57 10000 3 230 08:29 24.02.2020
2081 Clouds -5 1017 57 10000 2 240 07:55 24.02.2020
2082 Clouds -5 1018 53 10000 2 250 07:33 24.02.2020
2083 Clouds -5 1018 57 10000 1 0 06:50 24.02.2020
2084 Clouds -4 1018 53 10000 1.44 167 06:23 24.02.2020
2085 Clouds -6 1018 57 8000 1 0 05:44 24.02.2020
2086 Clouds -8 1019 67 8000 2 250 05:24 24.02.2020
2087 Clouds -11 1018 72 8000 1.21 150 02:57 24.02.2020
2088 Clouds -16 1018 84 10000 2 150 01:55 24.02.2020
2089 Clouds -19 1018 84 10000 2 170 01:30 24.02.2020
2090 Clouds -19 1018 84 10000 2 170 01:30 24.02.2020
2091 Clouds -17 1017 84 10000 2 190 00:44 24.02.2020
2092 Clouds -15 1017 77 10000 2 170 00:20 24.02.2020
2093 Clouds -13 1017 78 10000 1 0 23:42 23.02.2020
2094 Clouds -11 1017 78 10000 0.9 100 23:23 23.02.2020
2095 Clouds -11 1017 78 10000 1 0 22:58 23.02.2020
2096 Clouds -11 1017 78 10000 1 0 22:40 23.02.2020
2097 Clouds -11 1017 78 10000 1 0 22:21 23.02.2020
2098 Clouds -12 1017 78 10000 1 0 21:46 23.02.2020
2099 Clouds -12 1017 78 10000 1 0 21:21 23.02.2020
2100 Clouds -11 1017 78 10000 1 0 20:59 23.02.2020
2101 Clouds -11 1017 78 10000 1 0 20:40 23.02.2020
2102 Clouds -11 1017 78 10000 1 0 20:22 23.02.2020
2103 Clouds -11 1017 78 10000 1 0 19:59 23.02.2020
2104 Clouds -11 1017 78 10000 1 0 19:41 23.02.2020
2105 Clouds -11 1017 78 10000 1 0 19:20 23.02.2020
2106 Clouds -12 1017 78 10000 1 0 18:59 23.02.2020
2107 Clouds -12 1017 78 10000 1 0 18:40 23.02.2020
2108 Clouds -12 1017 78 10000 1 0 18:20 23.02.2020
2109 Clouds -12 1017 78 10000 1 0 17:58 23.02.2020
2110 Clouds -12 1017 78 10000 1 0 17:39 23.02.2020
2111 Clouds -12 1017 78 10000 1 0 17:21 23.02.2020
2112 Clouds -13 1016 78 10000 1 0 16:56 23.02.2020
2113 Clouds -11 1016 72 10000 1 0 16:36 23.02.2020
2114 Clouds -11 1016 72 10000 1 0 16:18 23.02.2020
2115 Clouds -10 1015 78 10000 1 0 15:40 23.02.2020
2116 Clouds -10 1015 78 10000 1 0 15:21 23.02.2020
2117 Clouds -8 1015 72 10000 1 0 14:59 23.02.2020
2118 Clouds -8 1015 72 10000 1 0 14:59 23.02.2020
2119 Clouds -8 1015 72 10000 1 0 14:41 23.02.2020
2120 Clouds -8 1015 72 10000 1 0 14:22 23.02.2020
2121 Clouds -6 1015 62 10000 2 0 13:58 23.02.2020
2122 Clouds -6 1015 62 10000 2 330 13:39 23.02.2020
2123 Clouds -6 1015 62 10000 2 330 13:21 23.02.2020
2124 Clouds -5 1014 57 10000 2 350 12:43 23.02.2020
2125 Clouds -5 1014 62 10000 3 330 12:23 23.02.2020
2126 Clouds -5 1014 62 10000 4 340 11:59 23.02.2020
2127 Clouds -5 1013 62 10000 4 310 11:37 23.02.2020
2128 Clouds -5 1013 62 10000 4 310 11:19 23.02.2020
2129 Clouds -4 1013 58 10000 4 290 10:55 23.02.2020
2130 Clouds -4 1013 58 10000 4 290 10:37 23.02.2020
2131 Clouds -4 1013 58 10000 4 290 10:19 23.02.2020
2132 Clouds -4 1012 62 10000 3 290 09:40 23.02.2020
2133 Clouds -4 1012 62 10000 3 290 09:21 23.02.2020
2134 Clouds -3 1012 58 10000 2 0 08:56 23.02.2020
2135 Clouds -4 1012 62 10000 1 0 08:38 23.02.2020
2136 Clouds -4 1012 62 10000 1 0 08:18 23.02.2020
2137 Clouds -6 1012 62 8000 2 0 07:40 23.02.2020
2138 Clouds -6 1012 57 6000 2 0 06:52 23.02.2020
2139 Clouds -8 1012 57 6000 1 0 05:50 23.02.2020
2140 Smoke -11 1012 56 5000 1 0 04:42 23.02.2020
2141 Smoke -15 1012 71 5000 1 0 03:21 23.02.2020
2142 Clouds -19 1011 77 6000 1 0 02:27 23.02.2020
2143 Clouds -21 1010 83 6000 1 0 01:25 23.02.2020
2144 Clouds -21 1010 76 6000 1 0 00:48 23.02.2020
2145 Clouds -20 1010 83 8000 1 0 00:26 23.02.2020
2146 Clouds -20 1010 76 8000 1 0 23:47 22.02.2020
2147 Clouds -21 1009 76 8000 1 0 23:29 22.02.2020
2148 Clouds -21 1009 76 8000 1 0 22:59 22.02.2020
2149 Clouds -21 1009 83 8000 1 0 22:39 22.02.2020
2150 Clouds -21 1009 83 8000 1 0 22:18 22.02.2020
2151 Clouds -22 1009 83 8000 0.5 236 21:41 22.02.2020
2152 Clouds -22 1009 83 8000 0.5 236 21:23 22.02.2020
2153 Clouds -21 1009 70 8000 1 0 20:46 22.02.2020
2154 Clouds -21 1009 70 8000 1 0 20:46 22.02.2020
2155 Clouds -21 1009 70 8000 1 0 20:25 22.02.2020
2156 Clouds -21 1009 70 8000 1 0 20:25 22.02.2020
2157 Clouds -19 1009 70 8000 2 160 19:58 22.02.2020
2158 Clouds -19 1009 70 8000 2 160 19:39 22.02.2020
2159 Clouds -19 1009 70 8000 2 160 19:20 22.02.2020
2160 Clouds -18 1010 77 8000 2 0 18:39 22.02.2020
2161 Clouds -18 1010 77 8000 2 0 18:21 22.02.2020
2162 Clouds -19 1010 77 8000 0.62 234 17:57 22.02.2020
2163 Clouds -19 1010 77 8000 0.62 234 17:39 22.02.2020
2164 Clouds -19 1010 77 8000 0.62 234 17:21 22.02.2020
2165 Clouds -17 1010 70 10000 1 0 16:57 22.02.2020
2166 Clouds -16 1010 77 10000 2 0 16:38 22.02.2020
2167 Clouds -16 1010 77 10000 2 0 16:20 22.02.2020
2168 Clouds -16 1011 77 10000 1 0 15:43 22.02.2020
2169 Clouds -15 1011 77 10000 0.35 268 15:25 22.02.2020
2170 Clouds -15 1011 71 10000 1 0 14:44 22.02.2020
2171 Clouds -16 1011 77 10000 2 170 14:24 22.02.2020
2172 Clouds -14 1011 65 10000 1 0 13:59 22.02.2020
2173 Clouds -15 1012 65 10000 2 160 13:40 22.02.2020
2174 Clouds -15 1012 65 10000 2 160 13:19 22.02.2020
2175 Clouds -16 1012 77 10000 2 150 12:44 22.02.2020
2176 Clouds -15 1012 71 10000 1 0 12:24 22.02.2020
2177 Clouds -15 1012 71 10000 1 0 12:24 22.02.2020
2178 Clouds -15 1012 71 10000 2 160 11:55 22.02.2020
2179 Clouds -13 1012 71 10000 1 0 11:36 22.02.2020
2180 Clouds -13 1012 71 10000 1 0 11:18 22.02.2020
2181 Clouds -9 1012 56 10000 1 0 10:40 22.02.2020
2182 Clouds -9 1012 56 10000 1 0 10:20 22.02.2020
2183 Clouds -8 1012 52 10000 1 0 09:58 22.02.2020
2184 Clouds -8 1013 52 10000 1 0 09:39 22.02.2020
2185 Clouds -8 1013 52 10000 1 0 09:20 22.02.2020
2186 Clouds -9 1013 56 10000 1 0 08:48 22.02.2020
2187 Clouds -10 1014 56 8000 2 190 08:28 22.02.2020
2188 Clouds -10 1014 56 8000 1 0 07:49 22.02.2020
2189 Clouds -11 1015 56 8000 1 0 07:20 22.02.2020
2190 Clouds -12 1015 55 8000 1 0 06:48 22.02.2020
2191 Clouds -13 1016 60 8000 0.83 168 06:29 22.02.2020
2192 Clouds -18 1018 77 8000 1.33 127 04:33 22.02.2020
2193 Clouds -18 1018 77 8000 1.33 127 04:33 22.02.2020
2194 Clouds -21 1018 76 8000 1 0 03:24 22.02.2020
2195 Clear -26 1019 75 8000 1 0 02:31 22.02.2020
2196 Clear -25 1019 75 8000 1.7 102 01:46 22.02.2020
2197 Clear -26 1019 75 8000 1 0 01:25 22.02.2020
2198 Clear -28 1019 75 8000 1 0 00:45 22.02.2020
2199 Clear -27 1019 75 8000 1.7 101 00:26 22.02.2020
2200 Clear -27 1019 75 8000 1 0 23:47 21.02.2020
2201 Clear -27 1020 75 8000 1 0 23:22 21.02.2020
2202 Clear -27 1020 68 8000 1 0 22:55 21.02.2020
2203 Clear -27 1020 75 8000 1.72 99 22:37 21.02.2020
2204 Clear -27 1020 75 8000 1.72 99 22:18 21.02.2020
2205 Clear -28 1021 75 8000 1 0 21:42 21.02.2020
2206 Clear -28 1021 75 8000 1 0 21:23 21.02.2020
2207 Clear -28 1021 75 8000 1 0 21:23 21.02.2020
2208 Clear -26 1022 68 8000 1 0 20:48 21.02.2020
2209 Clear -26 1022 68 8000 1 0 20:29 21.02.2020
2210 Clear -27 1023 75 8000 1 0 19:44 21.02.2020
2211 Clear -27 1023 75 8000 1 0 19:25 21.02.2020
2212 Clear -27 1023 75 10000 1.3 108 18:58 21.02.2020
2213 Clear -27 1023 75 10000 1.3 108 18:39 21.02.2020
2214 Clear -27 1023 75 10000 1.3 108 18:21 21.02.2020
2215 Clear -26 1024 75 10000 2 170 17:41 21.02.2020
2216 Clear -26 1024 75 10000 2 170 17:23 21.02.2020
2217 Clear -26 1024 75 10000 2 170 17:23 21.02.2020
2218 Clear -24 1024 76 10000 2 0 16:58 21.02.2020
2219 Clear -24 1024 76 10000 2 0 16:40 21.02.2020
2220 Clear -24 1024 76 10000 2 0 16:21 21.02.2020
2221 Clear -24 1024 76 10000 1 0 15:47 21.02.2020
2222 Clear -24 1024 76 10000 2 140 15:19 21.02.2020
2223 Clear -22 1025 76 10000 2 150 14:59 21.02.2020
2224 Clear -22 1025 76 10000 1 0 14:41 21.02.2020
2225 Clear -22 1025 76 10000 1 0 14:19 21.02.2020
2226 Clear -21 1025 76 10000 1 0 13:43 21.02.2020
2227 Clear -17 1025 70 10000 1 0 13:24 21.02.2020
2228 Clear -20 1025 70 10000 4 170 12:55 21.02.2020
2229 Clear -19 1025 70 10000 4 170 12:36 21.02.2020
2230 Clear -19 1025 70 10000 4 170 12:18 21.02.2020
2231 Clear -15 1025 71 10000 3 170 11:42 21.02.2020
2232 Clouds -15 1025 71 10000 3 170 11:21 21.02.2020
2233 Clouds -13 1025 65 10000 3 190 10:57 21.02.2020
2234 Clouds -13 1025 65 10000 3 190 10:38 21.02.2020
2235 Clouds -13 1025 65 10000 3 190 10:19 21.02.2020
2236 Clouds -13 1025 65 10000 3 190 10:19 21.02.2020
2237 Clouds -12 1025 66 10000 2 0 09:57 21.02.2020
2238 Clouds -12 1026 66 10000 3 220 09:37 21.02.2020
2239 Clouds -12 1026 66 10000 3 220 09:19 21.02.2020
2240 Clouds -11 1025 61 10000 3 200 08:42 21.02.2020
2241 Clouds -11 1025 61 10000 3 200 08:22 21.02.2020
2242 Clouds -11 1025 61 10000 2 200 07:59 21.02.2020
2243 Clouds -12 1026 66 10000 3 190 07:40 21.02.2020
2244 Clouds -12 1026 66 10000 3 190 07:18 21.02.2020
2245 Clouds -12 1026 66 10000 2 170 06:50 21.02.2020
2246 Clouds -12 1026 72 10000 1 0 06:30 21.02.2020
2247 Clouds -12 1026 78 10000 2 180 05:43 21.02.2020
2248 Clouds -16 1026 84 10000 2 170 04:36 21.02.2020
2249 Clouds -16 1026 84 10000 2 170 04:18 21.02.2020
2250 Clouds -16 1026 84 10000 2 170 04:18 21.02.2020
2251 Clouds -17 1026 84 10000 1.86 294 03:39 21.02.2020
2252 Clouds -18 1025 84 10000 3 170 02:29 21.02.2020
2253 Clouds -20 1024 76 10000 3 180 01:24 21.02.2020
2254 Clouds -22 1024 76 10000 2 170 00:45 21.02.2020
2255 Clouds -22 1024 83 10000 2 170 00:23 21.02.2020
2256 Clouds -22 1023 76 10000 3 180 23:46 20.02.2020
2257 Clouds -23 1023 76 10000 3 170 23:25 20.02.2020
2258 Clouds -22 1023 76 10000 2 150 22:57 20.02.2020
2259 Clouds -22 1022 83 10000 1 0 22:38 20.02.2020
2260 Clouds -22 1022 83 10000 1 0 22:20 20.02.2020
2261 Clouds -20 1022 76 10000 1 0 21:56 20.02.2020
2262 Clouds -20 1022 76 10000 1 0 21:37 20.02.2020
2263 Clouds -20 1022 76 10000 1 0 21:37 20.02.2020
2264 Clouds -20 1022 76 10000 1 0 21:37 20.02.2020
2265 Clouds -20 1022 76 10000 1 0 21:19 20.02.2020
2266 Clouds -20 1022 76 10000 2.06 317 20:54 20.02.2020
2267 Clouds -20 1022 76 10000 2.06 317 20:36 20.02.2020
2268 Clouds -20 1022 76 10000 2.25 313 20:18 20.02.2020
2269 Clouds -22 1022 76 10000 1 0 19:56 20.02.2020
2270 Clouds -22 1022 76 10000 1 0 19:38 20.02.2020
2271 Clouds -22 1022 76 10000 1 0 19:20 20.02.2020
2272 Clouds -17 1021 84 10000 1 0 18:39 20.02.2020
2273 Clouds -17 1021 84 10000 1 0 18:19 20.02.2020
2274 Clouds -17 1021 84 10000 1 0 17:41 20.02.2020
2275 Clouds -13 1021 84 10000 2 310 17:23 20.02.2020
2276 -273 0 0 0 0 0 17:22 20.02.2020
2277 Clouds -13 1021 84 10000 2 310 17:22 20.02.2020
2278 Clouds -13 1021 84 10000 2 310 17:22 20.02.2020
2279 Clouds -13 1021 84 10000 2 310 16:58 20.02.2020
2280 Snow -15 1021 84 8000 1 0 16:40 20.02.2020
2281 Snow -15 1021 84 8000 1 0 16:20 20.02.2020
2282 Snow -14 1021 84 10000 1 0 15:58 20.02.2020
2283 Clouds -14 1021 84 10000 2 300 15:39 20.02.2020
2284 Clouds -14 1021 84 10000 2 300 15:20 20.02.2020
2285 Clouds -14 1021 84 10000 1 0 14:54 20.02.2020
2286 Clouds -14 1020 84 10000 2 0 14:36 20.02.2020
2287 Clouds -14 1020 84 10000 2 0 14:18 20.02.2020
2288 Clouds -14 1020 84 10000 2 0 14:18 20.02.2020
2289 Clouds -13 1020 78 10000 4 300 13:44 20.02.2020
2290 Clouds -13 1020 71 10000 4 290 13:19 20.02.2020
2291 Clouds -14 1020 77 10000 4 330 12:56 20.02.2020
2292 Clouds -12 1019 72 10000 4 350 12:37 20.02.2020
2293 Clouds -12 1019 72 10000 4 350 12:18 20.02.2020
2294 Clouds -11 1018 72 10000 5 330 11:42 20.02.2020
2295 Clouds -11 1018 72 10000 5 330 11:22 20.02.2020
2296 Clouds -11 1018 72 10000 5 330 11:22 20.02.2020
2297 Clouds -11 1018 66 10000 6 330 10:57 20.02.2020
2298 Clouds -11 1017 72 10000 6 330 10:39 20.02.2020
2299 Clouds -11 1017 72 10000 6 330 10:20 20.02.2020
2300 Clouds -10 1017 66 10000 6 330 09:45 20.02.2020
2301 Clouds -10 1016 72 10000 8 330 09:25 20.02.2020
2302 Clouds -10 1016 72 10000 6 340 08:57 20.02.2020
2303 Clouds -10 1016 72 10000 6 340 08:38 20.02.2020
2304 Clouds -10 1016 72 10000 6 340 08:20 20.02.2020
2305 Snow -11 1015 72 8000 8 330 07:45 20.02.2020
2306 Snow -11 1015 72 8000 8 330 07:21 20.02.2020
2307 Clouds -11 1015 72 10000 8 320 06:44 20.02.2020
2308 Clouds -11 1015 72 10000 8 310 06:25 20.02.2020
2309 Clouds -11 1015 72 10000 9 310 05:44 20.02.2020
2310 Clouds -11 1014 72 8000 8 320 04:51 20.02.2020
2311 Snow -11 1014 72 3600 7 310 03:58 20.02.2020
2312 Snow -11 1014 85 3600 4 310 03:28 20.02.2020
2313 Snow -10 1013 85 8000 3 330 02:23 20.02.2020
2314 Snow -10 1011 85 2000 5 290 00:58 20.02.2020
2315 Snow -10 1011 85 2000 5 300 00:31 20.02.2020
2316 Snow -10 1011 85 5000 2 310 23:49 19.02.2020
2317 Snow -11 1011 92 5000 2.19 313 23:22 19.02.2020
2318 Snow -11 1011 92 5000 1 0 22:46 19.02.2020
2319 Snow -10 1011 85 6000 2 0 22:28 19.02.2020
2320 Snow -10 1012 85 6000 1 0 21:59 19.02.2020
2321 Snow -10 1012 85 6000 1 0 21:41 19.02.2020
2322 Snow -10 1012 85 6000 1 0 21:19 19.02.2020
2323 Snow -10 1012 78 10000 1.12 81 20:58 19.02.2020
2324 Snow -10 1012 78 10000 1.12 81 20:39 19.02.2020
2325 Snow -10 1012 78 10000 1.94 97 20:20 19.02.2020
2326 Snow -11 1013 72 10000 1 0 19:58 19.02.2020
2327 Snow -11 1013 72 10000 1 0 19:38 19.02.2020
2328 Snow -11 1013 72 10000 1 0 19:38 19.02.2020
2329 Snow -11 1013 72 10000 1 0 19:20 19.02.2020
2330 Clouds -11 1014 72 10000 1.95 97 18:58 19.02.2020
2331 Clouds -11 1014 72 10000 1.95 97 18:40 19.02.2020
2332 Clouds -11 1014 72 10000 1.95 97 18:22 19.02.2020
2333 Clouds -11 1014 66 10000 1 0 17:57 19.02.2020
2334 Clouds -11 1014 66 10000 1 0 17:39 19.02.2020
2335 Clouds -11 1014 66 10000 1 0 17:19 19.02.2020
2336 Clouds -12 1015 72 10000 2 0 16:43 19.02.2020
2337 Clouds -12 1015 72 10000 2 0 16:43 19.02.2020
2338 Clouds -11 1015 66 10000 1 0 16:19 19.02.2020
2339 Clouds -11 1015 66 10000 2 0 15:57 19.02.2020
2340 Clouds -11 1015 66 10000 1 0 15:38 19.02.2020
2341 Clouds -11 1015 66 10000 1 0 15:19 19.02.2020
2342 Clouds -9 1016 61 10000 1 0 14:41 19.02.2020
2343 Clouds -9 1016 61 10000 1 0 14:23 19.02.2020
2344 Clouds -9 1017 61 10000 2 0 13:55 19.02.2020
2345 Clouds -9 1016 61 10000 4 140 13:36 19.02.2020
2346 Clouds -9 1016 61 10000 4 140 13:18 19.02.2020
2347 Clouds -8 1016 61 10000 5 140 12:38 19.02.2020
2348 Clouds -8 1016 61 10000 5 140 12:19 19.02.2020
2349 Clouds -8 1016 61 10000 6 140 11:54 19.02.2020
2350 Clouds -7 1016 62 10000 7 140 11:36 19.02.2020
2351 Clouds -7 1016 62 10000 7 140 11:18 19.02.2020
2352 Clouds -5 1016 53 10000 7 140 10:54 19.02.2020
2353 Clouds -5 1016 53 10000 7 130 10:36 19.02.2020
2354 Clouds -5 1016 53 10000 7 130 10:18 19.02.2020
2355 Clouds -5 1016 57 10000 6 130 09:41 19.02.2020
2356 Clouds -5 1016 57 10000 6 130 09:41 19.02.2020
2357 Clouds -5 1016 57 10000 6 130 09:20 19.02.2020
2358 Clouds -5 1016 57 10000 6 140 08:48 19.02.2020
2359 Clouds -5 1017 57 10000 5 140 08:24 19.02.2020
2360 Clouds -5 1017 57 10000 5 140 08:24 19.02.2020
2361 Clouds -5 1017 57 10000 5 140 08:24 19.02.2020
2362 Clouds -5 1017 53 10000 3 160 07:59 19.02.2020
2363 Clouds -6 1018 53 10000 2.15 134 07:39 19.02.2020
2364 Clouds -6 1018 53 10000 2.15 134 07:18 19.02.2020
2365 Clouds -7 1018 52 10000 2.15 134 06:45 19.02.2020
2366 Clouds -12 1019 60 8000 1 0 05:26 19.02.2020
2367 Clear -17 1019 77 8000 1.94 120 03:52 19.02.2020
2368 Clear -24 1019 76 6000 1.94 120 02:36 19.02.2020
2369 Clouds -26 1019 75 6000 1.71 99 01:41 19.02.2020
2370 Clouds -26 1019 75 6000 1.7 101 01:22 19.02.2020
2371 Clouds -25 1019 75 6000 1 0 00:39 19.02.2020
2372 Clouds -25 1019 75 6000 1 0 00:19 19.02.2020
2373 Clouds -24 1019 69 6000 1 0 23:39 18.02.2020
2374 Clouds -24 1019 69 6000 1 0 23:20 18.02.2020
2375 Clouds -23 1019 76 6000 2 0 22:55 18.02.2020
2376 Clouds -25 1019 75 8000 1 0 22:36 18.02.2020
2377 Clouds -25 1019 75 8000 1 0 22:18 18.02.2020
2378 Clouds -23 1020 76 8000 1 0 21:54 18.02.2020
2379 Clouds -23 1020 76 8000 1 0 21:36 18.02.2020
2380 Clouds -23 1020 76 8000 1 0 21:36 18.02.2020
2381 Clouds -23 1020 76 8000 1 0 21:18 18.02.2020
2382 Clouds -23 1020 76 8000 1 0 20:40 18.02.2020
2383 Clouds -23 1020 76 8000 1 0 20:22 18.02.2020
2384 Clouds -22 1021 76 8000 1.27 99 19:58 18.02.2020
2385 Clouds -22 1021 76 8000 1.27 99 19:40 18.02.2020
2386 Clouds -22 1021 76 8000 1.27 99 19:19 18.02.2020
2387 Clouds -22 1021 83 10000 1 0 18:42 18.02.2020
2388 Clouds -22 1021 83 10000 1 0 18:21 18.02.2020
2389 Clouds -22 1021 76 10000 1 0 17:58 18.02.2020
2390 Clouds -22 1021 76 10000 1 0 17:40 18.02.2020
2391 Clouds -22 1021 76 10000 1 0 17:40 18.02.2020
2392 Clouds -22 1021 76 10000 1 0 17:19 18.02.2020
2393 Clouds -21 1021 76 10000 2 180 16:40 18.02.2020
2394 Clouds -21 1021 76 10000 2 180 16:40 18.02.2020
2395 Clouds -21 1021 76 10000 2 180 16:21 18.02.2020
2396 Clouds -21 1021 83 10000 2 180 15:54 18.02.2020
2397 Clouds -21 1021 70 10000 2 160 15:36 18.02.2020
2398 Clouds -21 1021 70 10000 2 160 15:18 18.02.2020
2399 Clouds -21 1021 70 10000 2 160 15:18 18.02.2020
2400 Clouds -21 1021 76 10000 1 0 14:54 18.02.2020
2401 Clouds -22 1021 76 10000 1 0 14:36 18.02.2020
2402 Clouds -22 1021 76 10000 1 0 14:18 18.02.2020
2403 Clouds -18 1021 77 10000 1 0 13:41 18.02.2020
2404 Clouds -18 1021 77 10000 1 0 13:41 18.02.2020
2405 Clouds -18 1021 77 10000 1 0 13:21 18.02.2020
2406 Clouds -18 1021 77 10000 2 170 12:44 18.02.2020
2407 Clouds -17 1021 70 10000 1 0 12:25 18.02.2020
2408 Clouds -16 1021 71 10000 1 0 11:56 18.02.2020
2409 Clouds -13 1021 65 10000 1 0 11:38 18.02.2020
2410 Clouds -13 1021 65 10000 1 0 11:20 18.02.2020
2411 Clouds -11 1021 66 10000 1 0 10:44 18.02.2020
2412 Clouds -10 1021 66 10000 1 0 10:23 18.02.2020
2413 Clouds -10 1021 66 10000 2 230 09:57 18.02.2020
2414 Clouds -9 1021 61 10000 2 260 09:38 18.02.2020
2415 Clouds -9 1021 61 10000 2 260 09:19 18.02.2020
2416 Clouds -10 1021 61 8000 2 240 08:55 18.02.2020
2417 Clouds -10 1021 66 8000 2 0 08:37 18.02.2020
2418 Clouds -10 1021 66 8000 2 0 08:19 18.02.2020
2419 Clouds -10 1021 66 8000 2 0 08:19 18.02.2020
2420 Smoke -10 1022 61 5000 1 0 07:46 18.02.2020
2421 Smoke -10 1022 61 5000 1 0 07:25 18.02.2020
2422 Smoke -11 1022 61 5000 1 0 06:51 18.02.2020
2423 Smoke -12 1022 60 5000 1 0 06:28 18.02.2020
2424 Smoke -12 1023 60 5000 1 0 05:48 18.02.2020
2425 Smoke -14 1023 65 5000 1 0 05:21 18.02.2020
2426 Smoke -18 1023 77 4000 0.87 235 03:52 18.02.2020
2427 Smoke -22 1024 76 4000 1 0 02:58 18.02.2020
2428 Clouds -26 1023 75 6000 1 0 01:25 18.02.2020
2429 Clouds -24 1023 83 6000 1 0 00:43 18.02.2020
2430 Clouds -23 1023 76 8000 1 0 00:18 18.02.2020
2431 Clouds -24 1023 83 8000 1 0 23:39 17.02.2020
2432 Clouds -24 1023 83 8000 1 0 23:20 17.02.2020
2433 Clouds -24 1023 76 8000 1 0 22:58 17.02.2020
2434 Clouds -22 1023 76 8000 1 0 22:39 17.02.2020
2435 Clouds -22 1023 76 8000 1 0 22:18 17.02.2020
2436 Clouds -22 1023 76 8000 1 0 22:18 17.02.2020
2437 Clouds -23 1024 76 10000 1 0 21:39 17.02.2020
2438 Clouds -23 1024 76 10000 1 0 21:19 17.02.2020
2439 Clouds -23 1024 76 10000 1 0 20:55 17.02.2020
2440 Clouds -23 1024 76 10000 1 0 20:37 17.02.2020
2441 Clouds -23 1024 76 10000 1 0 20:18 17.02.2020
2442 Clouds -23 1024 76 10000 1 0 20:18 17.02.2020
2443 Clouds -21 1024 76 10000 1 0 19:42 17.02.2020
2444 Clouds -21 1024 76 10000 1 0 19:21 17.02.2020
2445 Clouds -23 1025 76 10000 2 160 18:56 17.02.2020
2446 Clouds -23 1025 76 10000 2 160 18:36 17.02.2020
2447 Clouds -23 1025 76 10000 2 160 18:36 17.02.2020
2448 Clouds -23 1025 76 10000 2 160 18:36 17.02.2020
2449 Clouds -23 1025 76 10000 2 160 18:36 17.02.2020
2450 Clouds -23 1025 76 10000 2 160 18:36 17.02.2020
2451 Clouds -23 1025 76 10000 2 160 18:18 17.02.2020
2452 Clouds -20 1025 76 10000 1 0 17:38 17.02.2020
2453 Clouds -20 1025 76 10000 1 0 17:20 17.02.2020
2454 Clouds -19 1025 77 10000 1 0 16:58 17.02.2020
2455 Clouds -19 1025 77 10000 2 0 16:40 17.02.2020
2456 Clouds -19 1025 77 10000 2 0 16:22 17.02.2020
2457 Clouds -20 1025 76 10000 0.64 305 15:46 17.02.2020
2458 Clouds -20 1025 76 10000 0.64 305 15:46 17.02.2020
2459 Clouds -18 1024 77 10000 1 0 15:28 17.02.2020
2460 Clouds -17 1024 70 10000 0.64 305 14:58 17.02.2020
2461 Clouds -16 1025 71 10000 2 190 14:40 17.02.2020
2462 Clouds -16 1025 71 10000 2 190 14:22 17.02.2020
2463 Clouds -16 1025 71 10000 2 190 14:22 17.02.2020
2464 Clouds -15 1024 71 10000 3 170 13:56 17.02.2020
2465 Clouds -15 1024 71 10000 3 170 13:56 17.02.2020
2466 Clouds -14 1025 71 10000 3 170 13:38 17.02.2020
2467 Clouds -14 1025 71 10000 3 170 13:18 17.02.2020
2468 Clouds -13 1025 71 10000 4 170 12:42 17.02.2020
2469 Clouds -13 1025 71 10000 4 170 12:23 17.02.2020
2470 Clouds -12 1025 66 10000 4 170 11:57 17.02.2020
2471 Clouds -11 1025 66 10000 3 170 11:39 17.02.2020
2472 Clouds -11 1025 66 10000 3 170 11:39 17.02.2020
2473 Clouds -11 1025 66 10000 3 170 11:20 17.02.2020
2474 Clouds -8 1025 61 10000 2 170 10:41 17.02.2020
2475 Clouds -8 1025 61 10000 2 170 10:22 17.02.2020
2476 Clouds -8 1025 61 10000 2 170 10:22 17.02.2020
2477 Clouds -7 1025 62 10000 3 170 09:59 17.02.2020
2478 Clouds -6 1025 57 10000 1 0 09:41 17.02.2020
2479 Clouds -6 1025 57 10000 1 0 09:21 17.02.2020
2480 Clouds -5 1025 53 10000 1 0 08:56 17.02.2020
2481 Clouds -7 1025 57 10000 2 250 08:38 17.02.2020
2482 Clouds -7 1025 57 10000 2 250 08:19 17.02.2020
2483 Clouds -7 1025 57 10000 2 250 08:19 17.02.2020
2484 Clouds -9 1026 61 8000 2 0 07:42 17.02.2020
2485 Clouds -9 1026 61 8000 2 0 07:23 17.02.2020
2486 Clouds -8 1026 57 6000 1 0 06:51 17.02.2020
2487 Clouds -11 1027 61 6000 1 0 06:30 17.02.2020
2488 Smoke -13 1027 60 5000 1 0 05:40 17.02.2020
2489 Smoke -15 1028 65 4000 1 0 04:59 17.02.2020
2490 Smoke -19 1028 77 5000 1.06 279 03:20 17.02.2020
2491 Clear -25 1029 75 6000 0.99 340 01:47 17.02.2020
2492 Clear -26 1029 68 8000 1.16 336 00:41 17.02.2020
2493 Clear -26 1029 68 8000 1.16 336 00:19 17.02.2020
2494 Clear -24 1029 76 8000 1 0 23:52 16.02.2020
2495 Clear -24 1029 76 8000 1 0 23:29 16.02.2020
2496 Clear -25 1029 75 8000 0.36 294 22:57 16.02.2020
2497 Clear -24 1030 76 8000 0.36 294 22:38 16.02.2020
2498 Clear -24 1030 76 8000 0.36 294 22:20 16.02.2020
2499 Clear -25 1030 75 10000 1 0 21:56 16.02.2020
2500 Clear -25 1030 75 10000 1 0 21:56 16.02.2020
2501 Clear -25 1030 75 10000 1 0 21:38 16.02.2020
2502 Clear -25 1030 75 10000 1 0 21:19 16.02.2020
2503 Clear -21 1030 76 10000 1 0 20:56 16.02.2020
2504 Clear -21 1030 76 10000 1 0 20:38 16.02.2020
2505 Clear -21 1030 76 10000 1 0 20:20 16.02.2020
2506 Clear -24 1031 76 10000 0.55 288 19:56 16.02.2020
2507 Clear -24 1031 76 10000 0.55 288 19:37 16.02.2020
2508 Clear -24 1031 76 10000 0.55 288 19:18 16.02.2020
2509 Clear -23 1030 76 10000 1 0 18:42 16.02.2020
2510 Clear -23 1030 76 10000 1 0 18:42 16.02.2020
2511 Clear -23 1030 76 10000 1 0 18:23 16.02.2020
2512 Clear -23 1031 76 10000 0.55 288 17:46 16.02.2020
2513 Clear -23 1031 69 10000 1 0 17:21 16.02.2020
2514 Clear -23 1031 69 10000 1 0 16:58 16.02.2020
2515 Clear -23 1031 76 10000 2 160 16:39 16.02.2020
2516 Clear -23 1031 76 10000 2 160 16:21 16.02.2020
2517 Clear -23 1031 76 10000 2 160 16:21 16.02.2020
2518 Clear -23 1031 76 10000 2 160 16:21 16.02.2020
2519 Clear -22 1032 69 10000 1 0 15:58 16.02.2020
2520 Clear -22 1032 69 10000 1 0 15:38 16.02.2020
2521 Clear -22 1032 69 10000 1 0 15:20 16.02.2020
2522 Clear -22 1032 69 10000 2 160 14:41 16.02.2020
2523 Clear -22 1032 69 10000 2 160 14:23 16.02.2020
2524 Clear -19 1032 64 10000 2 150 13:48 16.02.2020
2525 Clear -18 1032 70 10000 2 150 13:25 16.02.2020
2526 Clear -16 1032 65 10000 2 130 12:58 16.02.2020
2527 Clear -17 1031 70 10000 2 70 12:38 16.02.2020
2528 Clear -17 1031 70 10000 2 70 12:19 16.02.2020
2529 Clear -12 1031 66 10000 1 0 11:40 16.02.2020
2530 Clear -12 1031 66 10000 1 0 11:19 16.02.2020
2531 Clear -11 1031 61 10000 1 0 10:58 16.02.2020
2532 Clear -11 1031 61 10000 1 0 10:58 16.02.2020
2533 Clear -10 1031 61 10000 1 0 10:39 16.02.2020
2534 Clear -10 1031 61 10000 1 0 10:39 16.02.2020
2535 Clear -10 1031 61 10000 1 0 10:21 16.02.2020
2536 Clear -6 1031 44 10000 1.31 261 09:57 16.02.2020
2537 Clear -10 1031 61 8000 1 0 09:37 16.02.2020
2538 Clear -10 1031 61 8000 1 0 09:19 16.02.2020
2539 Clear -9 1031 52 8000 1 0 08:47 16.02.2020
2540 Clear -10 1031 51 8000 1 0 08:22 16.02.2020
2541 Clear -10 1031 51 6000 1 0 07:56 16.02.2020
2542 Clear -9 1031 47 6000 1.58 254 07:34 16.02.2020
2543 Clear -14 1032 65 6000 1 0 06:36 16.02.2020
2544 Clear -16 1032 59 6000 1 0 05:37 16.02.2020
2545 Clear -20 1033 76 6000 1.44 247 03:58 16.02.2020
2546 Clear -25 1033 75 6000 1.44 247 02:35 16.02.2020
2547 Clear -27 1033 68 8000 2 180 01:57 16.02.2020
2548 Clear -27 1033 68 8000 2 150 01:37 16.02.2020
2549 Clear -27 1033 68 8000 2 150 01:18 16.02.2020
2550 Clear -25 1032 75 8000 1 0 00:40 16.02.2020
2551 Clear -25 1032 75 8000 1 0 00:19 16.02.2020
2552 Clear -25 1032 75 10000 1 0 23:42 15.02.2020
2553 Clear -25 1032 75 10000 1 0 23:23 15.02.2020
2554 Clear -27 1032 75 8000 0.57 312 22:56 15.02.2020
2555 Clear -26 1032 68 10000 1 0 22:38 15.02.2020
2556 Clear -26 1032 68 10000 1 0 22:18 15.02.2020
2557 Clear -25 1032 75 10000 2 150 21:43 15.02.2020
2558 Clear -25 1032 75 10000 2 150 21:23 15.02.2020
2559 Clear -27 1033 75 10000 1 0 20:55 15.02.2020
2560 Clear -27 1033 75 10000 1 0 20:36 15.02.2020
2561 Clear -27 1033 75 10000 1 0 20:18 15.02.2020
2562 Clear -26 1033 68 10000 1 0 19:40 15.02.2020
2563 Clear -26 1033 68 10000 1 0 19:21 15.02.2020
2564 Clear -25 1033 75 10000 1 0 18:40 15.02.2020
2565 Clear -25 1033 75 10000 1 0 18:20 15.02.2020
2566 Clear -25 1033 75 10000 1 0 17:55 15.02.2020
2567 Clear -26 1033 75 10000 1 0 17:37 15.02.2020
2568 Clear -26 1033 75 10000 1 0 17:18 15.02.2020
2569 Clear -22 1033 69 10000 1 0 16:40 15.02.2020
2570 Clear -22 1033 69 10000 1 0 16:20 15.02.2020
2571 Clear -21 1033 70 10000 2 110 15:49 15.02.2020
2572 Clear -21 1033 70 10000 2 90 15:31 15.02.2020
2573 Clear -19 1033 70 10000 2 60 14:57 15.02.2020
2574 Clear -20 1034 76 10000 0.83 295 14:38 15.02.2020
2575 Clear -20 1034 76 10000 1.24 324 14:18 15.02.2020
2576 Clear -19 1033 70 10000 2 170 13:41 15.02.2020
2577 Clear -19 1033 70 10000 2 170 13:22 15.02.2020
2578 Clear -18 1033 70 10000 1 0 12:56 15.02.2020
2579 Clear -19 1033 70 10000 2 190 12:38 15.02.2020
2580 Clear -19 1033 70 10000 2 190 12:19 15.02.2020
2581 Clear -19 1033 70 10000 2 180 11:45 15.02.2020
2582 Clear -17 1033 70 10000 3 180 11:25 15.02.2020
2583 Clear -15 1033 65 10000 2 180 10:47 15.02.2020
2584 Clear -14 1033 65 10000 3 200 10:29 15.02.2020
2585 Clear -14 1033 65 10000 2 200 09:45 15.02.2020
2586 Clear -14 1033 65 10000 2 200 09:26 15.02.2020
2587 Clear -13 1033 60 10000 2 0 08:59 15.02.2020
2588 Clear -14 1033 60 10000 2 250 08:41 15.02.2020
2589 Clear -14 1033 60 10000 2 250 08:22 15.02.2020
2590 Clouds -14 1033 65 6000 1 0 07:42 15.02.2020
2591 Clouds -14 1033 65 6000 1 0 07:23 15.02.2020
2592 Smoke -17 1034 70 5000 1 0 06:39 15.02.2020
2593 Smoke -17 1034 70 5000 1 0 06:21 15.02.2020
2594 Smoke -20 1035 83 5000 1.87 300 04:57 15.02.2020
2595 Smoke -22 1035 76 5000 1.87 300 04:31 15.02.2020
2596 Smoke -27 1035 75 5000 1 0 02:59 15.02.2020
2597 Smoke -28 1035 68 4000 1.87 300 02:29 15.02.2020
2598 Clouds -28 1035 68 6000 1.96 318 01:59 15.02.2020
2599 Clouds -30 1034 67 6000 1.96 318 01:37 15.02.2020
2600 Clouds -28 1034 68 8000 1.92 315 00:31 15.02.2020
2601 Clouds -30 1034 67 8000 1.92 315 23:59 14.02.2020
2602 Clouds -30 1034 74 0 1.92 315 23:38 14.02.2020
2603 Clouds -30 1034 74 0 1.35 316 23:18 14.02.2020
2604 Clouds -28 1035 75 8000 1 0 22:43 14.02.2020
2605 Clouds -28 1035 75 8000 1 0 22:22 14.02.2020
2606 Clouds -19 1047 74 0 1.35 316 21:49 14.02.2020
2607 Clouds -19 1047 74 0 1.35 316 21:49 14.02.2020
2608 Clouds -19 1047 74 0 1.35 316 21:31 14.02.2020
2609 Clouds -28 1035 75 10000 1 0 20:58 14.02.2020
2610 Clouds -28 1035 75 10000 1 0 20:38 14.02.2020
2611 Clear -28 1035 75 10000 1 0 20:19 14.02.2020
2612 Clear -28 1035 75 10000 1 0 20:19 14.02.2020
2613 Clear -28 1035 75 10000 1 0 20:19 14.02.2020
2614 Clear -29 1035 75 10000 1 0 19:42 14.02.2020
2615 Clear -29 1035 75 10000 1 0 19:23 14.02.2020
2616 Clear -26 1035 75 10000 1 0 18:57 14.02.2020
2617 Clear -26 1035 75 10000 1 0 18:39 14.02.2020
2618 Clear -26 1035 75 10000 1 0 18:20 14.02.2020
2619 Clear -28 1035 68 10000 2 160 17:44 14.02.2020
2620 Clear -27 1035 75 10000 2 130 17:23 14.02.2020
2621 Clear -27 1035 75 10000 2 130 17:23 14.02.2020
2622 Clear -22 1036 76 10000 1.28 319 16:59 14.02.2020
2623 Clear -22 1035 76 10000 1 0 16:41 14.02.2020
2624 Clear -22 1035 76 10000 1 0 16:22 14.02.2020
2625 Clear -22 1036 76 10000 1.28 319 15:56 14.02.2020
2626 Clear -22 1036 76 10000 1.28 319 15:56 14.02.2020
2627 Clear -21 1036 76 10000 1 0 15:38 14.02.2020
2628 Clear -21 1036 76 10000 1 0 15:20 14.02.2020
2629 Clear -24 1036 76 10000 1 0 14:58 14.02.2020
2630 Clear -26 1036 75 10000 2 160 14:40 14.02.2020
2631 Clear -26 1036 75 10000 2 160 14:22 14.02.2020
2632 Clear -24 1036 76 10000 3 170 13:55 14.02.2020
2633 Clear -24 1036 76 10000 4 170 13:37 14.02.2020
2634 Clear -24 1036 76 10000 4 170 13:18 14.02.2020
2635 Clear -25 1036 75 10000 3 160 12:56 14.02.2020
2636 Clear -24 1035 83 10000 3 170 12:37 14.02.2020
2637 Clear -24 1035 83 10000 3 170 12:18 14.02.2020
2638 Clear -22 1035 76 10000 4 170 11:54 14.02.2020
2639 Clear -20 1035 70 10000 3 160 11:36 14.02.2020
2640 Clear -20 1035 70 10000 3 160 11:18 14.02.2020
2641 Clear -17 1035 64 10000 2 170 10:40 14.02.2020
2642 Clear -17 1035 64 10000 2 170 10:21 14.02.2020
2643 Clear -17 1035 64 10000 2 0 09:44 14.02.2020
2644 Clear -17 1035 64 10000 3 170 09:22 14.02.2020
2645 Clear -17 1035 64 10000 2 160 08:56 14.02.2020
2646 Clear -17 1035 64 10000 1 0 08:38 14.02.2020
2647 Clear -17 1035 64 10000 1 0 08:19 14.02.2020
2648 Clear -18 1035 70 10000 3 170 07:49 14.02.2020
2649 Clear -19 1035 70 10000 3 250 07:24 14.02.2020
2650 Clear -18 1036 64 8000 1 0 06:32 14.02.2020
2651 Clear -18 1036 64 8000 1 0 05:59 14.02.2020
2652 Clear -21 1036 70 6000 1 0 05:27 14.02.2020
2653 Clear -27 1036 68 8000 1 0 03:31 14.02.2020
2654 Clear -30 1036 67 8000 1 0 02:52 14.02.2020
2655 Clear -30 1036 67 8000 1.15 325 01:54 14.02.2020
2656 Clear -32 1035 67 10000 2 180 00:44 14.02.2020
2657 Clear -32 1034 67 10000 2 170 00:24 14.02.2020
2658 Clear -32 1034 74 10000 1 0 23:51 13.02.2020
2659 Clear -30 1034 67 10000 1.16 322 23:23 13.02.2020
2660 Clear -28 1034 75 10000 0.89 333 22:56 13.02.2020
2661 Clear -28 1034 68 10000 2 150 22:38 13.02.2020
2662 Clear -28 1034 68 10000 2 150 22:18 13.02.2020
2663 Clear -28 1034 68 10000 1 0 21:42 13.02.2020
2664 Clear -28 1034 68 10000 1 0 21:23 13.02.2020
2665 Clear -26 1033 75 10000 2 140 20:58 13.02.2020
2666 Clear -26 1033 75 10000 2 140 20:40 13.02.2020
2667 Clear -26 1033 75 10000 2 140 20:22 13.02.2020
2668 Clear -28 1033 68 10000 3 170 19:56 13.02.2020
2669 Clear -28 1033 68 10000 3 170 19:37 13.02.2020
2670 Clear -28 1033 68 10000 3 170 19:37 13.02.2020
2671 Clear -28 1033 68 10000 3 170 19:37 13.02.2020
2672 Clear -28 1033 68 10000 3 170 19:19 13.02.2020
2673 Clear -28 1033 68 10000 3 170 18:45 13.02.2020
2674 Clear -28 1033 68 10000 3 170 18:25 13.02.2020
2675 Clear -28 1032 68 10000 3 170 17:59 13.02.2020
2676 Clear -28 1032 68 10000 3 170 17:40 13.02.2020
2677 Clear -28 1032 68 10000 3 170 17:21 13.02.2020
2678 Clouds -27 1032 75 10000 2 180 16:58 13.02.2020
2679 Clouds -26 1032 68 10000 2 0 16:40 13.02.2020
2680 Clouds -26 1032 68 10000 2 0 16:19 13.02.2020
2681 Clouds -26 1032 68 10000 2 0 16:19 13.02.2020
2682 Clouds -22 1031 69 10000 1 0 15:56 13.02.2020
2683 Clouds -20 1031 70 10000 2 340 15:38 13.02.2020
2684 Clouds -20 1031 70 10000 2 340 15:19 13.02.2020
2685 Clouds -18 1031 64 10000 3 340 14:57 13.02.2020
2686 Clouds -18 1031 64 10000 4 360 14:38 13.02.2020
2687 Clouds -18 1031 64 10000 4 360 14:20 13.02.2020
2688 Clouds -17 1030 64 10000 5 30 13:48 13.02.2020
2689 Clouds -16 1030 59 10000 5 30 13:19 13.02.2020
2690 -273 0 0 0 0 0 12:56 13.02.2020
2691 Clouds -17 1029 64 10000 3 360 12:37 13.02.2020
2692 Clouds -17 1029 64 10000 3 360 12:37 13.02.2020
2693 Clouds -17 1029 64 10000 3 360 12:19 13.02.2020
2694 Clouds -17 1028 64 10000 4 330 11:43 13.02.2020
2695 Clouds -17 1028 64 10000 4 330 11:43 13.02.2020
2696 Clouds -15 1028 60 10000 4 340 11:20 13.02.2020
2697 Clouds -15 1027 60 10000 5 330 10:49 13.02.2020
2698 Clouds -14 1026 55 10000 6 330 10:28 13.02.2020
2699 -273 0 0 0 0 0 09:57 13.02.2020
2700 Clouds -14 1026 55 10000 8 350 09:38 13.02.2020
2701 Clouds -14 1026 55 10000 8 350 09:20 13.02.2020
2702 Clouds -13 1025 50 10000 8 350 08:41 13.02.2020
2703 Clouds -13 1025 50 10000 8 350 08:19 13.02.2020
2704 Clouds -14 1025 60 10000 8 340 07:40 13.02.2020
2705 Clouds -14 1025 60 10000 8 340 07:21 13.02.2020
2706 Clouds -13 1025 55 10000 7 340 06:44 13.02.2020
2707 Clouds -14 1025 55 10000 6 340 06:21 13.02.2020
2708 Clouds -13 1025 55 10000 5 360 05:37 13.02.2020
2709 Clouds -14 1024 55 10000 5 360 04:26 13.02.2020
2710 Clouds -15 1023 54 10000 4 360 03:52 13.02.2020
2711 Clouds -15 1023 54 10000 5 10 03:26 13.02.2020
2712 Clouds -15 1023 60 10000 3 360 02:52 13.02.2020
2713 Clouds -16 1022 65 10000 2 0 02:19 13.02.2020
2714 Clouds -16 1020 71 10000 2 0 01:35 13.02.2020
2715 Clouds -15 1019 71 10000 3 10 00:40 13.02.2020
2716 Clouds -15 1019 71 10000 3 10 00:21 13.02.2020
2717 Snow -15 1019 77 10000 2 360 23:40 12.02.2020
2718 Snow -15 1019 77 10000 2 360 23:22 12.02.2020
2719 Snow -15 1019 77 10000 2 350 22:45 12.02.2020
2720 Clouds -15 1018 77 10000 2 0 22:27 12.02.2020
2721 Clouds -15 1018 77 10000 2 360 21:59 12.02.2020
2722 Snow -15 1018 77 8000 2 350 21:40 12.02.2020
2723 Snow -15 1018 77 8000 2 350 21:19 12.02.2020
2724 Snow -15 1018 77 8000 4 350 20:58 12.02.2020
2725 Snow -14 1018 77 8000 4 20 20:39 12.02.2020
2726 Snow -14 1018 77 8000 4 20 20:20 12.02.2020
2727 Snow -15 1017 84 8000 2 330 19:55 12.02.2020
2728 Snow -14 1017 77 8000 2 0 19:36 12.02.2020
2729 Snow -14 1017 77 8000 2 0 19:36 12.02.2020
2730 Snow -14 1017 77 8000 2 0 19:18 12.02.2020
2731 Snow -14 1016 84 6000 3 20 18:45 12.02.2020
2732 Snow -14 1016 84 8000 3 350 18:19 12.02.2020
2733 Snow -14 1015 84 8000 4 360 17:43 12.02.2020
2734 Snow -14 1015 84 8000 4 360 17:43 12.02.2020
2735 Snow -13 1015 71 8000 4 360 17:21 12.02.2020
2736 Snow -13 1015 71 8000 5 350 16:59 12.02.2020
2737 Snow -13 1014 78 6000 4 360 16:39 12.02.2020
2738 Snow -13 1014 78 6000 4 360 16:19 12.02.2020
2739 Snow -13 1014 84 5000 4 360 15:43 12.02.2020
2740 Snow -12 1013 78 4000 5 360 15:24 12.02.2020
2741 Snow -12 1013 85 5000 4 350 14:57 12.02.2020
2742 Snow -12 1012 85 6000 5 360 14:39 12.02.2020
2743 Snow -12 1012 85 6000 5 360 14:20 12.02.2020
2744 Snow -12 1011 85 6000 5 10 13:57 12.02.2020
2745 Snow -11 1011 78 3000 6 10 13:39 12.02.2020
2746 Snow -11 1011 78 3000 6 10 13:20 12.02.2020
2747 Snow -11 1011 85 3000 5 10 12:57 12.02.2020
2748 Snow -11 1010 85 3000 6 10 12:38 12.02.2020
2749 Snow -11 1010 85 3000 6 10 12:18 12.02.2020
2750 Snow -11 1010 85 3000 6 10 12:18 12.02.2020
2751 Snow -10 1009 78 3000 5 360 11:56 12.02.2020
2752 Snow -10 1009 85 2800 5 10 11:37 12.02.2020
2753 Snow -10 1009 85 2800 5 10 11:19 12.02.2020
2754 Snow -10 1008 85 2000 5 10 10:54 12.02.2020
2755 Snow -9 1008 85 1500 5 350 10:36 12.02.2020
2756 Snow -9 1008 85 1500 5 350 10:18 12.02.2020
2757 Snow -9 1007 85 1500 6 340 09:41 12.02.2020
2758 Snow -9 1007 85 1500 6 340 09:41 12.02.2020
2759 Snow -9 1007 85 1500 6 340 09:21 12.02.2020
2760 Snow -8 1006 85 1600 6 340 08:57 12.02.2020
2761 Snow -8 1006 85 1000 4 350 08:37 12.02.2020
2762 Snow -8 1006 85 1000 4 350 08:19 12.02.2020
2763 Snow -8 1006 85 1000 5 360 07:44 12.02.2020
2764 Snow -7 1006 85 1000 5 10 07:23 12.02.2020
2765 Snow -7 1006 85 2000 4 360 06:53 12.02.2020
2766 Snow -6 1006 79 1200 4 360 06:21 12.02.2020
2767 Snow -6 1006 67 10000 6 360 05:37 12.02.2020
2768 Snow -5 1006 67 10000 6 340 04:57 12.02.2020
2769 Snow -5 1006 67 10000 6 340 04:39 12.02.2020
2770 Clouds -5 1005 67 10000 3 340 03:32 12.02.2020
2771 Clouds -6 1005 73 10000 2 330 02:58 12.02.2020
2772 Clouds -6 1005 73 10000 2 330 02:28 12.02.2020
2773 Clouds -6 1005 73 10000 2 330 02:28 12.02.2020
2774 Clouds -7 1005 79 10000 1 0 01:49 12.02.2020
2775 Clouds -6 1005 73 10000 3.23 354 00:45 12.02.2020
2776 Clouds -5 1004 67 10000 1 0 00:26 12.02.2020
2777 Clouds -6 1004 67 10000 2 0 23:55 11.02.2020
2778 Clouds -7 1004 73 10000 2 100 23:37 11.02.2020
2779 Clouds -7 1004 73 10000 2 100 23:19 11.02.2020
2780 Clouds -8 1003 78 10000 1 0 22:55 11.02.2020
2781 Clouds -8 1003 78 10000 1 0 22:37 11.02.2020
2782 Clouds -8 1003 78 10000 1 0 22:37 11.02.2020
2783 Clouds -8 1003 78 10000 1 0 22:18 11.02.2020
2784 Clouds -8 1003 78 10000 0.97 79 21:55 11.02.2020
2785 Clouds -8 1003 78 10000 0.97 79 21:37 11.02.2020
2786 Clouds -8 1003 78 10000 0.97 79 21:18 11.02.2020
2787 Clouds -8 1003 78 10000 0.97 79 21:18 11.02.2020
2788 Clouds -8 1004 78 10000 0.97 79 20:39 11.02.2020
2789 Clouds -8 1004 78 10000 2.2 87 20:20 11.02.2020
2790 Clouds -8 1005 78 10000 2.2 87 19:59 11.02.2020
2791 Clouds -8 1005 78 10000 2.2 87 19:41 11.02.2020
2792 Clouds -8 1005 78 10000 2.2 87 19:23 11.02.2020
2793 Clouds -8 1005 72 10000 1 0 18:55 11.02.2020
2794 Clouds -8 1005 72 10000 1 0 18:37 11.02.2020
2795 Clouds -8 1005 72 10000 1 0 18:19 11.02.2020
2796 Clouds -9 1005 78 10000 2.2 87 17:54 11.02.2020
2797 Clouds -8 1005 78 10000 2.2 87 17:36 11.02.2020
2798 Clouds -8 1005 78 10000 1.68 117 17:18 11.02.2020
2799 Clouds -8 1005 78 10000 1.68 117 17:18 11.02.2020
2800 Clouds -8 1005 78 10000 1.68 117 17:18 11.02.2020
2801 Clouds -9 1006 78 10000 1 0 16:55 11.02.2020
2802 Clouds -10 1007 78 10000 1 0 16:36 11.02.2020
2803 Clouds -10 1007 78 10000 1 0 16:36 11.02.2020
2804 Clouds -10 1007 78 10000 1 0 16:18 11.02.2020
2805 Clouds -11 1007 78 10000 1 0 15:42 11.02.2020
2806 Clouds -11 1007 78 10000 1 0 15:23 11.02.2020
2807 Clouds -9 1007 72 10000 2 0 14:44 11.02.2020
2808 Clouds -10 1007 78 10000 2 0 14:20 11.02.2020
2809 Clouds -10 1007 78 10000 2 170 13:59 11.02.2020
2810 Clouds -9 1007 72 10000 2 0 13:40 11.02.2020
2811 Clouds -9 1007 72 10000 2 0 13:20 11.02.2020
2812 Clear -6 1007 62 10000 1 0 12:57 11.02.2020
2813 Clear -7 1007 67 10000 1 0 12:39 11.02.2020
2814 Clear -7 1007 67 10000 1 0 12:19 11.02.2020
2815 Clear -1 1007 54 10000 1 0 11:41 11.02.2020
2816 Clear -1 1007 54 10000 1 0 11:20 11.02.2020
2817 Clear 1 1007 47 10000 2 220 10:55 11.02.2020
2818 Clear 1 1006 47 10000 3 200 10:37 11.02.2020
2819 Clear 1 1006 47 10000 3 200 10:19 11.02.2020
2820 Clear 3 1007 40 10000 2 0 09:55 11.02.2020
2821 Clear 3 1006 40 10000 3 210 09:37 11.02.2020
2822 Clear 3 1006 40 10000 3 210 09:18 11.02.2020
2823 Clear 2 1007 37 10000 3 250 08:42 11.02.2020
2824 Clear 2 1007 37 10000 3 250 08:23 11.02.2020
2825 Clear 1 1006 43 10000 3 250 07:48 11.02.2020
2826 Clear 2 1006 40 8000 1 0 07:25 11.02.2020
2827 Clear 0 1007 61 8000 2.19 250 06:43 11.02.2020
2828 Clear -3 1007 58 6000 1 0 06:22 11.02.2020
2829 Clear -4 1007 58 6000 1 0 05:54 11.02.2020
2830 Clear -5 1007 57 6000 2.19 250 05:24 11.02.2020
2831 Clear -9 1007 72 6000 1 0 04:39 11.02.2020
2832 Clear -14 1007 77 8000 1.12 239 02:53 11.02.2020
2833 Clear -18 1006 84 8000 1 0 02:27 11.02.2020
2834 Clear -19 1005 84 8000 1 0 01:36 11.02.2020
2835 Clear -18 1004 77 8000 2 130 00:40 11.02.2020
2836 Clear -19 1004 77 8000 1 0 23:57 10.02.2020
2837 Clear -19 1004 84 8000 0.79 303 23:38 10.02.2020
2838 Clear -19 1004 84 8000 0.73 257 23:20 10.02.2020
2839 Clear -17 1003 84 8000 2 150 22:40 10.02.2020
2840 Clear -17 1003 84 8000 2 150 22:20 10.02.2020
2841 Clear -18 1003 84 8000 2 160 21:46 10.02.2020
2842 Clear -18 1003 84 8000 2 160 21:27 10.02.2020
2843 Clear -16 1003 84 8000 2 0 20:58 10.02.2020
2844 Clear -16 1003 84 8000 2 0 20:39 10.02.2020
2845 Clouds -16 1003 84 8000 2 0 20:21 10.02.2020
2846 Clear -15 1003 77 8000 0.55 124 19:59 10.02.2020
2847 Clear -15 1003 77 8000 0.55 124 19:38 10.02.2020
2848 Clear -15 1003 77 8000 0.55 124 19:19 10.02.2020
2849 Clear -15 1003 77 8000 0.55 124 19:19 10.02.2020
2850 Clear -15 1003 77 8000 1 0 18:59 10.02.2020
2851 Clear -15 1003 77 8000 1 0 18:40 10.02.2020
2852 Clear -15 1003 77 8000 1 0 18:21 10.02.2020
2853 Clear -15 1003 77 8000 1 0 17:58 10.02.2020
2854 Clear -15 1003 77 8000 1 0 17:38 10.02.2020
2855 Clear -15 1003 77 8000 1 0 17:19 10.02.2020
2856 Clear -14 1003 77 10000 2 150 16:58 10.02.2020
2857 Clear -14 1003 77 10000 2 150 16:40 10.02.2020
2858 Clear -14 1003 77 10000 2 150 16:19 10.02.2020
2859 Clear -12 1003 85 10000 1 0 15:56 10.02.2020
2860 Clear -12 1003 85 10000 1 0 15:56 10.02.2020
2861 Clear -13 1003 78 10000 2 0 15:38 10.02.2020
2862 Clear -13 1003 78 10000 2 0 15:20 10.02.2020
2863 Clear -12 1002 85 10000 1 0 14:56 10.02.2020
2864 Clear -14 1002 84 10000 2 170 14:36 10.02.2020
2865 Clouds -14 1002 84 10000 2 170 14:18 10.02.2020
2866 Clouds -11 1003 78 10000 1.64 105 13:42 10.02.2020
2867 Clouds -11 1003 78 10000 1.48 105 13:24 10.02.2020
2868 Clouds -10 1003 72 10000 2 160 12:50 10.02.2020
2869 Clouds -9 1003 72 10000 1 0 12:26 10.02.2020
2870 Clouds -9 1002 78 8000 3 160 11:56 10.02.2020
2871 Clouds -5 1002 73 8000 2 170 11:38 10.02.2020
2872 Clouds -5 1002 73 8000 2 170 11:20 10.02.2020
2873 Clouds -1 1002 63 8000 2 170 10:46 10.02.2020
2874 Clouds 1 1002 43 8000 2 190 10:27 10.02.2020
2875 Clouds 2 1002 40 8000 1 0 09:48 10.02.2020
2876 Clouds 2 1002 37 8000 1.42 137 09:26 10.02.2020
2877 Clouds 2 1002 37 8000 1.42 137 09:26 10.02.2020
2878 Clouds 0 1002 61 8000 2 160 08:57 10.02.2020
2879 Clouds 0 1003 61 8000 1 0 08:37 10.02.2020
2880 Clouds 0 1003 62 8000 1 0 08:18 10.02.2020
2881 Clouds 0 1003 62 8000 1 0 07:49 10.02.2020
2882 Clouds 0 1003 62 8000 1 0 07:27 10.02.2020
2883 Clouds -3 1004 49 8000 1 0 06:22 10.02.2020
2884 Clouds -10 1005 61 6000 1 0 04:42 10.02.2020
2885 Clouds -13 1006 71 6000 1.82 108 03:34 10.02.2020
2886 Clouds -17 1006 77 6000 1 0 02:54 10.02.2020
2887 Clouds -20 1006 83 6000 1.78 100 01:57 10.02.2020
2888 Clouds -20 1006 76 8000 1 0 00:51 10.02.2020
2889 Clouds -20 1006 76 8000 1 0 00:31 10.02.2020
2890 Clouds -20 1006 76 8000 1 0 23:57 09.02.2020
2891 Clouds -20 1006 76 8000 1 0 23:39 09.02.2020
2892 Clear -20 1006 76 8000 1 0 23:19 09.02.2020
2893 Clear -20 1007 83 8000 1.45 104 22:40 09.02.2020
2894 Clear -20 1007 83 8000 1.45 104 22:21 09.02.2020
2895 Clear -18 1007 84 8000 1.45 104 21:44 09.02.2020
2896 Clear -18 1007 84 8000 1.45 104 21:25 09.02.2020
2897 Clear -17 1008 77 8000 1.45 104 20:56 09.02.2020
2898 Clear -17 1008 77 8000 1.45 104 20:38 09.02.2020
2899 Clear -17 1008 77 8000 1.25 105 20:18 09.02.2020
2900 Clear -18 1008 77 8000 1 0 19:40 09.02.2020
2901 Clear -18 1008 77 8000 1 0 19:21 09.02.2020
2902 Clear -16 1008 77 10000 1 0 18:57 09.02.2020
2903 Clear -16 1008 77 10000 1 0 18:38 09.02.2020
2904 Clear -16 1008 77 10000 1 0 18:20 09.02.2020
2905 Clear -17 1008 77 10000 1 0 17:42 09.02.2020
2906 Clear -17 1008 77 10000 1 0 17:22 09.02.2020
2907 Clear -17 1008 77 10000 1 0 16:56 09.02.2020
2908 Clear -17 1008 77 10000 1 0 16:56 09.02.2020
2909 Clear -15 1008 77 10000 1 0 16:37 09.02.2020
2910 Clear -15 1008 77 10000 1 0 16:18 09.02.2020
2911 Clear -15 1009 77 10000 1 0 15:54 09.02.2020
2912 Clear -14 1009 77 10000 2 140 15:36 09.02.2020
2913 Clear -14 1009 77 10000 2 140 15:18 09.02.2020
2914 Clear -16 1009 77 10000 2 180 14:41 09.02.2020
2915 Clear -16 1009 77 10000 2 180 14:22 09.02.2020
2916 Clear -13 1009 71 10000 1 0 13:47 09.02.2020
2917 Clear -14 1009 77 10000 1 0 13:28 09.02.2020
2918 Clear -13 1009 71 10000 2 180 12:57 09.02.2020
2919 Clear -11 1009 72 10000 2 190 12:38 09.02.2020
2920 Clear -11 1009 72 10000 2 190 12:19 09.02.2020
2921 Clear -11 1009 72 10000 2 190 12:19 09.02.2020
2922 Clear -11 1009 72 10000 2 190 12:19 09.02.2020
2923 Clouds -7 1008 62 10000 2 240 11:42 09.02.2020
2924 Clouds -7 1008 62 10000 2 240 11:22 09.02.2020
2925 Clear -4 1008 53 10000 3 270 10:59 09.02.2020
2926 Clear -2 1009 50 10000 3 270 10:41 09.02.2020
2927 Clear -2 1009 50 10000 3 270 10:21 09.02.2020
2928 Clear -2 1009 50 10000 2 240 09:46 09.02.2020
2929 Clear -2 1009 46 10000 2 0 09:27 09.02.2020
2930 Clear -3 1010 53 8000 1 0 08:46 09.02.2020
2931 Clouds -3 1010 53 8000 1 0 08:28 09.02.2020
2932 Clouds -3 1010 49 8000 0.75 185 07:59 09.02.2020
2933 Clouds -4 1010 49 8000 0.75 185 07:41 09.02.2020
2934 Clouds -5 1011 49 8000 0.75 185 06:48 09.02.2020
2935 Clouds -8 1011 61 8000 1 0 06:28 09.02.2020
2936 Clouds -8 1012 57 8000 1 0 05:43 09.02.2020
2937 Clear -11 1012 61 8000 1 0 05:18 09.02.2020
2938 Clear -15 1013 84 6000 1.58 107 03:52 09.02.2020
2939 Clear -20 1014 83 6000 1 0 02:45 09.02.2020
2940 Clear -21 1015 76 6000 1.58 107 02:26 09.02.2020
2941 Clear -23 1015 76 6000 1 0 01:35 09.02.2020
2942 Clear -23 1016 83 8000 1.88 102 00:44 09.02.2020
2943 Clear -23 1016 76 8000 1 0 00:24 09.02.2020
2944 Clear -23 1017 76 8000 1 0 23:43 08.02.2020
2945 Clear -23 1017 76 8000 1 0 23:20 08.02.2020
2946 Clear -21 1017 83 8000 1 0 22:43 08.02.2020
2947 Clear -22 1017 76 8000 2 0 22:22 08.02.2020
2948 Clear -22 1017 76 8000 2 0 22:22 08.02.2020
2949 Clear -21 1018 76 10000 1 0 21:59 08.02.2020
2950 Clear -21 1018 76 10000 1 0 21:40 08.02.2020
2951 Clear -21 1018 76 10000 1 0 21:21 08.02.2020
2952 Clear -23 1019 76 10000 1.25 109 20:57 08.02.2020
2953 Clear -23 1019 76 10000 1.25 109 20:38 08.02.2020
2954 Clear -23 1019 76 10000 0.81 142 20:19 08.02.2020
2955 Clear -22 1019 76 10000 2 150 19:55 08.02.2020
2956 Clear -22 1019 76 10000 2 150 19:36 08.02.2020
2957 Clear -22 1019 76 10000 2 150 19:18 08.02.2020
2958 Clear -20 1020 83 10000 1 0 18:43 08.02.2020
2959 Clear -20 1020 83 10000 1 0 18:23 08.02.2020
2960 Clear -20 1021 76 10000 1 0 17:44 08.02.2020
2961 Clear -20 1021 76 10000 1 0 17:21 08.02.2020
2962 Clear -20 1021 76 10000 1 0 16:59 08.02.2020
2963 Clear -21 1021 83 10000 1 0 16:39 08.02.2020
2964 Clear -21 1021 83 10000 1 0 16:21 08.02.2020
2965 Clear -19 1021 84 10000 1 0 15:43 08.02.2020
2966 Clear -19 1021 70 10000 2 0 15:19 08.02.2020
2967 Clear -18 1021 77 10000 3 160 14:59 08.02.2020
2968 Clear -18 1021 77 10000 3 160 14:59 08.02.2020
2969 Clear -18 1021 70 10000 2 120 14:39 08.02.2020
2970 Clear -18 1021 70 10000 2 120 14:19 08.02.2020
2971 Clear -16 1021 77 10000 1 0 13:43 08.02.2020
2972 Clear -18 1021 77 10000 2 0 13:23 08.02.2020
2973 Clear -18 1021 77 10000 2 170 12:57 08.02.2020
2974 Clear -18 1021 77 10000 2 170 12:57 08.02.2020
2975 Clear -17 1021 70 10000 1 0 12:37 08.02.2020
2976 Clear -17 1021 70 10000 1 0 12:19 08.02.2020
2977 Clear -17 1021 70 10000 1 0 12:19 08.02.2020
2978 Clear -13 1021 65 10000 1 0 11:43 08.02.2020
2979 Clear -12 1021 72 10000 3 160 11:21 08.02.2020
2980 Clear -7 1021 57 10000 1.28 247 10:55 08.02.2020
2981 Clear -7 1020 57 10000 1 0 10:37 08.02.2020
2982 Clear -7 1020 57 10000 1 0 10:19 08.02.2020
2983 Clear -7 1020 62 10000 2 0 09:46 08.02.2020
2984 Clear -5 1020 53 10000 1 0 09:23 08.02.2020
2985 Clear -7 1020 62 8000 2 0 08:41 08.02.2020
2986 Clear -7 1020 62 8000 2 0 08:22 08.02.2020
2987 Clouds -7 1021 57 8000 1 0 07:51 08.02.2020
2988 Clouds -11 1021 61 6000 1.7 241 07:33 08.02.2020
2989 Clouds -11 1021 61 6000 1.7 241 06:49 08.02.2020
2990 Clouds -13 1022 65 6000 1.7 241 06:21 08.02.2020
2991 Smoke -14 1022 65 5000 1 0 05:33 08.02.2020
2992 Smoke -16 1023 77 5000 0.56 238 04:53 08.02.2020
2993 Clouds -18 1023 77 6000 1 0 04:24 08.02.2020
2994 Clouds -21 1023 76 6000 0.56 238 03:37 08.02.2020
2995 Clouds -24 1023 76 8000 0.56 238 02:29 08.02.2020
2996 Clear -27 1023 68 8000 1 0 01:31 08.02.2020
2997 Clear -27 1023 68 8000 1 0 00:46 08.02.2020
2998 Clear -27 1023 75 8000 1 0 00:25 08.02.2020
2999 Clear -25 1023 75 10000 1 0 23:57 07.02.2020
3000 Clear -26 1023 75 8000 1 0 23:39 07.02.2020
3001 Clear -26 1023 75 8000 1 0 23:19 07.02.2020
3002 Clear -24 1023 76 8000 2 120 22:41 07.02.2020
3003 Clear -24 1023 76 8000 2 120 22:20 07.02.2020
3004 Clear -25 1024 75 8000 0.19 91 21:57 07.02.2020
3005 Clear -25 1024 75 8000 0.19 91 21:39 07.02.2020
3006 Clear -25 1024 75 8000 0.19 91 21:19 07.02.2020
3007 Clear -25 1024 75 8000 1 0 20:39 07.02.2020
3008 Clear -25 1024 75 8000 1 0 20:19 07.02.2020
3009 Clear -25 1024 75 8000 1 0 20:19 07.02.2020
3010 Clear -25 1023 75 8000 1 0 19:55 07.02.2020
3011 Clear -25 1023 75 8000 1 0 19:36 07.02.2020
3012 Clear -25 1023 75 8000 1 0 19:18 07.02.2020
3013 Clear -25 1023 75 10000 0.54 129 18:43 07.02.2020
3014 Clear -25 1023 75 10000 0.54 129 18:25 07.02.2020
3015 Clear -23 1024 76 10000 0.54 129 17:55 07.02.2020
3016 Clear -23 1024 76 10000 0.54 129 17:37 07.02.2020
3017 Clear -23 1024 76 10000 1.01 107 17:18 07.02.2020
3018 Clear -23 1024 76 10000 1 0 16:42 07.02.2020
3019 Clear -23 1024 76 10000 1 0 16:23 07.02.2020
3020 Clear -20 1024 76 10000 1 0 15:53 07.02.2020
3021 Clear -21 1024 76 10000 1 0 15:28 07.02.2020
3022 Clear -22 1024 76 10000 1.01 107 14:55 07.02.2020
3023 Clear -20 1024 76 10000 2 0 14:37 07.02.2020
3024 Clear -20 1024 76 10000 2 0 14:19 07.02.2020
3025 Clear -22 1024 76 10000 1 0 13:56 07.02.2020
3026 Clear -19 1023 70 10000 1 0 13:38 07.02.2020
3027 Clear -19 1023 70 10000 1 0 13:18 07.02.2020
3028 Clear -19 1023 77 10000 2 0 12:41 07.02.2020
3029 Clear -19 1023 77 10000 2 0 12:23 07.02.2020
3030 Clear -19 1023 77 10000 1 0 11:45 07.02.2020
3031 Clear -11 1023 66 10000 1.02 86 11:22 07.02.2020
3032 Clear -10 1023 66 10000 2 0 10:58 07.02.2020
3033 Clear -8 1023 61 10000 2 0 10:38 07.02.2020
3034 Clear -8 1023 61 10000 2 0 10:19 07.02.2020
3035 Clear -7 1023 57 10000 1 0 09:41 07.02.2020
3036 Clear -7 1023 57 10000 1 0 09:22 07.02.2020
3037 Clear -7 1023 57 10000 1 0 09:22 07.02.2020
3038 Clear -8 1023 57 8000 1 0 08:47 07.02.2020
3039 Clear -7 1023 52 8000 0.67 228 08:23 07.02.2020
3040 Clear -9 1023 56 6000 1 0 07:54 07.02.2020
3041 Clear -10 1023 56 6000 1 0 07:33 07.02.2020
3042 Smoke -11 1023 61 5000 1 0 06:59 07.02.2020
3043 Smoke -13 1024 60 5000 1 0 06:39 07.02.2020
3044 Smoke -13 1024 60 5000 1 0 06:19 07.02.2020
3045 Smoke -17 1024 77 5000 1 0 05:37 07.02.2020
3046 Smoke -21 1025 76 5000 0.4 209 03:51 07.02.2020
3047 Clear -28 1024 68 6000 0.51 43 01:57 07.02.2020
3048 Clear -28 1024 68 6000 1 0 01:21 07.02.2020
3049 Clear -28 1024 68 6000 0.44 42 00:28 07.02.2020
3050 Clear -28 1024 75 6000 0.44 42 23:38 06.02.2020
3051 Clear -28 1024 75 6000 0.17 62 23:19 06.02.2020
3052 Clear -27 1024 75 8000 1 0 22:48 06.02.2020
3053 Clear -27 1024 75 8000 0.17 62 22:27 06.02.2020
3054 Clear -26 1024 75 8000 0.17 62 21:58 06.02.2020
3055 Clear -26 1024 75 8000 0.17 62 21:36 06.02.2020
3056 Clear -26 1024 75 8000 0.17 62 21:18 06.02.2020
3057 Clear -26 1024 68 8000 2 170 20:55 06.02.2020
3058 Clear -27 1024 75 8000 1 0 20:36 06.02.2020
3059 Clear -27 1024 75 8000 1 0 20:18 06.02.2020
3060 Clear -26 1024 68 10000 1 0 19:56 06.02.2020
3061 Clear -26 1025 75 10000 0.06 205 19:37 06.02.2020
3062 Clear -26 1025 75 10000 0.06 205 19:19 06.02.2020
3063 Clear -24 1025 76 10000 1 0 18:42 06.02.2020
3064 Clear -24 1025 76 10000 1 0 18:42 06.02.2020
3065 Clear -24 1025 76 10000 1 0 18:24 06.02.2020
3066 Clear -26 1024 75 10000 2 170 17:58 06.02.2020
3067 Clear -25 1024 75 10000 0.06 205 17:40 06.02.2020
3068 Clear -25 1024 75 10000 0.67 291 17:20 06.02.2020
3069 Clear -24 1024 76 10000 1 0 16:43 06.02.2020
3070 Clear -24 1024 76 10000 1 0 16:25 06.02.2020
3071 Clear -24 1024 69 10000 2 130 15:44 06.02.2020
3072 Clear -22 1024 83 10000 2 0 15:24 06.02.2020
3073 Clear -23 1024 76 10000 0.67 291 14:58 06.02.2020
3074 Clear -23 1024 76 10000 0.67 291 14:58 06.02.2020
3075 Clear -22 1024 76 10000 1 0 14:40 06.02.2020
3076 Clear -22 1024 76 10000 1 0 14:22 06.02.2020
3077 Clear -22 1024 69 10000 1 0 13:43 06.02.2020
3078 Clear -19 1024 77 10000 1 0 13:25 06.02.2020
3079 Clear -18 1023 77 10000 0.42 341 12:45 06.02.2020
3080 Clear -19 1023 77 10000 1 0 12:20 06.02.2020
3081 Clear -17 1023 70 10000 3 170 11:58 06.02.2020
3082 Clear -15 1023 71 10000 3 160 11:39 06.02.2020
3083 Clear -15 1023 71 10000 3 160 11:21 06.02.2020
3084 Clear -13 1022 65 10000 3 160 10:57 06.02.2020
3085 Clear -11 1022 61 10000 2 170 10:38 06.02.2020
3086 Clear -11 1022 61 10000 2 170 10:38 06.02.2020
3087 Clear -11 1022 61 10000 2 170 10:20 06.02.2020
3088 Clear -9 1022 56 10000 1 0 09:56 06.02.2020
3089 Clear -10 1022 61 10000 1 0 09:37 06.02.2020
3090 Clear -10 1022 61 10000 1 0 09:18 06.02.2020
3091 Clear -10 1022 56 10000 1 0 08:41 06.02.2020
3092 Clear -10 1022 56 10000 1 0 08:22 06.02.2020
3093 Clear -11 1022 61 10000 2 0 07:48 06.02.2020
3094 Clear -11 1022 56 8000 1 0 07:27 06.02.2020
3095 Clear -13 1023 60 6000 1 0 06:37 06.02.2020
3096 Clear -13 1023 60 6000 1 0 06:18 06.02.2020
3097 Smoke -15 1023 54 5000 1.27 273 04:43 06.02.2020
3098 Clear -22 1023 76 6000 1 0 03:21 06.02.2020
3099 Clear -27 1023 75 6000 1 0 02:29 06.02.2020
3100 Clouds -25 1022 75 6000 1.05 326 01:35 06.02.2020
3101 Clouds -25 1021 69 8000 1 0 00:58 06.02.2020
3102 Clouds -26 1021 75 8000 2 170 00:26 06.02.2020
3103 Clouds -18 1033 87 0 1.08 324 23:46 05.02.2020
3104 Clouds -27 1021 75 8000 1.08 324 23:28 05.02.2020
3105 Clouds -26 1020 75 6000 1.25 313 22:58 05.02.2020
3106 Clouds -26 1020 68 8000 1.25 313 22:40 05.02.2020
3107 Clouds -26 1020 68 8000 1.25 313 22:21 05.02.2020
3108 Clouds -26 1020 68 8000 1.25 313 22:21 05.02.2020
3109 Clouds -25 1020 69 8000 2 160 21:43 05.02.2020
3110 Clouds -25 1020 69 8000 2 160 21:24 05.02.2020
3111 Clouds -25 1020 75 8000 1.25 313 20:59 05.02.2020
3112 Clouds -25 1020 75 8000 1.25 313 20:39 05.02.2020
3113 Clouds -25 1020 75 8000 1.25 313 20:39 05.02.2020
3114 Clouds -25 1020 75 8000 1 312 20:19 05.02.2020
3115 Clouds -24 1020 76 10000 1 0 19:57 05.02.2020
3116 Clouds -24 1020 76 10000 1 0 19:38 05.02.2020
3117 Clouds -24 1020 76 10000 1 0 19:19 05.02.2020
3118 Clouds -22 1020 76 10000 1 0 18:45 05.02.2020
3119 Clouds -22 1020 76 10000 1 0 18:21 05.02.2020
3120 Clouds -23 1020 76 10000 1 0 17:59 05.02.2020
3121 Clouds -23 1020 76 10000 1 0 17:37 05.02.2020
3122 Clouds -23 1020 76 10000 1 0 17:37 05.02.2020
3123 Clouds -23 1020 76 10000 1 0 17:18 05.02.2020
3124 Clouds -23 1020 76 10000 1 0 16:55 05.02.2020
3125 Clouds -24 1020 76 10000 1 0 16:37 05.02.2020
3126 Clouds -24 1020 76 10000 1 0 16:18 05.02.2020
3127 Clouds -24 1020 69 10000 0.21 32 15:41 05.02.2020
3128 Clouds -24 1020 69 10000 0.21 32 15:19 05.02.2020
3129 Clouds -24 1020 69 10000 3 170 14:55 05.02.2020
3130 Clouds -24 1020 76 10000 3 180 14:37 05.02.2020
3131 Clouds -24 1020 76 10000 3 180 14:19 05.02.2020
3132 Clouds -22 1020 69 10000 1 0 13:40 05.02.2020
3133 Clouds -22 1020 69 10000 1 0 13:22 05.02.2020
3134 Clouds -23 1019 76 10000 2 180 12:44 05.02.2020
3135 Clouds -22 1019 69 10000 3 160 12:25 05.02.2020
3136 Clouds -22 1019 69 10000 3 160 11:57 05.02.2020
3137 Clouds -19 1019 70 10000 2 150 11:38 05.02.2020
3138 Clouds -19 1019 70 10000 2 150 11:20 05.02.2020
3139 Clouds -12 1018 51 10000 1 0 10:43 05.02.2020
3140 Clouds -12 1018 51 10000 1 0 10:25 05.02.2020
3141 Clouds -12 1018 55 10000 2 0 09:58 05.02.2020
3142 Clouds -11 1018 51 10000 1 0 09:38 05.02.2020
3143 Clouds -11 1018 51 10000 1 0 09:20 05.02.2020
3144 Clouds -12 1018 51 10000 1 0 08:44 05.02.2020
3145 Clouds -12 1018 51 10000 1 0 08:24 05.02.2020
3146 Clear -12 1018 46 10000 1 0 07:55 05.02.2020
3147 Clear -13 1018 50 10000 1 0 07:33 05.02.2020
3148 Clear -14 1019 55 10000 1 0 06:50 05.02.2020
3149 Clear -16 1019 54 10000 1.13 187 06:23 05.02.2020
3150 Clear -16 1019 54 10000 1.13 187 05:54 05.02.2020
3151 Clear -16 1019 54 10000 1.49 129 05:19 05.02.2020
3152 Clear -20 1019 64 10000 1.49 129 04:45 05.02.2020
3153 Clear -21 1019 70 10000 1.49 129 03:50 05.02.2020
3154 Clear -29 1019 68 10000 1 0 02:25 05.02.2020
3155 Clouds -29 1019 75 10000 1 0 01:38 05.02.2020
3156 Clouds -29 1019 75 10000 1 0 00:43 05.02.2020
3157 Clouds -29 1019 75 10000 1 0 23:57 04.02.2020
3158 Clouds -25 1019 75 10000 1 0 23:37 04.02.2020
3159 Clouds -25 1019 75 10000 1 0 23:18 04.02.2020
3160 Clouds -28 1019 68 10000 1 0 22:42 04.02.2020
3161 Clouds -28 1019 68 10000 1 0 22:22 04.02.2020
3162 Clouds -27 1019 68 10000 1 0 21:59 04.02.2020
3163 Clouds -27 1019 68 10000 1 0 21:59 04.02.2020
3164 Clouds -27 1019 68 10000 1 0 21:41 04.02.2020
3165 Clouds -27 1019 68 10000 1 0 21:19 04.02.2020
3166 Clouds -27 1019 75 10000 1 0 20:59 04.02.2020
3167 Clouds -27 1019 75 10000 1 0 20:38 04.02.2020
3168 Clouds -27 1019 75 10000 1 0 20:20 04.02.2020
3169 Clouds -27 1019 75 10000 1 0 20:20 04.02.2020
3170 Clouds -27 1019 75 10000 1 0 20:20 04.02.2020
3171 Clouds -27 1019 75 10000 1 0 19:56 04.02.2020
3172 Clouds -27 1019 75 10000 1 0 19:56 04.02.2020
3173 Clouds -27 1019 75 10000 1 0 19:38 04.02.2020
3174 Clouds -27 1019 75 10000 1 0 19:20 04.02.2020
3175 Clouds -23 1020 69 10000 1 0 18:55 04.02.2020
3176 Clouds -23 1020 69 10000 1 0 18:36 04.02.2020
3177 Clouds -23 1020 69 10000 1 0 18:18 04.02.2020
3178 Clouds -23 1020 76 10000 1 0 17:42 04.02.2020
3179 Clear -23 1020 76 10000 1 0 17:20 04.02.2020
3180 Clear -23 1020 76 10000 1 0 16:54 04.02.2020
3181 Clear -24 1020 63 10000 1 0 16:36 04.02.2020
3182 Clear -24 1020 63 10000 1 0 16:18 04.02.2020
3183 Clear -21 1020 70 10000 2.3 106 15:55 04.02.2020
3184 Clear -21 1020 70 10000 2 260 15:37 04.02.2020
3185 Clear -21 1020 70 10000 2 260 15:18 04.02.2020
3186 Clear -20 1020 70 10000 1 0 14:41 04.02.2020
3187 Clear -20 1020 70 10000 1 0 14:20 04.02.2020
3188 Clear -19 1020 64 10000 2 0 13:55 04.02.2020
3189 Clear -20 1019 64 10000 1 0 13:36 04.02.2020
3190 Clear -20 1019 64 10000 1 0 13:18 04.02.2020
3191 Clear -18 1019 64 10000 1 0 12:42 04.02.2020
3192 Clear -18 1019 64 10000 1 0 12:42 04.02.2020
3193 Clear -18 1019 64 10000 1 0 12:42 04.02.2020
3194 Clear -18 1019 64 10000 1 0 12:24 04.02.2020
3195 Clear -17 1019 59 10000 1 0 11:57 04.02.2020
3196 Clear -15 1019 54 10000 2.21 111 11:38 04.02.2020
3197 Clear -15 1019 54 10000 2.19 117 11:19 04.02.2020
3198 Clear -14 1019 50 10000 1 0 10:49 04.02.2020
3199 Clear -13 1019 50 10000 1 0 10:26 04.02.2020
3200 Clear -12 1019 43 10000 2.19 117 09:58 04.02.2020
3201 Clear -13 1020 46 10000 1 0 09:39 04.02.2020
3202 Clear -13 1020 46 10000 1 0 09:21 04.02.2020
3203 Clear -13 1020 46 10000 1 0 08:46 04.02.2020
3204 Clear -14 1020 46 10000 1 0 08:27 04.02.2020
3205 Clear -15 1020 50 10000 1 0 07:53 04.02.2020
3206 Clear -16 1021 49 10000 1 0 07:25 04.02.2020
3207 Clear -17 1021 49 10000 1 0 06:58 04.02.2020
3208 Clear -18 1021 54 8000 1 0 06:40 04.02.2020
3209 Clear -20 1022 48 8000 1.93 127 05:34 04.02.2020
3210 Clear -20 1022 48 8000 1.93 127 05:34 04.02.2020
3211 Clear -23 1023 57 6000 1 0 04:27 04.02.2020
3212 Clear -25 1023 62 6000 1 0 03:47 04.02.2020
3213 Clear -26 1023 68 6000 1.71 115 03:29 04.02.2020
3214 Clear -31 1023 67 6000 1 0 02:38 04.02.2020
3215 Clear -31 1023 67 6000 1 0 02:18 04.02.2020
3216 Clear -31 1023 67 6000 1 0 01:44 04.02.2020
3217 Clear -32 1023 67 8000 1 0 00:55 04.02.2020
3218 Clear -32 1023 67 8000 1 0 00:23 04.02.2020
3219 Clear -33 1023 67 8000 2 0 23:48 03.02.2020
3220 Clear -34 1022 60 8000 1 0 23:28 03.02.2020
3221 Clear -33 1022 67 10000 1 0 22:58 03.02.2020
3222 Clear -32 1022 67 10000 1 0 22:38 03.02.2020
3223 Clear -32 1022 67 10000 1 0 22:19 03.02.2020
3224 Clear -32 1022 67 10000 1 0 21:41 03.02.2020
3225 Clear -32 1022 67 10000 1 0 21:19 03.02.2020
3226 Clear -32 1022 67 10000 2 170 20:43 03.02.2020
3227 Clear -32 1022 67 10000 2 170 20:21 03.02.2020
3228 Clear -31 1022 61 10000 2 170 19:59 03.02.2020
3229 Clear -31 1022 61 10000 2 170 19:41 03.02.2020
3230 Clear -31 1022 61 10000 2 170 19:22 03.02.2020
3231 Clear -32 1022 67 10000 3 180 18:57 03.02.2020
3232 Clear -32 1022 67 10000 3 180 18:38 03.02.2020
3233 Clear -32 1022 67 10000 3 180 18:20 03.02.2020
3234 Clear -32 1022 67 10000 3 180 18:20 03.02.2020
3235 Clear -32 1022 67 10000 2 180 17:56 03.02.2020
3236 Clear -32 1022 67 10000 2 180 17:38 03.02.2020
3237 Clear -32 1022 67 10000 2 180 17:18 03.02.2020
3238 Clear -31 1022 67 10000 2 190 16:40 03.02.2020
3239 Clear -31 1022 67 10000 2 190 16:21 03.02.2020
3240 Clear -26 1021 75 10000 1 0 15:56 03.02.2020
3241 Clear -30 1021 67 10000 2 0 15:38 03.02.2020
3242 Clear -30 1021 67 10000 2 0 15:19 03.02.2020
3243 Clear -30 1021 67 10000 2 170 14:45 03.02.2020
3244 Clear -26 1021 68 9000 1 0 14:27 03.02.2020
3245 Clear -26 1021 68 10000 1.58 332 13:58 03.02.2020
3246 Clear -28 1021 61 10000 1.58 332 13:40 03.02.2020
3247 Clear -28 1021 61 10000 1.58 332 13:19 03.02.2020
3248 Clear -25 1020 69 10000 1 0 12:56 03.02.2020
3249 Clear -22 1020 63 10000 1 0 12:37 03.02.2020
3250 Clear -22 1020 63 10000 1 0 12:19 03.02.2020
3251 Clear -18 1019 54 10000 3 340 11:40 03.02.2020
3252 Clear -18 1019 54 10000 3 340 11:20 03.02.2020
3253 Clear -18 1019 54 10000 3 340 11:20 03.02.2020
3254 Clear -16 1019 49 10000 3 340 10:58 03.02.2020
3255 Clear -15 1018 45 10000 4 330 10:39 03.02.2020
3256 Clear -15 1018 45 10000 4 330 10:20 03.02.2020
3257 Clear -14 1018 42 10000 4 330 09:41 03.02.2020
3258 Clear -14 1018 42 10000 4 330 09:20 03.02.2020
3259 Clear -15 1018 54 10000 1 0 08:41 03.02.2020
3260 Clear -15 1018 54 10000 1 0 08:23 03.02.2020
3261 Clear -16 1018 49 10000 2 0 07:58 03.02.2020
3262 Clear -16 1018 49 10000 1 0 07:39 03.02.2020
3263 Clear -16 1018 49 10000 1 0 07:20 03.02.2020
3264 Clear -16 1018 49 10000 1 0 07:20 03.02.2020
3265 Clear -16 1018 49 10000 1 0 07:20 03.02.2020
3266 Clear -16 1018 49 10000 1 0 07:20 03.02.2020
3267 Clear -19 1018 58 6000 1 0 06:43 03.02.2020
3268 Clear -19 1018 58 6000 1 0 06:24 03.02.2020
3269 Smoke -21 1019 58 5000 2.46 300 05:36 03.02.2020
3270 Smoke -23 1019 63 5000 1 0 04:50 03.02.2020
3271 Clear -30 1019 74 8000 1 0 02:58 03.02.2020
3272 Clear -33 1019 67 8000 1 0 02:33 03.02.2020
3273 Clear -30 1018 67 8000 1 0 01:25 03.02.2020
3274 Clear -33 1017 67 10000 1 0 00:45 03.02.2020
3275 Clear -32 1017 67 10000 0.95 339 00:21 03.02.2020
3276 Clear -33 1017 67 10000 1 0 23:38 02.02.2020
3277 Clear -33 1017 67 10000 1 0 23:20 02.02.2020
3278 Clear -33 1017 74 10000 1 0 22:57 02.02.2020
3279 Clear -32 1017 74 10000 1.01 13 22:37 02.02.2020
3280 Clear -32 1017 74 10000 1.01 13 22:19 02.02.2020
3281 Clear -31 1017 67 10000 1.01 13 21:42 02.02.2020
3282 Clear -31 1017 67 10000 1.01 13 21:24 02.02.2020
3283 Clear -32 1017 67 10000 1 0 20:58 02.02.2020
3284 Clear -32 1017 67 10000 1 0 20:39 02.02.2020
3285 Clouds -32 1017 67 10000 1 0 20:21 02.02.2020
3286 Clouds -31 1017 67 10000 1 0 19:59 02.02.2020
3287 Clouds -31 1017 67 10000 1 0 19:41 02.02.2020
3288 Clouds -31 1017 67 10000 1 0 19:23 02.02.2020
3289 Clouds -31 1017 67 10000 1 0 18:57 02.02.2020
3290 Clouds -31 1017 67 10000 1 0 18:38 02.02.2020
3291 Clouds -31 1017 67 10000 1 0 18:38 02.02.2020
3292 Clouds -31 1017 67 10000 1 0 18:20 02.02.2020
3293 Clouds -30 1017 67 10000 1.18 11 17:58 02.02.2020
3294 Clouds -30 1017 67 10000 1.18 11 17:38 02.02.2020
3295 Clouds -30 1017 67 10000 1.1 29 17:18 02.02.2020
3296 Clouds -30 1017 67 10000 1 0 16:58 02.02.2020
3297 Clouds -28 1017 68 10000 2 0 16:38 02.02.2020
3298 Clouds -28 1017 68 10000 2 0 16:19 02.02.2020
3299 Clouds -28 1017 68 10000 2 0 16:19 02.02.2020
3300 Clouds -28 1018 68 10000 1 0 15:57 02.02.2020
3301 Clouds -28 1018 68 10000 2 140 15:37 02.02.2020
3302 Clouds -28 1018 68 10000 2 140 15:19 02.02.2020
3303 Clouds -27 1018 68 10000 2 180 14:44 02.02.2020
3304 Clouds -26 1018 68 10000 1 0 14:19 02.02.2020
3305 Clouds -25 1018 62 10000 1 0 13:59 02.02.2020
3306 Clouds -24 1018 69 10000 1 0 13:41 02.02.2020
3307 Clouds -24 1018 69 10000 1 0 13:21 02.02.2020
3308 Clouds -24 1018 69 10000 1 0 12:57 02.02.2020
3309 Clear -25 1018 69 10000 1 0 12:39 02.02.2020
3310 Clouds -25 1018 69 10000 1 0 12:21 02.02.2020
3311 Clouds -24 1019 63 10000 1 0 11:43 02.02.2020
3312 Clear -24 1019 63 10000 1 0 11:20 02.02.2020
3313 Clouds -21 1019 53 10000 2 260 10:58 02.02.2020
3314 Clear -18 1019 49 10000 1 0 10:39 02.02.2020
3315 Clear -18 1019 49 10000 1 0 10:21 02.02.2020
3316 Clear -18 1019 49 10000 2 240 09:59 02.02.2020
3317 Clouds -18 1020 49 10000 2 230 09:39 02.02.2020
3318 Clouds -18 1020 49 10000 2 230 09:21 02.02.2020
3319 Clouds -18 1020 49 10000 3 240 08:46 02.02.2020
3320 Clear -19 1020 53 10000 3 240 08:26 02.02.2020
3321 Clear -19 1020 58 8000 2 0 07:49 02.02.2020
3322 Clear -20 1021 70 6000 1 0 07:30 02.02.2020
3323 Clouds -21 1021 70 6000 1 0 06:56 02.02.2020
3324 Clouds -22 1022 76 6000 1 0 06:37 02.02.2020
3325 Clouds -22 1022 76 6000 1 0 06:18 02.02.2020
3326 Smoke -24 1023 69 5000 1 0 05:20 02.02.2020
3327 Smoke -27 1024 68 5000 0.69 163 03:43 02.02.2020
3328 Smoke -29 1024 68 5000 0.69 163 03:22 02.02.2020
3329 Clouds -35 1024 66 6000 1 0 02:19 02.02.2020
3330 Clouds -36 1024 66 6000 0.5 136 01:50 02.02.2020
3331 Clouds -34 1023 66 8000 1 0 00:51 02.02.2020
3332 Clouds -35 1023 66 8000 1 0 00:25 02.02.2020
3333 Clouds -34 1023 60 8000 1 0 23:57 01.02.2020
3334 Clouds -36 1023 66 8000 1 0 23:38 01.02.2020
3335 Clouds -36 1023 66 8000 1 0 23:19 01.02.2020
3336 Clouds -32 1024 67 10000 0.36 324 22:43 01.02.2020
3337 Clouds -32 1024 67 10000 0.36 324 22:18 01.02.2020
3338 Clouds -32 1024 67 10000 1 0 21:41 01.02.2020
3339 Clouds -32 1024 67 10000 1 0 21:19 01.02.2020
3340 Clouds -33 1024 67 10000 2 0 20:55 01.02.2020
3341 Clouds -33 1024 67 10000 2 0 20:37 01.02.2020
3342 Clear -33 1024 67 10000 2 0 20:18 01.02.2020
3343 Clear -32 1024 67 10000 2 160 19:55 01.02.2020
3344 Clear -32 1024 67 10000 2 160 19:36 01.02.2020
3345 Clear -32 1024 67 10000 2 160 19:18 01.02.2020
3346 Clear -30 1024 67 10000 1 0 18:55 01.02.2020
3347 Clear -30 1024 67 10000 1 0 18:36 01.02.2020
3348 Clear -30 1024 67 10000 1 0 18:18 01.02.2020
3349 Clear -31 1024 74 10000 2 170 17:45 01.02.2020
3350 Clear -31 1024 74 10000 2 170 17:21 01.02.2020
3351 Clear -30 1024 67 10000 2 150 16:58 01.02.2020
3352 Clear -30 1024 67 10000 2 170 16:38 01.02.2020
3353 Clear -30 1024 67 10000 2 170 16:20 01.02.2020
3354 Clear -28 1024 75 10000 2 0 15:43 01.02.2020
3355 Clear -28 1024 75 10000 2 0 15:25 01.02.2020
3356 Clear -28 1024 75 10000 2 160 14:58 01.02.2020
3357 Clear -28 1024 75 10000 3 160 14:39 01.02.2020
3358 Clouds -28 1024 75 10000 3 160 14:20 01.02.2020
3359 Clouds -27 1024 75 10000 1 0 13:45 01.02.2020
3360 Clouds -28 1023 75 10000 2 190 13:21 01.02.2020
3361 Clouds -22 1023 76 10000 1 0 12:44 01.02.2020
3362 Clouds -22 1023 76 10000 1 0 12:26 01.02.2020
3363 Clouds -23 1023 76 10000 2 0 11:57 01.02.2020
3364 Clouds -22 1023 76 10000 2 190 11:38 01.02.2020
3365 Clouds -22 1023 76 10000 2 190 11:19 01.02.2020
3366 Clouds -19 1022 64 10000 2 180 10:55 01.02.2020
3367 Clouds -17 1022 64 10000 1 0 10:37 01.02.2020
3368 Clouds -17 1022 64 10000 1 0 10:37 01.02.2020
3369 Clouds -17 1022 64 10000 1 0 10:19 01.02.2020
3370 Clouds -16 1022 65 10000 1 0 09:42 01.02.2020
3371 Clouds -16 1022 65 10000 1 0 09:23 01.02.2020
3372 Clouds -16 1022 65 10000 1 0 08:59 01.02.2020
3373 Clouds -16 1022 65 8000 1 0 08:38 01.02.2020
3374 Clouds -17 1022 70 6000 1 0 07:47 01.02.2020
3375 Clouds -18 1022 70 6000 1 0 07:25 01.02.2020
3376 Clouds -18 1022 70 6000 1 0 07:25 01.02.2020
3377 Clouds -19 1022 70 6000 1 0 06:50 01.02.2020
3378 Clouds -19 1023 70 6000 1 0 06:19 01.02.2020
3379 Clouds -20 1023 70 6000 1 0 05:51 01.02.2020
3380 Clouds -27 1024 75 6000 1 0 03:40 01.02.2020
3381 Clouds -27 1024 75 6000 1 0 03:20 01.02.2020
3382 Clouds -30 1024 67 8000 1 0 02:41 01.02.2020
3383 Clouds -30 1024 67 8000 1 0 02:22 01.02.2020
3384 Clouds -28 1023 68 8000 1.02 114 01:48 01.02.2020
3385 Clouds -29 1023 68 10000 1.02 114 01:28 01.02.2020
3386 Clouds -31 1023 67 10000 1 0 00:25 01.02.2020
3387 Clouds -28 1023 68 10000 1 0 23:42 31.01.2020
3388 Clouds -28 1023 68 10000 1 0 23:19 31.01.2020
3389 Clouds -28 1023 68 10000 1 0 23:19 31.01.2020
3390 Clouds -28 1023 68 10000 0.86 75 22:58 31.01.2020
3391 Clouds -27 1023 68 10000 1 0 22:40 31.01.2020
3392 Clouds -27 1023 68 10000 1 0 22:21 31.01.2020
3393 Clouds -29 1023 68 10000 0.86 75 21:55 31.01.2020
3394 Clouds -29 1023 68 10000 2 160 21:37 31.01.2020
3395 Clouds -29 1023 68 10000 2 160 21:19 31.01.2020
3396 Clouds -30 1024 74 10000 2 160 20:55 31.01.2020
3397 Clouds -30 1024 74 10000 2 160 20:37 31.01.2020
3398 Clouds -29 1024 68 10000 0.44 50 20:18 31.01.2020
3399 Clouds -29 1024 68 10000 0.44 50 19:55 31.01.2020
3400 Clouds -28 1024 68 10000 1 0 19:36 31.01.2020
3401 Clouds -28 1024 68 10000 1 0 19:18 31.01.2020
3402 Clouds -29 1024 75 10000 3 180 18:39 31.01.2020
3403 Clouds -29 1024 75 10000 3 180 18:20 31.01.2020
3404 Clouds -28 1024 75 10000 1 0 17:46 31.01.2020
3405 Clouds -28 1024 75 10000 1 0 17:46 31.01.2020
3406 Clouds -26 1024 75 10000 1 0 17:28 31.01.2020
3407 Clouds -26 1024 75 10000 1 0 16:58 31.01.2020
3408 Clouds -27 1024 75 10000 3 180 16:38 31.01.2020
3409 Clouds -27 1024 75 10000 3 180 16:19 31.01.2020
3410 Clouds -25 1024 75 10000 2 0 15:58 31.01.2020
3411 Clouds -25 1024 75 10000 2 0 15:58 31.01.2020
3412 Clouds -24 1024 76 10000 2 0 15:40 31.01.2020
3413 Clouds -24 1024 76 10000 2 0 15:20 31.01.2020
3414 Clouds -23 1024 76 10000 3 170 14:44 31.01.2020
3415 Clouds -23 1024 76 10000 3 170 14:24 31.01.2020
3416 Clouds -22 1024 76 10000 1 0 13:56 31.01.2020
3417 Clouds -23 1023 83 10000 2 0 13:38 31.01.2020
3418 Clouds -23 1023 83 10000 2 0 13:20 31.01.2020
3419 Clouds -20 1023 70 10000 1.33 332 12:45 31.01.2020
3420 Clouds -19 1023 77 10000 3 280 12:24 31.01.2020
3421 Clouds -17 1023 77 10000 1 0 11:55 31.01.2020
3422 Clouds -17 1023 77 10000 1 0 11:37 31.01.2020
3423 Clouds -17 1023 77 10000 1 0 11:18 31.01.2020
3424 Clouds -13 1022 65 10000 2 0 10:43 31.01.2020
3425 Clouds -13 1022 65 10000 2 0 10:22 31.01.2020
3426 Clouds -13 1022 65 10000 2 0 10:22 31.01.2020
3427 Clouds -13 1022 65 10000 2 0 09:57 31.01.2020
3428 Clouds -13 1022 65 10000 2 0 09:39 31.01.2020
3429 Clouds -13 1022 65 10000 2 0 09:39 31.01.2020
3430 Clouds -13 1022 65 10000 2 0 09:19 31.01.2020
3431 Snow -14 1022 77 8000 2 0 08:53 31.01.2020
3432 Snow -14 1022 77 8000 2 0 08:28 31.01.2020
3433 Clouds -14 1022 71 10000 3 250 07:54 31.01.2020
3434 Clouds -13 1022 65 10000 3 240 07:26 31.01.2020
3435 Clouds -13 1022 65 10000 2 0 06:59 31.01.2020
3436 Clouds -13 1022 65 10000 1 0 06:27 31.01.2020
3437 Clouds -14 1023 71 10000 1 0 05:50 31.01.2020
3438 Clear -16 1023 77 10000 1.06 285 04:57 31.01.2020
3439 Clear -20 1023 83 10000 1.06 285 03:26 31.01.2020
3440 Clouds -23 1022 76 10000 1 0 01:40 31.01.2020
3441 Clouds -22 1021 76 10000 3 170 00:46 31.01.2020
3442 Clouds -25 1021 75 10000 3 180 00:27 31.01.2020
3443 Clouds -25 1021 69 10000 1 0 23:57 30.01.2020
3444 Clouds -23 1020 76 10000 2 160 23:26 30.01.2020
3445 Clouds -22 1020 83 10000 1 0 22:58 30.01.2020
3446 Clouds -22 1020 83 10000 2 0 22:37 30.01.2020
3447 Clouds -22 1020 83 10000 2 0 22:37 30.01.2020
3448 Clouds -22 1020 83 10000 2 0 22:37 30.01.2020
3449 Clouds -22 1020 83 10000 2 0 22:18 30.01.2020
3450 Clouds -22 1020 83 10000 2 0 22:18 30.01.2020
3451 Clouds -20 1020 83 10000 1.87 322 21:57 30.01.2020
3452 Clouds -20 1020 83 10000 1.87 322 21:38 30.01.2020
3453 Clouds -20 1020 83 10000 1.87 322 21:38 30.01.2020
3454 Clouds -20 1020 83 10000 1.87 322 21:18 30.01.2020
3455 Clouds -21 1020 76 10000 1 0 20:41 30.01.2020
3456 Clouds -21 1020 76 10000 1 0 20:22 30.01.2020
3457 Clouds -21 1020 76 10000 1 0 19:57 30.01.2020
3458 Clouds -18 1019 84 10000 1 0 19:39 30.01.2020
3459 Clouds -18 1019 84 10000 1 0 19:19 30.01.2020
3460 Clouds -19 1019 77 10000 1 0 18:42 30.01.2020
3461 Clouds -19 1019 77 10000 1 0 18:22 30.01.2020
3462 Clouds -16 1019 84 10000 1 0 17:58 30.01.2020
3463 Clouds -16 1019 84 10000 2 0 17:39 30.01.2020
3464 Clouds -16 1019 84 10000 2 0 17:19 30.01.2020
3465 Clouds -16 1019 84 10000 2 0 17:19 30.01.2020
3466 Snow -16 1018 84 10000 1 0 16:58 30.01.2020
3467 Snow -15 1018 84 10000 1 0 16:38 30.01.2020
3468 Snow -15 1018 84 10000 1 0 16:20 30.01.2020
3469 Clouds -17 1018 84 10000 2 0 15:44 30.01.2020
3470 Clouds -18 1018 84 10000 1 0 15:20 30.01.2020
3471 Clouds -18 1018 84 10000 2.93 336 14:50 30.01.2020
3472 Clouds -15 1017 77 10000 1 0 14:27 30.01.2020
3473 Clouds -21 1017 76 10000 3 170 13:58 30.01.2020
3474 Clouds -18 1017 84 10000 1 0 13:38 30.01.2020
3475 Clouds -18 1017 84 10000 1 0 13:38 30.01.2020
3476 Clouds -18 1017 84 10000 1 0 13:20 30.01.2020
3477 Clouds -19 1016 77 10000 1 0 12:43 30.01.2020
3478 Clouds -17 1016 70 10000 2 190 12:24 30.01.2020
3479 Clouds -16 1016 77 10000 2 160 11:58 30.01.2020
3480 Clouds -15 1016 71 10000 2 0 11:40 30.01.2020
3481 Clouds -15 1016 71 10000 2 0 11:21 30.01.2020
3482 Clouds -10 1015 61 10000 1 0 10:42 30.01.2020
3483 Clouds -10 1015 61 10000 1 0 10:24 30.01.2020
3484 Clouds -11 1015 66 10000 2 0 09:49 30.01.2020
3485 Clouds -11 1015 66 10000 2 0 09:49 30.01.2020
3486 Clouds -10 1015 66 10000 3 190 09:30 30.01.2020
3487 Clouds -9 1014 61 10000 2 0 08:59 30.01.2020
3488 Clouds -9 1014 61 10000 2 240 08:41 30.01.2020
3489 Clouds -9 1014 61 10000 2 240 08:20 30.01.2020
3490 Clouds -10 1015 66 8000 2 0 07:52 30.01.2020
3491 Clouds -10 1015 66 8000 2 0 07:52 30.01.2020
3492 Clouds -11 1015 72 8000 3 250 07:32 30.01.2020
3493 Clouds -11 1015 72 8000 2 0 06:47 30.01.2020
3494 Clouds -12 1015 66 6000 2 0 06:29 30.01.2020
3495 Clouds -12 1015 66 6000 2.1 270 05:47 30.01.2020
3496 Clouds -14 1016 65 6000 1 0 05:24 30.01.2020
3497 Clouds -16 1016 77 8000 1 0 03:56 30.01.2020
3498 Clouds -19 1016 84 8000 1.53 260 03:37 30.01.2020
3499 Clouds -19 1015 77 10000 1 0 02:48 30.01.2020
3500 Clouds -19 1015 77 10000 1 0 00:53 30.01.2020
3501 Clouds -21 1015 76 10000 2 0 00:21 30.01.2020
3502 Clouds -22 1015 76 10000 1 0 23:47 29.01.2020
3503 Clouds -22 1015 76 10000 3 160 23:22 29.01.2020
3504 Clouds -22 1015 76 10000 1 0 22:58 29.01.2020
3505 Clouds -24 1015 76 10000 1 0 22:39 29.01.2020
3506 Clouds -24 1015 76 10000 1 0 22:19 29.01.2020
3507 Clouds -23 1015 76 10000 1 0 21:58 29.01.2020
3508 Clouds -23 1015 69 10000 1.51 118 21:39 29.01.2020
3509 Clouds -23 1015 69 10000 1.51 118 21:39 29.01.2020
3510 Clouds -23 1015 69 10000 1.51 118 21:19 29.01.2020
3511 Clouds -24 1016 76 10000 1 0 20:58 29.01.2020
3512 Clouds -24 1016 76 10000 1 0 20:38 29.01.2020
3513 Clear -24 1016 76 10000 1 0 20:20 29.01.2020
3514 Clear -24 1016 76 10000 1 0 19:56 29.01.2020
3515 Clear -24 1016 76 10000 1 0 19:37 29.01.2020
3516 Clear -24 1016 76 10000 1 0 19:37 29.01.2020
3517 Clear -24 1016 76 10000 1 0 19:37 29.01.2020
3518 Clear -24 1016 76 10000 1 0 19:19 29.01.2020
3519 Clear -22 1017 83 10000 1.59 107 18:46 29.01.2020
3520 Clear -22 1017 83 10000 1.59 107 18:19 29.01.2020
3521 Clear -20 1017 76 10000 1 0 17:58 29.01.2020
3522 Clear -20 1017 76 10000 1 0 17:58 29.01.2020
3523 Clear -20 1017 76 10000 1 0 17:39 29.01.2020
3524 Clear -20 1017 76 10000 1 0 17:21 29.01.2020
3525 Clear -20 1017 76 10000 1 0 17:21 29.01.2020
3526 Clear -18 1017 84 10000 1.92 110 16:41 29.01.2020
3527 Clear -18 1017 84 10000 1.92 110 16:23 29.01.2020
3528 Clear -18 1018 84 10000 1.92 110 15:56 29.01.2020
3529 Clear -18 1018 84 10000 1.92 110 15:56 29.01.2020
3530 Clear -17 1018 84 10000 1 0 15:37 29.01.2020
3531 Clear -17 1018 84 10000 1 0 15:18 29.01.2020
3532 Clear -15 1018 77 10000 1.92 110 14:42 29.01.2020
3533 Clear -15 1018 77 10000 1.98 111 14:20 29.01.2020
3534 Clear -12 1018 72 10000 1 0 13:54 29.01.2020
3535 Clear -13 1018 71 10000 2 0 13:36 29.01.2020
3536 Clear -13 1018 71 10000 2 0 13:18 29.01.2020
3537 Clear -13 1018 71 10000 1 0 12:54 29.01.2020
3538 Clear -12 1018 66 10000 1 0 12:36 29.01.2020
3539 Clear -12 1018 66 10000 1 0 12:18 29.01.2020
3540 Clear -13 1018 71 10000 3 180 11:42 29.01.2020
3541 Clear -13 1018 71 10000 3 180 11:20 29.01.2020
3542 Clear -14 1028 86 0 1.97 116 10:46 29.01.2020
3543 Clear -7 1018 52 10000 2 0 10:23 29.01.2020
3544 Clear -7 1018 52 10000 2 0 09:58 29.01.2020
3545 Clear -7 1018 52 10000 2 0 09:39 29.01.2020
3546 Clear -7 1018 52 10000 2 0 09:19 29.01.2020
3547 Clear -7 1019 52 10000 1 0 08:45 29.01.2020
3548 Clear -7 1019 52 10000 2 0 08:24 29.01.2020
3549 Clear -6 1019 48 10000 1 0 07:45 29.01.2020
3550 Clear -8 1020 52 10000 1 0 07:26 29.01.2020
3551 Clear -8 1020 52 10000 2.06 130 06:56 29.01.2020
3552 Clear -11 1020 61 10000 1 0 06:38 29.01.2020
3553 Clear -11 1020 61 10000 1 0 06:19 29.01.2020
3554 Clear -11 1021 56 10000 1 0 05:50 29.01.2020
3555 Clear -13 1021 65 10000 2.06 130 05:32 29.01.2020
3556 Clear -16 1022 77 10000 1 0 04:38 29.01.2020
3557 Clear -18 1022 77 10000 1 0 03:59 29.01.2020
3558 Clear -25 1022 83 10000 2.19 115 02:34 29.01.2020
3559 Clear -23 1022 76 10000 1 0 01:18 29.01.2020
3560 Clear -21 1022 76 10000 2.26 110 00:38 29.01.2020
3561 Clear -21 1022 76 10000 2.26 110 00:20 29.01.2020
3562 Clear -21 1022 76 10000 2.26 110 23:39 28.01.2020
3563 Clear -21 1022 76 10000 2.32 111 23:19 28.01.2020
3564 Clear -22 1022 69 10000 2.32 111 22:49 28.01.2020
3565 Clear -22 1022 69 10000 1 0 22:27 28.01.2020
3566 Clear -22 1022 83 10000 1 0 21:57 28.01.2020
3567 Clear -21 1022 83 10000 2 290 21:38 28.01.2020
3568 Clear -21 1022 83 10000 2 290 21:19 28.01.2020
3569 Clear -21 1022 83 10000 2 290 21:19 28.01.2020
3570 Clear -21 1023 76 10000 1 0 20:45 28.01.2020
3571 Clear -21 1023 76 10000 1 0 20:26 28.01.2020
3572 Clear -19 1023 77 10000 2 0 19:55 28.01.2020
3573 Clear -19 1023 77 10000 2 0 19:37 28.01.2020
3574 Clear -19 1023 77 10000 2 0 19:19 28.01.2020
3575 Clear -19 1023 77 10000 2 0 19:19 28.01.2020
3576 Clear -19 1023 77 10000 2 0 19:19 28.01.2020
3577 Clear -17 1023 77 10000 1 0 18:41 28.01.2020
3578 Clear -17 1023 77 10000 1 0 18:23 28.01.2020
3579 Clear -17 1023 70 10000 1 0 17:59 28.01.2020
3580 Clear -17 1023 70 10000 1 0 17:59 28.01.2020
3581 Clear -17 1023 70 10000 1 0 17:39 28.01.2020
3582 Clear -17 1023 70 10000 1 0 17:21 28.01.2020
3583 Clear -19 1023 77 10000 2 0 16:58 28.01.2020
3584 Clear -17 1023 77 10000 1 0 16:40 28.01.2020
3585 Clear -17 1023 77 10000 1 0 16:21 28.01.2020
3586 Clear -18 1023 77 10000 1 0 15:47 28.01.2020
3587 Clear -18 1023 77 10000 2.29 113 15:19 28.01.2020
3588 Clear -17 1023 77 10000 2.29 113 14:58 28.01.2020
3589 Clear -16 1023 71 10000 2.29 113 14:39 28.01.2020
3590 Clear -16 1023 71 10000 2.21 109 14:18 28.01.2020
3591 Clear -13 1023 65 10000 1 0 13:41 28.01.2020
3592 Clear -13 1023 65 10000 1 0 13:23 28.01.2020
3593 Clear -13 1023 71 10000 2.16 109 12:43 28.01.2020
3594 Clear -12 1022 60 10000 1 0 12:24 28.01.2020
3595 Clear -12 1022 60 10000 1 0 12:24 28.01.2020
3596 Clear -10 1022 61 10000 1 0 11:58 28.01.2020
3597 Clear -9 1022 56 10000 2 0 11:39 28.01.2020
3598 Clear -9 1022 56 10000 2 0 11:20 28.01.2020
3599 Clear -7 1022 52 10000 1 0 10:42 28.01.2020
3600 Clear -7 1022 52 10000 1 0 10:24 28.01.2020
3601 Clear -6 1022 53 10000 1 0 09:58 28.01.2020
3602 Clear -5 1022 49 10000 1 0 09:38 28.01.2020
3603 Clear -5 1022 49 10000 1 0 09:19 28.01.2020
3604 Clear -6 1022 48 8000 1 0 08:43 28.01.2020
3605 Clear -6 1022 44 8000 1 0 08:22 28.01.2020
3606 Clear -8 1022 52 8000 1 0 07:40 28.01.2020
3607 Clear -9 1022 52 8000 1 0 06:58 28.01.2020
3608 Clear -11 1022 56 6000 1 0 06:40 28.01.2020
3609 Clear -11 1022 56 6000 1 0 06:22 28.01.2020
3610 Clear -13 1023 60 6000 1 0 05:34 28.01.2020
3611 Clear -16 1023 65 8000 1.59 108 04:40 28.01.2020
3612 Clear -20 1023 76 8000 1.59 108 03:41 28.01.2020
3613 Clear -23 1023 76 8000 1 0 02:43 28.01.2020
3614 Clear -26 1022 75 6000 1 0 02:24 28.01.2020
3615 Clear -27 1022 75 6000 1 0 01:50 28.01.2020
3616 Clear -27 1022 75 6000 1 0 00:51 28.01.2020
3617 Clear -26 1022 68 6000 1 0 00:30 28.01.2020
3618 Clear -22 1021 76 6000 1.66 103 23:59 27.01.2020
3619 Clear -27 1021 68 8000 1 0 23:41 27.01.2020
3620 Clear -27 1021 68 8000 1 0 23:18 27.01.2020
3621 Clear -26 1021 68 8000 1 0 22:44 27.01.2020
3622 Clear -26 1021 75 8000 1 0 22:20 27.01.2020
3623 Clear -25 1022 75 6000 1 0 21:57 27.01.2020
3624 Clear -25 1022 75 6000 1 0 21:38 27.01.2020
3625 Clear -25 1022 75 6000 1 0 21:18 27.01.2020
3626 Clear -25 1022 75 6000 1 0 20:55 27.01.2020
3627 Clear -25 1022 75 6000 1 0 20:37 27.01.2020
3628 Clear -25 1022 75 6000 1 0 20:18 27.01.2020
3629 Clear -25 1021 83 6000 1.63 98 19:41 27.01.2020
3630 Clear -25 1021 83 6000 1.63 98 19:23 27.01.2020
3631 Clear -25 1021 69 6000 1 0 18:57 27.01.2020
3632 Clear -25 1021 69 6000 1 0 18:39 27.01.2020
3633 Clear -25 1021 69 6000 1 0 18:39 27.01.2020
3634 Clear -25 1021 69 6000 1 0 18:20 27.01.2020
3635 Clear -25 1021 75 6000 1 0 17:55 27.01.2020
3636 Clear -23 1021 69 6000 1 0 17:37 27.01.2020
3637 Clear -23 1021 69 6000 1 0 17:18 27.01.2020
3638 Clear -24 1021 76 6000 1 0 16:41 27.01.2020
3639 Clear -24 1021 76 6000 1 0 16:41 27.01.2020
3640 Clear -24 1021 76 6000 1 0 16:23 27.01.2020
3641 Clear -23 1021 76 6000 1 0 15:55 27.01.2020
3642 Clear -23 1021 76 6000 1 0 15:37 27.01.2020
3643 Clear -23 1021 76 6000 1 0 15:19 27.01.2020
3644 Clear -23 1021 76 6000 1 0 15:19 27.01.2020
3645 Clear -21 1021 76 6000 1 0 14:43 27.01.2020
3646 Clear -23 1020 76 6000 1.44 95 14:23 27.01.2020
3647 Clear -21 1020 76 6000 1.18 95 13:58 27.01.2020
3648 Clear -19 1020 70 6000 1 0 13:40 27.01.2020
3649 Clear -19 1020 70 6000 1 0 13:20 27.01.2020
3650 Clear -20 1020 76 6000 2 0 12:54 27.01.2020
3651 Clear -18 1020 70 6000 2 150 12:36 27.01.2020
3652 Clear -18 1020 70 6000 2 150 12:18 27.01.2020
3653 Clear -18 1019 70 8000 3 160 11:41 27.01.2020
3654 Clear -18 1019 70 8000 3 160 11:41 27.01.2020
3655 Clear -18 1019 70 8000 3 160 11:20 27.01.2020
3656 Clear -14 1019 65 8000 2 160 10:43 27.01.2020
3657 Clear -10 1019 56 8000 1 0 10:24 27.01.2020
3658 Clear -8 1019 52 8000 1 0 09:56 27.01.2020
3659 Clear -8 1019 52 8000 1 0 09:38 27.01.2020
3660 Clear -8 1019 52 8000 1 0 09:18 27.01.2020
3661 Clear -8 1018 48 8000 0.19 175 08:42 27.01.2020
3662 Clear -8 1018 48 8000 0.78 241 08:20 27.01.2020
3663 Clear -10 1018 51 8000 1 0 07:54 27.01.2020
3664 Clear -10 1018 51 8000 1 0 07:54 27.01.2020
3665 Clear -10 1019 51 8000 1 0 07:33 27.01.2020
3666 Clear -12 1019 55 6000 1 0 06:52 27.01.2020
3667 Clear -13 1019 55 6000 1 0 06:24 27.01.2020
3668 Smoke -16 1020 59 5000 1 0 05:23 27.01.2020
3669 Clear -20 1020 76 6000 1 0 03:47 27.01.2020
3670 Clear -27 1019 75 8000 0.23 6 02:36 27.01.2020
3671 Clear -28 1019 75 8000 1 0 01:29 27.01.2020
3672 Clear -28 1019 68 8000 0.77 73 00:43 27.01.2020
3673 Clear -27 1019 75 8000 1 0 00:23 27.01.2020
3674 Clear -27 1019 68 8000 0.77 73 23:59 26.01.2020
3675 Clear -27 1019 68 8000 0.77 73 23:59 26.01.2020
3676 Clear -27 1019 75 8000 1 0 23:41 26.01.2020
3677 Clear -27 1019 75 8000 1 0 23:41 26.01.2020
3678 Clear -27 1019 75 8000 1 0 23:18 26.01.2020
3679 Clear -28 1019 75 8000 1 0 22:54 26.01.2020
3680 Clear -27 1019 75 8000 1 0 22:36 26.01.2020
3681 Clear -27 1019 75 8000 1 0 22:18 26.01.2020
3682 Clear -25 1019 69 8000 0.6 80 21:54 26.01.2020
3683 Clear -25 1019 69 8000 0.6 80 21:36 26.01.2020
3684 Clear -25 1019 69 8000 0.6 80 21:18 26.01.2020
3685 Clear -27 1019 68 8000 1 0 20:54 26.01.2020
3686 Clear -27 1019 68 8000 1 0 20:36 26.01.2020
3687 Clear -27 1019 68 8000 1 0 20:18 26.01.2020
3688 Clear -25 1019 69 8000 0.76 94 19:40 26.01.2020
3689 Clear -25 1019 69 8000 0.76 94 19:21 26.01.2020
3690 Clear -25 1018 69 8000 0.76 94 18:59 26.01.2020
3691 Clear -25 1018 69 8000 0.76 94 18:40 26.01.2020
3692 Clear -25 1018 69 8000 0.76 94 18:21 26.01.2020
3693 Clear -24 1018 76 8000 1 0 17:57 26.01.2020
3694 Clear -24 1018 76 8000 1 0 17:38 26.01.2020
3695 Clear -24 1018 76 8000 1 0 17:18 26.01.2020
3696 Clear -22 1018 76 8000 0.97 107 16:57 26.01.2020
3697 Clear -22 1018 76 8000 0.97 107 16:39 26.01.2020
3698 Clear -22 1018 76 8000 0.97 107 16:20 26.01.2020
3699 Clear -22 1018 76 8000 0.97 107 16:20 26.01.2020
3700 Clear -13 1025 55 0 0.97 107 15:46 26.01.2020
3701 Clear -13 1025 55 0 0.97 107 15:22 26.01.2020
3702 Clear -13 1025 55 0 0.97 107 14:58 26.01.2020
3703 Clear -13 1025 55 0 0.97 107 14:39 26.01.2020
3704 Clear -13 1025 56 0 0.96 118 14:19 26.01.2020
3705 Clear -13 1025 56 0 0.96 118 13:41 26.01.2020
3706 Clear -13 1025 57 0 1.15 113 13:20 26.01.2020
3707 Clear -13 1025 57 0 1.15 113 12:57 26.01.2020
3708 Clear -13 1025 57 0 1.15 113 12:38 26.01.2020
3709 Clear -13 1025 57 0 1.15 113 12:19 26.01.2020
3710 Clear -13 1025 57 0 1.15 113 11:57 26.01.2020
3711 Clear -13 1025 57 0 1.15 113 11:37 26.01.2020
3712 Clear -11 1017 61 8000 2 170 11:18 26.01.2020
3713 Clear -11 1017 61 8000 2 170 10:56 26.01.2020
3714 Clear -11 1017 61 8000 2 170 10:38 26.01.2020
3715 Clear -11 1017 61 8000 2 170 10:19 26.01.2020
3716 Clear -9 1017 52 8000 2 190 09:56 26.01.2020
3717 Clear -9 1017 56 8000 1 0 09:37 26.01.2020
3718 Clear -9 1017 56 8000 1 0 09:19 26.01.2020
3719 Clear -9 1017 52 8000 1 0 08:41 26.01.2020
3720 Clear -9 1017 52 8000 1 0 08:22 26.01.2020
3721 Clear -10 1017 56 8000 1 0 07:50 26.01.2020
3722 Clear -11 1018 56 8000 1 0 07:27 26.01.2020
3723 Clear -11 1018 51 6000 1 0 06:51 26.01.2020
3724 Clear -13 1018 55 6000 1 0 06:23 26.01.2020
3725 Clear -16 1019 59 6000 1 0 05:28 26.01.2020
3726 Clear -20 1019 76 6000 1.95 115 03:57 26.01.2020
3727 Clear -26 1019 75 6000 1.95 115 02:38 26.01.2020
3728 Clear -26 1019 75 6000 1 0 01:45 26.01.2020
3729 Clear -27 1019 68 6000 1 0 01:22 26.01.2020
3730 Clear -26 1018 75 6000 1 0 00:42 26.01.2020
3731 Clear -26 1018 75 6000 1 0 00:24 26.01.2020
3732 Clear -16 1028 75 0 2.07 104 23:40 25.01.2020
3733 Clear -16 1028 76 0 2.23 108 23:21 25.01.2020
3734 Clear -16 1028 76 0 2.23 108 22:56 25.01.2020
3735 Clear -16 1028 76 0 2.23 108 22:56 25.01.2020
3736 Clear -16 1028 76 0 2.23 108 22:36 25.01.2020
3737 Clear -16 1028 76 0 2.23 108 22:18 25.01.2020
3738 Clear -16 1028 76 0 2.23 108 21:55 25.01.2020
3739 Clear -16 1028 76 0 2.23 108 21:36 25.01.2020
3740 Clear -16 1028 76 0 2.23 108 21:18 25.01.2020
3741 Clear -16 1028 76 0 2.23 108 20:43 25.01.2020
3742 Clear -16 1028 76 0 2.23 108 20:24 25.01.2020
3743 Clear -15 1028 73 0 2.27 106 19:48 25.01.2020
3744 Clear -16 1029 73 0 2.17 104 19:20 25.01.2020
3745 Clear -16 1029 73 0 2.17 104 18:59 25.01.2020
3746 Clear -16 1029 73 0 2.17 104 18:41 25.01.2020
3747 Clear -16 1029 73 0 2.17 104 18:20 25.01.2020
3748 Clear -16 1029 73 0 2.17 104 17:42 25.01.2020
3749 Clear -16 1029 73 0 2.17 104 17:24 25.01.2020
3750 Clear -15 1029 68 0 2.31 109 16:58 25.01.2020
3751 Clear -15 1029 68 0 2.31 109 16:40 25.01.2020
3752 Clear -15 1029 68 0 2.31 109 16:21 25.01.2020
3753 Clear -15 1029 68 0 2.31 109 15:55 25.01.2020
3754 Clear -15 1029 68 0 2.31 109 15:37 25.01.2020
3755 Clear -15 1029 68 0 2.31 109 15:18 25.01.2020
3756 Clear -15 1029 68 0 2.31 109 14:41 25.01.2020
3757 Clear -13 1029 63 0 2.32 106 14:19 25.01.2020
3758 Clear -13 1029 63 0 2.32 106 13:43 25.01.2020
3759 Clear -13 1028 64 0 2.3 107 13:24 25.01.2020
3760 Clear -13 1029 63 0 2.32 106 13:24 25.01.2020
3761 Clear -21 1020 76 10000 1 0 12:46 25.01.2020
3762 Clear -21 1020 76 10000 1 0 12:28 25.01.2020
3763 Clear -21 1020 76 10000 1 0 11:46 25.01.2020
3764 Clear -19 1020 70 10000 1 0 11:23 25.01.2020
3765 Clear -16 1020 65 10000 2 180 11:00 25.01.2020
3766 Clear -12 1020 55 10000 1 0 10:40 25.01.2020
3767 Clear -12 1020 55 10000 1 0 10:21 25.01.2020
3768 Clear -11 1020 56 10000 1 0 09:57 25.01.2020
3769 Clear -10 1020 47 10000 1 0 09:37 25.01.2020
3770 Clear -10 1020 47 10000 1 0 09:18 25.01.2020
3771 Clear -10 1021 47 10000 1 0 08:42 25.01.2020
3772 Clear -11 1021 51 8000 1 0 07:53 25.01.2020
3773 Clear -14 1021 55 8000 2 0 06:58 25.01.2020
3774 Clear -14 1022 50 8000 1.57 117 06:31 25.01.2020
3775 Clear -15 1022 54 8000 1.57 117 05:50 25.01.2020
3776 Clear -17 1022 59 8000 1 0 05:28 25.01.2020
3777 Clear -21 1022 76 6000 1.56 108 03:55 25.01.2020
3778 Clear -23 1022 76 6000 1.56 108 03:23 25.01.2020
3779 Smoke -29 1022 68 5000 1 0 02:23 25.01.2020
3780 Smoke -28 1022 68 5000 1.37 100 01:53 25.01.2020
3781 Clear -29 1022 68 6000 1 0 00:52 25.01.2020
3782 Clear -26 1022 68 6000 1.3 102 00:26 25.01.2020
3783 Clear -28 1022 68 6000 1.3 102 23:59 24.01.2020
3784 Clear -28 1022 68 6000 1.3 102 23:59 24.01.2020
3785 Clear -28 1022 75 6000 1.3 102 23:41 24.01.2020
3786 Clear -28 1022 75 6000 1.3 102 23:41 24.01.2020
3787 Clear -28 1022 75 6000 1.3 102 23:23 24.01.2020
3788 Clear -27 1022 68 6000 1 0 22:46 24.01.2020
3789 Clear -27 1022 68 6000 1 0 22:46 24.01.2020
3790 Clear -28 1022 75 6000 1 0 22:25 24.01.2020
3791 Clear -28 1023 68 6000 1 0 21:57 24.01.2020
3792 Clear -28 1023 68 6000 1 0 21:38 24.01.2020
3793 Clear -28 1023 68 6000 1 0 21:18 24.01.2020
3794 Clear -26 1023 75 6000 1.43 95 20:42 24.01.2020
3795 Clear -26 1023 75 6000 1.07 101 20:21 24.01.2020
3796 Clear -25 1022 75 6000 1.07 101 19:57 24.01.2020
3797 Clear -25 1022 75 6000 1.07 101 19:39 24.01.2020
3798 Clear -25 1022 75 6000 1.07 101 19:21 24.01.2020
3799 Clear -28 1022 68 6000 1 0 18:43 24.01.2020
3800 Clear -28 1022 68 6000 1 0 18:43 24.01.2020
3801 Clear -28 1022 68 6000 1 0 18:24 24.01.2020
3802 Clear -27 1022 68 6000 1.07 101 17:56 24.01.2020
3803 Clear -27 1022 68 6000 1.07 101 17:38 24.01.2020
3804 Clear -27 1022 68 6000 0.97 107 17:18 24.01.2020
3805 Clear -24 1022 76 6000 0.97 107 16:39 24.01.2020
3806 Clear -24 1022 76 6000 0.97 107 16:21 24.01.2020
3807 Clear -24 1022 76 6000 1 0 15:55 24.01.2020
3808 Clear -26 1023 75 6000 0.97 107 15:37 24.01.2020
3809 Clear -26 1023 75 6000 0.97 107 15:18 24.01.2020
3810 Clear -26 1023 68 8000 1 0 14:41 24.01.2020
3811 Clouds -26 1023 68 8000 1 0 14:22 24.01.2020
3812 Clouds -24 1023 76 8000 1 0 13:44 24.01.2020
3813 Clouds -24 1023 76 10000 2 0 13:24 24.01.2020
3814 Clouds -21 1023 76 10000 2 0 12:45 24.01.2020
3815 Clouds -22 1023 69 10000 3 160 12:23 24.01.2020
3816 Clouds -22 1023 76 8000 1 0 11:58 24.01.2020
3817 Clouds -21 1022 70 8000 1 0 11:39 24.01.2020
3818 Clouds -21 1022 70 8000 1 0 11:18 24.01.2020
3819 Clouds -17 1022 64 8000 1 0 10:42 24.01.2020
3820 Clouds -17 1022 64 8000 1 0 10:42 24.01.2020
3821 Clouds -17 1022 64 8000 1 0 10:21 24.01.2020
3822 Clouds -14 1022 60 8000 0.81 191 09:55 24.01.2020
3823 Clouds -13 1022 55 8000 1 0 09:37 24.01.2020
3824 Clouds -13 1022 55 8000 1 0 09:18 24.01.2020
3825 Clouds -13 1022 55 8000 1 0 08:39 24.01.2020
3826 Clear -13 1022 55 8000 1 0 08:19 24.01.2020
3827 Clear -13 1023 50 8000 1 0 07:49 24.01.2020
3828 Clear -15 1023 60 6000 1 0 07:24 24.01.2020
3829 Clear -15 1023 54 6000 1 0 06:45 24.01.2020
3830 Smoke -17 1024 54 5000 1 0 06:24 24.01.2020
3831 Smoke -20 1024 58 5000 1 0 05:37 24.01.2020
3832 Smoke -24 1025 69 4000 0.89 154 03:47 24.01.2020
3833 Smoke -30 1025 74 4000 0.89 154 02:41 24.01.2020
3834 Smoke -30 1025 74 4000 0.89 154 02:22 24.01.2020
3835 Smoke -30 1025 67 5000 1 0 01:39 24.01.2020
3836 Clear -29 1025 68 6000 0.63 120 00:54 24.01.2020
3837 Clear -30 1024 67 6000 0.63 120 00:19 24.01.2020
3838 Clear -28 1024 68 6000 1 0 23:45 23.01.2020
3839 Clear -30 1024 67 6000 1 0 23:26 23.01.2020
3840 Clear -30 1024 67 6000 1 0 22:59 23.01.2020
3841 Clear -29 1024 68 6000 0.9 104 22:37 23.01.2020
3842 Clear -29 1024 68 6000 0.9 104 22:18 23.01.2020
3843 Clear -30 1025 67 6000 2 190 21:55 23.01.2020
3844 Clear -30 1025 67 6000 2 190 21:37 23.01.2020
3845 Clear -30 1025 67 6000 2 190 21:19 23.01.2020
3846 Clear -29 1025 75 6000 1 0 20:55 23.01.2020
3847 Clear -29 1025 75 6000 1 0 20:37 23.01.2020
3848 Clear -29 1025 75 6000 1 0 20:18 23.01.2020
3849 Clear -28 1025 68 6000 1.5 106 19:44 23.01.2020
3850 Clear -28 1025 68 6000 1.5 106 19:24 23.01.2020
3851 Clear -28 1025 75 6000 1 0 18:59 23.01.2020
3852 Clear -28 1025 75 6000 1 0 18:39 23.01.2020
3853 Clear -28 1025 75 6000 1 0 18:20 23.01.2020
3854 Clear -28 1025 75 6000 1 0 17:57 23.01.2020
3855 Clear -26 1025 75 6000 1.5 106 17:38 23.01.2020
3856 Clear -26 1025 75 6000 1.75 111 17:18 23.01.2020
3857 Clear -27 1025 68 6000 1 0 16:39 23.01.2020
3858 Clear -27 1025 68 6000 1 0 16:20 23.01.2020
3859 Clear -28 1025 68 8000 1.75 111 15:58 23.01.2020
3860 Clear -28 1025 75 8000 1 0 15:40 23.01.2020
3861 Clear -28 1025 75 8000 1 0 15:19 23.01.2020
3862 Clear -27 1025 68 8000 1.75 111 14:59 23.01.2020
3863 Clear -24 1025 69 8000 1.75 111 14:41 23.01.2020
3864 Clear -24 1025 69 8000 1.85 104 14:23 23.01.2020
3865 Clear -27 1025 75 8000 1.85 104 13:59 23.01.2020
3866 Clear -26 1025 75 8000 1 0 13:37 23.01.2020
3867 Clear -26 1025 75 8000 1 0 13:19 23.01.2020
3868 Clear -25 1025 75 8000 1.94 104 12:44 23.01.2020
3869 Clear -25 1025 75 8000 2 190 12:25 23.01.2020
3870 Clear -23 1025 69 8000 1 0 11:56 23.01.2020
3871 Clear -23 1024 69 8000 3 170 11:37 23.01.2020
3872 Clear -23 1024 69 8000 3 170 11:37 23.01.2020
3873 Clear -23 1024 69 8000 3 170 11:18 23.01.2020
3874 Clear -20 1024 70 8000 2 170 10:44 23.01.2020
3875 Clear -16 1024 59 8000 1 0 10:22 23.01.2020
3876 Clear -14 1024 55 6000 2 190 09:43 23.01.2020
3877 Clear -13 1024 50 6000 1 0 09:25 23.01.2020
3878 Clear -13 1024 50 6000 1 0 08:59 23.01.2020
3879 Clear -14 1024 55 6000 1 0 08:40 23.01.2020
3880 Clear -14 1024 55 6000 1 0 08:21 23.01.2020
3881 Clear -14 1024 55 6000 1 0 07:44 23.01.2020
3882 Clear -15 1024 54 6000 1 0 07:25 23.01.2020
3883 Smoke -16 1024 54 5000 1 0 06:51 23.01.2020
3884 Smoke -18 1024 64 5000 1 0 06:22 23.01.2020
3885 Smoke -19 1025 70 4000 1 0 05:44 23.01.2020
3886 Smoke -22 1025 76 4000 1.2 124 04:24 23.01.2020
3887 Smoke -31 1024 74 5000 1 0 02:34 23.01.2020
3888 Clear -30 1024 67 6000 0.63 81 01:19 23.01.2020
3889 Clear -32 1023 67 8000 1 0 00:27 23.01.2020
3890 Clear -30 1023 74 8000 0.63 81 23:48 22.01.2020
3891 Clear -28 1022 68 8000 1 0 23:29 22.01.2020
3892 Clear -28 1022 75 8000 1 0 22:59 22.01.2020
3893 Clear -29 1022 75 8000 1 0 22:40 22.01.2020
3894 Clear -29 1022 75 8000 1 0 22:22 22.01.2020
3895 Clear -27 1022 75 8000 0.8 358 21:40 22.01.2020
3896 Clear -27 1022 75 8000 0.8 358 21:22 22.01.2020
3897 Clear -26 1021 75 0 0.8 358 20:57 22.01.2020
3898 Clear -26 1021 75 0 0.8 358 20:37 22.01.2020
3899 Clear -26 1021 75 0 1.15 342 20:19 22.01.2020
3900 Clear -25 1020 75 10000 0.89 349 19:56 22.01.2020
3901 Clear -25 1020 75 10000 0.89 349 19:37 22.01.2020
3902 Clear -25 1020 75 10000 0.89 349 19:18 22.01.2020
3903 Clear -26 1020 75 10000 1 0 18:56 22.01.2020
3904 Clear -26 1020 75 10000 1 0 18:37 22.01.2020
3905 Clear -26 1020 75 10000 1 0 18:19 22.01.2020
3906 Clear -28 1019 68 10000 1 0 17:40 22.01.2020
3907 Clear -28 1019 68 10000 1 0 17:21 22.01.2020
3908 Clear -27 1019 68 10000 1 0 16:58 22.01.2020
3909 Clear -23 1018 76 10000 1.17 304 16:39 22.01.2020
3910 Clear -23 1018 76 10000 1.17 304 16:21 22.01.2020
3911 Clear -23 1018 69 10000 1 0 15:56 22.01.2020
3912 Clear -21 1018 63 10000 1 0 15:38 22.01.2020
3913 Clear -21 1018 63 10000 1 0 15:19 22.01.2020
3914 Clear -22 1017 76 10000 4 160 14:40 22.01.2020
3915 Clouds -22 1017 76 10000 4 160 14:21 22.01.2020
3916 Clouds -24 1017 69 10000 3 160 13:59 22.01.2020
3917 Clouds -25 1017 69 10000 2 180 13:38 22.01.2020
3918 Clouds -25 1017 69 10000 2 180 13:19 22.01.2020
3919 Clouds -23 1016 76 10000 1 0 12:57 22.01.2020
3920 Clouds -21 1016 70 10000 1 0 12:39 22.01.2020
3921 Clouds -21 1016 70 10000 1 0 12:19 22.01.2020
3922 Clouds -19 1015 70 10000 1.69 273 11:58 22.01.2020
3923 Clouds -18 1015 64 10000 1 0 11:39 22.01.2020
3924 Clouds -18 1015 64 10000 1 0 11:19 22.01.2020
3925 Clouds -18 1015 64 10000 1 0 11:19 22.01.2020
3926 Clouds -17 1014 64 10000 2 180 10:54 22.01.2020
3927 Clouds -12 1014 55 10000 1 0 10:36 22.01.2020
3928 Clouds -12 1014 55 10000 1 0 10:18 22.01.2020
3929 Clouds -12 1013 60 10000 2 0 09:41 22.01.2020
3930 Clouds -12 1013 60 10000 2 0 09:23 22.01.2020
3931 Clouds -11 1012 56 10000 1 0 08:56 22.01.2020
3932 Clouds -12 1012 60 10000 3 200 08:38 22.01.2020
3933 Clouds -12 1012 60 10000 3 200 08:20 22.01.2020
3934 Clouds -12 1012 55 10000 2 0 07:45 22.01.2020
3935 Clouds -13 1012 60 10000 3 230 07:27 22.01.2020
3936 Clouds -14 1012 65 6000 2 0 06:38 22.01.2020
3937 Clouds -14 1012 65 6000 2 0 06:19 22.01.2020
3938 Clouds -14 1012 65 6000 2 0 06:19 22.01.2020
3939 Smoke -19 1011 77 5000 1 0 04:27 22.01.2020
3940 Smoke -20 1011 76 5000 1 0 03:29 22.01.2020
3941 Clouds -23 1011 76 6000 2 160 02:49 22.01.2020
3942 Clouds -25 1010 75 6000 1 0 01:30 22.01.2020
3943 Clouds -20 1009 76 6000 1 0 00:40 22.01.2020
3944 Clouds -20 1009 76 6000 1 0 00:19 22.01.2020
3945 Clouds -22 1010 76 6000 0.62 167 23:37 21.01.2020
3946 Clouds -22 1010 76 6000 0.62 167 23:37 21.01.2020
3947 Clouds -22 1010 76 6000 1.65 116 23:19 21.01.2020
3948 Clouds -23 1010 76 0 1 0 22:42 21.01.2020
3949 Clouds -23 1010 76 0 1 0 22:24 21.01.2020
3950 Clouds -25 1011 75 6000 1.65 116 21:58 21.01.2020
3951 Clouds -25 1011 75 6000 1.65 116 21:39 21.01.2020
3952 Clouds -25 1011 75 6000 1.65 116 21:21 21.01.2020
3953 Clouds -26 1011 68 6000 1 0 20:58 21.01.2020
3954 Clouds -26 1011 68 6000 1 0 20:39 21.01.2020
3955 Clouds -26 1011 68 6000 1 0 20:20 21.01.2020
3956 Clouds -25 1012 75 6000 1 0 19:58 21.01.2020
3957 Clouds -25 1012 75 6000 1 0 19:39 21.01.2020
3958 Clouds -25 1012 75 6000 1 0 19:39 21.01.2020
3959 Clouds -25 1012 75 6000 1 0 19:21 21.01.2020
3960 Clouds -28 1012 68 6000 1 0 18:57 21.01.2020
3961 Clouds -28 1012 68 6000 1 0 18:38 21.01.2020
3962 Clouds -28 1012 68 6000 1 0 18:20 21.01.2020
3963 Clouds -28 1013 75 6000 1 0 17:56 21.01.2020
3964 Clouds -28 1013 68 8000 1.87 113 17:37 21.01.2020
3965 Clouds -28 1013 68 8000 1.8 101 17:18 21.01.2020
3966 Clouds -27 1013 75 8000 1 0 16:37 21.01.2020
3967 Clouds -27 1013 75 8000 1 0 16:19 21.01.2020
3968 Clouds -26 1013 75 8000 1.8 101 15:57 21.01.2020
3969 Clouds -26 1014 75 8000 1 0 15:37 21.01.2020
3970 Clouds -26 1014 75 8000 1 0 15:19 21.01.2020
3971 Clouds -25 1014 75 8000 2 0 14:39 21.01.2020
3972 Clouds -25 1014 75 8000 2 0 14:20 21.01.2020
3973 Clouds -24 1014 76 8000 2 160 13:43 21.01.2020
3974 Clouds -24 1014 76 8000 2 160 13:43 21.01.2020
3975 Clouds -26 1014 75 8000 2 170 13:20 21.01.2020
3976 Clouds -25 1014 69 8000 1 0 12:57 21.01.2020
3977 Clouds -24 1014 76 8000 1 0 12:39 21.01.2020
3978 Clouds -24 1014 76 8000 1 0 12:21 21.01.2020
3979 Clouds -23 1014 76 8000 1 0 11:41 21.01.2020
3980 Clouds -23 1014 76 8000 1 0 11:22 21.01.2020
3981 Clouds -19 1014 77 8000 0.34 74 11:00 21.01.2020
3982 Clouds -18 1014 70 8000 2 350 10:41 21.01.2020
3983 Clouds -18 1014 70 8000 2 350 10:22 21.01.2020
3984 Clouds -14 1013 65 8000 1 0 09:43 21.01.2020
3985 Clouds -14 1013 65 8000 1 0 09:23 21.01.2020
3986 Clouds -14 1013 65 8000 2 0 08:58 21.01.2020
3987 Clouds -16 1013 71 6000 3 240 08:40 21.01.2020
3988 Clouds -16 1013 71 6000 3 240 08:19 21.01.2020
3989 Smoke -16 1013 65 5000 1 0 07:42 21.01.2020
3990 Smoke -16 1013 65 5000 1 0 07:23 21.01.2020
3991 Smoke -15 1014 65 5000 2.18 245 06:55 21.01.2020
3992 Smoke -17 1014 70 5000 1 0 06:37 21.01.2020
3993 Smoke -19 1015 77 4000 1 0 05:50 21.01.2020
3994 Smoke -23 1015 76 4000 0.83 111 04:41 21.01.2020
3995 Smoke -25 1014 69 4000 0.83 111 03:40 21.01.2020
3996 Smoke -28 1013 75 5000 0.83 111 02:26 21.01.2020
3997 Clear -31 1013 67 6000 0.04 127 01:28 21.01.2020
3998 Clear -30 1012 67 6000 0.04 127 00:40 21.01.2020
3999 Clear -30 1012 67 6000 0.04 127 00:21 21.01.2020
4000 Clear -29 1011 75 6000 1 0 23:41 20.01.2020
4001 Clear -29 1011 75 6000 1 0 23:19 20.01.2020
4002 Clear -28 1011 68 8000 2 160 22:59 20.01.2020
4003 Clear -29 1010 68 8000 2 160 22:39 20.01.2020
4004 Clear -29 1010 68 8000 2 160 22:21 20.01.2020
4005 Clear -26 1010 75 8000 1.28 341 21:58 20.01.2020
4006 Clear -26 1010 75 8000 1.28 341 21:38 20.01.2020
4007 Clear -26 1010 75 8000 1.28 341 21:19 20.01.2020
4008 Clear -27 1010 68 8000 1.28 341 20:57 20.01.2020
4009 Clear -27 1010 68 8000 1.28 341 20:38 20.01.2020
4010 Clouds -27 1010 68 8000 2.06 336 20:19 20.01.2020
4011 Clouds -26 1009 68 8000 1 0 19:56 20.01.2020
4012 Clouds -26 1009 68 8000 1 0 19:38 20.01.2020
4013 Clouds -26 1009 68 8000 1 0 19:18 20.01.2020
4014 Clouds -26 1009 75 8000 1 0 18:44 20.01.2020
4015 Clouds -26 1009 75 8000 1 0 18:23 20.01.2020
4016 Clouds -26 1008 75 10000 2.06 336 17:59 20.01.2020
4017 Clouds -26 1008 75 10000 2.06 336 17:36 20.01.2020
4018 Clouds -26 1008 75 10000 2.06 336 17:36 20.01.2020
4019 Clouds -26 1008 75 10000 1.59 309 17:18 20.01.2020
4020 Clouds -24 1008 76 10000 2 160 16:43 20.01.2020
4021 Clouds -23 1008 76 10000 1 0 16:25 20.01.2020
4022 Clouds -23 1007 76 10000 1 0 15:58 20.01.2020
4023 Clouds -24 1007 76 10000 3 170 15:39 20.01.2020
4024 Clouds -24 1007 76 10000 3 170 15:21 20.01.2020
4025 Clouds -25 1007 75 10000 3 180 14:44 20.01.2020
4026 Clouds -25 1007 69 10000 1 0 14:25 20.01.2020
4027 Clouds -23 1006 69 10000 1 0 13:59 20.01.2020
4028 Clouds -22 1006 76 10000 0.28 115 13:40 20.01.2020
4029 Clouds -22 1006 76 10000 0.28 115 13:22 20.01.2020
4030 Clouds -23 1006 69 10000 1 0 12:47 20.01.2020
4031 Clouds -19 1006 70 10000 1 0 12:29 20.01.2020
4032 Clouds -19 1006 70 10000 1 0 12:29 20.01.2020
4033 Clouds -18 1005 70 10000 2 170 11:59 20.01.2020
4034 Clouds -20 1005 76 10000 3 170 11:40 20.01.2020
4035 Clouds -20 1005 76 10000 3 170 11:22 20.01.2020
4036 Clouds -21 1005 70 10000 1 0 10:57 20.01.2020
4037 Clouds -16 1004 59 10000 1.43 115 10:39 20.01.2020
4038 Clouds -16 1004 59 10000 1.43 115 10:19 20.01.2020
4039 Clouds -16 1004 59 10000 1.43 115 10:19 20.01.2020
4040 Clouds -16 1004 59 8000 1 0 09:40 20.01.2020
4041 Clouds -16 1004 59 8000 1 0 09:21 20.01.2020
4042 Clouds -15 1004 60 8000 1.43 115 08:49 20.01.2020
4043 Clouds -16 1005 65 8000 1 0 08:30 20.01.2020
4044 Clouds -16 1005 65 8000 1.85 124 07:46 20.01.2020
4045 Clouds -17 1006 70 8000 1.85 124 07:26 20.01.2020
4046 Clouds -18 1006 77 8000 1 0 06:59 20.01.2020
4047 Clouds -19 1006 77 8000 1 0 06:28 20.01.2020
4048 Clouds -20 1007 76 8000 1.85 124 05:43 20.01.2020
4049 Clouds -20 1007 76 8000 1.85 124 05:23 20.01.2020
4050 Clouds -22 1008 83 8000 1 0 04:48 20.01.2020
4051 Clouds -28 1009 75 8000 1 0 02:59 20.01.2020
4052 Clouds -29 1009 75 8000 2.57 105 01:57 20.01.2020
4053 Clouds -31 1009 67 8000 2.57 105 01:37 20.01.2020
4054 Clouds -30 1010 67 8000 2.56 106 00:45 20.01.2020
4055 Clouds -28 1010 75 8000 2.56 106 00:25 20.01.2020
4056 Clouds -30 1011 67 8000 2.56 106 23:40 19.01.2020
4057 Clear -30 1011 67 8000 2.49 99 23:20 19.01.2020
4058 Clear -31 1011 67 8000 2.49 99 22:57 19.01.2020
4059 Clear -31 1011 67 8000 2.49 99 22:39 19.01.2020
4060 Clear -31 1011 67 8000 2.49 99 22:21 19.01.2020
4061 Clear -30 1012 67 8000 2.49 99 21:57 19.01.2020
4062 Clear -30 1012 67 8000 2.49 99 21:39 19.01.2020
4063 Clear -30 1012 67 8000 2.49 99 21:20 19.01.2020
4064 Clear -29 1013 68 8000 1 0 20:57 19.01.2020
4065 Clear -29 1013 68 8000 1 0 20:39 19.01.2020
4066 Clear -29 1013 68 8000 1 0 20:21 19.01.2020
4067 Clear -30 1013 67 8000 1 0 19:57 19.01.2020
4068 Clear -30 1013 67 8000 1 0 19:39 19.01.2020
4069 Clear -30 1013 67 8000 1 0 19:21 19.01.2020
4070 Clear -29 1014 68 8000 1 0 18:59 19.01.2020
4071 Clear -29 1014 68 8000 1 0 18:41 19.01.2020
4072 Clear -29 1014 68 8000 1 0 18:21 19.01.2020
4073 Clear -25 1015 75 10000 1 0 17:58 19.01.2020
4074 Clear -25 1015 75 10000 1 0 17:58 19.01.2020
4075 Clear -25 1015 75 10000 1 0 17:40 19.01.2020
4076 Clear -25 1015 75 10000 1 0 17:21 19.01.2020
4077 Clear -25 1015 75 10000 1 0 16:59 19.01.2020
4078 Clear -26 1015 75 10000 1 0 16:39 19.01.2020
4079 Clear -26 1015 75 10000 1 0 16:21 19.01.2020
4080 Clear -23 1015 83 10000 0.77 80 15:59 19.01.2020
4081 Clear -26 1015 75 10000 1 0 15:39 19.01.2020
4082 Clear -26 1015 75 10000 1 0 15:20 19.01.2020
4083 Clear -26 1016 75 10000 1 0 14:58 19.01.2020
4084 Clear -25 1016 75 10000 1 0 14:39 19.01.2020
4085 Clouds -25 1016 75 10000 1 0 14:18 19.01.2020
4086 Clouds -23 1016 76 10000 1 0 13:57 19.01.2020
4087 Clouds -21 1016 76 10000 2 170 13:38 19.01.2020
4088 Clouds -21 1016 76 10000 2 170 13:19 19.01.2020
4089 Clouds -19 1017 70 10000 3 160 12:55 19.01.2020
4090 Clouds -21 1016 76 10000 3 170 12:37 19.01.2020
4091 Clouds -21 1016 76 10000 3 170 12:37 19.01.2020
4092 Clouds -21 1016 76 10000 3 170 12:19 19.01.2020
4093 Clouds -18 1016 70 10000 3 160 11:42 19.01.2020
4094 Snow -18 1016 70 10000 3 160 11:21 19.01.2020
4095 Clouds -17 1016 64 10000 3 160 10:56 19.01.2020
4096 Clouds -17 1016 64 10000 3 160 10:56 19.01.2020
4097 Clouds -12 1016 51 10000 2 0 10:38 19.01.2020
4098 Clouds -12 1016 51 10000 2 0 10:19 19.01.2020
4099 Clouds -11 1015 47 10000 3 280 09:56 19.01.2020
4100 Clouds -11 1015 47 10000 3 280 09:56 19.01.2020
4101 Clouds -11 1015 47 10000 3 280 09:56 19.01.2020
4102 Clouds -11 1015 47 10000 3 280 09:37 19.01.2020
4103 Clouds -11 1015 47 10000 3 280 09:18 19.01.2020
4104 Clouds -11 1015 56 10000 2 0 08:48 19.01.2020
4105 Clouds -11 1015 56 10000 1 0 08:28 19.01.2020
4106 Clouds -13 1015 71 8000 2 0 07:42 19.01.2020
4107 Clouds -13 1015 71 8000 2 0 07:22 19.01.2020
4108 Smoke -13 1016 78 5000 2 0 06:53 19.01.2020
4109 Smoke -14 1016 77 5000 1 0 06:21 19.01.2020
4110 Snow -24 1014 76 8000 1 0 02:44 19.01.2020
4111 Snow -26 1014 75 10000 1 0 02:21 19.01.2020
4112 Snow -25 1013 83 10000 1 0 01:25 19.01.2020
4113 Snow -26 1012 75 10000 1.28 294 00:50 19.01.2020
4114 Snow -24 1012 76 10000 1.28 294 00:29 19.01.2020
4115 Snow -24 1012 76 10000 1.28 294 23:58 18.01.2020
4116 Snow -23 1011 76 10000 1 0 23:40 18.01.2020
4117 Clouds -23 1011 76 10000 1 0 23:21 18.01.2020
4118 Clouds -23 1011 76 10000 1 0 22:55 18.01.2020
4119 Clouds -24 1011 76 10000 1 0 22:37 18.01.2020
4120 Clouds -24 1011 76 10000 1 0 22:19 18.01.2020
4121 Clouds -24 1010 76 10000 1 0 21:57 18.01.2020
4122 Clouds -24 1010 76 10000 1 0 21:37 18.01.2020
4123 Clouds -24 1010 76 10000 1 0 21:19 18.01.2020
4124 Clouds -26 1010 75 10000 2 150 20:43 18.01.2020
4125 Clouds -26 1010 75 10000 2 150 20:21 18.01.2020
4126 Clouds -25 1010 75 10000 1 0 19:58 18.01.2020
4127 Clouds -25 1010 75 10000 1 0 19:40 18.01.2020
4128 Clouds -25 1010 75 10000 1 0 19:22 18.01.2020
4129 Clouds -24 1009 76 10000 2 170 18:42 18.01.2020
4130 Clouds -24 1009 76 10000 2 170 18:21 18.01.2020
4131 Clouds -21 1009 76 10000 2 170 17:55 18.01.2020
4132 Clouds -21 1009 76 10000 2 170 17:37 18.01.2020
4133 Clouds -21 1009 76 10000 2 170 17:18 18.01.2020
4134 Snow -18 1009 77 10000 2 350 16:42 18.01.2020
4135 Snow -18 1009 77 10000 2 350 16:24 18.01.2020
4136 Snow -17 1009 70 10000 0.61 233 15:59 18.01.2020
4137 Clouds -17 1010 70 10000 1 0 15:41 18.01.2020
4138 Clouds -17 1010 70 10000 1 0 15:22 18.01.2020
4139 Clouds -18 1010 70 10000 1 0 14:54 18.01.2020
4140 Clouds -18 1011 70 10000 0.61 233 14:36 18.01.2020
4141 Clouds -18 1011 70 10000 1.02 121 14:18 18.01.2020
4142 Clouds -18 1011 70 10000 1 0 13:43 18.01.2020
4143 Clouds -19 1011 70 10000 1 0 13:24 18.01.2020
4144 Clouds -20 1010 76 10000 1 0 12:56 18.01.2020
4145 Clouds -20 1011 76 10000 1 0 12:38 18.01.2020
4146 Clouds -20 1011 76 10000 1 0 12:19 18.01.2020
4147 Clouds -22 1011 76 10000 1.02 116 11:44 18.01.2020
4148 Clouds -19 1011 70 10000 0.75 191 11:21 18.01.2020
4149 Clouds -17 1011 64 10000 2 280 10:56 18.01.2020
4150 Clouds -17 1011 64 10000 2 290 10:38 18.01.2020
4151 Clouds -17 1011 64 10000 2 290 10:18 18.01.2020
4152 Clouds -17 1011 64 10000 2 290 10:18 18.01.2020
4153 Clouds -15 1011 54 10000 2 0 09:42 18.01.2020
4154 Clouds -15 1011 54 10000 2 0 09:20 18.01.2020
4155 Clouds -14 1011 55 10000 1 0 08:55 18.01.2020
4156 Clouds -16 1012 65 10000 2 260 08:37 18.01.2020
4157 Clouds -16 1012 65 10000 2 260 08:18 18.01.2020
4158 Clouds -15 1012 60 8000 3 210 07:40 18.01.2020
4159 Clouds -15 1012 60 8000 3 210 07:21 18.01.2020
4160 Clouds -17 1012 77 8000 1 0 06:45 18.01.2020
4161 Clouds -20 1013 76 6000 2 0 05:53 18.01.2020
4162 Smoke -25 1014 75 5000 1.11 265 04:28 18.01.2020
4163 Clouds -29 1013 68 6000 1 0 02:49 18.01.2020
4164 Snow -28 1013 75 4000 1.02 282 01:47 18.01.2020
4165 Snow -29 1012 75 6000 1 0 00:40 18.01.2020
4166 Snow -29 1012 75 6000 1 0 00:21 18.01.2020
4167 Snow -30 1012 61 6000 1.03 287 23:59 17.01.2020
4168 Snow -27 1012 75 6000 1.03 287 23:40 17.01.2020
4169 Snow -27 1012 75 6000 1.03 287 23:40 17.01.2020
4170 Snow -27 1012 75 6000 0.91 271 23:18 17.01.2020
4171 Snow -26 1012 68 6000 1 0 22:42 17.01.2020
4172 Snow -26 1012 68 6000 1 0 22:20 17.01.2020
4173 Clouds -26 1013 75 6000 0.91 271 21:57 17.01.2020
4174 Clouds -26 1013 75 6000 0.91 271 21:38 17.01.2020
4175 Clouds -26 1013 75 6000 0.91 271 21:38 17.01.2020
4176 Clouds -26 1013 75 6000 0.91 271 21:20 17.01.2020
4177 Clouds -24 1013 76 6000 2 120 20:55 17.01.2020
4178 Clouds -24 1013 76 6000 2 120 20:36 17.01.2020
4179 Clouds -24 1013 76 6000 2 120 20:18 17.01.2020
4180 Clouds -23 1014 83 6000 1 0 19:54 17.01.2020
4181 Clouds -23 1014 83 6000 1 0 19:36 17.01.2020
4182 Clouds -23 1014 83 6000 1 0 19:18 17.01.2020
4183 Clouds -23 1014 76 6000 1 0 18:41 17.01.2020
4184 Clouds -23 1014 76 6000 1 0 18:23 17.01.2020
4185 Clouds -27 1014 75 6000 1 0 17:54 17.01.2020
4186 Clouds -27 1014 75 6000 1 0 17:36 17.01.2020
4187 Clouds -27 1014 75 6000 1 0 17:18 17.01.2020
4188 Clouds -24 1014 83 6000 1 0 16:41 17.01.2020
4189 Clouds -24 1014 83 6000 1 0 16:19 17.01.2020
4190 Clouds -25 1015 69 8000 1 0 15:48 17.01.2020
4191 Clouds -25 1015 69 8000 1 0 15:48 17.01.2020
4192 Clouds -25 1015 75 8000 2 150 15:26 17.01.2020
4193 Clouds -23 1015 76 10000 2 0 14:54 17.01.2020
4194 Clouds -21 1015 76 10000 1 0 14:36 17.01.2020
4195 Clouds -21 1015 76 10000 1 0 14:18 17.01.2020
4196 Clouds -24 1015 76 10000 2 110 13:39 17.01.2020
4197 Clouds -24 1015 76 10000 2 110 13:20 17.01.2020
4198 Clouds -24 1015 76 8000 1 0 12:45 17.01.2020
4199 Clouds -21 1015 70 8000 1 0 12:22 17.01.2020
4200 Clouds -19 1015 77 8000 1 0 11:41 17.01.2020
4201 Clouds -19 1015 77 8000 1 0 11:19 17.01.2020
4202 Clouds -19 1015 70 8000 1 0 10:45 17.01.2020
4203 Clouds -17 1015 70 8000 2 0 10:24 17.01.2020
4204 Clouds -14 1015 65 8000 1 0 09:59 17.01.2020
4205 Clouds -14 1016 65 8000 1 0 09:41 17.01.2020
4206 Clouds -14 1016 65 8000 1 0 09:20 17.01.2020
4207 Clouds -13 1015 60 8000 1.14 274 08:46 17.01.2020
4208 Clouds -14 1016 65 6000 2 0 08:26 17.01.2020
4209 Clouds -14 1016 65 6000 2 0 07:56 17.01.2020
4210 Smoke -14 1016 60 5000 1 0 07:36 17.01.2020
4211 Smoke -14 1016 60 5000 1 0 07:18 17.01.2020
4212 Smoke -15 1017 54 5000 1 0 06:43 17.01.2020
4213 Smoke -16 1018 54 4000 1.54 262 05:59 17.01.2020
4214 Clouds -15 1029 74 0 0.94 255 03:44 17.01.2020
4215 Clouds -15 1029 74 0 0.94 255 02:55 17.01.2020
4216 Clouds -18 1030 77 0 0.76 296 01:48 17.01.2020
4217 Clouds -18 1030 78 0 0.72 299 01:30 17.01.2020
4218 Clouds -18 1030 78 0 0.72 299 00:55 17.01.2020
4219 Clouds -25 1018 75 6000 1 0 00:28 17.01.2020
4220 Clouds -25 1018 75 6000 1 0 23:50 16.01.2020
4221 Clouds -25 1018 75 6000 1 0 23:26 16.01.2020
4222 Clouds -26 1018 75 6000 2 0 22:58 16.01.2020
4223 Clouds -27 1018 68 6000 0.26 321 22:40 16.01.2020
4224 Clouds -27 1018 68 6000 0.26 321 22:21 16.01.2020
4225 Clouds -27 1019 75 6000 0.26 321 21:55 16.01.2020
4226 Clouds -27 1019 75 6000 0.26 321 21:37 16.01.2020
4227 Clouds -27 1019 75 6000 0.26 321 21:18 16.01.2020
4228 Clouds -28 1019 75 6000 2 170 20:56 16.01.2020
4229 Clouds -28 1019 75 6000 2 170 20:36 16.01.2020
4230 Clear -28 1019 75 6000 2 170 20:18 16.01.2020
4231 Clear -28 1019 75 6000 2 170 20:18 16.01.2020
4232 Clear -27 1019 68 6000 1 0 19:41 16.01.2020
4233 Clear -27 1019 68 6000 1 0 19:23 16.01.2020
4234 Clear -26 1019 75 6000 1 0 18:58 16.01.2020
4235 Clear -28 1019 75 6000 1 0 18:39 16.01.2020
4236 Clear -28 1019 75 6000 1 0 18:21 16.01.2020
4237 Clear -27 1020 75 6000 1 0 17:59 16.01.2020
4238 Clear -27 1020 75 6000 1 0 17:41 16.01.2020
4239 Clear -27 1020 75 6000 1 0 17:41 16.01.2020
4240 Clear -27 1020 75 6000 1 0 17:21 16.01.2020
4241 Clear -26 1020 68 8000 2 160 16:56 16.01.2020
4242 Clear -23 1020 69 8000 0.48 147 16:37 16.01.2020
4243 Clear -23 1020 69 8000 0.48 147 16:18 16.01.2020
4244 Clear -27 1020 68 8000 2 170 15:44 16.01.2020
4245 Clear -27 1020 75 8000 1 0 15:21 16.01.2020
4246 Clear -27 1020 68 8000 1 0 14:55 16.01.2020
4247 Clear -27 1020 75 8000 2 170 14:37 16.01.2020
4248 Clear -27 1020 75 8000 2 170 14:18 16.01.2020
4249 Clear -26 1020 75 8000 1 0 13:43 16.01.2020
4250 Clear -26 1020 75 8000 1 0 13:24 16.01.2020
4251 Clear -23 1020 76 8000 0.86 113 12:45 16.01.2020
4252 Clear -24 1019 69 8000 2 180 12:27 16.01.2020
4253 Clear -24 1020 76 8000 1 0 11:56 16.01.2020
4254 Clear -23 1019 69 8000 2 0 11:37 16.01.2020
4255 Clear -23 1019 69 8000 2 0 11:19 16.01.2020
4256 Clear -18 1019 64 8000 2 170 10:39 16.01.2020
4257 Clear -18 1019 64 8000 2 170 10:20 16.01.2020
4258 Clear -15 1019 60 8000 1 0 09:57 16.01.2020
4259 Clear -14 1019 55 8000 1 0 09:38 16.01.2020
4260 Clear -14 1019 55 8000 1 0 09:19 16.01.2020
4261 Clear -14 1019 50 8000 1 0 08:51 16.01.2020
4262 Clear -14 1019 50 8000 1 0 08:30 16.01.2020
4263 Clouds -15 1020 54 8000 1 0 07:58 16.01.2020
4264 Clouds -16 1020 59 8000 1 0 07:38 16.01.2020
4265 Clouds -16 1020 59 8000 1 0 07:19 16.01.2020
4266 Clouds -17 1021 54 6000 1 0 06:42 16.01.2020
4267 Clouds -18 1022 59 6000 1.03 158 05:59 16.01.2020
4268 Clouds -19 1022 64 6000 1 0 05:40 16.01.2020
4269 Clouds -22 1022 76 6000 1.34 112 04:37 16.01.2020
4270 Clouds -22 1022 76 6000 1.34 112 04:37 16.01.2020
4271 Clouds -26 1023 75 6000 1.34 112 03:28 16.01.2020
4272 Clouds -29 1023 68 6000 1 0 02:42 16.01.2020
4273 Clouds -30 1022 67 6000 1.3 104 00:54 16.01.2020
4274 Clouds -29 1022 68 6000 1 0 00:24 16.01.2020
4275 Clouds -30 1022 67 6000 1.3 104 23:50 15.01.2020
4276 Clouds -30 1022 67 6000 1.3 104 23:50 15.01.2020
4277 Clouds -29 1023 68 6000 1 0 23:23 15.01.2020
4278 Clouds -29 1023 75 8000 1 0 22:58 15.01.2020
4279 Clouds -30 1023 67 8000 1 0 22:40 15.01.2020
4280 Clouds -30 1023 67 8000 1 0 22:19 15.01.2020
4281 Clouds -29 1024 75 8000 1.4 106 21:58 15.01.2020
4282 Clouds -29 1024 75 8000 1.4 106 21:40 15.01.2020
4283 Clouds -29 1024 75 8000 1.4 106 21:21 15.01.2020
4284 Clouds -29 1024 68 8000 1 0 20:58 15.01.2020
4285 Clouds -29 1024 68 8000 1 0 20:58 15.01.2020
4286 Clouds -29 1024 68 8000 1 0 20:58 15.01.2020
4287 Clouds -29 1024 68 8000 1 0 20:40 15.01.2020
4288 Clouds -29 1024 68 8000 1 0 20:21 15.01.2020
4289 Clouds -29 1024 75 8000 1 0 19:55 15.01.2020
4290 Clouds -29 1024 75 8000 1 0 19:37 15.01.2020
4291 Clouds -29 1024 75 8000 1 0 19:19 15.01.2020
4292 Clouds -28 1025 75 10000 1 0 18:57 15.01.2020
4293 Clouds -28 1025 75 10000 1 0 18:38 15.01.2020
4294 Clouds -28 1025 75 10000 1 0 18:20 15.01.2020
4295 Clouds -28 1025 75 10000 1.24 106 17:58 15.01.2020
4296 Clouds -28 1025 75 10000 1.24 106 17:39 15.01.2020
4297 Clouds -28 1025 75 10000 0.96 118 17:20 15.01.2020
4298 Clouds -28 1025 68 10000 0.96 118 16:42 15.01.2020
4299 Clouds -28 1025 68 10000 0.96 118 16:23 15.01.2020
4300 Clouds -27 1025 68 10000 1 0 15:59 15.01.2020
4301 Clouds -27 1025 68 10000 2 0 15:41 15.01.2020
4302 Clouds -27 1025 68 10000 2 0 15:20 15.01.2020
4303 Clouds -27 1025 75 10000 1 0 14:44 15.01.2020
4304 Clear -28 1025 75 10000 1 0 14:21 15.01.2020
4305 Clear -27 1026 75 10000 1 0 13:56 15.01.2020
4306 Clear -26 1026 75 10000 1 0 13:38 15.01.2020
4307 Clear -26 1026 75 10000 1 0 13:20 15.01.2020
4308 Clear -26 1026 68 10000 2 180 12:55 15.01.2020
4309 Clear -26 1025 68 10000 2 0 12:36 15.01.2020
4310 Clear -26 1025 68 10000 2 0 12:18 15.01.2020
4311 Clear -25 1025 75 10000 1 0 11:38 15.01.2020
4312 Clear -25 1025 75 10000 1 0 11:20 15.01.2020
4313 Clear -20 1025 64 10000 1 0 10:47 15.01.2020
4314 Clear -17 1025 59 10000 1 0 10:28 15.01.2020
4315 Clear -17 1025 64 10000 2 270 09:58 15.01.2020
4316 Clear -15 1024 60 8000 1 0 09:39 15.01.2020
4317 Clear -15 1024 60 8000 1 0 09:19 15.01.2020
4318 Clear -16 1024 59 6000 2 290 08:44 15.01.2020
4319 Clear -16 1024 59 6000 1 0 08:24 15.01.2020
4320 Smoke -16 1024 59 5000 1 0 07:54 15.01.2020
4321 Smoke -16 1024 54 5000 1 0 07:33 15.01.2020
4322 Smoke -17 1025 54 4000 1.65 257 06:52 15.01.2020
4323 Smoke -18 1025 59 4000 1 0 06:28 15.01.2020
4324 Smoke -22 1025 69 4000 0.91 273 04:56 15.01.2020
4325 Smoke -29 1024 75 4000 1 0 02:48 15.01.2020
4326 Smoke -29 1023 68 5000 1 0 01:48 15.01.2020
4327 Clouds -30 1023 74 6000 1 333 01:21 15.01.2020
4328 Clouds -30 1022 74 6000 1 0 00:37 15.01.2020
4329 Clouds -30 1022 74 6000 1 0 00:19 15.01.2020
4330 Clouds -28 1022 75 6000 1 0 23:46 14.01.2020
4331 Clouds -29 1022 75 6000 1 0 23:24 14.01.2020
4332 Clouds -28 1022 75 6000 2 160 22:57 14.01.2020
4333 Clouds -28 1021 75 6000 2 110 22:38 14.01.2020
4334 Clouds -28 1021 75 6000 2 110 22:18 14.01.2020
4335 Clouds -28 1021 75 6000 2 110 21:55 14.01.2020
4336 Clouds -28 1021 75 6000 1 0 21:37 14.01.2020
4337 Clouds -28 1021 75 6000 1 0 21:19 14.01.2020
4338 Clouds -19 1032 74 0 0.6 308 20:42 14.01.2020
4339 Clouds -19 1032 74 0 0.6 308 20:42 14.01.2020
4340 Clouds -24 1021 76 6000 1 0 20:22 14.01.2020
4341 Clouds -24 1021 76 6000 1 0 19:57 14.01.2020
4342 Clouds -24 1021 76 6000 1 0 19:38 14.01.2020
4343 Clouds -24 1021 76 6000 1 0 19:20 14.01.2020
4344 Clouds -26 1021 75 6000 1 0 18:59 14.01.2020
4345 Clouds -17 1031 67 0 0.34 264 18:40 14.01.2020
4346 Clouds -25 1021 75 6000 0.34 264 18:19 14.01.2020
4347 Clouds -25 1021 75 6000 0.34 264 18:19 14.01.2020
4348 Clouds -25 1021 75 6000 0.34 264 17:39 14.01.2020
4349 Clouds -25 1021 75 6000 0.71 226 17:19 14.01.2020
4350 Clouds -25 1021 69 6000 0.71 226 16:59 14.01.2020
4351 Clouds -26 1020 68 6000 1 0 16:41 14.01.2020
4352 Clouds -26 1020 68 6000 1 0 16:21 14.01.2020
4353 Clouds -26 1020 75 8000 1 0 15:55 14.01.2020
4354 Clouds -27 1020 75 8000 2 160 15:37 14.01.2020
4355 Clouds -27 1020 75 8000 2 160 15:18 14.01.2020
4356 Clouds -24 1020 69 8000 0.71 226 14:43 14.01.2020
4357 Clouds -26 1020 75 8000 1 0 14:20 14.01.2020
4358 Clouds -26 1020 75 8000 0.22 116 13:43 14.01.2020
4359 Clouds -25 1019 75 8000 0.22 116 13:20 14.01.2020
4360 Clouds -26 1019 68 10000 2 160 12:59 14.01.2020
4361 Clouds -26 1019 75 10000 2 0 12:40 14.01.2020
4362 Clouds -26 1019 75 10000 2 0 12:20 14.01.2020
4363 Clouds -26 1019 75 10000 2 0 12:20 14.01.2020
4364 Clouds -21 1018 70 10000 1 0 11:43 14.01.2020
4365 Clouds -21 1018 70 10000 1 0 11:23 14.01.2020
4366 Clear -21 1017 70 10000 1 0 10:58 14.01.2020
4367 Clear -19 1017 70 10000 1 0 10:39 14.01.2020
4368 Clear -19 1017 70 10000 1 0 10:19 14.01.2020
4369 Clear -17 1017 64 8000 0.75 267 09:57 14.01.2020
4370 Clear -15 1017 60 8000 1 0 09:39 14.01.2020
4371 Clear -15 1017 60 8000 1 0 09:20 14.01.2020
4372 Clear -16 1016 59 8000 1 0 08:44 14.01.2020
4373 Clear -17 1016 64 6000 1 0 08:23 14.01.2020
4374 Clear -18 1016 64 6000 1 0 07:53 14.01.2020
4375 Smoke -19 1017 64 5000 1 0 07:31 14.01.2020
4376 Smoke -18 1017 59 5000 1 0 06:50 14.01.2020
4377 Smoke -19 1017 64 5000 1 0 06:23 14.01.2020
4378 Smoke -22 1017 69 4000 1 0 05:21 14.01.2020
4379 Smoke -26 1018 68 4000 1 0 03:51 14.01.2020
4380 Smoke -31 1017 67 5000 0.82 286 02:42 14.01.2020
4381 Clear -32 1016 67 6000 1 0 01:35 14.01.2020
4382 Clear -32 1016 67 6000 1 0 00:49 14.01.2020
4383 Clear -32 1016 67 6000 1 0 00:28 14.01.2020
4384 Clear -29 1016 75 6000 1 0 23:48 13.01.2020
4385 Clear -31 1016 67 6000 2 180 23:20 13.01.2020
4386 Clear -31 1016 67 6000 0.52 142 23:00 13.01.2020
4387 Clear -31 1016 67 6000 1 0 22:40 13.01.2020
4388 Clear -31 1016 67 6000 1 0 22:20 13.01.2020
4389 Clear -31 1016 67 6000 1 0 21:56 13.01.2020
4390 Clear -31 1016 67 6000 1 0 21:37 13.01.2020
4391 Clear -31 1016 67 6000 1 0 21:18 13.01.2020
4392 Clear -31 1016 67 6000 0.52 142 20:57 13.01.2020
4393 Clear -31 1016 67 6000 0.52 142 20:57 13.01.2020
4394 Clear -31 1016 67 6000 0.52 142 20:38 13.01.2020
4395 Clear -31 1016 67 6000 0.74 101 20:20 13.01.2020
4396 Clear -28 1016 68 6000 0.74 101 19:57 13.01.2020
4397 Clear -28 1016 68 6000 0.74 101 19:38 13.01.2020
4398 Clear -28 1016 68 6000 0.74 101 19:18 13.01.2020
4399 Clear -31 1016 74 6000 1 0 18:56 13.01.2020
4400 Clear -31 1016 74 6000 1 0 18:56 13.01.2020
4401 Clear -31 1016 74 6000 1 0 18:37 13.01.2020
4402 Clear -31 1016 74 6000 1 0 18:18 13.01.2020
4403 Clear -29 1017 75 6000 1 0 17:40 13.01.2020
4404 Clear -29 1017 75 6000 1 0 17:40 13.01.2020
4405 Clear -29 1017 75 6000 1 0 17:22 13.01.2020
4406 Clear -29 1017 75 6000 1 0 16:56 13.01.2020
4407 Clear -20 1030 76 0 1.28 104 16:37 13.01.2020
4408 Clear -20 1030 76 0 1.28 104 16:19 13.01.2020
4409 Clear -20 1030 76 0 1.28 104 15:43 13.01.2020
4410 Clear -20 1030 76 0 1.28 104 15:23 13.01.2020
4411 Clear -20 1030 76 0 1.28 104 14:57 13.01.2020
4412 Clear -20 1030 76 0 1.28 104 14:37 13.01.2020
4413 Clear -19 1029 77 0 1.19 115 14:18 13.01.2020
4414 Clear -19 1029 77 0 1.19 115 13:41 13.01.2020
4415 Clear -19 1029 77 0 1.19 115 13:23 13.01.2020
4416 Clear -27 1016 68 6000 1 0 12:58 13.01.2020
4417 Clear -27 1016 68 6000 1 0 12:40 13.01.2020
4418 Clear -27 1016 68 6000 1 0 12:22 13.01.2020
4419 Clear -27 1016 68 6000 1 0 11:57 13.01.2020
4420 Clear -27 1016 75 6000 1 0 11:37 13.01.2020
4421 Clear -27 1016 75 6000 1 0 11:18 13.01.2020
4422 Clear -24 1016 69 6000 1 0 10:55 13.01.2020
4423 Clear -24 1016 69 6000 1 0 10:36 13.01.2020
4424 Clear -24 1016 69 6000 1 0 10:18 13.01.2020
4425 Clear -17 1017 54 6000 1 0 09:42 13.01.2020
4426 Clear -17 1017 54 6000 1 0 09:23 13.01.2020
4427 Clear -18 1017 59 6000 1 0 08:44 13.01.2020
4428 Clear -18 1017 59 6000 1 0 08:22 13.01.2020
4429 Clear -18 1017 59 6000 1 0 07:59 13.01.2020
4430 Clear -18 1017 59 6000 0.74 154 07:41 13.01.2020
4431 Clear -18 1017 59 6000 0.74 154 07:19 13.01.2020
4432 Smoke -20 1017 70 5000 0.74 154 06:37 13.01.2020
4433 Smoke -20 1017 70 5000 0.74 154 06:37 13.01.2020
4434 Smoke -23 1018 76 4000 1 0 05:36 13.01.2020
4435 Smoke -26 1019 75 4000 0.97 126 04:26 13.01.2020
4436 Smoke -29 1019 68 4000 0.97 126 03:35 13.01.2020
4437 Smoke -32 1019 67 4000 1 0 02:49 13.01.2020
4438 Smoke -31 1019 67 4000 0.97 126 02:30 13.01.2020
4439 Smoke -31 1019 67 4000 0.97 126 02:30 13.01.2020
4440 Smoke -32 1019 67 4000 0.83 114 01:33 13.01.2020
4441 Smoke -32 1018 67 5000 0.8 116 00:44 13.01.2020
4442 Smoke -34 1018 66 5000 1 0 00:25 13.01.2020
4443 Smoke -31 1018 67 5000 0.8 116 23:57 12.01.2020
4444 Smoke -32 1018 67 5000 1 0 23:38 12.01.2020
4445 Smoke -32 1018 67 5000 1 0 23:20 12.01.2020
4446 Smoke -32 1019 67 5000 1 0 22:43 12.01.2020
4447 Smoke -32 1019 67 5000 1 0 22:24 12.01.2020
4448 Smoke -33 1019 67 5000 0.37 119 21:59 12.01.2020
4449 Smoke -33 1019 67 5000 0.37 119 21:59 12.01.2020
4450 Smoke -33 1019 67 5000 0.37 119 21:40 12.01.2020
4451 Smoke -33 1019 67 5000 0.37 119 21:20 12.01.2020
4452 Smoke -30 1019 67 5000 0.37 119 20:58 12.01.2020
4453 Smoke -30 1019 67 5000 0.37 119 20:39 12.01.2020
4454 Smoke -30 1019 67 5000 0.38 91 20:21 12.01.2020
4455 Clear -30 1019 74 6000 1 0 19:56 12.01.2020
4456 Clear -30 1019 74 6000 1 0 19:56 12.01.2020
4457 Clear -30 1019 74 6000 1 0 19:38 12.01.2020
4458 Clear -30 1019 74 6000 1 0 19:19 12.01.2020
4459 Clear -30 1020 67 6000 0.23 101 18:58 12.01.2020
4460 Clear -30 1020 67 6000 0.23 101 18:58 12.01.2020
4461 Clear -30 1020 67 6000 0.23 101 18:40 12.01.2020
4462 Clear -30 1020 67 6000 0.23 101 18:40 12.01.2020
4463 Clear -30 1020 67 6000 0.23 101 18:21 12.01.2020
4464 Clear -29 1020 68 6000 0.23 101 17:58 12.01.2020
4465 Clear -29 1020 68 6000 0.23 101 17:38 12.01.2020
4466 Clear -29 1020 68 6000 0.39 235 17:19 12.01.2020
4467 Clouds -25 1020 69 6000 1 0 16:55 12.01.2020
4468 Clouds -26 1020 68 6000 1 0 16:37 12.01.2020
4469 Clouds -26 1020 68 6000 1 0 16:19 12.01.2020
4470 Clouds -30 1020 67 6000 1 0 15:42 12.01.2020
4471 Clouds -30 1020 67 6000 1 0 15:24 12.01.2020
4472 Clear -30 1020 67 8000 2 170 14:57 12.01.2020
4473 Clear -30 1020 67 8000 1 0 14:38 12.01.2020
4474 Clear -30 1020 67 8000 1 0 14:19 12.01.2020
4475 Clear -31 1021 74 8000 1 0 13:44 12.01.2020
4476 Clear -30 1021 74 8000 1 0 13:25 12.01.2020
4477 Clear -29 1021 75 8000 2 170 12:59 12.01.2020
4478 Clear -28 1020 75 8000 2 150 12:39 12.01.2020
4479 Clear -28 1020 75 8000 2 150 12:20 12.01.2020
4480 Clear -28 1020 75 8000 2 150 11:58 12.01.2020
4481 Clear -27 1020 68 8000 1 0 11:39 12.01.2020
4482 Clear -27 1020 68 8000 1 0 11:20 12.01.2020
4483 Clear -21 1020 70 6000 0.71 266 10:41 12.01.2020
4484 Clear -21 1020 70 6000 0.71 266 10:22 12.01.2020
4485 Smoke -18 1020 64 5000 0.71 266 09:57 12.01.2020
4486 Smoke -19 1020 70 5000 1 0 09:38 12.01.2020
4487 Smoke -19 1020 70 5000 1 0 09:19 12.01.2020
4488 Smoke -19 1020 70 5000 2 270 08:45 12.01.2020
4489 Smoke -19 1020 70 5000 1 0 08:20 12.01.2020
4490 Smoke -20 1021 70 5000 1 0 07:41 12.01.2020
4491 Smoke -20 1021 70 5000 1 0 07:23 12.01.2020
4492 Smoke -20 1021 70 5000 1 0 06:48 12.01.2020
4493 Smoke -22 1022 76 5000 1.49 257 06:29 12.01.2020
4494 Smoke -24 1023 76 3600 1.49 257 05:32 12.01.2020
4495 Smoke -24 1023 69 3600 0.94 267 04:27 12.01.2020
4496 Smoke -30 1023 67 4000 1 0 03:23 12.01.2020
4497 Smoke -33 1023 67 4000 1 0 02:33 12.01.2020
4498 Smoke -31 1023 67 5000 0.67 302 01:44 12.01.2020
4499 Smoke -32 1023 67 5000 1 0 01:22 12.01.2020
4500 Clouds -31 1023 67 6000 1 0 00:41 12.01.2020
4501 Clouds -31 1023 67 6000 1 0 00:20 12.01.2020
4502 Clouds -31 1023 67 6000 1 0 23:42 11.01.2020
4503 Clouds -31 1023 67 6000 1 0 23:20 11.01.2020
4504 Clouds -30 1023 67 6000 1 0 22:58 11.01.2020
4505 Clouds -30 1023 67 6000 1 0 22:58 11.01.2020
4506 Clear -28 1023 75 6000 1 0 22:40 11.01.2020
4507 Clear -28 1023 75 6000 1 0 22:20 11.01.2020
4508 Clear -27 1023 75 6000 0.79 303 21:58 11.01.2020
4509 Clear -27 1023 75 6000 0.79 303 21:40 11.01.2020
4510 Clear -27 1023 75 6000 0.79 303 21:40 11.01.2020
4511 Clear -27 1023 75 6000 0.79 303 21:18 11.01.2020
4512 Clear -26 1023 75 6000 1 0 20:40 11.01.2020
4513 Clear -26 1023 75 6000 1 0 20:22 11.01.2020
4514 Clear -31 1024 67 6000 1 0 19:58 11.01.2020
4515 Clear -31 1024 67 6000 1 0 19:39 11.01.2020
4516 Clear -31 1024 67 6000 1 0 19:21 11.01.2020
4517 Clear -31 1023 74 6000 1 0 18:58 11.01.2020
4518 Clear -31 1023 74 6000 1 0 18:38 11.01.2020
4519 Clear -31 1023 74 6000 1 0 18:20 11.01.2020
4520 Clear -31 1024 67 8000 1 0 17:57 11.01.2020
4521 Clear -31 1024 67 8000 0.7 280 17:39 11.01.2020
4522 Clear -31 1024 67 8000 0.49 291 17:19 11.01.2020
4523 Clear -29 1024 68 8000 1 0 16:45 11.01.2020
4524 Clear -30 1024 74 8000 1 0 16:27 11.01.2020
4525 Clear -30 1024 74 8000 2 170 15:59 11.01.2020
4526 Clear -30 1024 74 8000 2 170 15:40 11.01.2020
4527 Clear -30 1024 74 8000 2 170 15:22 11.01.2020
4528 Clear -27 1024 68 8000 1 0 14:57 11.01.2020
4529 Clear -28 1024 68 8000 1 0 14:38 11.01.2020
4530 Clouds -28 1024 68 8000 1 0 14:20 11.01.2020
4531 Clouds -25 1023 69 8000 1 0 13:39 11.01.2020
4532 Clouds -25 1023 69 8000 1 0 13:20 11.01.2020
4533 Clouds -26 1023 83 8000 0.46 312 12:58 11.01.2020
4534 Clouds -26 1023 75 8000 1 0 12:39 11.01.2020
4535 Clouds -26 1023 75 8000 1 0 12:21 11.01.2020
4536 Clouds -24 1023 76 8000 0.46 312 11:47 11.01.2020
4537 Clouds -24 1023 76 8000 1 0 11:26 11.01.2020
4538 Clouds -23 1022 69 8000 1 0 10:50 11.01.2020
4539 Clouds -21 1022 70 8000 1 0 10:30 11.01.2020
4540 Clouds -16 1022 59 8000 0.94 289 09:57 11.01.2020
4541 Clouds -16 1022 59 8000 1 0 09:37 11.01.2020
4542 Clouds -16 1022 59 8000 1 0 09:19 11.01.2020
4543 Clouds -17 1022 64 8000 2 0 08:41 11.01.2020
4544 Clouds -17 1022 64 8000 2 0 08:21 11.01.2020
4545 Clouds -17 1021 64 8000 1 0 07:44 11.01.2020
4546 Clouds -17 1022 59 8000 1 0 07:25 11.01.2020
4547 Clouds -18 1022 64 6000 1 0 06:48 11.01.2020
4548 Smoke -21 1023 76 5000 1 0 05:34 11.01.2020
4549 Smoke -22 1023 83 5000 1 0 04:46 11.01.2020
4550 Clouds -23 1023 76 6000 0.07 192 04:27 11.01.2020
4551 Clouds -27 1023 75 8000 0.07 192 02:49 11.01.2020
4552 Clouds -27 1022 75 8000 0.74 71 01:57 11.01.2020
4553 Clouds -27 1022 68 8000 0.74 71 01:38 11.01.2020
4554 Clouds -27 1022 68 8000 0.74 71 01:18 11.01.2020
4555 Clouds -28 1022 75 8000 1 0 00:32 11.01.2020
4556 Clouds -28 1022 68 10000 1 0 23:59 10.01.2020
4557 Clouds -28 1022 75 10000 1 0 23:39 10.01.2020
4558 Clouds -28 1022 75 10000 1 0 23:21 10.01.2020
4559 Clouds -27 1022 75 10000 1 0 22:55 10.01.2020
4560 Clouds -27 1022 75 10000 0.81 84 22:37 10.01.2020
4561 Clouds -27 1022 75 10000 0.81 84 22:18 10.01.2020
4562 Clouds -28 1023 68 10000 1 0 21:55 10.01.2020
4563 Clouds -28 1023 68 10000 1 0 21:36 10.01.2020
4564 Clouds -28 1023 68 10000 1 0 21:18 10.01.2020
4565 Clouds -19 1035 81 0 0.81 84 20:42 10.01.2020
4566 Clouds -27 1023 68 10000 1 0 20:24 10.01.2020
4567 Clouds -27 1023 68 10000 1 0 19:54 10.01.2020
4568 Clouds -27 1023 68 10000 1 0 19:36 10.01.2020
4569 Clouds -27 1023 68 10000 1 0 19:18 10.01.2020
4570 Clouds -27 1024 75 10000 1 0 18:41 10.01.2020
4571 Clouds -27 1024 75 10000 1 0 18:19 10.01.2020
4572 Clouds -28 1024 68 10000 1 0 17:57 10.01.2020
4573 Clouds -28 1024 68 10000 1 0 17:38 10.01.2020
4574 Clouds -28 1024 68 10000 1 0 17:20 10.01.2020
4575 Clouds -28 1024 68 10000 1 0 17:20 10.01.2020
4576 Clouds -28 1024 68 10000 1 0 16:55 10.01.2020
4577 Clouds -26 1024 68 10000 1 0 16:37 10.01.2020
4578 Clouds -26 1024 68 10000 1 0 16:19 10.01.2020
4579 Clouds -28 1024 75 10000 2 0 15:55 10.01.2020
4580 Clouds -27 1024 75 10000 2 0 15:36 10.01.2020
4581 Clouds -27 1024 75 10000 2 0 15:18 10.01.2020
4582 Clouds -25 1025 69 10000 2 90 14:42 10.01.2020
4583 Clear -25 1025 69 10000 2 90 14:20 10.01.2020
4584 Clear -23 1025 76 10000 1 0 13:59 10.01.2020
4585 Clear -22 1025 76 10000 1 0 13:41 10.01.2020
4586 Clear -22 1025 76 10000 1 0 13:23 10.01.2020
4587 Clear -22 1025 76 10000 2 180 12:58 10.01.2020
4588 Clear -23 1025 76 10000 0.65 2 12:38 10.01.2020
4589 Clear -23 1025 76 10000 0.65 2 12:19 10.01.2020
4590 Clear -22 1024 76 10000 1 0 11:55 10.01.2020
4591 Clear -22 1024 76 10000 0.65 2 11:37 10.01.2020
4592 Clear -22 1024 76 10000 1.21 313 11:18 10.01.2020
4593 Clear -20 1024 70 10000 2 180 10:42 10.01.2020
4594 Clear -20 1024 70 10000 2 180 10:24 10.01.2020
4595 Clear -18 1024 64 10000 3 180 09:56 10.01.2020
4596 Clear -18 1024 64 10000 3 180 09:56 10.01.2020
4597 Clear -17 1024 64 10000 3 170 09:37 10.01.2020
4598 Clear -17 1024 64 10000 3 170 09:19 10.01.2020
4599 Clear -15 1024 65 10000 1 0 08:41 10.01.2020
4600 Clear -15 1024 65 10000 1 0 08:23 10.01.2020
4601 Clouds -15 1024 65 10000 1 0 07:45 10.01.2020
4602 Clouds -15 1024 65 10000 1 0 07:26 10.01.2020
4603 Clouds -16 1024 71 10000 1 0 06:46 10.01.2020
4604 Clouds -18 1024 84 10000 1 0 06:26 10.01.2020
4605 Clouds -19 1025 77 10000 2 0 05:51 10.01.2020
4606 Clouds -26 1025 75 8000 1.66 288 03:37 10.01.2020
4607 Clouds -26 1025 75 8000 1.66 288 03:18 10.01.2020
4608 Clouds -26 1025 68 10000 1 0 02:47 10.01.2020
4609 Clouds -30 1024 74 10000 1.63 309 01:44 10.01.2020
4610 Clouds -29 1024 75 10000 1 0 01:26 10.01.2020
4611 Clouds -29 1024 75 10000 1 0 00:40 10.01.2020
4612 Clouds -24 1024 76 10000 1.7 303 23:58 09.01.2020
4613 Clouds -23 1024 76 10000 1.7 303 23:39 09.01.2020
4614 Clouds -23 1024 76 10000 1.76 305 23:20 09.01.2020
4615 Clouds -23 1024 83 10000 1 0 22:57 09.01.2020
4616 Clouds -22 1024 76 10000 1 0 22:39 09.01.2020
4617 Clouds -22 1024 76 10000 1 0 22:19 09.01.2020
4618 Clouds -22 1024 76 10000 1.76 305 21:57 09.01.2020
4619 Clouds -23 1024 76 10000 1 0 21:37 09.01.2020
4620 Clouds -23 1024 76 10000 1 0 21:19 09.01.2020
4621 Clouds -23 1024 76 10000 1 0 20:57 09.01.2020
4622 Clouds -23 1024 76 10000 1 0 20:39 09.01.2020
4623 Clouds -21 1024 76 10000 1 0 20:19 09.01.2020
4624 Clouds -21 1024 76 10000 1.84 315 19:57 09.01.2020
4625 Clouds -21 1024 76 10000 1 0 19:37 09.01.2020
4626 Clouds -21 1024 76 10000 1 0 19:19 09.01.2020
4627 Clouds -22 1024 76 10000 1 0 18:55 09.01.2020
4628 Clouds -21 1024 76 10000 1 0 18:36 09.01.2020
4629 Clouds -21 1024 76 10000 1 0 18:18 09.01.2020
4630 Clouds -23 1023 76 10000 2 0 17:41 09.01.2020
4631 Clouds -23 1023 76 10000 2 0 17:18 09.01.2020
4632 Clouds -24 1023 76 10000 3 160 16:49 09.01.2020
4633 Clouds -23 1023 76 10000 3 170 16:24 09.01.2020
4634 Clouds -27 1023 75 10000 1 0 15:59 09.01.2020
4635 Clouds -27 1023 75 10000 2 160 15:40 09.01.2020
4636 Clouds -27 1023 75 10000 2 160 15:19 09.01.2020
4637 Clouds -27 1022 75 10000 1 0 14:42 09.01.2020
4638 Clear -22 1022 83 10000 1.98 331 14:22 09.01.2020
4639 Clear -25 1022 75 10000 1 0 13:57 09.01.2020
4640 Clear -25 1022 75 10000 2 170 13:39 09.01.2020
4641 Clouds -25 1022 75 10000 2 170 13:20 09.01.2020
4642 Clouds -24 1022 76 10000 2 180 12:58 09.01.2020
4643 Clouds -23 1021 76 10000 2 180 12:39 09.01.2020
4644 Clouds -23 1021 76 10000 2 180 12:19 09.01.2020
4645 Clouds -22 1021 76 10000 3 170 11:56 09.01.2020
4646 Clouds -21 1021 76 10000 3 170 11:37 09.01.2020
4647 Clouds -21 1021 76 10000 3 170 11:19 09.01.2020
4648 Clouds -19 1020 77 10000 3 160 10:43 09.01.2020
4649 Clouds -19 1020 77 10000 3 160 10:22 09.01.2020
4650 Clouds -18 1020 70 10000 2 0 09:55 09.01.2020
4651 Clouds -17 1020 70 10000 2 0 09:37 09.01.2020
4652 Clouds -17 1020 70 10000 2 0 09:18 09.01.2020
4653 Clouds -17 1020 70 10000 3 170 08:54 09.01.2020
4654 Clouds -16 1020 71 10000 3 230 08:36 09.01.2020
4655 Clouds -16 1020 71 10000 3 230 08:18 09.01.2020
4656 Clouds -17 1019 70 10000 4 170 07:41 09.01.2020
4657 Clouds -16 1019 71 10000 2 0 07:23 09.01.2020
4658 Clouds -16 1020 71 10000 3 240 06:38 09.01.2020
4659 Clouds -16 1020 71 10000 3 240 06:18 09.01.2020
4660 Clouds -17 1020 77 10000 3 250 05:43 09.01.2020
4661 Smoke -17 1020 84 5000 2 0 04:42 09.01.2020
4662 Smoke -21 1020 76 5000 1 0 03:30 09.01.2020
4663 Smoke -21 1020 76 5000 1 0 03:30 09.01.2020
4664 Snow -21 1020 83 3000 1 0 02:48 09.01.2020
4665 Snow -21 1020 76 3000 1 0 02:23 09.01.2020
4666 Snow -20 1019 76 4000 1 0 01:35 09.01.2020
4667 Snow -19 1019 84 4000 1.33 323 00:42 09.01.2020
4668 Smoke -19 1019 84 5000 1.33 323 00:20 09.01.2020
4669 Smoke -19 1019 77 5000 1.33 323 23:41 08.01.2020
4670 Smoke -19 1019 77 5000 1.33 323 23:23 08.01.2020
4671 Smoke -19 1019 77 5000 0.52 324 22:58 08.01.2020
4672 Smoke -19 1019 77 5000 1 0 22:38 08.01.2020
4673 Smoke -19 1019 77 5000 1 0 22:20 08.01.2020
4674 Smoke -19 1020 77 5000 0.52 324 21:56 08.01.2020
4675 Smoke -19 1020 77 5000 0.52 324 21:56 08.01.2020
4676 Smoke -19 1020 77 5000 0.52 324 21:38 08.01.2020
4677 Smoke -19 1020 77 5000 0.52 324 21:18 08.01.2020
4678 Smoke -20 1020 83 5000 0.52 324 20:57 08.01.2020
4679 Smoke -20 1020 83 5000 0.52 324 20:38 08.01.2020
4680 Smoke -20 1020 83 5000 0.69 119 20:19 08.01.2020
4681 Clouds -21 1020 76 6000 1 0 19:55 08.01.2020
4682 Clouds -21 1020 76 6000 1 0 19:55 08.01.2020
4683 Clouds -21 1020 76 6000 1 0 19:36 08.01.2020
4684 Clouds -21 1020 76 6000 1 0 19:18 08.01.2020
4685 Clouds -23 1020 76 6000 1 0 18:54 08.01.2020
4686 Clouds -23 1020 76 6000 1 0 18:54 08.01.2020
4687 Clouds -23 1020 76 6000 1 0 18:36 08.01.2020
4688 Clouds -23 1020 76 6000 1 0 18:18 08.01.2020
4689 Clouds -23 1020 76 6000 1 0 18:18 08.01.2020
4690 Clouds -24 1020 76 6000 1 0 17:42 08.01.2020
4691 Clouds -24 1020 76 6000 1 0 17:23 08.01.2020
4692 Clouds -26 1020 75 6000 2 0 16:57 08.01.2020
4693 Clouds -24 1020 76 6000 1 0 16:39 08.01.2020
4694 Clouds -24 1020 76 6000 1 0 16:19 08.01.2020
4695 Clouds -24 1020 76 6000 1 0 16:19 08.01.2020
4696 Clouds -24 1020 76 6000 1 0 15:56 08.01.2020
4697 Clouds -24 1020 76 6000 1 0 15:38 08.01.2020
4698 Clouds -24 1020 76 6000 1 0 15:18 08.01.2020
4699 Clouds -24 1020 76 8000 1 0 14:41 08.01.2020
4700 Clouds -24 1020 76 8000 1 0 14:21 08.01.2020
4701 Clouds -23 1020 76 8000 1.34 108 13:56 08.01.2020
4702 Clouds -25 1020 75 8000 1 0 13:37 08.01.2020
4703 Clouds -25 1020 75 8000 1 0 13:18 08.01.2020
4704 Clouds -20 1019 76 8000 1 0 12:40 08.01.2020
4705 Clouds -20 1019 76 8000 1 0 12:18 08.01.2020
4706 Clouds -21 1019 76 8000 1 0 11:49 08.01.2020
4707 Clouds -23 1019 76 8000 1 0 11:20 08.01.2020
4708 Clouds -22 1019 76 8000 2 150 10:59 08.01.2020
4709 Clouds -22 1019 76 8000 2 150 10:41 08.01.2020
4710 Clouds -19 1019 70 8000 1 0 10:22 08.01.2020
4711 Clouds -16 1019 65 8000 1 0 09:58 08.01.2020
4712 Clouds -14 1019 60 8000 1 0 09:38 08.01.2020
4713 Clouds -14 1019 60 8000 1 0 09:18 08.01.2020
4714 Clouds -14 1019 60 8000 1 0 08:42 08.01.2020
4715 Clouds -14 1019 60 8000 1 0 08:23 08.01.2020
4716 Clear -14 1019 60 6000 1 0 07:59 08.01.2020
4717 Clear -14 1019 60 6000 1 0 07:41 08.01.2020
4718 Smoke -15 1020 65 5000 1 0 07:20 08.01.2020
4719 Smoke -15 1020 71 5000 1 0 06:42 08.01.2020
4720 Smoke -18 1021 77 5000 1.38 125 05:57 08.01.2020
4721 Smoke -19 1021 77 5000 1 0 05:27 08.01.2020
4722 Clear -22 1022 76 5000 1.66 110 04:37 08.01.2020
4723 Clear -29 1022 75 6000 1 0 02:48 08.01.2020
4724 Clear -29 1022 68 6000 1.66 110 02:30 08.01.2020
4725 Clear -30 1022 67 6000 1 0 01:58 08.01.2020
4726 Clear -28 1022 68 6000 1.65 104 01:32 08.01.2020
4727 Clear -30 1022 74 6000 1.65 104 00:51 08.01.2020
4728 Clear -30 1022 74 6000 1 0 00:23 08.01.2020
4729 Clear -30 1022 74 6000 1 0 23:46 07.01.2020
4730 Clear -30 1022 67 0 1 0 23:21 07.01.2020
4731 Clear -30 1022 67 0 1 0 23:21 07.01.2020
4732 Clear -30 1022 67 6000 1 0 22:57 07.01.2020
4733 Clear -30 1023 74 6000 1 0 22:38 07.01.2020
4734 Clear -30 1023 74 6000 1 0 22:19 07.01.2020
4735 Clear -29 1023 75 6000 1.62 103 21:42 07.01.2020
4736 Clear -29 1023 75 6000 1.62 103 21:22 07.01.2020
4737 Clear -30 1023 74 6000 1 0 20:58 07.01.2020
4738 Clear -30 1023 74 6000 1 0 20:40 07.01.2020
4739 Clear -30 1023 74 6000 1 0 20:22 07.01.2020
4740 Clear -29 1024 75 6000 1.49 104 19:57 07.01.2020
4741 Clear -29 1024 75 6000 1.49 104 19:38 07.01.2020
4742 Clear -29 1024 75 6000 1.49 104 19:19 07.01.2020
4743 Smoke -28 1024 68 5000 1 0 18:56 07.01.2020
4744 Smoke -28 1024 68 5000 1 0 18:38 07.01.2020
4745 Smoke -28 1024 68 5000 1 0 18:18 07.01.2020
4746 Smoke -28 1024 68 5000 1 0 18:18 07.01.2020
4747 Smoke -28 1024 68 5000 1 0 18:18 07.01.2020
4748 Smoke -29 1024 75 5000 1 0 17:55 07.01.2020
4749 Smoke -28 1024 75 5000 1.49 104 17:36 07.01.2020
4750 Smoke -28 1024 75 5000 1.25 113 17:18 07.01.2020
4751 Smoke -28 1025 68 5000 1 0 16:55 07.01.2020
4752 Clear -28 1025 68 6000 1 0 16:36 07.01.2020
4753 Clear -28 1025 68 6000 1 0 16:18 07.01.2020
4754 Clear -26 1025 75 6000 1.25 113 15:42 07.01.2020
4755 Clear -26 1025 68 6000 1 0 15:24 07.01.2020
4756 Clear -27 1025 75 6000 1 0 14:58 07.01.2020
4757 Clear -26 1025 68 6000 1 0 14:39 07.01.2020
4758 Clouds -26 1025 68 6000 1 0 14:20 07.01.2020
4759 Clouds -27 1025 75 6000 2 180 13:46 07.01.2020
4760 Clouds -26 1025 75 6000 1 0 13:21 07.01.2020
4761 Clouds -26 1025 75 8000 2 160 12:56 07.01.2020
4762 Clouds -25 1025 75 8000 2 150 12:37 07.01.2020
4763 Clouds -25 1025 75 8000 2 150 12:19 07.01.2020
4764 Clouds -23 1025 83 6000 2 160 11:41 07.01.2020
4765 Clouds -23 1025 83 6000 2 160 11:23 07.01.2020
4766 Clouds -22 1025 76 6000 3 170 10:57 07.01.2020
4767 Clouds -19 1025 70 6000 2 170 10:39 07.01.2020
4768 Clouds -19 1025 70 6000 2 170 10:20 07.01.2020
4769 Clouds -15 1025 71 6000 0.36 202 09:39 07.01.2020
4770 Clouds -15 1025 71 6000 0.36 202 09:21 07.01.2020
4771 Clouds -15 1025 77 6000 0.36 202 08:57 07.01.2020
4772 Clouds -16 1025 84 6000 1 0 08:37 07.01.2020
4773 Clear -16 1025 84 6000 1 0 08:18 07.01.2020
4774 Clouds -17 1025 84 6000 2 0 07:42 07.01.2020
4775 Smoke -17 1025 77 5000 1 0 07:18 07.01.2020
4776 Smoke -18 1026 84 3600 0.68 243 06:36 07.01.2020
4777 Smoke -20 1026 76 3600 1 0 05:59 07.01.2020
4778 Smoke -20 1026 76 3000 1 0 05:40 07.01.2020
4779 Mist -24 1027 76 3000 0.28 22 03:46 07.01.2020
4780 Mist -25 1027 75 3000 0.28 22 03:24 07.01.2020
4781 Smoke -27 1027 75 3600 0.17 74 02:18 07.01.2020
4782 Smoke -27 1026 68 5000 1 0 01:40 07.01.2020
4783 Smoke -27 1026 75 5000 0.13 50 00:57 07.01.2020
4784 Smoke -27 1026 75 5000 1 0 00:21 07.01.2020
4785 Clear -28 1026 75 6000 1 0 23:57 06.01.2020
4786 Clear -28 1026 75 6000 0.13 50 23:37 06.01.2020
4787 Clear -28 1026 75 6000 0.33 63 23:19 06.01.2020
4788 Clear -28 1026 75 6000 0.33 63 22:43 06.01.2020
4789 Clear -28 1026 75 6000 0.33 63 22:24 06.01.2020
4790 Clear -28 1027 75 6000 0.33 63 21:58 06.01.2020
4791 Clear -28 1027 75 6000 0.33 63 21:39 06.01.2020
4792 Clear -28 1027 75 6000 0.33 63 21:20 06.01.2020
4793 Clear -28 1027 75 6000 0.33 63 21:20 06.01.2020
4794 Clear -28 1027 75 6000 0.33 63 21:20 06.01.2020
4795 Clear -25 1027 75 6000 2 110 20:57 06.01.2020
4796 Clear -25 1027 75 6000 2 110 20:38 06.01.2020
4797 Clear -25 1027 75 6000 2 110 20:20 06.01.2020
4798 Clear -25 1027 75 6000 2 110 20:20 06.01.2020
4799 Clear -27 1027 75 6000 1 0 19:57 06.01.2020
4800 Clear -27 1027 75 6000 1 0 19:38 06.01.2020
4801 Clear -27 1027 75 6000 1 0 19:20 06.01.2020
4802 Clear -27 1027 68 6000 1 0 18:48 06.01.2020
4803 Clear -27 1027 68 6000 1 0 18:23 06.01.2020
4804 Clear -27 1027 75 6000 0.14 32 17:59 06.01.2020
4805 Clear -27 1027 75 6000 0.14 32 17:38 06.01.2020
4806 Clear -27 1027 75 6000 0.18 229 17:18 06.01.2020
4807 Clear -27 1028 75 6000 1 0 16:44 06.01.2020
4808 Clear -25 1028 75 6000 1 0 16:25 06.01.2020
4809 Clear -25 1027 75 8000 2 160 15:59 06.01.2020
4810 Clear -26 1027 75 8000 0.18 229 15:39 06.01.2020
4811 Clear -26 1027 75 8000 0.18 229 15:19 06.01.2020
4812 Clear -25 1027 75 8000 1 0 14:58 06.01.2020
4813 Clear -25 1027 75 8000 2 170 14:39 06.01.2020
4814 Clear -25 1027 75 8000 2 170 14:20 06.01.2020
4815 Clear -26 1027 75 8000 2 170 13:55 06.01.2020
4816 Clear -25 1027 83 8000 2 150 13:37 06.01.2020
4817 Clear -25 1027 83 8000 2 150 13:19 06.01.2020
4818 Clear -24 1027 83 8000 2 160 12:42 06.01.2020
4819 Clear -23 1027 76 8000 2 150 12:20 06.01.2020
4820 Clear -20 1027 76 8000 2 140 11:57 06.01.2020
4821 Clear -22 1027 76 6000 1 0 11:38 06.01.2020
4822 Clear -22 1027 76 6000 1 0 11:20 06.01.2020
4823 Clear -22 1027 76 6000 2 180 10:45 06.01.2020
4824 Clear -18 1027 70 6000 2 180 10:27 06.01.2020
4825 Clear -15 1027 71 6000 1 0 09:59 06.01.2020
4826 Clear -13 1027 65 6000 1 0 09:37 06.01.2020
4827 Clear -13 1027 65 6000 1 0 09:19 06.01.2020
4828 Clear -14 1026 71 6000 2 180 08:43 06.01.2020
4829 Clear -14 1026 71 6000 1 0 08:24 06.01.2020
4830 Smoke -14 1026 71 5000 1 0 07:48 06.01.2020
4831 Smoke -15 1026 77 5000 1 0 07:23 06.01.2020
4832 Smoke -15 1026 77 5000 1 0 06:45 06.01.2020
4833 Smoke -16 1027 77 5000 0.94 213 06:18 06.01.2020
4834 Smoke -18 1027 77 3600 0.94 213 05:40 06.01.2020
4835 Smoke -21 1027 83 4000 1 0 04:30 06.01.2020
4836 Smoke -22 1027 83 4000 1 0 03:58 06.01.2020
4837 Smoke -26 1026 75 5000 0.65 152 02:40 06.01.2020
4838 Smoke -26 1026 75 5000 0.05 238 02:21 06.01.2020
4839 Clear -26 1026 68 6000 1 0 01:41 06.01.2020
4840 Clear -27 1026 75 8000 1 0 01:20 06.01.2020
4841 Clear -27 1025 68 8000 1 0 00:40 06.01.2020
4842 Clear -27 1025 68 8000 1 0 00:19 06.01.2020
4843 Clear -27 1025 68 8000 1 0 00:19 06.01.2020
4844 Clear -23 1025 76 8000 0.11 283 23:41 05.01.2020
4845 Clear -23 1025 76 8000 0.63 307 23:21 05.01.2020
4846 Clear -26 1025 75 8000 0.63 307 22:55 05.01.2020
4847 Clear -23 1025 69 8000 1 0 22:37 05.01.2020
4848 Clear -23 1025 69 8000 1 0 22:18 05.01.2020
4849 Clear -23 1025 76 10000 2 140 21:41 05.01.2020
4850 Clear -23 1025 76 10000 2 140 21:21 05.01.2020
4851 Clear -22 1024 76 10000 1 0 20:59 05.01.2020
4852 Clear -22 1024 76 10000 1 0 20:40 05.01.2020
4853 Clouds -22 1024 76 10000 1 0 20:20 05.01.2020
4854 Clouds -22 1024 76 10000 1 0 20:20 05.01.2020
4855 Clouds -23 1024 76 10000 3 140 19:59 05.01.2020
4856 Clouds -23 1024 76 10000 3 140 19:41 05.01.2020
4857 Clouds -23 1024 76 10000 3 140 19:21 05.01.2020
4858 Clouds -24 1024 83 10000 2 170 18:56 05.01.2020
4859 Clouds -24 1024 83 10000 2 170 18:38 05.01.2020
4860 Clouds -24 1024 83 10000 2 170 18:19 05.01.2020
4861 Clouds -24 1024 76 10000 2 160 17:59 05.01.2020
4862 Clouds -24 1024 76 10000 2 160 17:39 05.01.2020
4863 Clouds -24 1024 76 10000 2 160 17:20 05.01.2020
4864 Clouds -24 1024 76 10000 2 170 16:57 05.01.2020
4865 Clouds -20 1024 76 10000 2 0 16:39 05.01.2020
4866 Clouds -20 1024 76 10000 2 0 16:39 05.01.2020
4867 Clouds -20 1024 76 10000 2 0 16:20 05.01.2020
4868 Clouds -21 1023 76 10000 3 170 15:40 05.01.2020
4869 Clouds -21 1023 76 10000 3 170 15:22 05.01.2020
4870 Clouds -20 1023 76 10000 3 150 14:57 05.01.2020
4871 Clouds -20 1023 76 10000 3 150 14:57 05.01.2020
4872 Clouds -17 1022 70 10000 1 0 14:39 05.01.2020
4873 Clouds -17 1022 70 10000 1 0 14:20 05.01.2020
4874 Clouds -15 1022 71 10000 1 0 13:58 05.01.2020
4875 Clouds -16 1022 77 10000 1 0 13:38 05.01.2020
4876 Clouds -16 1022 77 10000 1 0 13:20 05.01.2020
4877 Clouds -15 1021 71 10000 2 0 12:56 05.01.2020
4878 Clouds -15 1021 71 10000 2 0 12:38 05.01.2020
4879 Clouds -15 1021 71 10000 2 0 12:19 05.01.2020
4880 Clouds -14 1021 65 10000 5 310 11:54 05.01.2020
4881 Clouds -13 1020 65 10000 4 320 11:36 05.01.2020
4882 Clouds -13 1020 65 10000 4 320 11:18 05.01.2020
4883 Clouds -11 1020 61 10000 4 320 10:40 05.01.2020
4884 Clouds -11 1020 61 10000 4 320 10:20 05.01.2020
4885 Clouds -10 1019 61 10000 3 330 09:43 05.01.2020
4886 Clouds -10 1019 61 10000 4 300 09:22 05.01.2020
4887 Clouds -10 1018 66 10000 4 300 08:56 05.01.2020
4888 Clouds -10 1018 61 10000 4 290 08:38 05.01.2020
4889 Clouds -10 1018 61 10000 4 290 08:20 05.01.2020
4890 Clouds -10 1018 61 10000 2 0 07:39 05.01.2020
4891 Clouds -10 1018 61 10000 2 0 07:21 05.01.2020
4892 Clouds -11 1018 66 10000 1 0 06:47 05.01.2020
4893 Clouds -12 1018 66 10000 3 240 05:39 05.01.2020
4894 Clouds -12 1018 66 10000 1 0 04:56 05.01.2020
4895 Clouds -12 1017 66 10000 1.71 310 04:19 05.01.2020
4896 Clouds -15 1017 77 10000 1 0 03:31 05.01.2020
4897 Clouds -17 1017 70 10000 2 0 02:33 05.01.2020
4898 Clouds -15 1016 71 10000 1 0 01:49 05.01.2020
4899 Clouds -16 1016 71 8000 1 0 01:20 05.01.2020
4900 Clouds -18 1016 77 8000 1 0 00:57 05.01.2020
4901 Clouds -15 1015 65 8000 1 0 00:39 05.01.2020
4902 Clouds -15 1015 65 8000 1 0 00:19 05.01.2020
4903 Clouds -14 1015 71 8000 1 0 23:41 04.01.2020
4904 Clouds -15 1015 71 8000 2 0 23:20 04.01.2020
4905 Clouds -14 1015 65 8000 1 0 22:56 04.01.2020
4906 Clouds -15 1015 71 8000 1 0 22:38 04.01.2020
4907 Clouds -15 1015 71 8000 1 0 22:20 04.01.2020
4908 Clouds -16 1016 77 8000 1 0 21:55 04.01.2020
4909 Clouds -16 1016 77 8000 1 0 21:36 04.01.2020
4910 Clouds -16 1016 77 8000 1 0 21:18 04.01.2020
4911 Clouds -16 1017 77 8000 1 0 20:41 04.01.2020
4912 Clouds -16 1017 77 8000 1 0 20:22 04.01.2020
4913 Clouds -17 1017 77 8000 2.07 105 19:57 04.01.2020
4914 Clouds -17 1017 77 8000 2.07 105 19:39 04.01.2020
4915 Clouds -17 1017 77 8000 2.07 105 19:21 04.01.2020
4916 Clouds -17 1018 77 8000 2.07 105 18:57 04.01.2020
4917 Clouds -17 1018 77 8000 2.07 105 18:38 04.01.2020
4918 Clouds -17 1018 77 8000 2.07 105 18:19 04.01.2020
4919 Clouds -18 1018 77 8000 2.07 105 17:42 04.01.2020
4920 Clouds -18 1018 77 8000 2.07 105 17:42 04.01.2020
4921 Clouds -18 1018 77 8000 2.07 105 17:24 04.01.2020
4922 Clouds -18 1018 77 8000 2.07 105 17:24 04.01.2020
4923 Clouds -17 1018 70 8000 2 130 16:59 04.01.2020
4924 Clouds -17 1019 77 8000 1 0 16:40 04.01.2020
4925 Clouds -17 1019 77 8000 1 0 16:22 04.01.2020
4926 Clouds -17 1019 77 8000 1 0 16:22 04.01.2020
4927 Clouds -18 1018 77 8000 2.27 105 15:56 04.01.2020
4928 Clouds -19 1018 77 8000 2.27 105 15:38 04.01.2020
4929 Clouds -19 1018 77 8000 2.27 105 15:19 04.01.2020
4930 Clouds -21 1018 83 8000 1 0 14:54 04.01.2020
4931 Clouds -23 1019 69 8000 2.27 105 14:36 04.01.2020
4932 Clear -23 1019 69 8000 2.36 99 14:18 04.01.2020
4933 Clear -22 1019 69 8000 2.36 99 13:39 04.01.2020
4934 Clear -22 1019 69 8000 2.36 99 13:39 04.01.2020
4935 Clear -22 1019 69 8000 2.32 99 13:20 04.01.2020
4936 Clear -22 1019 76 8000 1 0 12:59 04.01.2020
4937 Clear -21 1019 70 8000 2.32 99 12:40 04.01.2020
4938 Clear -21 1019 70 8000 2.32 99 12:19 04.01.2020
4939 Clear -22 1019 76 8000 1 0 11:57 04.01.2020
4940 Clear -20 1019 76 8000 1 0 11:38 04.01.2020
4941 Clear -20 1019 76 8000 1 0 11:19 04.01.2020
4942 Clear -20 1019 76 8000 1 0 10:41 04.01.2020
4943 Clear -17 1019 70 8000 1 0 10:22 04.01.2020
4944 Clear -14 1019 65 8000 1 0 09:50 04.01.2020
4945 Clear -12 1019 55 8000 2 170 09:26 04.01.2020
4946 Clear -12 1019 55 8000 1 0 08:58 04.01.2020
4947 Clear -11 1019 51 8000 2.07 104 08:39 04.01.2020
4948 Clear -11 1019 51 8000 1.93 113 08:20 04.01.2020
4949 Clear -12 1020 55 8000 1 0 07:42 04.01.2020
4950 Clear -14 1020 60 8000 1 0 06:52 04.01.2020
4951 Clear -15 1021 65 6000 1 0 06:33 04.01.2020
4952 Smoke -17 1022 70 5000 1 0 05:18 04.01.2020
4953 Smoke -20 1022 76 5000 1.95 106 04:33 04.01.2020
4954 Smoke -21 1022 76 5000 1.95 106 03:43 04.01.2020
4955 Smoke -24 1022 76 5000 1.95 106 03:18 04.01.2020
4956 Clear -27 1023 68 6000 1.93 101 02:21 04.01.2020
4957 Clear -27 1023 68 6000 1.93 101 02:21 04.01.2020
4958 Clear -27 1022 75 6000 1.93 101 01:53 04.01.2020
4959 Clear -27 1022 68 6000 1.87 101 01:30 04.01.2020
4960 Clear -25 1022 75 6000 1.87 101 00:41 04.01.2020
4961 Clear -25 1022 75 6000 1.87 101 00:22 04.01.2020
4962 Clear -27 1022 75 6000 1 0 23:42 03.01.2020
4963 Clear -26 1022 75 6000 1 0 23:23 03.01.2020
4964 Clear -25 1023 75 6000 1.6 102 22:41 03.01.2020
4965 Clear -25 1023 75 6000 1.6 102 22:20 03.01.2020
4966 Clear -26 1023 75 6000 1 0 21:58 03.01.2020
4967 Clear -26 1023 75 6000 1 0 21:38 03.01.2020
4968 Clear -26 1023 75 6000 1 0 21:19 03.01.2020
4969 Clear -25 1023 75 6000 1 0 20:58 03.01.2020
4970 Clear -25 1023 75 6000 1 0 20:40 03.01.2020
4971 Clear -25 1023 75 6000 1 0 20:18 03.01.2020
4972 Clear -27 1023 75 6000 2 160 19:55 03.01.2020
4973 Clear -27 1023 75 6000 2 160 19:55 03.01.2020
4974 Clear -27 1023 75 6000 2 160 19:37 03.01.2020
4975 Clear -27 1023 75 6000 2 160 19:18 03.01.2020
4976 Clear -26 1024 75 8000 1.3 101 18:43 03.01.2020
4977 Clear -26 1024 75 8000 1.3 101 18:24 03.01.2020
4978 Clear -26 1024 75 8000 1 0 17:55 03.01.2020
4979 Clear -26 1024 75 8000 1 0 17:36 03.01.2020
4980 Clear -26 1024 75 8000 1 0 17:18 03.01.2020
4981 Clear -25 1024 75 8000 1.15 108 16:42 03.01.2020
4982 Clear -26 1024 75 8000 1 0 16:22 03.01.2020
4983 Clear -26 1024 75 8000 1.15 108 15:44 03.01.2020
4984 Clear -26 1024 75 8000 1.15 108 15:19 03.01.2020
4985 Clear -22 1024 76 8000 1 0 14:59 03.01.2020
4986 Clear -23 1024 76 8000 1.15 108 14:38 03.01.2020
4987 Clouds -23 1024 76 8000 0.91 106 14:19 03.01.2020
4988 Clouds -24 1024 83 8000 1 0 13:43 03.01.2020
4989 Clouds -24 1024 76 8000 1 0 13:24 03.01.2020
4990 Clouds -24 1024 83 8000 1 0 12:58 03.01.2020
4991 Clouds -24 1024 76 8000 1 0 12:38 03.01.2020
4992 Clouds -24 1024 76 8000 1 0 12:20 03.01.2020
4993 Clouds -23 1024 83 6000 2 150 11:44 03.01.2020
4994 Clouds -22 1023 76 6000 2 170 11:20 03.01.2020
4995 Clouds -15 1023 60 6000 0.44 173 10:44 03.01.2020
4996 Clouds -15 1023 60 6000 0.44 173 10:25 03.01.2020
4997 Clouds -15 1023 60 6000 0.44 173 10:25 03.01.2020
4998 Clouds -13 1023 65 6000 1 0 09:58 03.01.2020
4999 Clouds -12 1023 60 6000 1 0 09:39 03.01.2020
5000 Clouds -12 1023 60 6000 1 0 09:21 03.01.2020
5001 Clouds -12 1023 60 6000 1 0 08:56 03.01.2020
5002 Smoke -13 1023 60 5000 1 0 08:37 03.01.2020
5003 Smoke -13 1023 60 5000 1 0 08:19 03.01.2020
5004 Smoke -14 1023 60 4000 1 0 07:39 03.01.2020
5005 Smoke -14 1023 60 4000 1 0 07:18 03.01.2020
5006 Smoke -14 1024 65 4000 0.79 238 06:47 03.01.2020
5007 Smoke -16 1024 71 4000 1 0 06:29 03.01.2020
5008 Smoke -19 1024 84 3600 1 0 05:30 03.01.2020
5009 Smoke -21 1025 76 3600 0.24 211 04:19 03.01.2020
5010 Smoke -28 1024 68 4000 1 0 02:56 03.01.2020
5011 Smoke -28 1024 68 4000 1 0 02:56 03.01.2020
5012 Smoke -28 1024 75 5000 1 0 02:28 03.01.2020
5013 Smoke -27 1024 75 5000 1 0 01:39 03.01.2020
5014 Smoke -28 1024 75 5000 0.21 181 00:49 03.01.2020
5015 Smoke -27 1024 75 5000 0.21 181 00:29 03.01.2020
5016 Smoke -27 1024 68 5000 0.21 181 23:55 02.01.2020
5017 Clear -27 1024 75 6000 1 0 23:37 02.01.2020
5018 Clear -27 1024 75 6000 1 0 23:18 02.01.2020
5019 Clear -27 1024 68 6000 1 0 22:44 02.01.2020
5020 Clear -26 1024 75 6000 1 0 22:21 02.01.2020
5021 Clear -26 1024 68 6000 1 0 21:57 02.01.2020
5022 Clear -26 1024 68 6000 1 0 21:39 02.01.2020
5023 Clear -26 1024 68 6000 1 0 21:21 02.01.2020
5024 Clear -26 1025 68 6000 0.14 170 20:57 02.01.2020
5025 Clear -26 1025 68 6000 0.14 170 20:39 02.01.2020
5026 Clear -26 1025 68 6000 0.37 210 20:20 02.01.2020
5027 Clear -27 1025 75 6000 2 150 19:55 02.01.2020
5028 Clear -27 1025 75 6000 2 150 19:36 02.01.2020
5029 Clear -27 1025 75 6000 2 150 19:18 02.01.2020
5030 Clear -27 1025 75 6000 2 180 18:54 02.01.2020
5031 Clear -27 1025 75 6000 2 180 18:36 02.01.2020
5032 Clear -27 1025 75 6000 2 180 18:18 02.01.2020
5033 Clear -25 1025 75 6000 0.37 210 17:55 02.01.2020
5034 Clear -25 1025 75 6000 0.37 210 17:36 02.01.2020
5035 Clear -25 1025 75 6000 0.19 118 17:18 02.01.2020
5036 Clear -26 1025 75 6000 0.19 118 16:42 02.01.2020
5037 Clear -26 1025 75 6000 0.19 118 16:42 02.01.2020
5038 Clear -26 1025 75 6000 0.19 118 16:42 02.01.2020
5039 Clear -24 1025 76 6000 1 0 16:22 02.01.2020
5040 Clear -24 1025 76 6000 1 0 15:59 02.01.2020
5041 Clear -24 1025 76 6000 1 0 15:41 02.01.2020
5042 -273 0 0 0 0 0 15:23 02.01.2020
5043 Clear -25 1025 75 6000 1 0 14:57 02.01.2020
5044 Clear -25 1025 75 6000 1 0 14:57 02.01.2020
5045 Clear -24 1025 69 6000 1 0 14:37 02.01.2020
5046 Clear -24 1025 76 6000 1 0 14:18 02.01.2020
5047 Clear -24 1025 76 6000 1 0 13:55 02.01.2020
5048 Clear -25 1025 75 6000 2 0 13:36 02.01.2020
5049 Clear -25 1025 75 8000 1 0 12:58 02.01.2020
5050 Clear -24 1025 69 8000 1 0 12:39 02.01.2020
5051 Clear -24 1025 69 8000 1 0 12:20 02.01.2020
5052 Clear -20 1025 64 6000 0.1 1 11:41 02.01.2020
5053 Clear -20 1025 64 6000 0.59 248 11:20 02.01.2020
5054 Clear -17 1025 64 6000 1 0 10:45 02.01.2020
5055 Clear -16 1024 65 6000 0.59 248 10:27 02.01.2020
5056 Clear -15 1024 60 6000 2 170 09:56 02.01.2020
5057 Clear -13 1024 55 6000 1 0 09:35 02.01.2020
5058 Clear -13 1024 55 6000 1 0 08:53 02.01.2020
5059 Clear -14 1024 55 6000 1 0 08:32 02.01.2020
5060 Clear -14 1024 55 6000 1 0 07:58 02.01.2020
5061 Clear -15 1024 54 6000 1 0 07:31 02.01.2020
5062 Smoke -16 1024 59 5000 1 0 06:57 02.01.2020
5063 Smoke -16 1024 59 5000 1 0 06:57 02.01.2020
5064 Smoke -17 1024 59 5000 1 0 06:39 02.01.2020
5065 Smoke -19 1025 58 4000 1.12 246 05:37 02.01.2020
5066 Smoke -21 1025 63 5000 0.89 208 04:34 02.01.2020
5067 Clear -25 1025 69 5000 0.89 208 03:19 02.01.2020
5068 Clear -29 1025 68 6000 0.97 95 02:20 02.01.2020
5069 Clear -29 1024 75 8000 0.97 95 01:48 02.01.2020
5070 Clear -29 1024 68 8000 0.86 97 01:19 02.01.2020
5071 Clear -27 1024 68 6000 1 0 00:38 02.01.2020
5072 Clear -27 1024 68 6000 1 0 00:19 02.01.2020
5073 Clear -29 1024 68 0 2 190 23:41 01.01.2020
5074 Clear -28 1025 68 8000 0.87 131 23:21 01.01.2020
5075 Clear -28 1025 75 8000 1 0 22:38 01.01.2020
5076 Clear -28 1025 75 8000 1 0 22:20 01.01.2020
5077 Clear -26 1025 68 8000 0.87 131 21:58 01.01.2020
5078 Clear -26 1025 68 8000 0.87 131 21:39 01.01.2020
5079 Clear -26 1025 68 8000 0.87 131 21:20 01.01.2020
5080 Clear -27 1025 68 8000 0.87 131 20:56 01.01.2020
5081 Clear -27 1025 68 8000 0.87 131 20:38 01.01.2020
5082 Clear -27 1025 68 8000 0.59 116 20:19 01.01.2020
5083 Clear -28 1025 68 8000 1 0 19:55 01.01.2020
5084 Clear -28 1025 68 8000 1 0 19:55 01.01.2020
5085 Clear -28 1025 68 8000 1 0 19:55 01.01.2020
5086 Clear -28 1025 68 8000 1 0 19:55 01.01.2020
5087 Clear -28 1025 68 8000 1 0 19:37 01.01.2020
5088 Clear -28 1025 68 8000 1 0 19:19 01.01.2020
5089 Clear -27 1026 68 8000 1 0 18:56 01.01.2020
5090 Clear -27 1026 68 8000 1 0 18:36 01.01.2020
5091 Clear -27 1026 68 8000 1 0 18:18 01.01.2020
5092 Clear -27 1026 68 8000 1 0 17:56 01.01.2020
5093 Clear -27 1026 68 8000 1 0 17:38 01.01.2020
5094 Clear -27 1026 68 8000 1 0 17:19 01.01.2020
5095 Clear -27 1026 68 8000 0.68 149 16:42 01.01.2020
5096 Clear -27 1026 68 8000 0.68 149 16:23 01.01.2020
5097 Clear -27 1026 68 8000 0.68 149 15:58 01.01.2020
5098 Clear -27 1026 75 8000 1 0 15:40 01.01.2020
5099 Clear -27 1026 75 8000 1 0 15:21 01.01.2020
5100 Clear -26 1026 68 8000 1 0 14:59 01.01.2020
5101 Clear -25 1025 75 8000 1 0 14:40 01.01.2020
5102 Clear -25 1025 75 8000 1 0 14:21 01.01.2020
5103 Clear -25 1026 69 8000 2 0 13:56 01.01.2020
5104 Clear -25 1026 69 8000 2 0 13:37 01.01.2020
5105 Clear -25 1026 69 8000 2 0 13:37 01.01.2020
5106 Clear -25 1026 69 8000 2 0 13:37 01.01.2020
5107 Clear -25 1026 69 8000 2 0 13:18 01.01.2020
5108 Clear -25 1025 69 8000 2 0 12:56 01.01.2020
5109 Clear -25 1025 69 8000 2 0 12:56 01.01.2020
5110 Clear -25 1025 69 8000 1 0 12:38 01.01.2020
5111 Clear -25 1025 69 8000 1 0 12:18 01.01.2020
5112 Clear -23 1025 69 8000 1 0 11:43 01.01.2020
5113 Clear -22 1024 63 8000 0.22 182 11:23 01.01.2020
5114 Clear -19 1024 64 8000 0.61 249 10:59 01.01.2020
5115 Clear -18 1024 59 8000 0.61 249 10:41 01.01.2020
5116 Clear -18 1024 59 8000 0.61 249 10:21 01.01.2020
5117 Clear -17 1024 59 8000 1 0 09:58 01.01.2020
5118 Clear -16 1024 54 8000 1 0 09:37 01.01.2020
5119 Clear -16 1024 54 8000 1 0 09:18 01.01.2020
5120 Clear -15 1023 50 6000 1 0 08:55 01.01.2020
5121 Clear -16 1023 54 6000 1 0 08:36 01.01.2020
5122 Clear -16 1023 54 6000 1 0 08:18 01.01.2020
5123 Clear -16 1023 54 6000 1 0 07:54 01.01.2020
5124 Clear -18 1022 59 6000 1 0 07:35 01.01.2020
5125 Clear -19 1022 58 6000 2 0 06:44 01.01.2020
5126 Clear -18 1022 54 6000 1 0 06:20 01.01.2020
5127 Smoke -20 1022 53 5000 1 0 05:21 01.01.2020
5128 Smoke -23 1022 63 5000 1.07 305 03:43 01.01.2020
5129 Smoke -25 1022 69 5000 1 0 03:23 01.01.2020
5130 Clear -28 1022 68 6000 2 160 02:57 01.01.2020
5131 Clear -30 1021 67 6000 1 0 02:34 01.01.2020
5132 Clear -29 1021 61 6000 1 0 01:55 01.01.2020
5133 Clear -30 1020 67 6000 1 0 01:36 01.01.2020
5134 Clear -30 1020 67 6000 1 0 01:18 01.01.2020
5135 Clear -29 1020 68 6000 1.49 321 00:44 01.01.2020
5136 Clear -30 1019 67 6000 1.49 321 00:24 01.01.2020
5137 Clear -29 1019 61 6000 1.49 321 23:41 31.12.2019
5138 Clear -29 1019 61 6000 1.01 323 23:21 31.12.2019
5139 Clear -28 1019 61 6000 1 0 22:57 31.12.2019
5140 Clear -29 1019 68 6000 1 0 22:38 31.12.2019
5141 Clear -29 1019 68 6000 1 0 22:19 31.12.2019
5142 Clear -28 1018 68 6000 2 0 21:57 31.12.2019
5143 Clear -28 1018 68 6000 2 0 21:38 31.12.2019
5144 Clear -28 1018 68 6000 2 0 21:20 31.12.2019
5145 Clear -28 1018 61 6000 1 0 20:55 31.12.2019
5146 Clear -28 1018 61 6000 1 0 20:36 31.12.2019
5147 Clear -28 1018 61 6000 1 0 20:18 31.12.2019
5148 Clear -28 1018 61 8000 2 150 19:42 31.12.2019
5149 Clear -28 1018 61 8000 2 150 19:24 31.12.2019
5150 Clear -27 1017 62 6000 1 0 18:59 31.12.2019
5151 Clear -27 1017 62 6000 1 0 18:40 31.12.2019
5152 Clear -27 1017 62 6000 1 0 18:20 31.12.2019
5153 Clear -29 1017 68 6000 1 0 17:57 31.12.2019
5154 Clear -27 1017 68 6000 0.34 126 17:38 31.12.2019
5155 Clear -27 1017 68 6000 1.12 108 17:19 31.12.2019
5156 Clear -28 1017 61 6000 1 0 16:57 31.12.2019
5157 Clear -28 1017 61 6000 1.12 108 16:38 31.12.2019
5158 Clear -28 1017 61 6000 1.12 108 16:19 31.12.2019
5159 Clear -28 1017 68 8000 1.12 108 15:57 31.12.2019
5160 Clear -30 1018 67 8000 1 0 15:39 31.12.2019
5161 Clear -30 1018 67 8000 1 0 15:21 31.12.2019
5162 Clear -27 1018 68 8000 1.12 108 14:58 31.12.2019
5163 Clear -28 1018 68 8000 2 0 14:39 31.12.2019
5164 Clear -28 1018 68 8000 2 0 14:19 31.12.2019
5165 Clear -28 1018 68 8000 1 0 13:58 31.12.2019
5166 Clear -28 1018 68 8000 1.36 109 13:40 31.12.2019
5167 Clear -28 1018 68 8000 1.36 109 13:40 31.12.2019
5168 Clear -28 1018 68 8000 1.2 115 13:21 31.12.2019
5169 Clear -25 1017 62 8000 2 150 12:58 31.12.2019
5170 Clear -28 1017 68 8000 1 0 12:40 31.12.2019
5171 Clear -28 1017 68 8000 1 0 12:20 31.12.2019
5172 Clear -27 1018 62 8000 1 0 11:56 31.12.2019
5173 Clear -26 1018 62 8000 1.2 115 11:38 31.12.2019
5174 Clear -26 1018 62 8000 1.2 115 11:38 31.12.2019
5175 Clear -26 1018 62 8000 1.02 108 11:20 31.12.2019
5176 Clear -25 1017 62 8000 1 0 10:58 31.12.2019
5177 Clear -23 1018 63 8000 1 0 10:38 31.12.2019
5178 Clear -23 1018 63 8000 1 0 10:20 31.12.2019
5179 Clear -19 1017 49 8000 2 170 09:59 31.12.2019
5180 Clear -19 1018 53 8000 2 170 09:39 31.12.2019
5181 Clear -19 1018 53 8000 2 170 09:20 31.12.2019
5182 Clear -18 1017 49 8000 2 170 08:57 31.12.2019
5183 Clear -19 1017 49 8000 1 0 08:39 31.12.2019
5184 Clear -19 1017 49 8000 1 0 08:19 31.12.2019
5185 Clear -19 1018 49 8000 1 0 07:43 31.12.2019
5186 Clear -20 1018 48 6000 2 0 07:20 31.12.2019
5187 Clear -20 1018 44 6000 1 0 06:50 31.12.2019
5188 Clear -22 1019 48 6000 0.91 187 05:57 31.12.2019
5189 Smoke -26 1020 56 5000 1 0 04:29 31.12.2019
5190 Smoke -29 1020 61 5000 0.66 160 03:28 31.12.2019
5191 Smoke -32 1020 67 5000 0.66 160 02:54 31.12.2019
5192 Smoke -33 1020 60 5000 0.44 108 02:18 31.12.2019
5193 Clear -33 1020 60 6000 1 0 01:42 31.12.2019
5194 Clear -32 1020 67 6000 0.44 108 01:23 31.12.2019
5195 Clear -33 1019 60 8000 1 0 00:46 31.12.2019
5196 Clear -32 1019 67 8000 0.49 124 00:22 31.12.2019
5197 Clear -33 1019 67 8000 0.49 124 23:56 30.12.2019
5198 Clear -33 1020 54 8000 1 0 23:38 30.12.2019
5199 Clear -33 1020 54 8000 1 0 23:20 30.12.2019
5200 Clear -31 1019 61 8000 0.73 110 22:57 30.12.2019
5201 Clear -32 1020 67 8000 0.73 110 22:38 30.12.2019
5202 Clear -32 1020 67 8000 0.73 110 22:19 30.12.2019
5203 Clear -32 1020 60 8000 1 0 21:56 30.12.2019
5204 Clear -32 1020 60 8000 1 0 21:38 30.12.2019
5205 Clear -32 1020 60 8000 1 0 21:18 30.12.2019
5206 Clear -33 1020 67 8000 0.73 110 20:56 30.12.2019
5207 Clear -33 1020 67 8000 0.73 110 20:38 30.12.2019
5208 Clear -33 1020 67 8000 0.96 118 20:19 30.12.2019
5209 Clear -33 1020 67 8000 1 0 19:57 30.12.2019
5210 Clear -33 1020 67 8000 1 0 19:37 30.12.2019
5211 Clear -33 1020 67 8000 1 0 19:37 30.12.2019
5212 Clear -33 1020 67 8000 1 0 19:19 30.12.2019
5213 Clear -33 1021 60 8000 1 0 18:56 30.12.2019
5214 Clear -33 1021 60 8000 1 0 18:37 30.12.2019
5215 Clear -33 1021 60 8000 1 0 18:19 30.12.2019
5216 Clear -32 1022 60 8000 0.96 118 17:55 30.12.2019
5217 Clear -32 1022 60 8000 0.96 118 17:36 30.12.2019
5218 Clear -32 1022 60 8000 1.48 120 17:18 30.12.2019
5219 Clear -33 1022 60 8000 1.48 120 16:54 30.12.2019
5220 Clear -33 1022 60 8000 1.48 120 16:36 30.12.2019
5221 Clear -33 1022 60 8000 1.48 120 16:18 30.12.2019
5222 Clear -33 1022 67 8000 1 0 15:54 30.12.2019
5223 Clear -33 1023 60 8000 1.48 120 15:36 30.12.2019
5224 Clear -33 1023 60 8000 1.48 120 15:18 30.12.2019
5225 Clear -33 1023 67 8000 1.48 120 14:42 30.12.2019
5226 Clear -32 1023 67 8000 2.02 106 14:19 30.12.2019
5227 Clear -31 1023 61 8000 1 0 13:54 30.12.2019
5228 Clear -32 1024 60 8000 2.02 106 13:36 30.12.2019
5229 Clear -32 1024 60 8000 1.75 110 13:18 30.12.2019
5230 Clear -30 1024 61 8000 1 0 12:42 30.12.2019
5231 Clear -31 1024 55 8000 1.75 110 12:20 30.12.2019
5232 Clear -32 1024 67 8000 1 0 11:58 30.12.2019
5233 Clear -30 1025 61 8000 1 0 11:39 30.12.2019
5234 Clear -30 1025 61 8000 1 0 11:19 30.12.2019
5235 Clear -27 1025 56 8000 2.03 111 10:43 30.12.2019
5236 Clear -27 1025 56 8000 2.03 111 10:21 30.12.2019
5237 Clear -25 1026 51 8000 1 0 09:55 30.12.2019
5238 Clear -24 1026 47 8000 1 0 09:37 30.12.2019
5239 Clear -24 1026 47 8000 1 0 09:19 30.12.2019
5240 Clear -25 1026 51 8000 1 0 08:49 30.12.2019
5241 Clear -24 1027 47 8000 1 0 08:23 30.12.2019
5242 Clear -24 1027 52 8000 1 0 07:55 30.12.2019
5243 Clear -25 1027 57 8000 1 0 07:33 30.12.2019
5244 Clear -27 1028 62 6000 1 0 06:51 30.12.2019
5245 Smoke -30 1030 61 3600 1 0 04:56 30.12.2019
5246 Smoke -33 1031 67 3600 1.66 113 03:53 30.12.2019
5247 Smoke -39 1031 65 2000 1 240 02:50 30.12.2019
5248 Smoke -39 1031 58 2000 1.66 113 02:32 30.12.2019
5249 Smoke -40 1031 58 4000 1.18 118 01:50 30.12.2019
5250 Smoke -40 1032 58 4000 1.08 124 01:20 30.12.2019
5251 Smoke -39 1031 58 4000 1.08 124 00:43 30.12.2019
5252 Smoke -40 1031 58 5000 2 170 23:59 29.12.2019
5253 Clear -39 1031 65 6000 1.08 124 23:39 29.12.2019
5254 Clear -39 1031 65 6000 0.9 140 23:21 29.12.2019
5255 Clear -38 1031 58 8000 0.9 140 22:42 29.12.2019
5256 Clear -37 1032 59 8000 0.9 140 22:23 29.12.2019
5257 Clear -39 1032 58 8000 1 0 21:58 29.12.2019
5258 Clear -39 1032 58 8000 1 0 21:40 29.12.2019
5259 Clear -39 1032 58 8000 1 0 21:20 29.12.2019
5260 Clear -39 1032 58 8000 1 0 21:20 29.12.2019
5261 Clear -35 1031 59 10000 1 0 20:57 29.12.2019
5262 Clear -35 1031 59 10000 1 0 20:38 29.12.2019
5263 Clear -35 1031 59 10000 1 0 20:20 29.12.2019
5264 Clear -37 1031 59 10000 1 0 19:58 29.12.2019
5265 Clear -37 1031 59 10000 1 0 19:39 29.12.2019
5266 Clear -37 1031 59 10000 1 0 19:20 29.12.2019
5267 Clear -33 1031 60 10000 1 0 18:56 29.12.2019
5268 Clear -33 1031 60 10000 1 0 18:38 29.12.2019
5269 Clear -33 1031 60 10000 1 0 18:19 29.12.2019
5270 Clear -36 1030 59 10000 3 170 17:57 29.12.2019
5271 Clear -36 1030 59 10000 3 170 17:39 29.12.2019
5272 Clear -36 1030 59 10000 3 170 17:20 29.12.2019
5273 Clear -35 1030 66 10000 2 140 16:56 29.12.2019
5274 Clear -35 1030 66 10000 2 190 16:37 29.12.2019
5275 Clear -35 1030 66 10000 2 190 16:19 29.12.2019
5276 Clear -35 1030 59 10000 3 160 15:56 29.12.2019
5277 Clear -34 1030 60 10000 4 160 15:38 29.12.2019
5278 Clear -34 1030 60 10000 4 160 15:19 29.12.2019
5279 Clear -34 1030 60 10000 4 160 14:56 29.12.2019
5280 Clear -34 1030 60 10000 3 160 14:37 29.12.2019
5281 Clouds -34 1030 60 10000 3 160 14:18 29.12.2019
5282 Clouds -34 1030 60 10000 3 160 14:18 29.12.2019
5283 Clouds -35 1029 66 10000 2 0 13:55 29.12.2019
5284 Clouds -35 1029 66 10000 2 0 13:55 29.12.2019
5285 Clouds -35 1029 66 10000 1 0 13:37 29.12.2019
5286 Clouds -35 1029 66 10000 1 0 13:18 29.12.2019
5287 Clouds -35 1029 66 10000 1 0 13:18 29.12.2019
5288 Clouds -34 1029 60 10000 1 0 12:44 29.12.2019
5289 Clouds -31 1028 55 10000 1 0 12:25 29.12.2019
5290 Clouds -31 1028 55 10000 1 0 12:25 29.12.2019
5291 Clouds -27 1028 51 10000 2 0 11:56 29.12.2019
5292 Clouds -27 1028 56 10000 1 0 11:38 29.12.2019
5293 Clouds -27 1028 56 10000 1 0 11:20 29.12.2019
5294 Clouds -27 1027 56 10000 2.01 322 10:42 29.12.2019
5295 Clouds -26 1027 56 10000 3 290 10:23 29.12.2019
5296 Clouds -24 1026 47 10000 4 310 09:57 29.12.2019
5297 Clouds -23 1026 47 10000 4 330 09:38 29.12.2019
5298 Clouds -23 1026 47 10000 4 330 09:20 29.12.2019
5299 Clouds -23 1025 47 10000 5 330 08:47 29.12.2019
5300 Clouds -22 1025 39 10000 4 330 08:24 29.12.2019
5301 Clouds -23 1025 47 10000 5 330 07:55 29.12.2019
5302 Clouds -23 1024 43 10000 6 330 07:28 29.12.2019
5303 Clouds -23 1024 47 10000 7 330 06:53 29.12.2019
5304 Clouds -23 1024 52 10000 7 330 06:24 29.12.2019
5305 Clouds -24 1024 52 10000 6 320 05:51 29.12.2019
5306 Clouds -26 1024 62 10000 6 330 04:36 29.12.2019
5307 Clouds -26 1024 62 10000 5 330 03:51 29.12.2019
5308 Clouds -26 1024 62 10000 4 320 03:20 29.12.2019
5309 Clouds -28 1023 68 10000 3 350 02:20 29.12.2019
5310 Clouds -27 1022 62 10000 4 320 01:31 29.12.2019
5311 Clouds -27 1022 62 10000 4 320 01:31 29.12.2019
5312 Clouds -27 1021 68 10000 2 0 00:55 29.12.2019
5313 Clouds -28 1021 75 10000 3 320 00:36 29.12.2019
5314 Clouds -28 1021 75 10000 3 320 00:18 29.12.2019
5315 Clouds -28 1021 68 10000 2 0 23:41 28.12.2019
5316 Clouds -27 1020 68 10000 2 0 23:18 28.12.2019
5317 Clouds -27 1020 68 10000 5 300 22:39 28.12.2019
5318 Clouds -27 1020 68 10000 5 300 22:20 28.12.2019
5319 Clouds -27 1020 68 10000 5 300 22:20 28.12.2019
5320 Clouds -26 1019 62 10000 5 300 21:58 28.12.2019
5321 Clouds -26 1019 62 10000 5 300 21:39 28.12.2019
5322 Clouds -26 1019 62 10000 5 300 21:20 28.12.2019
5323 Clouds -27 1019 68 10000 5 330 20:56 28.12.2019
5324 Clouds -27 1019 68 10000 5 330 20:37 28.12.2019
5325 Clouds -27 1019 68 10000 5 330 20:19 28.12.2019
5326 Clouds -25 1018 62 10000 5 340 19:55 28.12.2019
5327 Clouds -25 1018 62 10000 5 340 19:37 28.12.2019
5328 Clouds -25 1018 62 10000 5 340 19:18 28.12.2019
5329 Clouds -25 1017 69 10000 6 320 18:56 28.12.2019
5330 Clouds -25 1017 69 10000 6 320 18:38 28.12.2019
5331 Clouds -25 1017 69 10000 6 320 18:18 28.12.2019
5332 Clouds -26 1017 75 10000 5 320 17:42 28.12.2019
5333 Clouds -26 1017 75 10000 5 320 17:21 28.12.2019
5334 Clouds -27 1016 68 10000 3 320 16:58 28.12.2019
5335 Clouds -23 1016 63 10000 6 340 16:40 28.12.2019
5336 Clouds -23 1016 63 10000 6 340 16:21 28.12.2019
5337 Clouds -23 1016 69 10000 6 340 15:43 28.12.2019
5338 Clouds -23 1016 69 10000 4 340 15:22 28.12.2019
5339 Clouds -23 1015 69 10000 4 330 14:55 28.12.2019
5340 Clouds -22 1015 63 10000 4 340 14:37 28.12.2019
5341 Clouds -22 1015 63 10000 4 340 14:18 28.12.2019
5342 Clouds -22 1014 69 10000 5 340 13:42 28.12.2019
5343 Clouds -22 1014 69 10000 4 330 13:21 28.12.2019
5344 Clouds -23 1014 69 10000 3 300 12:58 28.12.2019
5345 Clouds -23 1013 76 10000 4 310 12:40 28.12.2019
5346 Clouds -23 1013 76 10000 4 310 12:21 28.12.2019
5347 Clouds -21 1012 70 10000 5 320 11:40 28.12.2019
5348 Clouds -21 1012 70 10000 5 320 11:21 28.12.2019
5349 Clouds -21 1012 70 10000 4 330 10:57 28.12.2019
5350 Clouds -20 1011 70 10000 4 320 10:38 28.12.2019
5351 Clouds -20 1011 70 10000 4 320 10:19 28.12.2019
5352 Clouds -19 1011 64 10000 5 320 09:54 28.12.2019
5353 Clouds -19 1010 64 10000 6 320 09:36 28.12.2019
5354 Clouds -19 1010 64 10000 6 320 09:18 28.12.2019
5355 Clouds -18 1010 59 10000 5 330 08:42 28.12.2019
5356 Clouds -18 1009 64 10000 6 320 08:23 28.12.2019
5357 Clouds -18 1009 64 10000 7 310 07:47 28.12.2019
5358 -273 0 0 0 0 0 07:22 28.12.2019
5359 Clouds -18 1008 64 10000 4 290 05:46 28.12.2019
5360 Snow -22 1008 76 6000 1 0 03:48 28.12.2019
5361 Clouds -27 1008 75 6000 1 0 02:51 28.12.2019
5362 Clouds -27 1007 75 6000 2.3 356 02:20 28.12.2019
5363 Clouds -28 1007 75 6000 1 0 01:55 28.12.2019
5364 Clouds -26 1006 75 6000 1 0 01:23 28.12.2019
5365 Clouds -27 1006 75 6000 1 0 00:45 28.12.2019
5366 Clouds -27 1005 75 6000 1 0 00:27 28.12.2019
5367 Clouds -28 1005 75 6000 2.28 355 23:58 27.12.2019
5368 Clouds -28 1005 75 6000 2.28 355 23:58 27.12.2019
5369 Clouds -24 1005 69 6000 2.28 355 23:38 27.12.2019
5370 Clouds -24 1005 69 6000 1.76 3 23:18 27.12.2019
5371 Clouds -23 1005 76 6000 1.76 3 22:55 27.12.2019
5372 Clouds -22 1005 76 6000 1 0 22:37 27.12.2019
5373 Clouds -22 1005 76 6000 1 0 22:19 27.12.2019
5374 Clouds -21 1005 70 6000 1.76 3 21:43 27.12.2019
5375 Clouds -21 1005 70 6000 1.76 3 21:24 27.12.2019
5376 Clouds -22 1005 76 6000 1 0 20:45 27.12.2019
5377 Clouds -22 1005 76 6000 1 0 20:26 27.12.2019
5378 Clouds -23 1005 83 6000 1 0 19:59 27.12.2019
5379 Clouds -23 1005 83 6000 1 0 19:40 27.12.2019
5380 Clouds -23 1005 83 6000 1 0 19:19 27.12.2019
5381 Clouds -21 1005 70 6000 1 0 18:56 27.12.2019
5382 Clouds -21 1005 70 6000 1 0 18:37 27.12.2019
5383 Clouds -21 1005 70 6000 1 0 18:18 27.12.2019
5384 Clouds -22 1005 76 6000 0.67 357 17:55 27.12.2019
5385 Clouds -23 1005 76 6000 1 0 17:37 27.12.2019
5386 Clouds -23 1005 76 6000 1 0 17:18 27.12.2019
5387 Clouds -23 1005 76 6000 1 0 16:41 27.12.2019
5388 Clouds -25 1005 75 6000 1 0 16:23 27.12.2019
5389 Clouds -26 1005 75 6000 1 0 15:58 27.12.2019
5390 Clouds -25 1005 75 6000 1 0 15:37 27.12.2019
5391 Clouds -25 1005 75 6000 1 0 15:37 27.12.2019
5392 Clouds -25 1005 75 6000 1 0 15:19 27.12.2019
5393 Clouds -26 1005 75 6000 1 0 14:56 27.12.2019
5394 Clouds -22 1005 76 6000 0.25 21 14:38 27.12.2019
5395 Clouds -22 1005 76 6000 0.96 169 14:19 27.12.2019
5396 Clouds -22 1005 76 6000 0.96 169 14:19 27.12.2019
5397 Clouds -22 1005 76 6000 1 0 13:46 27.12.2019
5398 Clouds -24 1005 76 6000 2 150 13:23 27.12.2019
5399 Clouds -25 1005 75 6000 1 0 12:49 27.12.2019
5400 Smoke -22 1006 76 5000 1 0 12:29 27.12.2019
5401 Smoke -22 1006 76 5000 1 0 11:59 27.12.2019
5402 Smoke -23 1005 76 5000 2 0 11:41 27.12.2019
5403 Smoke -23 1005 76 5000 2 0 11:20 27.12.2019
5404 Smoke -23 1005 69 5000 2 160 10:47 27.12.2019
5405 Smoke -22 1005 69 5000 1 0 10:24 27.12.2019
5406 Clouds -19 1005 64 6000 1 0 09:57 27.12.2019
5407 Clouds -18 1005 64 6000 1 0 09:38 27.12.2019
5408 Clouds -18 1005 64 6000 1 0 09:20 27.12.2019
5409 Clouds -17 1005 59 6000 2 160 08:46 27.12.2019
5410 Clouds -17 1005 59 6000 1 0 08:27 27.12.2019
5411 Clouds -18 1005 59 6000 1 0 07:41 27.12.2019
5412 Clouds -18 1006 59 6000 1 0 07:22 27.12.2019
5413 Clouds -20 1006 64 6000 1 0 06:27 27.12.2019
5414 Clouds -22 1007 69 6000 1 0 04:48 27.12.2019
5415 Smoke -26 1007 68 5000 1 0 02:29 27.12.2019
5416 Clouds -26 1007 75 6000 0.53 250 01:48 27.12.2019
5417 Clouds -26 1007 75 6000 0.26 254 01:23 27.12.2019
5418 Clouds -27 1007 75 6000 0.26 254 00:52 27.12.2019
5419 Clouds -28 1007 68 6000 0.26 254 00:34 27.12.2019
5420 Clouds -29 1007 75 6000 0.26 254 23:57 26.12.2019
5421 Clouds -29 1007 68 6000 1 0 23:38 26.12.2019
5422 Clouds -29 1007 68 6000 1 0 23:20 26.12.2019
5423 Clouds -26 1007 68 6000 0.3 142 22:42 26.12.2019
5424 Smoke -27 1007 75 5000 0.3 142 22:21 26.12.2019
5425 Smoke -28 1008 75 5000 0.3 142 21:55 26.12.2019
5426 Smoke -28 1008 75 5000 0.3 142 21:37 26.12.2019
5427 Smoke -28 1008 75 5000 0.3 142 21:19 26.12.2019
5428 Clouds -30 1008 67 6000 0.3 142 20:44 26.12.2019
5429 Clouds -30 1008 67 6000 0.3 142 20:44 26.12.2019
5430 Clear -30 1008 67 6000 0.49 155 20:22 26.12.2019
5431 Clear -29 1008 75 6000 1 0 19:58 26.12.2019
5432 Clear -29 1008 75 6000 1 0 19:38 26.12.2019
5433 Clear -29 1008 75 6000 1 0 19:20 26.12.2019
5434 Clear -30 1008 67 6000 0.39 41 18:57 26.12.2019
5435 Clear -31 1008 67 6000 1 0 18:37 26.12.2019
5436 Clear -31 1008 67 6000 1 0 18:19 26.12.2019
5437 Clear -28 1009 68 6000 0.39 41 17:42 26.12.2019
5438 Clear -28 1009 68 6000 0.39 41 17:42 26.12.2019
5439 Clear -28 1008 68 6000 0.47 256 17:22 26.12.2019
5440 Clear -27 1009 75 6000 1 0 16:54 26.12.2019
5441 Clear -28 1009 68 6000 3 150 16:36 26.12.2019
5442 Clear -28 1009 68 6000 3 150 16:36 26.12.2019
5443 Clear -28 1009 68 6000 3 150 16:18 26.12.2019
5444 Clear -30 1009 74 6000 2 170 15:41 26.12.2019
5445 Clear -30 1009 74 6000 1 0 15:20 26.12.2019
5446 Clear -29 1009 68 6000 0.47 256 14:54 26.12.2019
5447 Clear -28 1010 68 3400 0.47 256 14:36 26.12.2019
5448 Clear -28 1010 68 3400 0.54 271 14:18 26.12.2019
5449 Clear -29 1010 61 6000 1 0 13:42 26.12.2019
5450 Clear -28 1009 68 6000 2 150 13:19 26.12.2019
5451 Clear -29 1009 68 8000 1 0 12:56 26.12.2019
5452 Clear -28 1009 68 8000 1 0 12:37 26.12.2019
5453 Clear -28 1009 68 8000 1 0 12:18 26.12.2019
5454 Clear -28 1009 68 6000 2 180 11:42 26.12.2019
5455 Clear -28 1009 68 6000 2 180 11:23 26.12.2019
5456 Clear -27 1009 68 6000 1 0 10:57 26.12.2019
5457 Clear -27 1009 68 6000 1 0 10:57 26.12.2019
5458 Clear -25 1009 75 6000 1 0 10:39 26.12.2019
5459 Clear -25 1009 75 6000 1 0 10:18 26.12.2019
5460 Smoke -25 1009 69 5000 1 0 09:42 26.12.2019
5461 Smoke -22 1009 63 5000 2 0 09:24 26.12.2019
5462 Clear -20 1009 64 5000 1 0 08:42 26.12.2019
5463 Smoke -19 1009 64 5000 1 0 08:23 26.12.2019
5464 Smoke -19 1009 64 5000 1 0 07:50 26.12.2019
5465 Smoke -20 1009 70 5000 1 0 07:26 26.12.2019
5466 Smoke -20 1010 76 5000 1 0 06:48 26.12.2019
5467 Smoke -21 1010 76 5000 1 0 06:30 26.12.2019
5468 Smoke -23 1010 76 5000 2 170 05:43 26.12.2019
5469 Smoke -25 1011 69 4000 0.88 137 04:38 26.12.2019
5470 Smoke -27 1011 75 4000 1 0 03:47 26.12.2019
5471 Smoke -31 1011 74 4000 2 0 02:50 26.12.2019
5472 Smoke -29 1012 68 4000 0.88 137 02:31 26.12.2019
5473 Smoke -32 1011 67 5000 1.29 114 01:45 26.12.2019
5474 Smoke -30 1012 67 5000 1 0 01:26 26.12.2019
5475 Smoke -30 1012 67 5000 1 0 00:48 26.12.2019
5476 Smoke -33 1012 67 5000 1 0 00:24 26.12.2019
5477 Smoke -33 1012 67 5000 1 0 00:24 26.12.2019
5478 Smoke -33 1012 67 5000 1 0 00:24 26.12.2019
5479 Smoke -31 1012 74 5000 1 0 23:58 25.12.2019
5480 Smoke -31 1012 67 5000 1 0 23:38 25.12.2019
5481 Smoke -31 1012 67 5000 1 0 23:20 25.12.2019
5482 Smoke -30 1013 67 5000 1 0 22:57 25.12.2019
5483 Smoke -30 1013 74 5000 1 0 22:38 25.12.2019
5484 Smoke -30 1013 74 5000 1 0 22:19 25.12.2019
5485 Clouds -32 1014 67 6000 0.98 127 21:57 25.12.2019
5486 Clouds -32 1014 67 6000 0.98 127 21:39 25.12.2019
5487 Clouds -32 1014 67 6000 0.98 127 21:19 25.12.2019
5488 Clouds -30 1015 67 6000 0.98 127 20:41 25.12.2019
5489 Clouds -30 1015 67 6000 0.72 154 20:21 25.12.2019
5490 Clouds -32 1015 74 6000 1 0 19:59 25.12.2019
5491 Clouds -32 1015 74 6000 1 0 19:41 25.12.2019
5492 Clouds -32 1015 74 6000 1 0 19:22 25.12.2019
5493 Clouds -32 1016 67 6000 1 0 18:54 25.12.2019
5494 Clouds -32 1016 67 6000 1 0 18:36 25.12.2019
5495 Clouds -32 1016 67 6000 1 0 18:18 25.12.2019
5496 Clouds -31 1017 67 8000 2 170 17:40 25.12.2019
5497 Clouds -31 1017 67 8000 2 170 17:18 25.12.2019
5498 Clouds -29 1017 68 8000 0.83 160 16:55 25.12.2019
5499 Clouds -27 1018 68 8000 0.83 160 16:36 25.12.2019
5500 Clouds -27 1018 68 8000 0.83 160 16:18 25.12.2019
5501 Clouds -29 1018 68 10000 1 0 15:56 25.12.2019
5502 Clouds -30 1018 74 10000 1 0 15:37 25.12.2019
5503 Clouds -30 1018 74 10000 1 0 15:18 25.12.2019
5504 Clouds -29 1018 75 10000 0.83 160 14:54 25.12.2019
5505 Clouds -29 1019 68 10000 1 0 14:36 25.12.2019
5506 Clouds -29 1019 68 10000 1 0 14:18 25.12.2019
5507 Clouds -28 1019 68 10000 0.44 145 13:41 25.12.2019
5508 Clouds -26 1019 75 10000 0.44 145 13:20 25.12.2019
5509 Clouds -24 1019 76 8000 1 0 12:44 25.12.2019
5510 Clouds -26 1019 68 8000 0.42 141 12:22 25.12.2019
5511 Clouds -23 1019 83 8000 1 0 11:58 25.12.2019
5512 Clouds -23 1019 83 8000 1 0 11:58 25.12.2019
5513 Clouds -25 1019 75 8000 2 120 11:40 25.12.2019
5514 Clouds -25 1019 75 8000 2 120 11:20 25.12.2019
5515 Clear -23 1019 69 8000 2 0 10:39 25.12.2019
5516 Clear -23 1019 69 8000 2 0 10:21 25.12.2019
5517 Clear -20 1019 64 8000 1 0 09:58 25.12.2019
5518 Clear -19 1019 64 8000 1 0 09:40 25.12.2019
5519 Clear -19 1019 64 8000 1 0 09:40 25.12.2019
5520 Clear -19 1019 64 8000 1 0 09:21 25.12.2019
5521 Clear -18 1019 64 6000 0.58 241 08:42 25.12.2019
5522 Clouds -18 1019 64 6000 1 0 08:23 25.12.2019
5523 Smoke -19 1019 64 5000 1 0 07:42 25.12.2019
5524 Smoke -18 1020 59 5000 1.2 249 07:22 25.12.2019
5525 Smoke -21 1020 70 5000 1 0 06:24 25.12.2019
5526 Smoke -22 1020 69 5000 1 0 05:49 25.12.2019
5527 Clouds -23 1021 76 6000 1 0 04:42 25.12.2019
5528 Clouds -23 1021 76 6000 1 0 04:24 25.12.2019
5529 Clouds -23 1021 69 6000 2 0 03:43 25.12.2019
5530 Clouds -27 1021 75 6000 0.74 239 02:58 25.12.2019
5531 Clouds -28 1021 75 6000 1 0 02:29 25.12.2019
5532 Clouds -28 1020 75 8000 1 0 01:43 25.12.2019
5533 Clouds -28 1020 75 8000 2 180 01:18 25.12.2019
5534 Clouds -28 1020 68 10000 1 0 00:41 25.12.2019
5535 Clouds -28 1020 68 10000 1 0 00:23 25.12.2019
5536 Clouds -28 1020 68 10000 1 0 00:23 25.12.2019
5537 Clouds -26 1019 68 10000 1 0 23:39 24.12.2019
5538 Clouds -26 1019 68 10000 1 0 23:20 24.12.2019
5539 Clouds -26 1019 75 10000 1 0 22:42 24.12.2019
5540 Clouds -26 1019 75 10000 0.87 308 22:24 24.12.2019
5541 Clouds -26 1019 68 10000 0.87 308 21:59 24.12.2019
5542 Clouds -26 1019 68 10000 0.87 308 21:40 24.12.2019
5543 Clouds -26 1019 68 10000 0.87 308 21:19 24.12.2019
5544 Clouds -26 1019 75 10000 2 140 20:42 24.12.2019
5545 Clouds -26 1019 75 10000 2 140 20:22 24.12.2019
5546 Clouds -25 1019 75 10000 0.97 308 19:49 24.12.2019
5547 Clouds -25 1019 75 10000 0.97 308 19:22 24.12.2019
5548 Clouds -24 1018 76 10000 4 170 18:59 24.12.2019
5549 Clouds -24 1018 76 10000 4 170 18:40 24.12.2019
5550 Clouds -24 1018 76 10000 4 170 18:18 24.12.2019
5551 Clouds -24 1018 76 10000 4 170 18:18 24.12.2019
5552 Clouds -25 1018 75 10000 4 170 17:44 24.12.2019
5553 Clouds -26 1018 68 10000 3 160 17:22 24.12.2019
5554 Clouds -25 1018 75 10000 2 150 16:58 24.12.2019
5555 Clouds -27 1018 75 10000 2 210 16:39 24.12.2019
5556 Clouds -27 1018 75 10000 2 210 16:39 24.12.2019
5557 Clouds -27 1018 75 10000 2 210 16:20 24.12.2019
5558 Clouds -24 1017 83 10000 1.12 309 15:57 24.12.2019
5559 Clouds -26 1017 68 10000 1 0 15:37 24.12.2019
5560 Clouds -26 1017 68 10000 1 0 15:19 24.12.2019
5561 Clouds -26 1017 75 10000 1 0 14:58 24.12.2019
5562 Clouds -24 1016 76 10000 1.12 309 14:39 24.12.2019
5563 Clouds -24 1016 76 10000 1.58 321 14:21 24.12.2019
5564 Clouds -24 1016 76 10000 1.58 321 14:21 24.12.2019
5565 Clouds -22 1016 76 10000 1 0 13:56 24.12.2019
5566 Clouds -20 1016 76 10000 3 310 13:37 24.12.2019
5567 Clouds -20 1016 76 10000 3 310 13:19 24.12.2019
5568 Clouds -21 1015 76 10000 2 0 12:56 24.12.2019
5569 Clouds -21 1015 76 10000 2 0 12:56 24.12.2019
5570 Clouds -21 1015 76 10000 2 0 12:56 24.12.2019
5571 Clouds -20 1015 70 10000 1 0 12:37 24.12.2019
5572 Clouds -20 1015 70 10000 1 0 12:19 24.12.2019
5573 Clouds -20 1015 70 10000 1 0 12:19 24.12.2019
5574 Clouds -20 1015 70 10000 1 0 12:19 24.12.2019
5575 Clouds -19 1014 70 10000 1 0 11:56 24.12.2019
5576 Clouds -19 1014 77 10000 1.58 322 11:37 24.12.2019
5577 Clouds -19 1014 77 10000 1.58 322 11:37 24.12.2019
5578 Clouds -19 1014 77 10000 2.17 322 11:19 24.12.2019
5579 Clouds -18 1013 70 10000 1 0 10:56 24.12.2019
5580 Clouds -18 1013 70 10000 1 0 10:56 24.12.2019
5581 Clouds -18 1013 70 10000 4 310 10:37 24.12.2019
5582 Clouds -18 1013 70 10000 4 310 10:19 24.12.2019
5583 Clouds -17 1012 70 10000 5 310 09:55 24.12.2019
5584 Clouds -17 1012 70 10000 5 300 09:37 24.12.2019
5585 Clouds -17 1012 70 10000 5 300 09:37 24.12.2019
5586 Clouds -17 1012 70 10000 5 300 09:19 24.12.2019
5587 Clouds -17 1011 70 10000 5 300 08:45 24.12.2019
5588 Clouds -17 1011 70 10000 5 300 08:24 24.12.2019
5589 Snow -16 1011 71 10000 5 300 07:46 24.12.2019
5590 Snow -16 1010 71 10000 5 310 07:26 24.12.2019
5591 Clouds -16 1010 71 10000 6 310 06:58 24.12.2019
5592 Clouds -15 1010 65 10000 5 310 06:38 24.12.2019
5593 Clouds -15 1010 65 10000 5 310 06:19 24.12.2019
5594 Clouds -15 1010 71 10000 4 310 05:40 24.12.2019
5595 Clouds -15 1010 71 10000 4 310 05:18 24.12.2019
5596 Snow -15 1009 71 6000 4 330 03:50 24.12.2019
5597 Snow -15 1009 84 6000 2 320 03:23 24.12.2019
5598 Snow -15 1009 84 6000 1 0 02:25 24.12.2019
5599 Snow -15 1009 84 6000 1 0 02:25 24.12.2019
5600 Snow -16 1008 84 6000 1.31 326 01:51 24.12.2019
5601 Snow -15 1008 84 6000 1.41 332 01:23 24.12.2019
5602 Snow -15 1008 84 6000 1.41 332 00:46 24.12.2019
5603 Snow -15 1008 84 6000 1.41 332 00:26 24.12.2019
5604 Snow -15 1008 84 6000 1 0 23:59 23.12.2019
5605 Snow -15 1008 84 6000 1 0 23:59 23.12.2019
5606 Snow -15 1008 84 6000 1 0 23:41 23.12.2019
5607 Snow -15 1008 84 6000 1 0 23:23 23.12.2019
5608 Snow -15 1008 77 4000 1 0 22:56 23.12.2019
5609 Snow -15 1008 77 4000 1 0 22:56 23.12.2019
5610 Snow -15 1008 84 4000 0.59 81 22:37 23.12.2019
5611 Snow -15 1008 84 4000 0.59 81 22:37 23.12.2019
5612 Snow -15 1008 84 4000 0.59 81 22:19 23.12.2019
5613 Snow -15 1009 77 4000 0.59 81 21:55 23.12.2019
5614 Snow -15 1009 77 4000 0.59 81 21:36 23.12.2019
5615 Snow -15 1009 77 4000 0.59 81 21:18 23.12.2019
5616 Snow -15 1009 84 4000 1 0 20:57 23.12.2019
5617 Snow -15 1009 84 4000 1 0 20:39 23.12.2019
5618 Snow -15 1009 84 4000 1 0 20:18 23.12.2019
5619 Snow -16 1009 84 5000 1 0 19:55 23.12.2019
5620 Snow -16 1009 84 5000 1 0 19:37 23.12.2019
5621 Snow -16 1009 84 5000 1 0 19:19 23.12.2019
5622 Snow -16 1010 77 8000 1.75 94 18:57 23.12.2019
5623 Snow -16 1010 77 8000 1.75 94 18:38 23.12.2019
5624 Snow -16 1010 77 8000 1.75 94 18:20 23.12.2019
5625 Clouds -17 1010 77 8000 1 0 17:55 23.12.2019
5626 Clouds -17 1010 77 8000 1 0 17:37 23.12.2019
5627 Clouds -17 1010 77 8000 1 0 17:19 23.12.2019
5628 Clouds -18 1010 77 8000 1 0 16:42 23.12.2019
5629 Clouds -18 1010 77 8000 1 0 16:42 23.12.2019
5630 Clouds -17 1011 70 8000 1 0 16:19 23.12.2019
5631 Clouds -18 1011 70 8000 2.07 113 15:59 23.12.2019
5632 Clouds -19 1011 77 8000 2.07 113 15:39 23.12.2019
5633 Clouds -19 1011 77 8000 2.07 113 15:20 23.12.2019
5634 Clouds -20 1011 76 8000 2.07 113 14:59 23.12.2019
5635 Clouds -20 1011 76 8000 2.07 113 14:41 23.12.2019
5636 Clouds -19 1011 77 8000 1 0 14:23 23.12.2019
5637 Clouds -18 1012 70 6000 2 280 13:59 23.12.2019
5638 Clouds -19 1012 77 8000 1 0 13:40 23.12.2019
5639 Clouds -19 1012 77 8000 1 0 13:22 23.12.2019
5640 Clouds -19 1012 77 8000 1 0 13:22 23.12.2019
5641 Clouds -19 1012 77 8000 1 0 13:22 23.12.2019
5642 Clouds -19 1012 70 6000 1 0 12:58 23.12.2019
5643 Clouds -20 1012 76 8000 1 0 12:39 23.12.2019
5644 Clouds -20 1012 76 8000 1 0 12:20 23.12.2019
5645 Clouds -20 1013 76 6000 1 0 11:45 23.12.2019
5646 Clouds -20 1013 76 8000 1 0 11:26 23.12.2019
5647 Clouds -18 1013 70 8000 1.75 123 10:59 23.12.2019
5648 Clouds -17 1014 64 8000 1 0 10:41 23.12.2019
5649 Clouds -17 1014 64 8000 1 0 10:21 23.12.2019
5650 Clouds -16 1014 65 8000 1 0 09:59 23.12.2019
5651 Clouds -15 1013 60 8000 1 0 09:40 23.12.2019
5652 Clouds -15 1013 60 8000 1 0 09:21 23.12.2019
5653 Clouds -15 1013 60 8000 1 0 08:58 23.12.2019
5654 Clouds -15 1013 60 8000 1 0 08:40 23.12.2019
5655 Clouds -15 1013 60 8000 1 0 08:22 23.12.2019
5656 Clouds -15 1013 60 8000 1 0 07:47 23.12.2019
5657 Clouds -16 1014 71 8000 2 0 07:20 23.12.2019
5658 Clouds -16 1015 71 6000 2.15 104 06:53 23.12.2019
5659 Clouds -16 1015 71 6000 2.15 104 06:53 23.12.2019
5660 Clouds -18 1015 70 6000 1 0 06:26 23.12.2019
5661 Clouds -19 1016 77 6000 1 0 05:53 23.12.2019
5662 Clouds -21 1017 76 6000 1 0 05:28 23.12.2019
5663 Smoke -23 1017 76 5000 1.72 132 04:31 23.12.2019
5664 Smoke -26 1017 75 5000 1 0 03:24 23.12.2019
5665 Smoke -28 1017 68 5000 1 0 02:41 23.12.2019
5666 Smoke -29 1017 68 5000 1.57 102 02:19 23.12.2019
5667 Smoke -30 1017 74 5000 1.57 102 01:42 23.12.2019
5668 Clouds -29 1017 68 6000 1.54 102 01:23 23.12.2019
5669 Clouds -30 1017 67 6000 1 0 00:43 23.12.2019
5670 Clouds -28 1017 68 6000 1.54 102 00:22 23.12.2019
5671 Clouds -30 1017 67 6000 1 0 23:39 22.12.2019
5672 Clear -30 1017 67 6000 1 0 23:21 22.12.2019
5673 Clear -29 1017 75 6000 1 0 22:58 22.12.2019
5674 Clear -29 1017 75 6000 1 0 22:58 22.12.2019
5675 Clear -29 1018 68 6000 1 0 22:40 22.12.2019
5676 Clear -29 1018 68 6000 1 0 22:20 22.12.2019
5677 Clear -28 1018 75 6000 1.07 80 21:57 22.12.2019
5678 Clear -28 1018 75 6000 1.07 80 21:39 22.12.2019
5679 Clear -28 1018 75 6000 1.07 80 21:21 22.12.2019
5680 Clear -29 1018 68 6000 1 0 20:58 22.12.2019
5681 Clear -29 1018 68 6000 1 0 20:38 22.12.2019
5682 Clear -29 1018 68 6000 1 0 20:18 22.12.2019
5683 Clear -27 1018 75 6000 1 0 19:56 22.12.2019
5684 Clear -27 1018 75 6000 1 0 19:37 22.12.2019
5685 Clear -27 1018 75 6000 1 0 19:19 22.12.2019
5686 Clear -29 1018 75 6000 0.96 98 18:40 22.12.2019
5687 Clear -29 1018 75 6000 0.96 98 18:40 22.12.2019
5688 Clear -29 1018 75 6000 0.96 98 18:22 22.12.2019
5689 Clear -27 1018 75 6000 1 0 17:55 22.12.2019
5690 Clear -27 1018 75 6000 1 0 17:37 22.12.2019
5691 Clear -27 1018 75 6000 1 0 17:18 22.12.2019
5692 Clear -28 1018 68 6000 1 0 16:57 22.12.2019
5693 Clear -28 1018 68 6000 1 0 16:56 22.12.2019
5694 Clear -28 1018 68 6000 1 0 16:38 22.12.2019
5695 Clear -28 1018 68 6000 1 0 16:19 22.12.2019
5696 Clear -27 1018 75 6000 0.42 118 15:56 22.12.2019
5697 Clear -28 1018 75 6000 2 170 15:37 22.12.2019
5698 Clear -28 1018 75 6000 2 170 15:19 22.12.2019
5699 Clear -27 1018 68 6000 1 0 14:54 22.12.2019
5700 Clear -26 1018 68 6000 1 0 14:36 22.12.2019
5701 Clear -26 1018 68 6000 1 0 14:18 22.12.2019
5702 Clear -25 1018 75 6000 1 0 13:55 22.12.2019
5703 Clear -26 1018 68 6000 2 170 13:36 22.12.2019
5704 Clear -26 1018 68 6000 2 170 13:18 22.12.2019
5705 Clear -26 1018 68 6000 2 170 13:18 22.12.2019
5706 Clear -26 1018 75 6000 3 170 12:54 22.12.2019
5707 Clear -26 1018 75 6000 3 170 12:54 22.12.2019
5708 Clear -26 1018 75 6000 3 170 12:54 22.12.2019
5709 Clear -25 1017 75 6000 1 0 12:36 22.12.2019
5710 Clear -25 1017 75 6000 1 0 12:18 22.12.2019
5711 Clear -23 1017 76 6000 2 160 11:39 22.12.2019
5712 Clear -23 1017 76 6000 2 160 11:20 22.12.2019
5713 Clear -22 1017 76 6000 2 160 10:58 22.12.2019
5714 Clear -21 1017 76 6000 2 170 10:40 22.12.2019
5715 Clear -21 1017 76 6000 2 170 10:21 22.12.2019
5716 Clear -17 1017 64 6000 0.57 95 09:58 22.12.2019
5717 Clear -14 1017 60 6000 0.57 95 09:40 22.12.2019
5718 Clear -14 1017 60 6000 0.57 95 09:21 22.12.2019
5719 Clear -15 1017 65 6000 1 0 08:55 22.12.2019
5720 Clear -15 1017 65 6000 1 0 08:37 22.12.2019
5721 Clouds -15 1017 65 6000 1 0 08:18 22.12.2019
5722 Smoke -16 1017 65 5000 2 0 07:36 22.12.2019
5723 Smoke -16 1017 65 5000 2 0 07:18 22.12.2019
5724 Smoke -16 1017 65 4000 1.04 211 06:40 22.12.2019
5725 Smoke -16 1018 59 4000 1.04 211 05:53 22.12.2019
5726 Smoke -20 1018 76 4000 0.61 214 05:21 22.12.2019
5727 Smoke -21 1018 76 4000 0.61 214 04:28 22.12.2019
5728 Smoke -22 1017 76 4000 0.61 214 03:52 22.12.2019
5729 Smoke -26 1017 75 5000 1 0 02:38 22.12.2019
5730 Clouds -27 1016 68 6000 0.38 244 01:42 22.12.2019
5731 Clouds -27 1016 68 6000 1 0 01:22 22.12.2019
5732 Clouds -26 1016 75 6000 1 0 00:45 22.12.2019
5733 Clouds -26 1015 75 6000 2 150 00:22 22.12.2019
5734 Clouds -27 1015 68 6000 2 180 23:55 21.12.2019
5735 Clouds -28 1014 75 6000 1 0 23:37 21.12.2019
5736 Clouds -28 1014 75 6000 1 0 23:18 21.12.2019
5737 Clouds -26 1014 75 8000 2 200 22:40 21.12.2019
5738 Clouds -26 1014 75 8000 2 200 22:40 21.12.2019
5739 Clouds -26 1014 75 8000 2 200 22:19 21.12.2019
5740 Clouds -26 1013 75 8000 2 170 21:57 21.12.2019
5741 Clouds -26 1013 75 8000 2 170 21:37 21.12.2019
5742 Clouds -26 1013 75 8000 2 170 21:19 21.12.2019
5743 Clouds -25 1013 75 8000 1 0 20:58 21.12.2019
5744 Clouds -25 1013 75 8000 1 0 20:39 21.12.2019
5745 Clouds -25 1013 75 8000 1 0 20:21 21.12.2019
5746 Clouds -20 1012 76 8000 1 0 19:58 21.12.2019
5747 Clouds -20 1012 76 8000 1 0 19:40 21.12.2019
5748 Clouds -20 1012 76 8000 1 0 19:19 21.12.2019
5749 Clouds -20 1012 76 8000 1 0 19:19 21.12.2019
5750 Clouds -20 1012 76 8000 1 0 18:44 21.12.2019
5751 Clouds -20 1012 76 8000 1 0 18:24 21.12.2019
5752 Clouds -20 1012 76 8000 1 0 17:57 21.12.2019
5753 Clouds -20 1012 70 8000 1.09 329 17:39 21.12.2019
5754 Clouds -20 1012 70 8000 1.09 329 17:39 21.12.2019
5755 Clouds -20 1012 70 8000 0.94 342 17:21 21.12.2019
5756 Clouds -20 1011 76 8000 0.94 342 16:58 21.12.2019
5757 Clouds -20 1011 76 8000 0.94 342 16:40 21.12.2019
5758 Clouds -20 1011 76 8000 0.94 342 16:18 21.12.2019
5759 Clouds -20 1011 76 8000 0.94 342 16:18 21.12.2019
5760 Clouds -19 1011 70 10000 1 0 15:57 21.12.2019
5761 Clouds -19 1011 70 10000 1 0 15:57 21.12.2019
5762 Clouds -19 1011 70 10000 0.94 342 15:38 21.12.2019
5763 Clouds -19 1011 70 10000 0.94 342 15:19 21.12.2019
5764 Clouds -19 1010 70 10000 1 0 14:55 21.12.2019
5765 Clouds -18 1010 70 10000 0.94 342 14:37 21.12.2019
5766 Clouds -18 1010 70 10000 0.73 94 14:18 21.12.2019
5767 Clouds -19 1010 70 10000 1 0 13:54 21.12.2019
5768 Clouds -19 1010 70 10000 1 0 13:36 21.12.2019
5769 Clouds -19 1010 70 10000 1 0 13:18 21.12.2019
5770 Clouds -20 1010 76 10000 0.45 47 12:54 21.12.2019
5771 Clouds -19 1010 70 10000 0.45 47 12:36 21.12.2019
5772 Clouds -19 1010 70 10000 0.45 47 12:36 21.12.2019
5773 Clouds -19 1010 70 10000 0.45 47 12:18 21.12.2019
5774 Clouds -18 1009 70 8000 1 0 11:41 21.12.2019
5775 Clouds -18 1009 70 8000 1 0 11:23 21.12.2019
5776 Clouds -18 1009 70 8000 1 0 10:42 21.12.2019
5777 Clouds -17 1009 64 8000 1 0 10:23 21.12.2019
5778 Clouds -17 1009 64 8000 1 0 10:23 21.12.2019
5779 Clouds -16 1009 65 8000 1.4 116 09:59 21.12.2019
5780 Clouds -15 1009 54 8000 1.4 116 09:41 21.12.2019
5781 Clouds -15 1009 54 8000 1.4 116 09:20 21.12.2019
5782 Clouds -14 1009 50 8000 1.4 116 08:56 21.12.2019
5783 Clouds -15 1009 54 8000 1 0 08:37 21.12.2019
5784 Clouds -15 1009 54 8000 1 0 08:18 21.12.2019
5785 Clouds -14 1009 50 8000 1 0 07:41 21.12.2019
5786 Clouds -16 1009 54 8000 1 0 07:21 21.12.2019
5787 Clouds -17 1010 59 8000 1 0 06:43 21.12.2019
5788 Clouds -18 1010 70 6000 1 0 06:25 21.12.2019
5789 Clouds -19 1011 77 6000 1.36 124 05:47 21.12.2019
5790 Clouds -21 1011 76 8000 1.77 111 04:57 21.12.2019
5791 Clouds -25 1012 75 8000 1.77 111 03:56 21.12.2019
5792 Clouds -29 1012 68 6000 1 0 02:40 21.12.2019
5793 Clouds -30 1012 67 6000 1.94 100 01:55 21.12.2019
5794 Clouds -29 1012 68 6000 1.94 100 01:27 21.12.2019
5795 Clouds -30 1012 74 8000 1.89 99 00:51 21.12.2019
5796 Clouds -30 1013 67 8000 1.89 99 00:31 21.12.2019
5797 Clouds -30 1013 74 8000 1 0 23:56 20.12.2019
5798 Clouds -30 1013 67 8000 1.89 99 23:37 20.12.2019
5799 Clouds -30 1013 67 8000 1.76 104 23:18 20.12.2019
5800 Clouds -30 1013 67 10000 1.76 104 22:40 20.12.2019
5801 Clouds -30 1013 67 10000 1.76 104 22:21 20.12.2019
5802 Clouds -30 1014 74 10000 1.76 104 21:57 20.12.2019
5803 Clouds -30 1014 74 10000 1.76 104 21:39 20.12.2019
5804 Clouds -30 1014 74 10000 1.76 104 21:18 20.12.2019
5805 Clouds -28 1014 75 10000 1.76 104 20:39 20.12.2019
5806 Clear -28 1014 75 10000 1.24 101 20:19 20.12.2019
5807 Clear -28 1015 68 10000 1 0 19:57 20.12.2019
5808 Clear -28 1015 68 10000 1 0 19:57 20.12.2019
5809 Clear -28 1015 68 10000 1 0 19:39 20.12.2019
5810 Clear -28 1015 68 10000 1 0 19:19 20.12.2019
5811 Clear -29 1015 68 10000 1 0 18:42 20.12.2019
5812 Clear -29 1015 68 10000 1 0 18:24 20.12.2019
5813 Clear -28 1015 75 10000 1 0 17:59 20.12.2019
5814 Clear -28 1015 75 10000 1 0 17:40 20.12.2019
5815 Clear -28 1015 75 10000 1 0 17:21 20.12.2019
5816 Clear -28 1015 75 10000 1 0 17:21 20.12.2019
5817 Clear -26 1016 68 10000 1 0 16:59 20.12.2019
5818 Clear -29 1016 68 10000 1 0 16:39 20.12.2019
5819 Clear -29 1016 68 10000 1 0 16:20 20.12.2019
5820 Clear -28 1016 75 10000 0.83 119 15:56 20.12.2019
5821 Clear -29 1016 68 10000 2 170 15:38 20.12.2019
5822 Clear -29 1016 68 10000 2 170 15:19 20.12.2019
5823 Clear -26 1016 75 10000 0.83 119 14:43 20.12.2019
5824 Clear -26 1016 75 10000 0.83 119 14:25 20.12.2019
5825 Clear -26 1016 68 10000 1 0 13:59 20.12.2019
5826 Clear -25 1016 75 10000 0.3 207 13:41 20.12.2019
5827 Clear -25 1016 75 10000 0.43 228 13:20 20.12.2019
5828 Clear -23 1015 69 10000 1 0 12:57 20.12.2019
5829 Clear -23 1015 69 10000 1 0 12:37 20.12.2019
5830 Clear -23 1015 69 10000 1 0 12:19 20.12.2019
5831 Clear -25 1015 69 10000 3 160 11:58 20.12.2019
5832 Clear -23 1015 69 10000 1 0 11:39 20.12.2019
5833 Clear -23 1015 69 10000 1 0 11:18 20.12.2019
5834 Clear -23 1014 69 10000 2 150 10:57 20.12.2019
5835 Clear -23 1014 69 10000 2 150 10:57 20.12.2019
5836 Clear -19 1014 64 10000 0.99 286 10:38 20.12.2019
5837 Clear -19 1014 64 10000 0.99 286 10:20 20.12.2019
5838 Clear -17 1014 59 8000 1 0 09:44 20.12.2019
5839 Clear -15 1013 54 8000 1 0 09:22 20.12.2019
5840 Clear -15 1013 54 8000 1 0 09:22 20.12.2019
5841 Clear -16 1013 59 8000 1 0 08:59 20.12.2019
5842 Clouds -15 1013 54 6000 0.99 286 08:41 20.12.2019
5843 Clouds -15 1013 54 6000 1.37 276 08:21 20.12.2019
5844 Smoke -17 1013 64 5000 1 0 07:57 20.12.2019
5845 Smoke -17 1013 59 5000 1 0 07:38 20.12.2019
5846 Smoke -17 1013 59 5000 1 0 07:18 20.12.2019
5847 Smoke -18 1013 64 5000 1 0 06:48 20.12.2019
5848 Clouds -17 1013 59 5000 1.37 276 06:29 20.12.2019
5849 Smoke -19 1013 77 5000 1.37 276 05:49 20.12.2019
5850 Smoke -21 1013 70 4000 1 0 05:20 20.12.2019
5851 Smoke -24 1013 76 5000 0.78 282 03:50 20.12.2019
5852 Smoke -25 1013 75 4000 1 0 03:21 20.12.2019
5853 Smoke -27 1013 68 4000 1 0 02:30 20.12.2019
5854 Smoke -30 1012 67 4000 0.18 312 01:36 20.12.2019
5855 Smoke -30 1012 67 4000 0.12 299 00:58 20.12.2019
5856 Smoke -31 1012 74 5000 1 0 00:36 20.12.2019
5857 Smoke -31 1013 67 5000 1 0 23:58 19.12.2019
5858 Smoke -31 1013 67 5000 1 0 23:40 19.12.2019
5859 Smoke -31 1013 67 5000 1 0 23:21 19.12.2019
5860 Smoke -29 1013 68 5000 1 0 22:40 19.12.2019
5861 Smoke -29 1013 68 5000 1 0 22:22 19.12.2019
5862 Smoke -30 1013 67 5000 1 0 21:59 19.12.2019
5863 Smoke -30 1013 67 5000 1 0 21:59 19.12.2019
5864 Smoke -30 1013 67 5000 1 0 21:41 19.12.2019
5865 Smoke -30 1013 67 5000 1 0 21:19 19.12.2019
5866 Smoke -31 1013 67 5000 1 0 20:57 19.12.2019
5867 Smoke -31 1013 67 5000 1 0 20:38 19.12.2019
5868 Smoke -31 1013 67 5000 1 0 20:20 19.12.2019
5869 Smoke -27 1014 68 5000 0.34 119 19:58 19.12.2019
5870 Smoke -29 1014 75 5000 1 0 19:40 19.12.2019
5871 Smoke -29 1014 75 5000 1 0 19:40 19.12.2019
5872 Smoke -29 1014 75 5000 1 0 19:19 19.12.2019
5873 Smoke -29 1014 75 5000 1 0 19:19 19.12.2019
5874 Smoke -29 1014 75 5000 1 0 19:19 19.12.2019
5875 Clear -30 1014 67 6000 1 0 18:58 19.12.2019
5876 Clear -29 1014 68 6000 1 0 18:40 19.12.2019
5877 Clear -29 1014 68 6000 1 0 18:19 19.12.2019
5878 Clear -27 1015 75 6000 2 0 17:56 19.12.2019
5879 Clear -27 1015 75 6000 2 0 17:37 19.12.2019
5880 Clear -27 1015 75 6000 2 0 17:18 19.12.2019
5881 Clear -27 1015 75 6000 2 0 17:18 19.12.2019
5882 Clear -29 1015 75 6000 2 150 16:56 19.12.2019
5883 Clear -29 1015 68 6000 1 0 16:37 19.12.2019
5884 Clear -29 1015 68 6000 1 0 16:19 19.12.2019
5885 Clear -29 1015 68 6000 1 0 15:57 19.12.2019
5886 Clear -29 1016 68 6000 0.46 81 15:37 19.12.2019
5887 Clear -29 1016 68 6000 0.46 81 15:19 19.12.2019
5888 Clear -29 1016 68 6000 0.46 81 15:19 19.12.2019
5889 Clear -26 1016 75 6000 1 0 14:44 19.12.2019
5890 Clouds -28 1016 68 6000 2 170 14:20 19.12.2019
5891 Clouds -27 1016 68 6000 2 170 13:59 19.12.2019
5892 Clouds -28 1016 68 6000 1 0 13:38 19.12.2019
5893 Clouds -28 1016 68 6000 1 0 13:19 19.12.2019
5894 Clear -26 1017 75 6000 2 160 12:57 19.12.2019
5895 Clear -24 1016 76 6000 1 0 12:39 19.12.2019
5896 Clear -24 1016 76 6000 1 0 12:19 19.12.2019
5897 Smoke -26 1017 68 5000 1 0 11:58 19.12.2019
5898 Smoke -21 1017 70 5000 1 0 11:40 19.12.2019
5899 Smoke -21 1017 70 5000 1 0 11:18 19.12.2019
5900 Smoke -21 1017 70 5000 0.61 170 10:58 19.12.2019
5901 Smoke -21 1017 70 4000 2 160 10:38 19.12.2019
5902 Smoke -21 1017 70 4000 2 160 10:20 19.12.2019
5903 Smoke -21 1017 70 4000 2 160 09:54 19.12.2019
5904 Smoke -18 1017 59 4000 1 0 09:36 19.12.2019
5905 Smoke -18 1017 59 4000 1 0 09:18 19.12.2019
5906 Smoke -18 1018 70 4000 1 0 08:41 19.12.2019
5907 Smoke -18 1018 70 4000 1 0 08:20 19.12.2019
5908 Smoke -18 1018 70 4000 1 0 08:20 19.12.2019
5909 Smoke -18 1018 70 4000 1 0 07:59 19.12.2019
5910 Smoke -18 1018 64 4000 2 0 07:38 19.12.2019
5911 Smoke -18 1018 64 4000 2 0 07:38 19.12.2019
5912 Smoke -18 1018 64 4000 2 0 07:20 19.12.2019
5913 Smoke -20 1019 70 3600 1 0 06:50 19.12.2019
5914 Smoke -20 1020 76 3200 0.53 140 06:32 19.12.2019
5915 Smoke -21 1020 76 3200 0.53 140 05:57 19.12.2019
5916 Smoke -21 1020 76 3200 0.53 140 05:39 19.12.2019
5917 Smoke -22 1021 76 3600 0.94 125 04:56 19.12.2019
5918 Smoke -24 1022 76 4000 0.94 125 03:45 19.12.2019
5919 Clear -32 1022 67 6000 1 0 02:24 19.12.2019
5920 Clear -32 1023 67 6000 1 0 01:23 19.12.2019
5921 Clear -32 1023 67 8000 0.65 104 00:44 19.12.2019
5922 Clear -32 1023 67 8000 0.65 104 00:25 19.12.2019
5923 Clear -31 1023 67 10000 1 0 23:58 18.12.2019
5924 Clear -32 1023 67 10000 1 0 23:38 18.12.2019
5925 Clear -32 1023 67 10000 1 0 23:19 18.12.2019
5926 Clear -29 1023 75 10000 0.57 147 22:56 18.12.2019
5927 Clear -29 1023 75 10000 0.57 147 22:37 18.12.2019
5928 Clear -29 1023 75 10000 0.57 147 22:19 18.12.2019
5929 Clear -32 1023 67 10000 1 0 21:57 18.12.2019
5930 Clear -33 1024 67 10000 1 0 21:39 18.12.2019
5931 Clear -33 1024 67 10000 1 0 21:19 18.12.2019
5932 Clear -29 1024 75 10000 0.57 147 20:55 18.12.2019
5933 Clear -32 1024 67 10000 1 0 20:37 18.12.2019
5934 Clear -32 1024 67 10000 1 0 20:19 18.12.2019
5935 Clear -31 1024 67 10000 1 0 19:55 18.12.2019
5936 Clear -31 1024 67 10000 1 0 19:37 18.12.2019
5937 Clear -31 1024 67 10000 1 0 19:37 18.12.2019
5938 Clear -31 1024 67 10000 1 0 19:18 18.12.2019
5939 Clear -30 1025 74 10000 1 0 18:44 18.12.2019
5940 Clear -30 1025 74 10000 1 0 18:25 18.12.2019
5941 Clear -30 1025 74 10000 0.59 250 17:57 18.12.2019
5942 Clear -30 1025 67 10000 0.59 250 17:39 18.12.2019
5943 Clear -30 1025 67 10000 0.73 230 17:19 18.12.2019
5944 Clear -30 1025 67 10000 0.73 230 16:57 18.12.2019
5945 Clear -30 1025 67 10000 0.73 230 16:57 18.12.2019
5946 Clear -29 1025 68 10000 1 0 16:38 18.12.2019
5947 Clear -29 1025 68 10000 1 0 16:20 18.12.2019
5948 Clear -26 1026 75 10000 1 0 15:55 18.12.2019
5949 Clear -26 1026 75 10000 1 0 15:37 18.12.2019
5950 Clear -26 1026 75 10000 1 0 15:37 18.12.2019
5951 Clear -26 1026 75 10000 1 0 15:19 18.12.2019
5952 Clear -27 1026 75 10000 1 0 14:42 18.12.2019
5953 Clouds -27 1026 68 10000 1 0 14:22 18.12.2019
5954 Clouds -26 1026 75 10000 1 0 13:57 18.12.2019
5955 Clouds -26 1026 68 10000 2 0 13:39 18.12.2019
5956 Clouds -26 1026 68 10000 2 0 13:20 18.12.2019
5957 Clouds -26 1026 75 10000 3 160 12:58 18.12.2019
5958 Clouds -23 1025 76 10000 0.71 269 12:38 18.12.2019
5959 Clouds -23 1025 76 10000 0.71 269 12:20 18.12.2019
5960 Clouds -23 1025 76 10000 0.71 269 11:56 18.12.2019
5961 Clouds -24 1025 76 10000 2 0 11:38 18.12.2019
5962 Clear -24 1025 76 10000 2 0 11:19 18.12.2019
5963 Clear -24 1025 69 10000 2 160 10:55 18.12.2019
5964 Clear -22 1025 69 10000 2 170 10:37 18.12.2019
5965 Clear -22 1025 69 10000 2 170 10:37 18.12.2019
5966 Clear -22 1025 69 10000 2 170 10:19 18.12.2019
5967 Clear -18 1025 64 10000 1 0 09:50 18.12.2019
5968 Clear -18 1025 64 10000 1 0 09:50 18.12.2019
5969 Clear -16 1025 59 10000 1.08 279 09:18 18.12.2019
5970 Clear -16 1025 59 10000 1 0 08:41 18.12.2019
5971 Clear -16 1025 59 10000 1 0 08:22 18.12.2019
5972 Clear -16 1025 65 10000 1 0 07:43 18.12.2019
5973 Clear -18 1025 77 10000 2 0 07:23 18.12.2019
5974 Clear -18 1025 77 10000 2 0 06:56 18.12.2019
5975 Clear -18 1025 77 8000 1 0 06:27 18.12.2019
5976 Clear -17 1025 77 6000 1.55 271 05:54 18.12.2019
5977 Smoke -23 1025 69 4000 1 0 04:59 18.12.2019
5978 Smoke -29 1025 68 5000 0.8 305 02:55 18.12.2019
5979 Smoke -31 1024 67 5000 1 0 02:37 18.12.2019
5980 Smoke -31 1024 67 5000 1 0 02:18 18.12.2019
5981 Smoke -29 1024 68 5000 1 0 01:41 18.12.2019
5982 Smoke -29 1024 68 5000 1 0 01:22 18.12.2019
5983 Smoke -29 1023 75 5000 1.81 342 00:41 18.12.2019
5984 Smoke -29 1023 75 5000 1.81 342 00:23 18.12.2019
5985 Smoke -29 1023 75 5000 1.81 342 00:23 18.12.2019
5986 Clear -28 1023 68 6000 1 0 23:56 17.12.2019
5987 Clear -28 1023 68 6000 1 0 23:38 17.12.2019
5988 Clear -28 1023 68 6000 1 0 23:18 17.12.2019
5989 Clear -31 1022 67 8000 1 0 22:56 17.12.2019
5990 Clear -31 1022 67 8000 1.76 335 22:37 17.12.2019
5991 Clear -31 1022 67 8000 1.76 335 22:18 17.12.2019
5992 Clear -30 1022 67 8000 1.76 335 21:55 17.12.2019
5993 Clear -30 1022 67 8000 1.76 335 21:37 17.12.2019
5994 Clear -30 1022 67 8000 1.76 335 21:18 17.12.2019
5995 Clear -30 1022 67 8000 1 0 20:56 17.12.2019
5996 Clear -30 1022 67 8000 1 0 20:37 17.12.2019
5997 Clear -30 1022 67 8000 1 0 20:18 17.12.2019
5998 Clear -29 1022 68 8000 1 0 19:54 17.12.2019
5999 Clear -29 1022 68 8000 1 0 19:36 17.12.2019
6000 Clear -29 1022 68 8000 1 0 19:18 17.12.2019
6001 Clear -28 1022 68 10000 2 160 18:42 17.12.2019
6002 Clear -28 1022 68 10000 2 160 18:22 17.12.2019
6003 Clear -28 1022 68 10000 2 160 17:59 17.12.2019
6004 Clear -29 1023 75 10000 1 0 17:41 17.12.2019
6005 Clear -29 1023 75 10000 1 0 17:19 17.12.2019
6006 Clear -29 1023 68 10000 1 0 16:56 17.12.2019
6007 Clear -29 1023 68 10000 1 0 16:56 17.12.2019
6008 Clear -29 1023 75 10000 2 170 16:37 17.12.2019
6009 Clear -29 1023 75 10000 2 170 16:19 17.12.2019
6010 Clear -29 1023 75 10000 1 0 15:56 17.12.2019
6011 Clear -27 1023 75 10000 0.37 73 15:37 17.12.2019
6012 Clear -27 1023 75 10000 0.37 73 15:37 17.12.2019
6013 Clear -27 1023 75 10000 0.37 73 15:19 17.12.2019
6014 Clear -28 1023 68 10000 1 0 14:55 17.12.2019
6015 Clear -28 1024 75 10000 1 0 14:36 17.12.2019
6016 Clear -28 1024 75 10000 1 0 14:18 17.12.2019
6017 Clear -27 1024 75 10000 0.86 103 13:55 17.12.2019
6018 Clear -26 1024 68 10000 1 170 13:37 17.12.2019
6019 Clear -26 1024 68 10000 1 170 13:18 17.12.2019
6020 Clear -27 1024 68 10000 1 0 12:41 17.12.2019
6021 Clear -27 1024 68 10000 1 0 12:19 17.12.2019
6022 Clear -27 1024 68 10000 1 0 12:19 17.12.2019
6023 Clear -27 1024 75 10000 2 180 11:59 17.12.2019
6024 Clear -26 1024 75 10000 2 170 11:37 17.12.2019
6025 Clouds -26 1024 75 10000 1 0 11:19 17.12.2019
6026 Clouds -26 1024 75 10000 1 0 10:59 17.12.2019
6027 Clouds -21 1024 70 10000 2 260 10:41 17.12.2019
6028 Clouds -21 1024 70 10000 2 260 10:41 17.12.2019
6029 Clouds -21 1024 70 10000 2 260 10:22 17.12.2019
6030 Clouds -17 1024 64 10000 2 0 09:59 17.12.2019
6031 Clouds -16 1024 71 10000 1 0 09:41 17.12.2019
6032 Clouds -16 1024 71 10000 1 0 09:20 17.12.2019
6033 Clouds -16 1024 71 10000 1 0 08:56 17.12.2019
6034 Clouds -16 1025 71 10000 1 0 08:38 17.12.2019
6035 Clouds -16 1025 71 10000 1 0 08:19 17.12.2019
6036 Clouds -15 1025 71 10000 0.71 217 07:46 17.12.2019
6037 Clouds -15 1025 71 10000 0.71 217 07:26 17.12.2019
6038 Clouds -15 1025 71 10000 0.71 217 06:56 17.12.2019
6039 Clouds -16 1026 77 10000 0.71 217 06:35 17.12.2019
6040 -273 0 0 0 0 0 05:53 17.12.2019
6041 Smoke -18 1027 84 5000 1 0 05:34 17.12.2019
6042 Smoke -20 1028 76 5000 0.68 192 04:30 17.12.2019
6043 Clouds -25 1027 75 8000 1 0 02:34 17.12.2019
6044 Clouds -25 1027 75 8000 1 0 02:34 17.12.2019
6045 Clouds -27 1027 75 8000 1 0 01:55 17.12.2019
6046 Clear -30 1027 67 10000 1 0 00:58 17.12.2019
6047 Clear -30 1027 67 10000 1 0 00:37 17.12.2019
6048 Clear -30 1027 67 10000 1 0 00:19 17.12.2019
6049 Clear -30 1027 67 10000 1 0 23:41 16.12.2019
6050 Clear -30 1027 67 10000 1 0 23:19 16.12.2019
6051 Clear -30 1027 67 10000 1 0 22:56 16.12.2019
6052 Clear -29 1027 68 10000 0.48 333 22:37 16.12.2019
6053 Clear -29 1027 68 10000 0.48 333 22:19 16.12.2019
6054 Clear -29 1027 68 10000 1 0 21:55 16.12.2019
6055 Clear -29 1028 68 10000 1 0 21:37 16.12.2019
6056 Clear -29 1028 68 10000 1 0 21:19 16.12.2019
6057 Clear -29 1028 75 10000 2 0 20:57 16.12.2019
6058 Clear -29 1028 75 10000 2 0 20:57 16.12.2019
6059 Clear -29 1028 75 10000 2 0 20:37 16.12.2019
6060 Clear -29 1028 75 10000 2 0 20:19 16.12.2019
6061 Clear -28 1028 75 10000 1 0 19:56 16.12.2019
6062 Clear -28 1028 75 10000 1 0 19:56 16.12.2019
6063 Clear -28 1028 75 10000 1 0 19:37 16.12.2019
6064 Clear -28 1028 75 10000 1 0 19:18 16.12.2019
6065 Clear -23 1028 69 10000 1 0 18:56 16.12.2019
6066 Clear -23 1028 69 10000 1 0 18:37 16.12.2019
6067 Clear -23 1028 69 10000 1 0 18:19 16.12.2019
6068 Clear -23 1028 69 10000 1 0 18:19 16.12.2019
6069 Clear -23 1028 69 10000 1 0 17:57 16.12.2019
6070 Clear -24 1028 76 10000 1 0 17:38 16.12.2019
6071 Clear -24 1028 76 10000 1 0 17:38 16.12.2019
6072 Clear -24 1028 76 10000 1 0 17:19 16.12.2019
6073 Clear -24 1028 83 10000 2 0 16:55 16.12.2019
6074 Clear -26 1028 75 10000 2 180 16:37 16.12.2019
6075 Clear -26 1028 75 10000 2 180 16:18 16.12.2019
6076 Clear -24 1028 76 10000 1.12 323 15:57 16.12.2019
6077 Clear -25 1027 75 10000 2 200 15:37 16.12.2019
6078 Clear -25 1027 75 10000 2 200 15:19 16.12.2019
6079 Clear -27 1027 75 10000 2 170 14:54 16.12.2019
6080 Clear -24 1027 76 10000 2 170 14:36 16.12.2019
6081 Clouds -24 1027 76 10000 2 170 14:18 16.12.2019
6082 Clouds -24 1027 76 10000 2 170 14:18 16.12.2019
6083 Clouds -25 1026 75 10000 1.61 340 13:55 16.12.2019
6084 Clouds -24 1026 76 10000 1 0 13:36 16.12.2019
6085 Clouds -24 1026 76 10000 1 0 13:18 16.12.2019
6086 Clouds -24 1026 76 10000 1 0 13:18 16.12.2019
6087 Clouds -24 1026 76 10000 1 0 12:54 16.12.2019
6088 Clouds -24 1026 76 10000 1 0 12:36 16.12.2019
6089 Clouds -19 1025 70 10000 1.66 339 12:18 16.12.2019
6090 Clouds -19 1025 70 10000 1.66 339 11:55 16.12.2019
6091 Clouds -19 1025 77 10000 1 0 11:37 16.12.2019
6092 Clouds -15 1024 65 10000 4 320 11:19 16.12.2019
6093 Clouds -15 1024 71 10000 3 330 10:40 16.12.2019
6094 Clouds -15 1024 71 10000 3 330 10:21 16.12.2019
6095 Clouds -13 1024 65 10000 4 330 09:56 16.12.2019
6096 Clouds -12 1023 60 10000 4 320 09:38 16.12.2019
6097 Clouds -12 1023 60 10000 4 320 09:20 16.12.2019
6098 Clouds -11 1022 61 10000 5 330 08:40 16.12.2019
6099 Clouds -11 1022 61 10000 5 330 08:19 16.12.2019
6100 Clouds -11 1022 61 10000 6 340 07:52 16.12.2019
6101 Clouds -11 1022 61 10000 6 340 07:31 16.12.2019
6102 Clouds -11 1022 61 10000 6 340 06:57 16.12.2019
6103 Clouds -11 1022 61 10000 6 330 06:39 16.12.2019
6104 Clouds -11 1022 61 10000 6 330 06:18 16.12.2019
6105 Clouds -11 1022 66 10000 5 320 05:41 16.12.2019
6106 Clouds -11 1022 66 10000 5 320 05:22 16.12.2019
6107 Clouds -12 1021 72 10000 2 0 03:28 16.12.2019
6108 Clouds -12 1019 72 10000 4 340 01:46 16.12.2019
6109 Clouds -12 1019 78 10000 2 0 01:21 16.12.2019
6110 Clouds -13 1018 84 10000 2 300 00:39 16.12.2019
6111 Clouds -13 1018 84 10000 2 300 00:19 16.12.2019
6112 Clouds -13 1017 78 10000 3 330 23:44 15.12.2019
6113 Clouds -13 1017 78 10000 3 330 23:25 15.12.2019
6114 Clouds -12 1017 78 10000 5 330 22:57 15.12.2019
6115 Clouds -13 1017 78 10000 4 320 22:39 15.12.2019
6116 Clouds -13 1017 78 10000 4 320 22:19 15.12.2019
6117 Clouds -12 1017 72 10000 3 320 21:58 15.12.2019
6118 Clouds -11 1016 72 10000 4 320 21:39 15.12.2019
6119 Clouds -11 1016 72 10000 4 320 21:20 15.12.2019
6120 Clouds -14 1028 92 0 2.8 336 20:58 15.12.2019
6121 Clouds -14 1028 92 0 2.8 336 20:58 15.12.2019
6122 Clouds -14 1028 92 0 2.8 336 20:40 15.12.2019
6123 Clouds -14 1028 92 0 2.8 336 20:40 15.12.2019
6124 Clouds -11 1015 72 6000 2.59 340 20:22 15.12.2019
6125 Clouds -11 1015 72 6000 2.22 345 19:58 15.12.2019
6126 Clouds -11 1015 72 6000 2.22 345 19:40 15.12.2019
6127 Clouds -11 1015 72 6000 2.29 344 19:20 15.12.2019
6128 Clouds -13 1015 78 6000 2.29 344 18:58 15.12.2019
6129 Clouds -13 1015 78 6000 2.29 344 18:39 15.12.2019
6130 Clouds -13 1015 78 6000 2.22 345 18:19 15.12.2019
6131 Clouds -13 1015 78 6000 2.29 344 17:57 15.12.2019
6132 Clouds -13 1015 71 8000 2 0 17:38 15.12.2019
6133 Clouds -13 1015 71 8000 2 0 17:19 15.12.2019
6134 Clouds -13 1015 71 8000 2 0 16:59 15.12.2019
6135 Clouds -14 1015 77 8000 2.22 351 16:41 15.12.2019
6136 Clouds -14 1015 77 8000 2.13 356 16:21 15.12.2019
6137 Clouds -14 1015 77 8000 2.22 351 15:56 15.12.2019
6138 Clouds -14 1015 77 8000 2.22 351 15:56 15.12.2019
6139 Clouds -14 1015 71 8000 2.22 351 15:38 15.12.2019
6140 Clouds -14 1015 71 8000 2.22 351 15:19 15.12.2019
6141 Clouds -15 1015 77 8000 1 0 14:56 15.12.2019
6142 Clouds -15 1015 71 8000 1 0 14:37 15.12.2019
6143 Clouds -15 1015 71 8000 1 0 14:18 15.12.2019
6144 Clouds -15 1015 71 8000 1 0 14:18 15.12.2019
6145 Clouds -15 1015 71 8000 1 0 13:58 15.12.2019
6146 Clouds -16 1015 77 6000 2 150 13:37 15.12.2019
6147 Clouds -16 1015 77 6000 2 150 13:19 15.12.2019
6148 Clouds -16 1015 77 6000 2 150 12:57 15.12.2019
6149 Clouds -16 1015 77 6000 1 0 12:39 15.12.2019
6150 Clouds -16 1015 77 6000 1 0 12:20 15.12.2019
6151 Clouds -15 1015 71 6000 1.54 13 11:56 15.12.2019
6152 Clouds -14 1014 71 6000 1 0 11:36 15.12.2019
6153 Clouds -15 1015 77 6000 1 0 11:18 15.12.2019
6154 Clouds -15 1015 77 6000 1 0 10:55 15.12.2019
6155 Clouds -14 1014 71 6000 0.74 129 10:36 15.12.2019
6156 Clouds -14 1014 71 6000 0.74 129 10:18 15.12.2019
6157 Clouds -11 1014 61 8000 0.74 129 09:40 15.12.2019
6158 Clouds -11 1014 61 8000 0.74 129 09:20 15.12.2019
6159 Clouds -11 1014 61 10000 1 0 08:58 15.12.2019
6160 Clouds -11 1014 61 10000 1 0 08:39 15.12.2019
6161 Clouds -11 1014 61 10000 1 0 08:20 15.12.2019
6162 Clouds -11 1014 61 6000 1 0 07:56 15.12.2019
6163 Clouds -11 1014 61 6000 1.5 116 07:34 15.12.2019
6164 Clouds -12 1015 60 6000 1.5 116 06:51 15.12.2019
6165 Clouds -13 1015 65 6000 1.5 116 06:20 15.12.2019
6166 Clouds -15 1016 71 6000 1.5 116 05:26 15.12.2019
6167 Clouds -17 1017 84 6000 1.62 112 04:47 15.12.2019
6168 Clouds -21 1017 83 8000 1 0 03:29 15.12.2019
6169 Clouds -25 1017 75 8000 1.62 112 02:34 15.12.2019
6170 Clear -23 1016 76 8000 1 0 01:47 15.12.2019
6171 Clear -24 1016 76 8000 1 0 01:28 15.12.2019
6172 Clear -24 1016 76 8000 1.57 92 00:58 15.12.2019
6173 Clear -25 1017 75 8000 1 0 00:40 15.12.2019
6174 Clear -25 1017 75 8000 1 0 00:21 15.12.2019
6175 Clear -25 1017 75 8000 1.57 92 23:40 14.12.2019
6176 Clear -25 1017 75 8000 0.99 114 23:21 14.12.2019
6177 Clear -23 1017 76 8000 0.99 114 22:58 14.12.2019
6178 Clear -23 1017 76 8000 0.99 114 22:40 14.12.2019
6179 Clear -23 1017 76 8000 0.99 114 22:20 14.12.2019
6180 Clear -24 1017 76 10000 0.99 114 21:56 14.12.2019
6181 Clear -24 1017 76 10000 0.99 114 21:37 14.12.2019
6182 Clear -24 1017 76 10000 0.99 114 21:18 14.12.2019
6183 Clear -24 1017 76 10000 1 0 20:56 14.12.2019
6184 Clear -24 1017 76 10000 1 0 20:37 14.12.2019
6185 Clear -24 1017 76 10000 1 0 20:19 14.12.2019
6186 Clear -24 1017 76 10000 1 0 20:19 14.12.2019
6187 Clear -21 1017 83 10000 0.8 132 19:54 14.12.2019
6188 Clear -21 1017 83 10000 0.8 132 19:36 14.12.2019
6189 Clear -21 1017 83 10000 0.8 132 19:18 14.12.2019
6190 Clear -23 1016 76 10000 1 0 18:55 14.12.2019
6191 Clear -23 1016 76 10000 1 0 18:36 14.12.2019
6192 Clear -23 1016 76 10000 1 0 18:18 14.12.2019
6193 Clear -21 1016 83 10000 0.8 132 17:42 14.12.2019
6194 Clear -21 1016 83 10000 0.45 51 17:22 14.12.2019
6195 Clear -22 1016 76 10000 2 170 16:42 14.12.2019
6196 Clear -22 1016 76 10000 2 170 16:20 14.12.2019
6197 Clear -23 1016 76 10000 1 0 15:58 14.12.2019
6198 Clear -20 1015 83 10000 1 0 15:39 14.12.2019
6199 Clear -20 1015 83 10000 1 0 15:20 14.12.2019
6200 Clear -22 1015 76 10000 1 0 14:57 14.12.2019
6201 Clear -20 1015 76 10000 1 0 14:38 14.12.2019
6202 Clear -20 1015 76 10000 1 0 14:19 14.12.2019
6203 Clear -20 1015 70 10000 1 0 13:45 14.12.2019
6204 Clear -16 1015 71 10000 1 0 13:20 14.12.2019
6205 Clear -16 1015 71 10000 1 0 12:58 14.12.2019
6206 Clear -17 1015 77 10000 1 0 12:40 14.12.2019
6207 Clear -17 1015 77 10000 1 0 12:21 14.12.2019
6208 Clear -17 1014 70 10000 2 140 11:58 14.12.2019
6209 Clear -19 1014 77 10000 2 180 11:39 14.12.2019
6210 Clear -14 1013 71 10000 0.53 305 11:19 14.12.2019
6211 Clear -14 1013 71 10000 0.53 305 10:57 14.12.2019
6212 Clear -13 1013 71 8000 0.53 305 10:39 14.12.2019
6213 Clear -13 1013 71 8000 0.53 305 10:39 14.12.2019
6214 Clear -13 1013 71 8000 0.53 305 10:20 14.12.2019
6215 Clear -9 1013 56 8000 1 0 09:55 14.12.2019
6216 Clear -8 1013 57 8000 1 0 09:37 14.12.2019
6217 Clear -8 1013 57 8000 1 0 09:18 14.12.2019
6218 Clear -7 1012 52 8000 1 0 08:42 14.12.2019
6219 Clear -7 1012 52 8000 1 0 08:42 14.12.2019
6220 Clouds -7 1012 52 8000 1 0 08:19 14.12.2019
6221 Clouds -8 1012 57 8000 1 0 07:44 14.12.2019
6222 Clouds -8 1012 57 8000 1 0 07:23 14.12.2019
6223 Clouds -9 1012 61 6000 1 0 06:56 14.12.2019
6224 Clouds -9 1012 56 6000 1 0 06:37 14.12.2019
6225 Clouds -10 1013 61 6000 1 0 05:57 14.12.2019
6226 Clouds -13 1014 65 8000 1 0 04:47 14.12.2019
6227 Clouds -21 1014 83 10000 1 0 02:31 14.12.2019
6228 Clouds -19 1013 84 10000 2 98 01:49 14.12.2019
6229 Clouds -20 1013 76 10000 1.96 97 01:31 14.12.2019
6230 Clouds -19 1013 84 10000 1.96 97 00:45 14.12.2019
6231 Clouds -19 1013 84 10000 1.96 97 00:27 14.12.2019
6232 Clouds -21 1013 83 10000 1 0 23:54 13.12.2019
6233 Clouds -21 1013 83 10000 2 170 23:36 13.12.2019
6234 Clouds -19 1013 84 10000 2.34 105 23:18 13.12.2019
6235 Clouds -20 1014 76 10000 2.34 105 22:40 13.12.2019
6236 Clouds -20 1014 76 10000 2.34 105 22:19 13.12.2019
6237 Clouds -16 1014 84 10000 2.34 105 21:55 13.12.2019
6238 Clouds -16 1014 84 10000 2.34 105 21:37 13.12.2019
6239 Clouds -16 1014 84 10000 2.34 105 21:19 13.12.2019
6240 Clouds -14 1022 77 0 2.34 105 20:40 13.12.2019
6241 Clouds -12 1015 66 10000 2 0 20:21 13.12.2019
6242 Clouds -12 1015 66 10000 2 0 19:58 13.12.2019
6243 Clouds -12 1015 66 10000 2 0 19:40 13.12.2019
6244 Clouds -12 1015 66 10000 2 0 19:21 13.12.2019
6245 Clouds -7 1016 52 10000 7 140 18:58 13.12.2019
6246 Clouds -7 1016 52 10000 7 140 18:40 13.12.2019
6247 Clouds -7 1016 52 10000 7 140 18:19 13.12.2019
6248 Clouds -7 1016 52 10000 7 140 18:19 13.12.2019
6249 Clouds -6 1016 48 10000 8 140 17:42 13.12.2019
6250 Clouds -6 1016 48 10000 8 140 17:19 13.12.2019
6251 Clouds -6 1016 48 10000 8 140 17:19 13.12.2019
6252 Clouds -7 1016 52 10000 6 130 16:59 13.12.2019
6253 Clouds -6 1016 53 10000 5 160 16:39 13.12.2019
6254 Clouds -6 1016 53 10000 5 160 16:20 13.12.2019
6255 Clouds -12 1017 66 10000 2 0 15:43 13.12.2019
6256 Clouds -12 1017 66 10000 2 0 15:23 13.12.2019
6257 Clouds -17 1017 84 10000 2 0 14:58 13.12.2019
6258 Clouds -17 1017 77 10000 1 0 14:40 13.12.2019
6259 Clouds -17 1017 77 10000 1 0 14:20 13.12.2019
6260 Clouds -15 1018 84 10000 2 270 13:56 13.12.2019
6261 Clouds -15 1018 77 10000 2 0 13:37 13.12.2019
6262 Clouds -15 1018 77 10000 2 0 13:19 13.12.2019
6263 Clouds -16 1019 84 10000 2 0 12:42 13.12.2019
6264 Clouds -16 1019 84 10000 2 0 12:20 13.12.2019
6265 Clouds -16 1019 84 10000 2 0 12:20 13.12.2019
6266 Clouds -15 1019 84 10000 1 0 11:57 13.12.2019
6267 Clouds -15 1019 77 8000 2 0 11:39 13.12.2019
6268 Clouds -15 1019 77 8000 2 0 11:19 13.12.2019
6269 Clouds -14 1020 77 8000 1 0 10:41 13.12.2019
6270 Clouds -14 1020 77 8000 1 0 10:22 13.12.2019
6271 Clouds -11 1020 66 6000 2.17 115 09:54 13.12.2019
6272 Clouds -11 1020 66 6000 2.17 115 09:36 13.12.2019
6273 Clouds -11 1020 66 6000 2.17 115 09:18 13.12.2019
6274 Clouds -11 1020 66 6000 2.17 115 09:18 13.12.2019
6275 Clouds -8 1021 61 6000 2.17 115 08:40 13.12.2019
6276 Clear -8 1021 61 6000 1.9 109 08:22 13.12.2019
6277 Smoke -10 1021 72 5000 1 0 07:44 13.12.2019
6278 Smoke -10 1021 72 5000 1 0 07:20 13.12.2019
6279 Smoke -9 1021 66 5000 1.9 107 06:50 13.12.2019
6280 Smoke -11 1022 78 5000 1.9 107 06:28 13.12.2019
6281 Smoke -13 1023 84 5000 1.9 107 05:44 13.12.2019
6282 Smoke -13 1023 84 5000 1.9 107 05:24 13.12.2019
6283 Smoke -16 1023 84 5000 1 0 04:35 13.12.2019
6284 Smoke -17 1023 77 5000 1.13 116 03:30 13.12.2019
6285 Clear -23 1023 76 6000 1.13 116 02:32 13.12.2019
6286 Clouds -24 1022 69 8000 1 0 01:42 13.12.2019
6287 Clouds -25 1022 75 8000 1 0 00:53 13.12.2019
6288 Clouds -25 1022 75 8000 1 0 00:34 13.12.2019
6289 Clouds -23 1022 83 8000 1 0 23:57 12.12.2019
6290 Clouds -23 1022 76 8000 1 0 23:37 12.12.2019
6291 Clouds -23 1022 76 8000 1 0 23:19 12.12.2019
6292 Clouds -24 1022 76 8000 2 160 22:42 12.12.2019
6293 Clouds -24 1022 76 8000 2 160 22:23 12.12.2019
6294 Clouds -20 1023 76 8000 0.64 255 21:56 12.12.2019
6295 Clouds -20 1023 76 8000 0.64 255 21:38 12.12.2019
6296 Clouds -20 1023 76 8000 0.64 255 21:20 12.12.2019
6297 Clouds -21 1022 76 8000 0.64 255 20:59 12.12.2019
6298 Clouds -21 1022 76 8000 0.64 255 20:41 12.12.2019
6299 Clouds -21 1022 76 8000 0.71 263 20:23 12.12.2019
6300 Clouds -20 1022 83 8000 1.4 273 19:59 12.12.2019
6301 Clouds -20 1022 83 8000 1.4 273 19:41 12.12.2019
6302 Clouds -20 1022 83 8000 1.4 273 19:21 12.12.2019
6303 Clouds -20 1021 83 10000 1.4 273 18:58 12.12.2019
6304 Clouds -22 1021 83 10000 1 0 18:39 12.12.2019
6305 Clouds -22 1021 83 10000 1 0 18:20 12.12.2019
6306 Clouds -22 1021 83 10000 1 0 17:57 12.12.2019
6307 Clouds -19 1021 84 10000 1 0 17:39 12.12.2019
6308 Clouds -19 1021 84 10000 1 0 17:20 12.12.2019
6309 Clouds -19 1021 84 10000 1 0 16:57 12.12.2019
6310 Clouds -18 1020 77 10000 1 0 16:38 12.12.2019
6311 Clouds -18 1020 77 10000 1 0 16:20 12.12.2019
6312 Clouds -20 1020 76 10000 1 0 15:54 12.12.2019
6313 Clouds -20 1020 76 10000 1 0 15:36 12.12.2019
6314 Clouds -20 1020 76 10000 1 0 15:18 12.12.2019
6315 Clouds -19 1020 84 10000 1.21 298 14:38 12.12.2019
6316 Clouds -19 1020 84 10000 1.62 328 14:20 12.12.2019
6317 Clouds -17 1019 77 10000 1 0 13:57 12.12.2019
6318 Clouds -18 1019 77 10000 2 170 13:39 12.12.2019
6319 Clouds -18 1019 77 10000 2 170 13:21 12.12.2019
6320 Clouds -18 1019 77 10000 2 160 12:57 12.12.2019
6321 Clouds -17 1018 77 10000 1 0 12:39 12.12.2019
6322 Clouds -17 1018 77 10000 1 0 12:20 12.12.2019
6323 Clouds -17 1018 77 10000 4 170 11:56 12.12.2019
6324 Clouds -19 1017 84 10000 2 130 11:37 12.12.2019
6325 Clouds -19 1017 84 10000 2 130 11:19 12.12.2019
6326 Clouds -17 1017 70 10000 1 0 10:54 12.12.2019
6327 Clouds -15 1016 71 10000 2 160 10:36 12.12.2019
6328 Clouds -15 1016 71 10000 2 160 10:18 12.12.2019
6329 Clouds -15 1016 71 10000 2 160 10:18 12.12.2019
6330 Clouds -15 1016 71 10000 2 160 10:18 12.12.2019
6331 Clouds -10 1015 56 8000 1.65 323 09:41 12.12.2019
6332 Clouds -10 1015 56 8000 1.65 323 09:23 12.12.2019
6333 Clouds -10 1014 56 8000 1.65 323 08:56 12.12.2019
6334 Clouds -11 1014 61 6000 1 0 08:38 12.12.2019
6335 Clouds -11 1014 61 6000 1 0 08:20 12.12.2019
6336 Smoke -12 1014 60 5000 1 0 07:43 12.12.2019
6337 Smoke -13 1014 65 5000 1 0 07:24 12.12.2019
6338 Smoke -13 1014 65 5000 1 0 06:50 12.12.2019
6339 Smoke -14 1013 65 5000 1 0 06:32 12.12.2019
6340 Smoke -16 1014 71 5000 1 0 05:39 12.12.2019
6341 Smoke -18 1014 77 5000 1 0 04:51 12.12.2019
6342 Clear -20 1014 76 6000 1.18 266 03:24 12.12.2019
6343 Clear -25 1013 75 6000 1 0 02:38 12.12.2019
6344 Clear -25 1013 75 6000 1 0 02:19 12.12.2019
6345 Clear -26 1013 75 6000 1 0 01:37 12.12.2019
6346 Clear -26 1013 75 6000 1 0 01:19 12.12.2019
6347 Clear -23 1013 76 6000 1 0 00:46 12.12.2019
6348 Clear -24 1013 76 6000 1 0 00:19 12.12.2019
6349 Clear -25 1013 75 6000 2 170 23:44 11.12.2019
6350 Clear -25 1013 75 6000 2 170 23:21 11.12.2019
6351 Clear -25 1013 75 6000 2 170 22:57 11.12.2019
6352 Clear -25 1014 75 6000 1 0 22:38 11.12.2019
6353 Clear -25 1014 75 6000 1 0 22:19 11.12.2019
6354 Clear -24 1014 76 6000 0.49 99 21:57 11.12.2019
6355 Clear -24 1014 76 6000 0.49 99 21:37 11.12.2019
6356 Clear -24 1014 76 6000 0.49 99 21:19 11.12.2019
6357 Clear -24 1014 76 6000 1 0 20:56 11.12.2019
6358 Clear -24 1014 76 6000 1 0 20:56 11.12.2019
6359 Clear -24 1014 76 6000 1 0 20:37 11.12.2019
6360 Clear -24 1014 76 6000 1 0 20:37 11.12.2019
6361 Clear -24 1014 76 6000 1 0 20:19 11.12.2019
6362 Clear -24 1014 76 6000 1 0 20:19 11.12.2019
6363 Clear -24 1014 76 6000 1 0 19:57 11.12.2019
6364 Clear -23 1014 76 6000 1 0 19:38 11.12.2019
6365 Clear -23 1014 76 6000 1 0 19:18 11.12.2019
6366 Clear -24 1015 76 6000 2 160 18:40 11.12.2019
6367 Clear -24 1015 76 6000 2 160 18:21 11.12.2019
6368 Clear -24 1015 76 6000 1 0 17:57 11.12.2019
6369 Clear -24 1015 76 6000 1 0 17:57 11.12.2019
6370 Clear -24 1015 76 6000 1 0 17:39 11.12.2019
6371 Clear -24 1015 76 6000 1 0 17:18 11.12.2019
6372 Clear -24 1015 76 6000 1 0 16:57 11.12.2019
6373 Clear -23 1015 76 6000 1 0 16:38 11.12.2019
6374 Clear -23 1015 76 6000 1 0 16:38 11.12.2019
6375 Clear -23 1015 76 6000 1 0 16:38 11.12.2019
6376 Clear -23 1015 76 6000 1 0 16:20 11.12.2019
6377 Clear -24 1015 76 6000 1 0 15:58 11.12.2019
6378 Clear -22 1015 76 6000 1 0 15:39 11.12.2019
6379 Clear -22 1015 76 6000 1 0 15:20 11.12.2019
6380 Clear -22 1015 76 6000 1 0 14:56 11.12.2019
6381 Clear -21 1015 70 6000 1 0 14:37 11.12.2019
6382 Clear -21 1015 70 6000 1 0 14:37 11.12.2019
6383 Clear -21 1015 70 6000 1 0 14:19 11.12.2019
6384 Clear -22 1015 69 6000 2 160 13:54 11.12.2019
6385 Clear -20 1015 76 6000 1 0 13:36 11.12.2019
6386 Clear -20 1015 76 6000 1 0 13:18 11.12.2019
6387 Clouds -20 1015 76 6000 2 170 12:54 11.12.2019
6388 Clouds -20 1015 76 6000 2 170 12:36 11.12.2019
6389 Clouds -20 1015 76 6000 2 170 12:36 11.12.2019
6390 Clouds -20 1015 76 6000 2 170 12:18 11.12.2019
6391 Clouds -20 1015 70 10000 3 170 11:54 11.12.2019
6392 Clouds -20 1015 76 6000 1 0 11:36 11.12.2019
6393 Clouds -20 1015 76 6000 1 0 11:18 11.12.2019
6394 Clouds -19 1015 77 6000 2 180 10:40 11.12.2019
6395 Clouds -19 1015 77 6000 2 180 10:22 11.12.2019
6396 Clouds -17 1015 70 8000 3 170 09:58 11.12.2019
6397 Clouds -15 1015 65 10000 2 170 09:38 11.12.2019
6398 Clouds -15 1015 65 10000 2 170 09:19 11.12.2019
6399 Clear -13 1015 60 8000 1 0 08:56 11.12.2019
6400 Clear -12 1015 55 8000 1 0 08:37 11.12.2019
6401 Clouds -12 1015 55 8000 1 0 08:18 11.12.2019
6402 Clouds -12 1015 55 8000 0.65 134 07:43 11.12.2019
6403 Clouds -12 1015 55 8000 0.65 134 07:24 11.12.2019
6404 Clouds -14 1016 65 8000 1 0 06:46 11.12.2019
6405 Clouds -14 1017 60 8000 1 0 06:25 11.12.2019
6406 Clouds -15 1017 60 8000 1 0 05:56 11.12.2019
6407 Clouds -16 1017 65 8000 0.65 134 05:35 11.12.2019
6408 Clouds -17 1018 64 8000 1.47 96 04:51 11.12.2019
6409 Clouds -20 1018 76 8000 1 0 03:29 11.12.2019
6410 Clouds -23 1019 83 6000 1 0 02:38 11.12.2019
6411 Clouds -27 1019 75 10000 1.36 107 01:22 11.12.2019
6412 Clouds -26 1019 75 10000 2 180 00:43 11.12.2019
6413 Clouds -26 1019 75 10000 2 180 00:43 11.12.2019
6414 Clouds -26 1019 75 10000 2 180 00:19 11.12.2019
6415 Clouds -25 1020 75 10000 1.36 107 23:46 10.12.2019
6416 Clouds -24 1020 76 10000 1.36 107 23:26 10.12.2019
6417 Clear -24 1020 76 10000 1 0 22:57 10.12.2019
6418 Clear -25 1021 83 10000 1 0 22:39 10.12.2019
6419 Clear -25 1021 83 10000 1 0 22:20 10.12.2019
6420 Clear -26 1021 75 10000 0.87 133 21:54 10.12.2019
6421 Clear -26 1021 75 10000 0.87 133 21:36 10.12.2019
6422 Clear -26 1021 75 10000 0.87 133 21:18 10.12.2019
6423 Clear -24 1022 83 10000 0.87 133 20:55 10.12.2019
6424 Clear -24 1022 83 10000 0.87 133 20:36 10.12.2019
6425 Clear -24 1022 83 10000 0.42 192 20:18 10.12.2019
6426 Clear -24 1022 83 10000 0.52 191 20:18 10.12.2019
6427 Clear -24 1022 76 10000 0.42 192 19:44 10.12.2019
6428 Clear -24 1022 76 10000 0.42 192 19:26 10.12.2019
6429 Clear -24 1022 76 10000 2 170 18:59 10.12.2019
6430 Clear -24 1022 76 10000 2 170 18:39 10.12.2019
6431 Clear -24 1022 76 10000 2 170 18:19 10.12.2019
6432 Clear -26 1021 75 10000 1 0 17:55 10.12.2019
6433 Clear -26 1021 75 10000 1 0 17:36 10.12.2019
6434 Clear -26 1021 75 10000 1 0 17:36 10.12.2019
6435 Clear -26 1021 75 10000 1 0 17:18 10.12.2019
6436 Clear -22 1021 69 10000 2 0 16:42 10.12.2019
6437 Clear -22 1021 69 10000 2 0 16:20 10.12.2019
6438 Clear -23 1021 69 10000 2 0 15:54 10.12.2019
6439 Clear -24 1021 76 10000 2 0 15:36 10.12.2019
6440 Clear -24 1021 76 10000 2 0 15:18 10.12.2019
6441 Clear -24 1021 76 10000 2 0 15:18 10.12.2019
6442 Clear -20 1020 76 10000 2 0 14:54 10.12.2019
6443 Clear -24 1021 76 10000 2 0 14:36 10.12.2019
6444 Clouds -24 1021 76 10000 2 0 14:18 10.12.2019
6445 Clouds -24 1021 76 10000 2 0 14:18 10.12.2019
6446 Clouds -17 1020 77 10000 1 0 13:54 10.12.2019
6447 Clouds -17 1020 77 10000 1 0 13:36 10.12.2019
6448 Clouds -17 1020 77 10000 1 0 13:18 10.12.2019
6449 Clouds -14 1020 65 10000 3 350 12:38 10.12.2019
6450 Clouds -14 1020 65 10000 3 350 12:20 10.12.2019
6451 Clouds -15 1019 71 10000 4 340 11:42 10.12.2019
6452 Clouds -15 1019 71 10000 4 340 11:23 10.12.2019
6453 Clouds -13 1019 65 10000 5 340 10:56 10.12.2019
6454 Clouds -13 1018 71 10000 5 340 10:37 10.12.2019
6455 Clouds -13 1018 71 10000 5 340 10:19 10.12.2019
6456 Clouds -11 1018 72 10000 6 320 09:54 10.12.2019
6457 Clouds -11 1017 72 10000 6 340 09:36 10.12.2019
6458 Clouds -11 1017 72 10000 6 340 09:18 10.12.2019
6459 Snow -10 1017 66 8000 6 340 08:42 10.12.2019
6460 Snow -10 1017 66 8000 6 340 08:23 10.12.2019
6461 Snow -11 1017 72 6000 1 0 07:58 10.12.2019
6462 Clouds -11 1016 72 10000 1 0 07:40 10.12.2019
6463 Clouds -11 1016 72 10000 1 0 07:22 10.12.2019
6464 Clouds -12 1017 72 10000 2 250 06:46 10.12.2019
6465 Clouds -12 1017 72 10000 1 0 06:19 10.12.2019
6466 Clouds -13 1017 78 10000 2 0 05:53 10.12.2019
6467 Clouds -14 1017 84 10000 1 0 04:52 10.12.2019
6468 Clouds -17 1017 84 10000 1.34 285 03:37 10.12.2019
6469 Clouds -18 1017 84 10000 1 0 02:45 10.12.2019
6470 Clouds -17 1016 84 10000 2 220 01:44 10.12.2019
6471 Snow -14 1017 84 10000 1 0 01:20 10.12.2019
6472 Snow -15 1016 84 10000 1 0 00:41 10.12.2019
6473 Snow -15 1016 84 10000 1 0 00:21 10.12.2019
6474 Snow -15 1016 77 6000 1.13 256 23:41 09.12.2019
6475 Snow -15 1016 77 6000 1.13 256 23:23 09.12.2019
6476 Snow -15 1017 84 5000 1 0 22:58 09.12.2019
6477 Snow -15 1017 84 10000 1 0 22:40 09.12.2019
6478 Snow -15 1017 84 10000 1 0 22:19 09.12.2019
6479 Snow -16 1017 84 10000 1 0 21:57 09.12.2019
6480 Snow -17 1017 84 10000 1 0 21:38 09.12.2019
6481 Snow -17 1017 84 10000 1 0 21:19 09.12.2019
6482 Clouds -19 1017 77 10000 1 0 20:56 09.12.2019
6483 Clouds -19 1017 77 10000 1 0 20:38 09.12.2019
6484 Clouds -19 1017 77 10000 1 0 20:20 09.12.2019
6485 Clouds -22 1017 83 10000 1 0 19:55 09.12.2019
6486 Clouds -22 1017 83 10000 1 0 19:37 09.12.2019
6487 Clouds -22 1017 83 10000 1 0 19:19 09.12.2019
6488 Clouds -20 1017 83 10000 4 170 18:56 09.12.2019
6489 Clouds -20 1017 83 10000 4 170 18:38 09.12.2019
6490 Clouds -20 1017 83 10000 4 170 18:19 09.12.2019
6491 Clouds -20 1017 76 10000 3 160 17:57 09.12.2019
6492 Clouds -19 1017 77 10000 2 170 17:39 09.12.2019
6493 Clouds -19 1017 77 10000 2 170 17:20 09.12.2019
6494 Clouds -19 1017 77 10000 3 160 16:56 09.12.2019
6495 Clouds -21 1017 83 10000 3 150 16:37 09.12.2019
6496 Clouds -21 1017 83 10000 3 150 16:19 09.12.2019
6497 Clouds -19 1017 84 10000 3 170 15:55 09.12.2019
6498 Clouds -20 1017 83 10000 2 0 15:37 09.12.2019
6499 Clouds -20 1017 83 10000 2 0 15:19 09.12.2019
6500 Clouds -20 1016 83 10000 2 0 14:42 09.12.2019
6501 Clouds -20 1016 83 10000 2 0 14:19 09.12.2019
6502 Clouds -15 1016 84 10000 2.12 331 13:59 09.12.2019
6503 Clouds -15 1016 84 10000 2.12 331 13:39 09.12.2019
6504 Clouds -15 1016 84 10000 2.14 333 13:20 09.12.2019
6505 Clouds -17 1015 84 10000 2.14 333 12:57 09.12.2019
6506 Clouds -19 1015 84 10000 1 0 12:38 09.12.2019
6507 Clouds -19 1015 84 10000 1 0 12:20 09.12.2019
6508 Clouds -16 1014 84 8000 1 0 11:58 09.12.2019
6509 Clouds -18 1014 77 8000 2 180 11:39 09.12.2019
6510 Clouds -18 1014 77 8000 2 180 11:21 09.12.2019
6511 Clouds -14 1014 77 8000 2.07 321 10:55 09.12.2019
6512 Clouds -11 1013 66 8000 1 0 10:37 09.12.2019
6513 Clouds -11 1013 66 8000 1 0 10:18 09.12.2019
6514 Clouds -10 1012 66 6000 1 0 09:41 09.12.2019
6515 Clouds -10 1012 66 6000 1 0 09:22 09.12.2019
6516 Clouds -8 1012 57 6000 2.07 321 08:55 09.12.2019
6517 Clouds -8 1012 57 6000 2.07 321 08:55 09.12.2019
6518 Clouds -9 1012 61 6000 1 0 08:37 09.12.2019
6519 Clouds -9 1012 61 6000 1 0 08:19 09.12.2019
6520 Smoke -11 1012 61 5000 2 0 07:42 09.12.2019
6521 Smoke -11 1012 61 5000 2 0 07:24 09.12.2019
6522 Smoke -10 1012 61 5000 1.52 292 06:54 09.12.2019
6523 Smoke -11 1012 61 5000 1.52 292 06:27 09.12.2019
6524 Smoke -14 1012 71 5000 1.52 292 05:30 09.12.2019
6525 Smoke -14 1013 71 5000 1 0 04:51 09.12.2019
6526 Smoke -16 1013 77 5000 1 0 04:20 09.12.2019
6527 Smoke -21 1013 83 5000 1 0 02:27 09.12.2019
6528 Smoke -21 1012 76 5000 0.78 106 01:44 09.12.2019
6529 Clouds -22 1012 76 6000 1 0 00:55 09.12.2019
6530 Clouds -23 1012 83 6000 1 0 00:32 09.12.2019
6531 Clouds -22 1012 83 6000 1 0 23:54 08.12.2019
6532 Clouds -22 1012 76 8000 1 0 23:36 08.12.2019
6533 Clouds -22 1012 76 8000 1 0 23:18 08.12.2019
6534 Clouds -23 1012 76 8000 0.88 109 22:56 08.12.2019
6535 Clouds -22 1013 83 10000 1 0 22:37 08.12.2019
6536 Clouds -22 1013 83 10000 1 0 22:18 08.12.2019
6537 Clouds -22 1013 83 10000 1 0 21:54 08.12.2019
6538 Clouds -22 1013 83 10000 1 0 21:36 08.12.2019
6539 Clouds -22 1013 83 10000 1 0 21:18 08.12.2019
6540 Clouds -22 1014 76 10000 0.88 109 20:54 08.12.2019
6541 Clouds -22 1014 76 10000 0.88 109 20:54 08.12.2019
6542 Clouds -22 1014 76 10000 0.88 109 20:36 08.12.2019
6543 Clouds -22 1014 76 10000 0.42 37 20:18 08.12.2019
6544 Clouds -18 1014 77 10000 1 0 19:42 08.12.2019
6545 Clouds -18 1014 77 10000 1 0 19:23 08.12.2019
6546 Clouds -21 1014 83 10000 1 0 18:56 08.12.2019
6547 Clouds -21 1014 83 10000 1 0 18:37 08.12.2019
6548 Clouds -21 1014 83 10000 1 0 18:19 08.12.2019
6549 Clouds -19 1014 77 10000 1 0 17:57 08.12.2019
6550 Clouds -19 1014 77 10000 1 0 17:39 08.12.2019
6551 Clouds -19 1014 77 10000 1 0 17:20 08.12.2019
6552 Clouds -19 1014 77 10000 2 0 16:58 08.12.2019
6553 Clouds -20 1015 83 10000 1 0 16:40 08.12.2019
6554 Clouds -20 1015 83 10000 1 0 16:21 08.12.2019
6555 Clouds -20 1014 76 10000 1.04 311 15:57 08.12.2019
6556 Clouds -21 1014 76 10000 1 0 15:37 08.12.2019
6557 Clouds -21 1014 76 10000 1 0 15:18 08.12.2019
6558 Clear -21 1014 76 10000 1 0 14:44 08.12.2019
6559 Clear -19 1014 77 10000 2 140 14:24 08.12.2019
6560 Clear -21 1014 76 10000 1 0 13:59 08.12.2019
6561 Clear -21 1014 76 10000 1 0 13:40 08.12.2019
6562 Clear -21 1014 76 10000 1 0 13:22 08.12.2019
6563 Clear -19 1014 84 10000 2 160 12:58 08.12.2019
6564 Clear -19 1014 84 10000 2 160 12:58 08.12.2019
6565 Clear -17 1014 84 10000 0.76 303 12:38 08.12.2019
6566 Clear -17 1014 84 10000 0.76 303 12:18 08.12.2019
6567 Clear -17 1014 77 10000 2 0 11:57 08.12.2019
6568 Clear -17 1014 70 10000 1 0 11:37 08.12.2019
6569 Clouds -17 1014 70 10000 1 0 11:19 08.12.2019
6570 Clouds -17 1014 70 10000 2 0 10:40 08.12.2019
6571 Clouds -17 1014 70 10000 2 0 10:22 08.12.2019
6572 Clouds -10 1013 61 10000 1 0 09:58 08.12.2019
6573 Clouds -10 1013 66 8000 1 0 09:39 08.12.2019
6574 Clouds -10 1013 66 8000 1 0 09:20 08.12.2019
6575 Clouds -10 1013 66 8000 2 280 08:59 08.12.2019
6576 Clouds -9 1013 61 8000 1 0 08:41 08.12.2019
6577 Clouds -9 1013 61 8000 1 0 08:22 08.12.2019
6578 Clouds -9 1013 61 6000 0.8 236 07:49 08.12.2019
6579 Clouds -10 1013 61 6000 1 0 07:21 08.12.2019
6580 Smoke -11 1014 61 5000 1 0 06:53 08.12.2019
6581 Smoke -11 1013 61 5000 1 0 06:23 08.12.2019
6582 Smoke -11 1014 61 4000 0.8 236 05:58 08.12.2019
6583 Smoke -13 1014 65 4000 0.99 268 05:22 08.12.2019
6584 Smoke -16 1014 77 4000 0.99 268 04:20 08.12.2019
6585 Smoke -18 1014 77 5000 0.99 268 03:38 08.12.2019
6586 Clouds -21 1014 76 6000 0.99 268 02:40 08.12.2019
6587 Clouds -20 1014 76 6000 1.19 308 01:57 08.12.2019
6588 Clouds -20 1014 76 6000 1 0 01:34 08.12.2019
6589 Clouds -22 1014 76 6000 1.37 308 00:45 08.12.2019
6590 Clouds -22 1014 76 6000 1.37 308 00:21 08.12.2019
6591 Clouds -23 1014 76 6000 1 0 23:55 07.12.2019
6592 Clouds -22 1014 76 6000 1 0 23:36 07.12.2019
6593 Clear -22 1014 76 6000 1 0 23:18 07.12.2019
6594 Clear -21 1014 76 8000 1.96 329 22:54 07.12.2019
6595 Clear -23 1014 76 8000 1 0 22:36 07.12.2019
6596 Clear -23 1014 76 8000 1 0 22:36 07.12.2019
6597 Clear -23 1014 76 8000 1 0 22:18 07.12.2019
6598 Clear -21 1014 76 8000 1 0 21:54 07.12.2019
6599 Clear -21 1014 76 8000 1 0 21:36 07.12.2019
6600 Clear -21 1014 76 8000 1 0 21:18 07.12.2019
6601 Clear -20 1014 76 8000 1.96 329 20:37 07.12.2019
6602 Clear -20 1014 76 8000 1.94 339 20:19 07.12.2019
6603 Clear -24 1014 69 8000 1.94 339 19:57 07.12.2019
6604 Clear -24 1014 69 8000 1.94 339 19:39 07.12.2019
6605 Clear -24 1014 69 8000 1.94 339 19:21 07.12.2019
6606 Clear -22 1014 69 8000 1 0 18:57 07.12.2019
6607 Clear -22 1014 69 8000 1 0 18:38 07.12.2019
6608 Clear -22 1014 69 8000 1 0 18:18 07.12.2019
6609 Clear -20 1014 70 8000 1 0 17:55 07.12.2019
6610 Clear -21 1014 70 8000 2 190 17:36 07.12.2019
6611 Clear -21 1014 70 8000 2 190 17:18 07.12.2019
6612 Clear -20 1015 76 8000 1.23 334 16:54 07.12.2019
6613 Clear -20 1014 76 8000 2 130 16:36 07.12.2019
6614 Clear -20 1014 76 8000 2 130 16:18 07.12.2019
6615 Clear -21 1015 76 8000 1 0 15:40 07.12.2019
6616 Clear -21 1015 76 8000 1 0 15:22 07.12.2019
6617 Clear -20 1015 76 8000 2 160 14:43 07.12.2019
6618 Clouds -20 1015 76 8000 2 160 14:19 07.12.2019
6619 Clouds -21 1015 76 8000 1 0 13:59 07.12.2019
6620 Clouds -20 1015 76 8000 1 0 13:39 07.12.2019
6621 Clouds -20 1015 76 8000 1 0 13:39 07.12.2019
6622 Clouds -20 1015 76 8000 1 0 13:39 07.12.2019
6623 Clouds -20 1015 76 8000 1 0 13:19 07.12.2019
6624 Clouds -17 1015 70 8000 0.26 282 12:55 07.12.2019
6625 Clouds -19 1015 77 8000 2 160 12:36 07.12.2019
6626 Clouds -19 1015 77 8000 2 160 12:18 07.12.2019
6627 Clouds -18 1015 77 8000 1 0 11:41 07.12.2019
6628 Clouds -18 1015 77 8000 1 0 11:23 07.12.2019
6629 Clouds -16 1015 71 8000 2 160 10:55 07.12.2019
6630 Clouds -15 1015 65 8000 2 170 10:36 07.12.2019
6631 Clouds -15 1015 65 8000 2 170 10:18 07.12.2019
6632 Clouds -10 1015 51 8000 1 0 09:39 07.12.2019
6633 Clouds -10 1015 51 8000 1 0 09:21 07.12.2019
6634 Clouds -10 1015 51 8000 1 0 08:45 07.12.2019
6635 Clouds -10 1015 56 8000 1 0 08:25 07.12.2019
6636 Clouds -10 1016 51 8000 1 0 07:52 07.12.2019
6637 Clouds -11 1016 56 8000 1 0 07:29 07.12.2019
6638 Clouds -12 1017 55 8000 1 0 06:53 07.12.2019
6639 Clouds -12 1017 55 8000 1.5 125 06:27 07.12.2019
6640 Clouds -14 1018 60 8000 1 0 05:49 07.12.2019
6641 Clear -16 1019 77 8000 1.94 110 04:48 07.12.2019
6642 Clear -20 1020 83 8000 1.94 110 03:51 07.12.2019
6643 Clear -26 1020 83 8000 1.94 110 02:23 07.12.2019
6644 Clear -27 1020 75 8000 2.11 104 01:51 07.12.2019
6645 Clear -25 1021 75 8000 2.03 104 01:25 07.12.2019
6646 Clear -27 1021 75 8000 2.03 104 00:36 07.12.2019
6647 Clear -27 1021 75 8000 2.03 104 00:18 07.12.2019
6648 Clear -25 1021 75 8000 1 0 23:42 06.12.2019
6649 Clear -25 1021 75 8000 1 0 23:20 06.12.2019
6650 Clear -25 1022 75 6000 1 0 22:39 06.12.2019
6651 Clear -25 1022 75 6000 1 0 22:21 06.12.2019
6652 Clear -24 1023 76 6000 2.03 105 21:59 06.12.2019
6653 Clear -24 1023 76 6000 2.03 105 21:41 06.12.2019
6654 Clear -24 1023 76 6000 2.03 105 21:21 06.12.2019
6655 Clear -26 1024 75 6000 1 0 20:59 06.12.2019
6656 Clear -26 1024 75 6000 1 0 20:41 06.12.2019
6657 Clear -26 1024 75 6000 1 0 20:20 06.12.2019
6658 Clear -25 1024 69 6000 1 0 19:42 06.12.2019
6659 Clear -25 1024 69 6000 1 0 19:24 06.12.2019
6660 Clear -24 1025 76 6000 1.85 101 18:59 06.12.2019
6661 Clear -24 1025 76 6000 1.85 101 18:40 06.12.2019
6662 Clear -24 1025 76 6000 1.85 101 18:21 06.12.2019
6663 Clear -24 1025 76 6000 1.85 101 17:58 06.12.2019
6664 Clear -25 1025 83 6000 1.85 101 17:40 06.12.2019
6665 Clear -25 1025 83 6000 1.85 101 17:40 06.12.2019
6666 Clear -25 1025 83 6000 1.31 117 17:22 06.12.2019
6667 Clear -24 1025 76 6000 1 0 16:57 06.12.2019
6668 Clear -25 1025 75 6000 1 0 16:37 06.12.2019
6669 Clear -25 1025 75 6000 1 0 16:19 06.12.2019
6670 Clear -24 1026 76 6000 1.31 117 15:41 06.12.2019
6671 Clear -24 1026 76 6000 1.31 117 15:22 06.12.2019
6672 Clear -23 1026 76 6000 1.31 117 14:58 06.12.2019
6673 Clear -23 1026 76 6000 1.31 117 14:40 06.12.2019
6674 Clear -23 1026 76 6000 0.9 114 14:20 06.12.2019
6675 Clear -23 1026 76 6000 0.9 114 13:46 06.12.2019
6676 Clear -22 1027 76 6000 1 0 13:26 06.12.2019
6677 Clear -22 1027 76 6000 3 170 12:57 06.12.2019
6678 Clear -23 1027 83 6000 2 170 12:39 06.12.2019
6679 Clear -23 1027 83 6000 2 170 12:20 06.12.2019
6680 Clear -19 1027 77 6000 1 0 11:42 06.12.2019
6681 Clear -19 1027 77 6000 1 0 11:23 06.12.2019
6682 Clear -20 1027 76 6000 2 150 10:55 06.12.2019
6683 Clear -17 1027 70 6000 1 0 10:37 06.12.2019
6684 Clear -17 1027 70 6000 1 0 10:19 06.12.2019
6685 Smoke -13 1027 65 6000 0.5 158 09:55 06.12.2019
6686 Smoke -13 1027 65 6000 0.5 158 09:55 06.12.2019
6687 Smoke -12 1027 60 5000 1 0 09:36 06.12.2019
6688 Smoke -12 1027 60 5000 1 0 09:18 06.12.2019
6689 Smoke -11 1027 61 5000 1 0 08:40 06.12.2019
6690 Smoke -11 1027 61 5000 1 0 08:22 06.12.2019
6691 Smoke -12 1028 55 5000 1 0 07:38 06.12.2019
6692 Smoke -12 1028 55 5000 1 0 07:20 06.12.2019
6693 Smoke -13 1028 60 5000 1 0 06:48 06.12.2019
6694 Smoke -14 1028 65 5000 1 0 06:24 06.12.2019
6695 Smoke -15 1028 71 5000 1.03 239 05:47 06.12.2019
6696 Smoke -25 1029 75 5000 1 0 02:46 06.12.2019
6697 Smoke -27 1029 68 5000 1 0 01:45 06.12.2019
6698 Clear -26 1029 68 6000 1 0 00:51 06.12.2019
6699 Clear -27 1028 75 6000 0.7 317 00:23 06.12.2019
6700 Clear -26 1028 75 6000 1 0 23:51 05.12.2019
6701 Clear -26 1028 75 6000 2 170 23:21 05.12.2019
6702 Clear -25 1028 75 6000 1 0 22:58 05.12.2019
6703 Clear -26 1029 75 6000 1 0 22:39 05.12.2019
6704 Clear -26 1029 75 6000 1 0 22:19 05.12.2019
6705 Clear -25 1029 75 6000 1 0 21:57 05.12.2019
6706 Clear -25 1029 75 6000 1 0 21:57 05.12.2019
6707 Clear -25 1029 75 6000 1 0 21:39 05.12.2019
6708 Clear -25 1029 75 6000 1 0 21:39 05.12.2019
6709 Clear -25 1029 75 6000 1 0 21:20 05.12.2019
6710 Clear -24 1029 83 6000 1 0 20:56 05.12.2019
6711 Clear -24 1029 83 6000 1 0 20:38 05.12.2019
6712 Clear -24 1029 83 6000 1 0 20:38 05.12.2019
6713 Clear -24 1029 83 6000 1 0 20:18 05.12.2019
6714 Clear -24 1029 76 6000 1 0 19:41 05.12.2019
6715 Clear -24 1029 76 6000 1 0 19:22 05.12.2019
6716 Clear -23 1029 69 6000 1 0 18:59 05.12.2019
6717 Clear -23 1029 69 6000 1 0 18:39 05.12.2019
6718 Clear -23 1029 69 6000 1 0 18:20 05.12.2019
6719 Clear -24 1029 76 6000 1 0 17:55 05.12.2019
6720 Clear -24 1029 76 6000 1 0 17:37 05.12.2019
6721 Clear -24 1029 76 6000 1 0 17:18 05.12.2019
6722 Clear -23 1029 76 6000 1 0 16:40 05.12.2019
6723 Clear -23 1029 76 6000 1 0 16:40 05.12.2019
6724 Clear -23 1029 76 6000 1 0 16:22 05.12.2019
6725 Clear -23 1029 76 8000 2 170 15:58 05.12.2019
6726 Clear -22 1029 76 8000 2 170 15:40 05.12.2019
6727 Clear -22 1029 76 8000 2 170 15:20 05.12.2019
6728 Clear -23 1029 83 8000 2 170 14:56 05.12.2019
6729 Clear -21 1029 76 8000 1 0 14:38 05.12.2019
6730 Clouds -21 1029 76 8000 1 0 14:20 05.12.2019
6731 Clouds -21 1029 76 8000 2 160 13:58 05.12.2019
6732 Clouds -21 1029 76 8000 2 150 13:40 05.12.2019
6733 Clouds -21 1029 76 8000 2 150 13:21 05.12.2019
6734 Clouds -21 1029 76 8000 2 160 12:58 05.12.2019
6735 Clouds -21 1029 76 8000 1 0 12:39 05.12.2019
6736 Clouds -21 1029 76 8000 1 0 12:21 05.12.2019
6737 Clouds -20 1029 76 8000 3 170 11:41 05.12.2019
6738 Clouds -20 1029 76 8000 3 170 11:22 05.12.2019
6739 Clouds -19 1029 70 6000 2 140 10:59 05.12.2019
6740 Clouds -17 1029 70 6000 2 180 10:41 05.12.2019
6741 Clouds -17 1029 70 6000 2 180 10:19 05.12.2019
6742 Clouds -17 1029 70 6000 2 180 10:19 05.12.2019
6743 Clouds -13 1029 60 8000 1 0 09:57 05.12.2019
6744 Clouds -10 1029 56 8000 1 0 09:38 05.12.2019
6745 Clouds -10 1029 56 8000 1 0 09:20 05.12.2019
6746 Clouds -10 1029 56 8000 1 0 08:56 05.12.2019
6747 Clouds -11 1029 61 8000 1 0 08:37 05.12.2019
6748 Clouds -11 1029 61 8000 1 0 08:18 05.12.2019